<<back to data home page

    Month/Day/Year       Maximum   Minimum    Rel    Dew       Rainfall  Seasonal  Soil     Soil      Baro       Wind    Wind        Peak    Peak Gust  Evap     Leaf     Net
    and                  Air Temp  Air Temp   Hum    Point     Inches    Rainfall  Temp     Moisture  Pressure   Speed   Direction   Gust    Direction  Pan      Wetness  Radiation
    Local Time           Deg F     Deg F      %      Deg F               Inches    Deg F    dS/m      mbar       knots   comp deg    knots   comp deg   Inches   mV       W_m2
----------------------------------------------------------------------------------------------------------------------------------------------------------------------------------
   06/30/2016 14:00      92.5      91.1       37     61.8      0.00      8.37      84.9     0.47      1010.0     5        63         7        78        8.68     267      519.9
   06/30/2016 13:50      93.4      91.9       37     62.7      0.00      8.37      84.7     0.47      1010.0     4        25         7        21        8.68     267      523.3
   06/30/2016 13:40      93.3      92.0       37     62.7      0.00      8.37      84.8     0.47      1010.0     4        43         6        27        8.69     268      530.7
   06/30/2016 13:30      92.3      91.9       38     62.8      0.00      8.37      84.7     0.47      1010.0     4        60         7       115        8.69     268      535.5
   06/30/2016 13:20      92.5      91.3       39     63.4      0.00      8.37      84.7     0.47      1010.0     4        33         5        17        8.69     268      540.7
   06/30/2016 13:10      91.0      89.8       41     63.4      0.00      8.37      84.7     0.47      1011.0     4        35         7        81        8.69     268      547.1
   06/30/2016 13:00      90.6      89.5       41     63.1      0.00      8.37      84.5     0.47      1011.0     4        61         7        70        8.69     268      546.2
   06/30/2016 12:50      90.8      89.4       41     63.3      0.00      8.37      84.6     0.47      1011.0     4        44         6        37        8.70     268      545.6
   06/30/2016 12:40      89.8      89.0       41     62.8      0.00      8.37      84.5     0.47      1011.0     3        33         7        69        8.70     268      546.0
   06/30/2016 12:30      89.5      88.5       41     62.7      0.00      8.37      84.6     0.47      1011.0     4        52         6        19        8.70     268      544.8
   06/30/2016 12:20      89.5      88.6       41     62.4      0.00      8.37      84.5     0.47      1011.0     4        49         6        58        8.70     268      541.5
   06/30/2016 12:10      89.7      89.1       40     62.3      0.00      8.37      84.2     0.47      1011.0     5        30        10        75        8.70     268      536.9
   06/30/2016 12:00      89.7      87.5       42     62.4      0.00      8.37      84.5     0.47      1011.0     3        54         4        68        8.70     269      534.1
   06/30/2016 11:50      88.6      87.8       42     62.3      0.00      8.37      84.7     0.47      1011.0     4        46         7        64        8.70     269      527.8
   06/30/2016 11:40      87.9      87.1       43     62.3      0.00      8.37      84.6     0.47      1011.0     3        29         7        53        8.70     269      521.8
   06/30/2016 11:30      87.1      86.5       44     62.1      0.00      8.37      84.6     0.47      1011.0     4        27         5        70        8.70     269      513.6
   06/30/2016 11:20      86.6      85.1       45     62.1      0.00      8.37      84.5     0.47      1011.0     4        28         5        37        8.71     269      507.4
   06/30/2016 11:10      85.0      84.4       47     62.2      0.00      8.37      84.6     0.47      1011.0     3        21         4       352        8.71     269      497.0
   06/30/2016 11:00      84.6      83.1       48     62.1      0.00      8.37      84.5     0.47      1012.0     3        76         8        79        8.71     269      487.4
   06/30/2016 10:50      83.5      82.7       49     62.0      0.00      8.37      84.3     0.47      1012.0     4        28         5        28        8.71     271      475.8
   06/30/2016 10:40      83.0      82.1       49     61.5      0.00      8.37      84.5     0.47      1012.0     2        30         3        68        8.71     271      464.0
   06/30/2016 10:30      81.8      80.9       50     61.1      0.00      8.37      84.9     0.48      1012.0     2        23         4       359        8.71     270      450.9
   06/30/2016 10:20      80.9      80.4       51     60.8      0.00      8.37      85.0     0.48      1012.0     2        17         4        32        8.71     270      437.4
   06/30/2016 10:10      80.8      78.8       52     60.5      0.00      8.37      85.0     0.48      1012.0     2        25         3         2        8.71     271      424.6
   06/30/2016 10:00      79.0      77.7       54     60.5      0.00      8.37      85.4     0.48      1012.0     3       346         4        16        8.71     271      406.7
   06/30/2016 09:50      78.4      76.9       55     60.3      0.00      8.37      84.7     0.48      1012.0     1       119         3         6        8.72     271      389.9
   06/30/2016 09:40      77.1      76.3       57     60.3      0.00      8.37      84.8     0.48      1012.0     2        46         3        27        8.72     271      373.9
   06/30/2016 09:30      76.5      75.4       60     61.0      0.00      8.37      84.7     0.48      1012.0     2         5         3       323        8.72     272      357.9
   06/30/2016 09:20      75.7      73.8       62     61.0      0.00      8.37      85.0     0.48      1012.0     2       318         4       314        8.72     271      341.1
   06/30/2016 09:10      74.0      72.9       65     61.0      0.00      8.37      85.1     0.48      1012.0     2       343         4         1        8.73     272      326.2
   06/30/2016 09:00      73.0      72.3       66     60.7      0.00      8.37      84.8     0.48      1012.0     3        27         4        71        8.73     272      323.9
   06/30/2016 08:50      72.2      70.5       70     61.0      0.00      8.37      85.2     0.48      1012.0     2        41         3       346        8.73     271      273.7
   06/30/2016 08:40      70.4      69.8       72     60.7      0.00      8.37      85.0     0.48      1012.0     2        80         4        77        8.73     271        8.6
   06/30/2016 08:30      69.9      69.5       73     60.8      0.00      8.37      84.8     0.48      1012.0     3        74         4       141        8.73     272        2.1
   06/30/2016 08:20      69.5      69.0       74     60.7      0.00      8.37      85.1     0.48      1012.0     2        42         3        62        8.73     272       -2.1
   06/30/2016 08:10      69.1      68.4       76     60.7      0.00      8.37      85.2     0.48      1012.0     3        81         5       103        8.73     272        1.0
   06/30/2016 08:00      68.5      68.2       76     60.6      0.00      8.37      85.1     0.48      1012.0     3        88         5        80        8.73     272        4.4
   06/30/2016 07:50      68.0      67.7       77     60.6      0.00      8.37      85.2     0.48      1012.0     2        35         3        24        8.73     272        7.7
   06/30/2016 07:40      67.8      67.2       78     60.5      0.00      8.37      85.2     0.48      1012.0     2        41         3        63        8.73     272        7.8
   06/30/2016 07:30      67.3      67.1       79     60.4      0.00      8.37      85.0     0.48      1012.0     2        74         3        69        8.73     272        1.3
   06/30/2016 07:20      67.3      66.9       79     60.5      0.00      8.37      85.1     0.48      1012.0     2        37         3        44        8.73     273      -14.8
   06/30/2016 07:10      67.2      66.6       80     60.4      0.00      8.37      85.1     0.48      1012.0     2        22         4        34        8.73     273      -18.8
   06/30/2016 07:00      66.7      66.3       80     60.3      0.00      8.37      85.7     0.49      1012.0     2        18         4       353        8.73     273      -24.1
   06/30/2016 06:50      66.5      66.1       81     60.2      0.00      8.37      85.5     0.48      1012.0     2        48         4        72        8.73     273      -27.8
   06/30/2016 06:40      66.3      65.7       81     60.1      0.00      8.37      85.7     0.48      1012.0     2        51         2        36        8.74     273      -32.4
   06/30/2016 06:30      65.9      65.5       82     60.0      0.00      8.37      85.5     0.49      1012.0     2        75         3        98        8.74     273      -38.6
   06/30/2016 06:20      65.6      65.1       82     59.8      0.00      8.37      85.8     0.49      1012.0     2        72         4        50        8.74     273      -40.7
   06/30/2016 06:10      65.3      64.8       83     59.6      0.00      8.37      85.8     0.49      1011.0     1        70         2        28        8.74     273      -45.9
   06/30/2016 06:00      64.9      64.6       83     59.4      0.00      8.37      85.4     0.49      1011.0     1       100         3        82        8.74     275      -50.5
   06/30/2016 05:50      64.9      64.5       84     59.6      0.00      8.37      85.6     0.49      1011.0     0        93         0        10        8.74     274      -52.9
   06/30/2016 05:40      64.9      64.6       83     59.6      0.00      8.37      85.7     0.49      1011.0     0        91         1       104        8.74     273      -55.4
   06/30/2016 05:30      65.2      64.8       82     59.3      0.00      8.37      86.0     0.49      1011.0     1       119         1       125        8.74     273      -56.8
   06/30/2016 05:20      65.4      65.1       81     59.5      0.00      8.37      85.9     0.49      1011.0     1       106         1       115        8.74     273      -57.5
   06/30/2016 05:10      65.4      65.1       81     59.4      0.00      8.37      86.0     0.49      1011.0     1        69         2        56        8.74     272      -57.5
   06/30/2016 05:00      65.3      65.1       80     58.9      0.00      8.37      85.8     0.49      1011.0     1        54         1        68        8.74     272      -57.4
   06/30/2016 04:50      65.8      65.2       78     58.6      0.00      8.37      86.0     0.49      1011.0     1        92         3        72        8.74     272      -57.9
   06/30/2016 04:40      66.3      66.0       79     59.3      0.00      8.37      86.1     0.49      1011.0     0        89         1        82        8.74     272      -58.5
   06/30/2016 04:30      66.3      66.2       78     59.2      0.00      8.37      86.0     0.49      1011.0     1       124         1       109        8.74     271      -59.1
   06/30/2016 04:20      66.3      66.1       77     58.9      0.00      8.37      86.5     0.49      1011.0     1        76         2        74        8.74     271      -59.0
   06/30/2016 04:10      66.6      66.2       76     58.6      0.00      8.37      86.3     0.49      1011.0     0        65         1        91        8.74     271      -58.0
   06/30/2016 04:00      66.7      66.3       75     58.5      0.00      8.37      86.4     0.49      1011.0     1        62         2        75        8.74     270      -58.6
   06/30/2016 03:50      66.6      66.2       75     58.4      0.00      8.37      86.1     0.49      1011.0     1        98         2        96        8.74     271      -59.6
   06/30/2016 03:40      66.6      66.4       75     58.4      0.00      8.37      86.5     0.49      1011.0     1       113         2       136        8.74     270      -59.6
   06/30/2016 03:30      66.8      66.4       75     58.5      0.00      8.37      86.3     0.49      1011.0     1       108         2        78        8.74     271      -60.3
   06/30/2016 03:20      66.7      66.4       74     58.1      0.00      8.37      86.3     0.49      1011.0     1       120         2       126        8.74     271      -60.9
   06/30/2016 03:10      66.9      66.7       74     58.2      0.00      8.37      86.5     0.49      1011.0     1       107         1        94        8.74     270      -60.2
   06/30/2016 03:00      67.4      67.2       72     58.0      0.00      8.37      86.3     0.49      1011.0     1        96         2        99        8.75     270      -61.2
   06/30/2016 02:50      67.7      67.4       73     58.5      0.00      8.37      86.5     0.49      1011.0     1       144         1       173        8.75     270      -60.9
   06/30/2016 02:40      68.2      67.7       72     58.6      0.00      8.37      86.8     0.49      1011.0     1       135         2       124        8.75     270      -62.3
   06/30/2016 02:30      68.3      68.2       72     58.7      0.00      8.37      86.1     0.49      1011.0     1        66         1        59        8.75     270      -63.1
   06/30/2016 02:20      68.6      68.2       71     58.6      0.00      8.37      86.8     0.49      1011.0     2        72         2        63        8.75     270      -63.6
   06/30/2016 02:10      68.8      68.6       70     58.6      0.00      8.37      86.5     0.49      1011.0     1        82         2        75        8.75     270      -64.3
   06/30/2016 02:00      69.0      68.8       70     58.6      0.00      8.37      86.6     0.49      1011.0     2        88         3        79        8.75     270      -65.0
   06/30/2016 01:50      69.3      69.0       68     58.4      0.00      8.37      86.5     0.49      1011.0     2        96         2        70        8.75     270      -65.4
   06/30/2016 01:40      69.8      69.3       67     58.4      0.00      8.37      86.6     0.49      1011.0     1        81         2        82        8.75     270      -65.9
   06/30/2016 01:30      69.8      69.7       67     58.3      0.00      8.37      86.7     0.49      1011.0     2        56         3        44        8.75     270      -66.3
   06/30/2016 01:20      70.2      70.0       66     58.4      0.00      8.37      86.8     0.49      1011.0     2        58         3        72        8.75     270      -66.2
   06/30/2016 01:10      70.3      70.1       65     58.1      0.00      8.37      86.9     0.49      1011.0     1        45         2        36        8.75     270      -66.5
   06/30/2016 01:00      70.2      69.9       64     57.6      0.00      8.37      86.7     0.49      1011.0     2        50         3        75        8.75     270      -66.5
   06/30/2016 00:50      70.4      70.1       63     56.9      0.00      8.37      86.8     0.49      1011.0     1        81         2        73        8.75     269      -66.3
   06/30/2016 00:40      70.7      70.3       62     56.9      0.00      8.37      86.8     0.49      1011.0     0        68         1        10        8.75     269      -66.7
   06/30/2016 00:30      71.3      70.8       60     56.8      0.00      8.37      86.7     0.49      1012.0     1        55         1        82        8.75     269      -68.6
   06/30/2016 00:20      71.8      71.5       60     57.1      0.00      8.37      86.7     0.49      1012.0     1        90         2       124        8.76     269      -70.0
   06/30/2016 00:10      72.2      71.8       59     56.9      0.00      8.37      87.1     0.49      1011.0     1        65         3        82        8.76     269      -70.5
   06/30/2016 00:00      72.5      72.2       58     56.7      0.00      8.37      87.0     0.49      1011.0     2        52         4        91        8.76     269      -70.7
   06/29/2016 23:50      72.5      72.3       56     55.9      0.00      8.37      86.9     0.49      1011.0     2        51         3        60        8.76     269      -71.7
   06/29/2016 23:40      72.9      72.5       53     54.6      0.00      8.37      86.8     0.49      1011.0     1        77         3        77        8.76     269      -71.9
   06/29/2016 23:30      73.2      72.8       50     53.4      0.00      8.37      87.0     0.49      1011.0     2        58         3        69        8.76     269      -72.5
   06/29/2016 23:20      73.3      73.0       48     52.5      0.00      8.37      86.9     0.49      1011.0     2        57         2        88        8.76     269      -73.2
   06/29/2016 23:10      73.5      73.2       47     52.2      0.00      8.37      86.8     0.49      1011.0     1        73         2       100        8.76     269      -73.9
   06/29/2016 23:00      73.5      73.3       49     52.9      0.00      8.37      87.0     0.49      1011.0     1        85         2        96        8.76     269      -74.7
   06/29/2016 22:50      73.8      73.5       50     53.9      0.00      8.37      86.8     0.49      1011.0     1        88         3        82        8.77     269      -75.2
   06/29/2016 22:40      74.2      73.8       50     54.3      0.00      8.37      87.1     0.49      1011.0     1        81         2        96        8.77     269      -75.6
   06/29/2016 22:30      74.4      74.1       52     55.6      0.00      8.37      86.6     0.49      1011.0     1        63         2        34        8.77     268      -75.8
   06/29/2016 22:20      75.0      74.5       52     56.3      0.00      8.37      87.2     0.49      1011.0     1        54         2        28        8.77     268      -75.8
   06/29/2016 22:10      75.0      74.7       53     56.8      0.00      8.37      87.0     0.49      1011.0     2        50         3        43        8.77     268      -76.0
   06/29/2016 22:00      75.5      75.0       53     57.1      0.00      8.37      87.0     0.49      1011.0     2        62         3        72        8.77     268      -76.5
   06/29/2016 21:50      76.0      75.6       52     57.1      0.00      8.37      87.1     0.49      1011.0     2        57         4        69        8.77     268      -77.4
   06/29/2016 21:40      76.4      75.9       51     56.9      0.00      8.37      87.2     0.48      1011.0     2        56         4        72        8.78     268      -78.3
   06/29/2016 21:30      77.1      76.3       50     56.7      0.00      8.37      86.9     0.48      1010.0     3        73         5        91        8.78     268      -78.5
   06/29/2016 21:20      77.7      77.3       49     56.8      0.00      8.37      86.8     0.48      1010.0     2        83         4        62        8.78     268      -79.1
   06/29/2016 21:10      78.4      77.8       48     56.9      0.00      8.37      86.7     0.48      1010.0     2        79         3       101        8.78     268      -79.7
   06/29/2016 21:00      79.4      78.6       47     57.1      0.00      8.37      86.8     0.48      1010.0     2        80         4        71        8.79     267      -80.8
   06/29/2016 20:50      80.2      79.6       46     57.1      0.00      8.37      87.0     0.48      1010.0     2        93         3        77        8.79     267      -81.6
   06/29/2016 20:40      80.8      80.3       45     57.0      0.00      8.37      86.6     0.48      1010.0     2        83         3        83        8.79     267      -82.3
   06/29/2016 20:30      81.5      80.8       44     57.4      0.00      8.37      86.7     0.48      1010.0     2        71         3        80        8.80     267      -82.7
   06/29/2016 20:20      81.9      81.3       44     57.7      0.00      8.37      86.7     0.48      1010.0     2        70         3        76        8.80     267      -82.2
   06/29/2016 20:10      83.2      82.4       43     57.8      0.00      8.37      86.5     0.48      1010.0     2        83         3       126        8.80     267      -81.0
   06/29/2016 20:00      84.2      83.3       42     58.2      0.00      8.37      86.7     0.48      1010.0     2        61         4        78        8.81     267      -77.7
   06/29/2016 19:50      85.2      84.3       41     58.7      0.00      8.37      86.6     0.48      1010.0     3        42         3        32        8.81     267      -73.7
   06/29/2016 19:40      86.1      85.2       41     59.0      0.00      8.37      86.5     0.48      1010.0     2        50         3        74        8.82     267      -61.2
   06/29/2016 19:30      87.2      86.5       39     59.4      0.00      8.37      86.4     0.48      1010.0     2        74         4        71        8.82     266      -44.7
   06/29/2016 19:20      88.4      87.4       38     59.5      0.00      8.37      86.4     0.48      1010.0     3        71         4        81        8.82     266      -28.9
   06/29/2016 19:10      89.8      88.6       38     60.0      0.00      8.37      86.6     0.48      1010.0     3        64         6        75        8.83     266      -12.1
   06/29/2016 19:00      91.4      89.8       36     59.7      0.00      8.37      86.4     0.48      1009.0     4        65         7        96        8.83     266        6.2
   06/29/2016 18:50      92.7      91.8       34     59.5      0.00      8.37      86.3     0.48      1009.0     3        55         5        67        8.83     266       24.0
   06/29/2016 18:40      94.1      92.5       32     58.8      0.00      8.37      86.4     0.48      1009.0     3        17         5        12        8.84     266       43.9
   06/29/2016 18:30      94.7      94.3       33     61.3      0.00      8.37      86.2     0.48      1009.0     3       349         6       359        8.84     266       66.1
   06/29/2016 18:20      94.9      94.4       33     61.5      0.00      8.37      86.3     0.48      1009.0     3       305         6       304        8.84     266       88.6
   06/29/2016 18:10      95.4      94.4       32     60.2      0.00      8.37      86.2     0.48      1009.0     4       227         8       248        8.85     265      110.9
   06/29/2016 18:00      96.1      95.2       33     62.1      0.00      8.37      86.1     0.48      1009.0     3       280         8       318        8.85     265      132.0
   06/29/2016 17:50      97.3      96.2       32     62.2      0.00      8.37      86.1     0.48      1009.0     4       259         7       244        8.86     265      154.3
   06/29/2016 17:40      96.8      95.7       30     59.8      0.00      8.37      85.9     0.48      1009.0     3       201         8       222        8.86     265      177.3
   06/29/2016 17:30      96.7      95.7       29     58.3      0.00      8.37      85.8     0.48      1009.0     4       188         5       153        8.87     265      197.6
   06/29/2016 17:20      96.3      95.7       29     58.4      0.00      8.37      85.7     0.48      1009.0     5       161         9       131        8.88     265      220.5
   06/29/2016 17:10      96.9      95.5       28     58.1      0.00      8.37      85.7     0.48      1009.0     5       185         9       172        8.88     265      240.3
   06/29/2016 17:00      97.3      96.4       27     57.8      0.00      8.37      85.5     0.48      1009.0     4       169         6       147        8.89     265      259.6
   06/29/2016 16:50      97.1      96.0       28     58.5      0.00      8.37      85.8     0.48      1009.0     4       186         6       194        8.90     265      279.4
   06/29/2016 16:40      96.4      96.0       29     58.6      0.00      8.37      85.7     0.48      1009.0     4       139         6       156        8.90     265      298.0
   06/29/2016 16:30      96.7      96.0       29     58.8      0.00      8.37      85.5     0.48      1009.0     5       155         7       137        8.90     265      317.2
   06/29/2016 16:20      96.1      95.4       29     58.8      0.00      8.37      85.6     0.48      1010.0     4       191         7       203        8.91     265      337.0
   06/29/2016 16:10      96.8      96.1       28     58.5      0.00      8.37      85.3     0.48      1010.0     6       159         8       153        8.92     265      354.4
   06/29/2016 16:00      96.8      95.5       29     58.4      0.00      8.37      85.4     0.48      1010.0     6       199         8       222        8.92     266      371.8
   06/29/2016 15:50      99.1      96.5       28     59.3      0.00      8.37      85.3     0.48      1010.0     5       176        10       150        8.93     266      384.4
   06/29/2016 15:40      99.5      96.8       29     60.3      0.00      8.37      85.2     0.48      1010.0     3        68         7        70        8.93     267      399.2
   06/29/2016 15:30      98.7      98.1       29     60.8      0.00      8.37      85.2     0.47      1010.0     5        63         9        70        8.94     267      412.6
   06/29/2016 15:20      98.3      97.3       29     60.6      0.00      8.37      85.0     0.47      1010.0     4        44         6        29        8.94     267      427.9
   06/29/2016 15:10      98.9      97.6       29     60.3      0.00      8.37      85.0     0.47      1010.0     5        46         9        67        8.95     267      439.3
   06/29/2016 15:00      98.6      97.4       29     60.2      0.00      8.37      84.8     0.47      1010.0     5        36         8        14        8.95     267      450.7
   06/29/2016 14:50      98.8      97.1       28     59.9      0.00      8.37      84.9     0.47      1010.0     5        52         7        69        8.95     267      461.3
   06/29/2016 14:40      99.2      97.7       29     60.1      0.00      8.37      84.7     0.47      1011.0     4        54         6        36        8.96     267      473.6
   06/29/2016 14:30      98.0      96.6       30     60.1      0.00      8.37      84.8     0.47      1011.0     5        44         8        31        8.96     267      486.5
   06/29/2016 14:20      96.9      96.3       29     59.4      0.00      8.37      84.6     0.47      1011.0     4        36         6        54        8.96     267      497.1
   06/29/2016 14:10      96.9      95.8       29     58.5      0.00      8.37      84.7     0.47      1011.0     4        41         7        69        8.97     267      503.2
   06/29/2016 14:00      97.2      96.0       28     58.1      0.00      8.37      84.6     0.47      1011.0     5        33         7        30        8.97     268      511.3
   06/29/2016 13:50      96.9      95.2       28     57.9      0.00      8.37      84.4     0.47      1011.0     4        62         6        63        8.97     268      519.3
   06/29/2016 13:40      95.8      94.5       29     58.0      0.00      8.37      84.7     0.47      1011.0     5        85         6        96        8.97     268      526.9
   06/29/2016 13:30      95.9      94.4       31     59.8      0.00      8.37      84.5     0.47      1011.0     5        71         9        79        8.98     268      528.0
   06/29/2016 13:20      95.9      95.4       31     60.5      0.00      8.37      84.6     0.47      1011.0     5        44         6        62        8.98     269      527.9
   06/29/2016 13:10      96.1      95.4       31     60.1      0.00      8.37      84.4     0.47      1011.0     4        29         6        35        8.98     269      532.2
   06/29/2016 13:00      95.5      94.4       32     60.2      0.00      8.37      84.3     0.47      1011.0     4        55         6        89        8.98     269      534.6
   06/29/2016 12:50      95.1      94.2       32     60.3      0.00      8.37      84.3     0.47      1011.0     4         7         6       355        8.98     269      532.9
   06/29/2016 12:40      94.5      93.1       33     60.5      0.00      8.37      84.6     0.47      1012.0     3        30         4        20        8.98     269      533.3
   06/29/2016 12:30      94.6      93.4       33     60.6      0.00      8.37      84.3     0.47      1012.0     4        35         6        27        8.98     269      530.9
   06/29/2016 12:20      94.0      92.9       34     60.6      0.00      8.37      84.3     0.47      1012.0     3        34         5        68        8.98     269      530.0
   06/29/2016 12:10      92.7      91.8       35     60.7      0.00      8.37      84.4     0.47      1012.0     3        53         5        73        8.98     270      528.2
   06/29/2016 12:00      92.1      90.7       36     60.8      0.00      8.37      84.4     0.47      1012.0     3        44         5        17        8.98     270      524.3
   06/29/2016 11:50      91.2      90.4       37     60.6      0.00      8.37      84.5     0.47      1012.0     4       351         7         8        8.98     270      518.1
   06/29/2016 11:40      90.9      90.1       37     60.6      0.00      8.37      84.3     0.47      1012.0     3        43         5        81        8.99     270      514.8
   06/29/2016 11:30      90.2      89.1       37     60.5      0.00      8.37      84.3     0.47      1012.0     3        32         4        18        8.99     270      506.5
   06/29/2016 11:20      89.4      88.8       38     59.8      0.00      8.37      84.3     0.47      1012.0     3        40         6        79        8.99     270      501.1
   06/29/2016 11:10      89.4      88.2       39     60.6      0.00      8.37      84.1     0.48      1012.0     4        70         7         5        8.99     270      491.0
   06/29/2016 11:00      87.8      87.3       40     60.6      0.00      8.37      84.2     0.48      1012.0     3        37         5        64        8.99     271      481.6
   06/29/2016 10:50      87.8      86.8       41     61.1      0.00      8.37      84.4     0.48      1013.0     2        57         5       106        8.99     272      469.8
   06/29/2016 10:40      86.8      85.2       43     60.9      0.00      8.37      84.4     0.48      1013.0     2       349         4        26        8.99     272      459.8
   06/29/2016 10:30      85.6      84.3       45     61.2      0.00      8.37      84.8     0.48      1013.0     3        62         5        89        8.99     272      447.9
   06/29/2016 10:20      84.7      84.0       46     61.4      0.00      8.37      84.5     0.48      1013.0     3         9         5        62        8.99     274      432.5
   06/29/2016 10:10      83.8      83.0       48     61.6      0.00      8.37      84.7     0.48      1013.0     2       358         6       354        8.99     276      417.7
   06/29/2016 10:00      82.7      81.4       49     61.1      0.00      8.37      84.5     0.48      1013.0     3        22         4       332        8.99     279      403.2
   06/29/2016 09:50      81.4      80.5       52     61.6      0.00      8.37      84.6     0.48      1013.0     4       349         5       356        8.99     280      386.5
   06/29/2016 09:40      80.5      78.5       53     61.2      0.00      8.37      84.8     0.48      1013.0     3        47         4        69        8.99     282      374.9
   06/29/2016 09:30      78.4      77.0       57     61.0      0.00      8.37      84.7     0.48      1013.0     2        27         3        53        8.99     286      231.0
   06/29/2016 09:20      77.2      76.4       58     60.8      0.00      8.37      84.7     0.48      1013.0     2        13         4       355        8.99     287      102.5
   06/29/2016 09:10      76.6      76.1       59     61.1      0.00      8.37      84.5     0.48      1013.0     3        41         5        73        8.99     289       96.2
   06/29/2016 09:00      76.2      75.8       60     61.1      0.00      8.37      84.7     0.49      1013.0     2        12         3        40        8.99     292      162.3
   06/29/2016 08:50      75.7      74.9       62     61.2      0.00      8.37      84.7     0.49      1013.0     2       354         4       341        8.99     295      282.8
   06/29/2016 08:40      74.9      73.8       64     61.3      0.00      8.37      85.2     0.49      1013.0     1         6         3       332        8.99     297       28.9
   06/29/2016 08:30      73.9      73.4       65     61.2      0.00      8.37      84.4     0.49      1013.0     2       299         3       324        8.99     299       27.9
   06/29/2016 08:20      73.5      72.3       67     61.3      0.00      8.37      85.1     0.49      1013.0     2       345         4       322        9.00     301       21.2
   06/29/2016 08:10      72.3      71.8       69     61.2      0.00      8.37      85.3     0.49      1013.0     2       340         3       281        8.99     304       22.9
   06/29/2016 08:00      71.8      71.3       70     61.3      0.00      8.37      85.0     0.49      1013.0     2        43         3        90        9.00     304       25.1
   06/29/2016 07:50      71.5      70.8       71     61.3      0.00      8.37      85.0     0.49      1013.0     2        28         3         7        9.00     308       24.1
   06/29/2016 07:40      70.9      70.1       72     61.2      0.00      8.37      85.0     0.49      1013.0     2        20         2        37        9.00     309       14.7
   06/29/2016 07:30      70.1      69.2       74     61.1      0.00      8.37      85.3     0.49      1013.0     1        18         2       351        9.00     308        6.6
   06/29/2016 07:20      69.4      68.6       76     61.0      0.00      8.37      85.5     0.49      1013.0     1        48         2       346        9.00     310       -9.7
   06/29/2016 07:10      68.8      68.6       76     61.0      0.00      8.37      85.7     0.49      1013.0     2        89         2        79        9.00     309      -14.5
   06/29/2016 07:00      68.7      68.3       77     61.0      0.00      8.37      85.1     0.49      1013.0     1        73         2       103        9.00     310      -19.4
   06/29/2016 06:50      68.3      67.7       78     61.0      0.00      8.37      85.4     0.49      1013.0     1        69         2       100        9.00     309      -23.6
   06/29/2016 06:40      67.7      67.2       79     60.8      0.00      8.37      85.7     0.49      1013.0     1       117         2       124        9.00     309      -28.1
   06/29/2016 06:30      67.2      66.5       80     60.6      0.00      8.37      85.6     0.49      1013.0     1        46         2        22        9.00     307      -33.8
   06/29/2016 06:20      66.5      66.0       81     60.4      0.00      8.37      85.4     0.49      1013.0     0        68         1        71        9.00     306      -35.4
   06/29/2016 06:10      66.0      65.7       81     59.9      0.00      8.37      85.6     0.49      1013.0     1        69         1         0        9.00     304      -40.4
   06/29/2016 06:00      65.7      65.5       81     59.6      0.00      8.37      85.0     0.49      1013.0     1        50         1        73        9.00     302      -45.5
   06/29/2016 05:50      65.8      65.5       81     59.8      0.00      8.37      85.6     0.49      1013.0     0        71         0        98        9.00     299      -49.1
   06/29/2016 05:40      65.9      65.4       80     59.2      0.00      8.37      85.5     0.49      1013.0     1       117         1       130        9.00     298      -52.1
   06/29/2016 05:30      66.2      66.0       80     59.7      0.00      8.37      85.5     0.49      1013.0     1        30         1        10        9.00     296      -52.6
   06/29/2016 05:20      66.3      66.1       80     59.8      0.00      8.37      85.8     0.49      1013.0     1       124         2       139        9.00     297      -53.6
   06/29/2016 05:10      66.3      66.1       79     59.7      0.00      8.37      85.5     0.49      1013.0     1       148         1       163        9.01     297      -54.3
   06/29/2016 05:00      66.9      66.4       78     59.6      0.00      8.37      85.6     0.49      1013.0     1       126         2       112        9.01     295      -55.2
   06/29/2016 04:50      67.5      67.0       77     59.9      0.00      8.37      85.6     0.49      1013.0     1        79         1        75        9.01     292      -56.4
   06/29/2016 04:40      67.8      67.6       77     60.3      0.00      8.37      86.0     0.49      1013.0     2        90         3       106        9.01     290      -57.3
   06/29/2016 04:30      67.9      67.7       76     60.1      0.00      8.37      85.3     0.49      1013.0     2        99         3        74        9.01     290      -57.2
   06/29/2016 04:20      67.9      67.8       76     59.9      0.00      8.37      86.0     0.49      1013.0     2       107         3        83        9.01     288      -57.5
   06/29/2016 04:10      68.2      68.0       75     59.9      0.00      8.37      85.5     0.49      1013.0     2       105         2       124        9.01     288      -57.3
   06/29/2016 04:00      68.4      68.0       74     59.6      0.00      8.37      85.8     0.49      1013.0     2       110         2        96        9.01     287      -57.4
   06/29/2016 03:50      68.6      68.3       73     59.6      0.00      8.37      85.8     0.49      1012.0     1        91         2        79        9.01     288      -57.9
   06/29/2016 03:40      68.4      68.1       74     59.5      0.00      8.37      86.1     0.49      1012.0     2       105         2        91        9.01     287      -57.8
   06/29/2016 03:30      68.4      68.1       73     59.1      0.00      8.37      86.1     0.49      1012.0     2       111         2       109        9.02     285      -57.5
   06/29/2016 03:20      68.4      68.1       72     58.9      0.00      8.37      85.8     0.49      1012.0     1       109         2        92        9.02     284      -57.5
   06/29/2016 03:10      68.4      68.1       72     59.0      0.00      8.37      85.8     0.49      1012.0     1        99         2        74        9.02     282      -57.5
   06/29/2016 03:00      68.7      68.4       72     59.0      0.00      8.37      86.0     0.49      1013.0     1       127         1        86        9.02     280      -58.0
   06/29/2016 02:50      69.3      68.7       70     59.0      0.00      8.37      86.0     0.49      1013.0     1        94         2       103        9.02     278      -58.7
   06/29/2016 02:40      69.3      69.2       70     59.2      0.00      8.37      86.4     0.49      1013.0     1        89         1        31        9.02     277      -58.8
   06/29/2016 02:30      69.8      69.5       69     59.1      0.00      8.37      86.2     0.49      1013.0     1       106         1        48        9.02     275      -59.5
   06/29/2016 02:20      70.3      70.0       69     59.3      0.00      8.37      86.2     0.49      1013.0     1        80         1       144        9.02     275      -60.0
   06/29/2016 02:10      70.9      70.4       67     59.4      0.00      8.37      86.1     0.49      1013.0     1        98         3       342        9.02     276      -61.0
   06/29/2016 02:00      71.0      70.9       67     59.5      0.00      8.37      86.1     0.49      1013.0     2        18         3       353        9.03     275      -61.1
   06/29/2016 01:50      71.2      70.9       67     59.5      0.00      8.37      86.1     0.49      1013.0     2        39         3        64        9.03     274      -61.4
   06/29/2016 01:40      71.3      70.9       67     59.8      0.00      8.37      86.5     0.49      1013.0     2        66         6        74        9.03     274      -61.8
   06/29/2016 01:30      71.4      71.2       67     59.9      0.00      8.37      86.6     0.49      1013.0     1        58         2        52        9.03     273      -62.0
   06/29/2016 01:20      71.8      71.5       66     59.9      0.00      8.37      86.3     0.49      1013.0     2        51         3        72        9.03     272      -62.6
   06/29/2016 01:10      71.9      71.7       67     60.3      0.00      8.37      86.4     0.49      1013.0     2        66         3        81        9.03     271      -62.9
   06/29/2016 01:00      72.0      71.8       68     60.8      0.00      8.37      86.4     0.49      1013.0     2        74         3        59        9.03     271      -62.1
   06/29/2016 00:50      72.4      72.0       68     61.1      0.00      8.37      86.7     0.49      1013.0     1        65         2        75        9.03     270      -61.2
   06/29/2016 00:40      72.7      72.4       68     61.3      0.00      8.37      86.8     0.49      1013.0     1        63         2        85        9.03     270      -61.3
   06/29/2016 00:30      72.8      72.4       68     61.5      0.00      8.37      86.4     0.49      1013.0     1        52         2        48        9.04     269      -62.5
   06/29/2016 00:20      73.0      72.7       67     61.5      0.00      8.37      86.6     0.49      1013.0     1        90         2        98        9.04     269      -63.6
   06/29/2016 00:10      73.3      73.1       67     61.6      0.00      8.37      86.3     0.49      1013.0     1        63         2        10        9.04     269      -63.8
   06/29/2016 00:00      73.6      73.2       67     61.8      0.00      8.37      86.6     0.49      1013.0     2        78         3        79        9.04     269      -63.0
   06/28/2016 23:50      74.0      73.7       66     61.7      0.00      8.37      86.4     0.49      1013.0     2        64         4        60        9.04     269      -62.6
   06/28/2016 23:40      74.4      74.0       65     61.8      0.00      8.37      86.3     0.49      1013.0     2        72         4        78        9.04     269      -63.7
   06/28/2016 23:30      74.7      74.5       65     62.0      0.00      8.37      86.8     0.49      1013.0     2        46         2        44        9.04     269      -63.7
   06/28/2016 23:20      75.2      74.9       64     62.1      0.00      8.37      86.5     0.49      1013.0     1        40         2        50        9.04     270      -61.0
   06/28/2016 23:10      75.4      75.1       64     62.1      0.00      8.37      86.3     0.49      1013.0     2        42         3        87        9.05     271      -52.6
   06/28/2016 23:00      75.4      75.1       63     62.0      0.00      8.37      86.5     0.49      1013.0     2        38         2        36        9.05     271      -48.1
   06/28/2016 22:50      75.9      75.5       62     62.1      0.00      8.37      86.7     0.49      1013.0     2        34         3        23        9.05     271      -49.5
   06/28/2016 22:40      76.7      75.9       62     62.3      0.00      8.37      86.5     0.49      1013.0     2        68         4        78        9.05     271      -53.3
   06/28/2016 22:30      77.3      76.9       61     62.5      0.00      8.37      86.8     0.49      1013.0     2        51         4        71        9.05     271      -51.6
   06/28/2016 22:20      77.8      77.2       60     62.6      0.00      8.37      86.6     0.49      1013.0     2        54         3        60        9.06     271      -48.2
   06/28/2016 22:10      78.5      77.9       59     62.6      0.00      8.37      86.6     0.49      1012.0     2        30         3        35        9.06     271      -46.5
   06/28/2016 22:00      79.1      78.8       57     62.5      0.00      8.37      86.7     0.49      1012.0     1        30         2        29        9.06     270      -42.0
   06/28/2016 21:50      80.1      79.4       56     62.6      0.00      8.37      86.6     0.49      1012.0     2        52         4        58        9.06     270      -39.5
   06/28/2016 21:40      80.3      80.2       54     62.3      0.00      8.37      86.7     0.49      1012.0     2        47         3        68        9.06     271      -38.9
   06/28/2016 21:30      80.4      80.2       50     60.0      0.00      8.37      86.7     0.49      1012.0     1        71         3        78        9.06     270      -42.5
   06/28/2016 21:20      81.3      80.3       40     54.0      0.00      8.37      86.3     0.49      1012.0     1        77         2        78        9.07     270      -53.9
   06/28/2016 21:10      82.0      81.2       37     52.9      0.00      8.37      86.5     0.49      1012.0     1       116         1       194        9.07     270      -63.2
   06/28/2016 21:00      84.2      82.2       35     52.8      0.00      8.37      86.8     0.49      1012.0     1       168         2       313        9.07     270      -69.1
   06/28/2016 20:50      84.4      83.9       34     53.0      0.00      8.37      86.6     0.49      1012.0     2       284         2       292        9.07     270      -71.5
   06/28/2016 20:40      84.9      84.2       34     52.9      0.00      8.37      86.5     0.49      1012.0     1       252         3       256        9.07     270      -74.0
   06/28/2016 20:30      85.5      85.1       33     53.1      0.00      8.37      86.5     0.49      1012.0     2       248         3       280        9.07     270      -74.6
   06/28/2016 20:20      85.9      85.5       33     53.6      0.00      8.37      86.3     0.49      1012.0     3       293         4       269        9.08     270      -74.3
   06/28/2016 20:10      86.0      85.5       39     57.7      0.00      8.37      86.4     0.49      1012.0     3       305         4       287        9.08     270      -72.2
   06/28/2016 20:00      86.0      85.8       44     61.7      0.00      8.37      86.5     0.49      1012.0     1       320         2       322        9.08     270      -69.0
   06/28/2016 19:50      86.3      86.0       44     62.0      0.00      8.37      86.5     0.49      1012.0     1        11         2        32        9.08     270      -63.0
   06/28/2016 19:40      86.5      85.7       45     62.1      0.00      8.37      86.2     0.49      1012.0     1       336         1        78        9.08     270      -44.2
   06/28/2016 19:30      86.1      85.5       46     62.3      0.00      8.37      86.3     0.49      1012.0     1        43         2        35        9.09     269      -30.7
   06/28/2016 19:20      86.6      86.4       45     62.4      0.00      8.37      86.1     0.49      1012.0     1        27         2        21        9.09     269      -25.0
   06/28/2016 19:10      87.5      87.0       42     61.4      0.00      8.37      86.3     0.49      1012.0     2        19         5        13        9.09     269      -24.3
   06/28/2016 19:00      87.5      87.2       42     61.7      0.00      8.37      86.4     0.48      1012.0     1        97         3        60        9.09     269      -13.7
   06/28/2016 18:50      89.3      87.6       38     59.7      0.00      8.37      86.2     0.48      1011.0     3        22         4        55        9.09     269       -3.9
   06/28/2016 18:40      88.5      87.6       39     59.5      0.00      8.37      86.4     0.48      1011.0     2       280         4       318        9.09     269       -5.9
   06/28/2016 18:30      90.7      87.8       39     60.7      0.00      8.37      86.1     0.48      1011.0     3        79         4       124        9.10     269       -9.1
   06/28/2016 18:20      92.1      91.5       28     54.1      0.00      8.37      86.2     0.48      1011.0     5       349         7        22        9.10     269        4.8
   06/28/2016 18:10      92.6      92.2       27     53.7      0.00      8.37      86.0     0.48      1011.0     4       337         6         7        9.10     269       17.5
   06/28/2016 18:00      92.8      92.5       27     54.0      0.00      8.37      85.8     0.48      1011.0     5       303         7       318        9.11     269       12.4
   06/28/2016 17:50      93.0      92.6       27     54.4      0.00      8.37      85.9     0.48      1011.0     7       268        10       263        9.11     268        6.7
   06/28/2016 17:40      93.0      92.8       29     56.3      0.00      8.37      86.0     0.48      1011.0     6       313         9       238        9.12     268       -3.2
   06/28/2016 17:30      93.0      92.8       29     56.3      0.00      8.37      85.6     0.48      1011.0     5       225         8       230        9.12     268       -8.4
   06/28/2016 17:20      93.1      92.8       30     57.0      0.00      8.37      85.6     0.48      1011.0     6       232         8       230        9.13     268        2.6
   06/28/2016 17:10      93.1      92.5       32     58.5      0.00      8.37      85.8     0.48      1012.0     3       276         5       278        9.13     269       26.4
   06/28/2016 17:00      92.9      92.5       33     59.5      0.00      8.37      85.7     0.48      1012.0     5       310         7       305        9.13     269      115.6
   06/28/2016 16:50      93.4      92.9       33     60.1      0.00      8.37      85.5     0.48      1012.0     5       294         7       311        9.14     268       87.9
   06/28/2016 16:40      93.5      93.0       34     60.6      0.00      8.37      85.5     0.48      1012.0     4       306         8       315        9.14     269       80.9
   06/28/2016 16:30      93.1      92.4       35     60.7      0.00      8.37      85.3     0.48      1012.0     5       297         8       306        9.14     268       57.4
   06/28/2016 16:20      93.5      92.8       34     61.0      0.00      8.37      85.3     0.48      1012.0     6       308         7       307        9.14     268       35.4
   06/28/2016 16:10      94.5      93.5       34     61.1      0.00      8.37      85.3     0.48      1012.0     7       293        10       276        9.14     268       39.4
   06/28/2016 16:00      95.9      94.5       33     61.6      0.00      8.37      85.3     0.48      1012.0     6       294         8       309        9.14     268       92.7
   06/28/2016 15:50      98.4      96.3       31     61.8      0.00      8.37      85.4     0.48      1012.0     7       312        11       318        9.14     268      159.8
   06/28/2016 15:40     100.4      98.7       29     61.6      0.00      8.37      85.3     0.48      1012.0     7       305        11       299        9.14     268      302.8
   06/28/2016 15:30     101.2     100.6       27     61.4      0.00      8.37      85.3     0.48      1012.0     6       310         7       298        9.14     269      369.2
   06/28/2016 15:20     100.6      99.6       27     59.8      0.00      8.37      85.0     0.48      1012.0     3       297         5       323        9.14     268      151.0
   06/28/2016 15:10     101.9     100.2       27     60.6      0.00      8.37      85.0     0.48      1012.0     3       101         6       103        9.14     268      291.3
   06/28/2016 15:00     102.7     100.6       27     61.1      0.00      8.37      85.0     0.48      1012.0     3        44         7        72        9.14     268      531.0
   06/28/2016 14:50     100.8      99.1       28     61.2      0.00      8.37      85.0     0.48      1012.0     3        77         6        76        9.14     269      515.1
   06/28/2016 14:40     100.4      98.4       29     61.4      0.00      8.37      85.1     0.48      1012.0     3        17         5         0        9.14     269      513.8
   06/28/2016 14:30      99.4      98.6       29     61.2      0.00      8.37      84.8     0.48      1013.0     4        15         7         6        9.14     269      516.7
   06/28/2016 14:20      98.9      98.1       29     60.8      0.00      8.37      84.9     0.48      1013.0     3        52         4        71        9.14     269      436.6
   06/28/2016 14:10      98.5      97.8       30     61.1      0.00      8.37      84.6     0.48      1013.0     3        63         5        63        9.14     269      538.8
   06/28/2016 14:00      97.7      96.3       30     60.6      0.00      8.37      84.9     0.48      1013.0     3        40         6        73        9.14     270      394.2
   06/28/2016 13:50      96.6      96.3       30     60.2      0.00      8.37      84.9     0.48      1013.0     4        10         6        18        9.14     270      507.4
   06/28/2016 13:40      96.6      94.6       31     59.7      0.00      8.37      84.8     0.48      1013.0     2       124         3       101        9.14     270      511.7
   06/28/2016 13:30      95.7      93.9       31     59.6      0.00      8.37      84.7     0.48      1013.0     3        15         7       352        9.14     270      525.1
   06/28/2016 13:20      94.3      93.6       32     59.3      0.00      8.37      84.8     0.48      1013.0     3       340         5       317        9.14     271      403.0
   06/28/2016 13:10      94.5      93.4       32     59.8      0.00      8.37      84.5     0.48      1014.0     3        10         5       330        9.14     271      432.8
   06/28/2016 13:00      93.6      92.8       34     60.8      0.00      8.37      84.6     0.48      1014.0     3       360         5        33        9.14     272      452.1
   06/28/2016 12:50      92.9      92.3       36     61.7      0.00      8.37      84.8     0.48      1014.0     4        42         6        57        9.14     273      321.1
   06/28/2016 12:40      92.3      91.3       38     62.4      0.00      8.37      84.4     0.48      1014.0     3        31         4        60        9.14     274      526.4
   06/28/2016 12:30      91.8      89.8       39     62.5      0.00      8.37      84.8     0.48      1014.0     2        19         3        48        9.14     276      397.3
   06/28/2016 12:20      89.8      89.4       40     62.0      0.00      8.37      84.5     0.48      1014.0     3        10         5       341        9.14     277      245.8
   06/28/2016 12:10      89.6      89.2       39     61.4      0.00      8.37      84.5     0.48      1014.0     4       354         8       346        9.14     278      176.9
   06/28/2016 12:00      89.7      89.0       39     61.0      0.00      8.37      84.6     0.48      1014.0     4         4         6       351        9.14     279      212.6
   06/28/2016 11:50      89.8      89.3       39     61.2      0.00      8.37      84.6     0.48      1014.0     5        11         6       354        9.14     281      390.4
   06/28/2016 11:40      90.0      89.3       39     61.2      0.00      8.37      84.5     0.48      1014.0     3         5         5       350        9.14     283      352.6
   06/28/2016 11:30      90.3      89.6       39     61.4      0.00      8.37      84.5     0.48      1014.0     4        18         7         6        9.14     288      545.2
   06/28/2016 11:20      89.9      88.1       40     61.4      0.00      8.37      84.4     0.48      1014.0     4        33         8         1        9.14     295      486.7
   06/28/2016 11:10      89.0      88.4       40     61.7      0.00      8.37      84.5     0.48      1014.0     5        13         8       346        9.14     301      450.3
   06/28/2016 11:00      89.0      88.0       41     61.6      0.00      8.37      84.9     0.48      1014.0     3        37         5        19        9.14     310      420.2
   06/28/2016 10:50      89.9      88.5       38     60.4      0.00      8.37      84.9     0.48      1014.0     4        43         6       345        9.14     316      470.3
   06/28/2016 10:40      88.4      86.7       41     60.5      0.00      8.37      84.8     0.48      1014.0     3        41         5        80        9.14     326      535.4
   06/28/2016 10:30      87.0      86.0       41     60.1      0.00      8.37      84.5     0.48      1014.0     3        43         6        66        9.14     337      379.0
   06/28/2016 10:20      85.8      84.6       44     60.9      0.00      8.37      84.6     0.48      1014.0     3        68         5        70        9.14     351      479.3
   06/28/2016 10:10      84.6      83.7       49     62.7      0.00      8.37      84.8     0.48      1014.0     4        59         7        89        9.14     364      466.1
   06/28/2016 10:00      83.6      82.9       50     62.9      0.00      8.37      85.0     0.48      1014.0     4        41         6        73        9.14     375      441.7
   06/28/2016 09:50      83.1      82.1       51     62.5      0.00      8.37      85.3     0.48      1014.0     4        40         6        67        9.14     386      437.8
   06/28/2016 09:40      82.6      81.6       51     62.0      0.00      8.37      84.8     0.48      1014.0     4        38         6        91        9.14     401      424.8
   06/28/2016 09:30      81.3      79.5       53     61.4      0.00      8.37      85.8     0.49      1014.0     5        63         7        66        9.14     415      435.3
   06/28/2016 09:20      79.4      77.6       54     60.5      0.00      8.37      85.5     0.49      1014.0     4        47         6        68        9.14     421      427.5
   06/28/2016 09:10      77.8      77.2       54     59.4      0.00      8.37      85.3     0.47      1014.0     4        65         5        61        9.13     267      190.8
   06/28/2016 09:00      79.5      77.5       52     59.1      0.00      8.37      85.7     0.47      1014.0     5        90         9        91        8.99     266       68.0
   06/28/2016 08:50      79.7      78.2       50     59.0      0.00      8.37      85.4     0.47      1013.0     6       170        10       232        8.10     266       61.6
   06/28/2016 08:40      77.9      76.6       52     58.2      0.00      8.37      85.3     0.47      1013.0     7       230        11       225        8.10     266       49.8
   06/28/2016 08:30      76.4      74.6       57     58.9      0.00      8.37      85.7     0.47      1014.0     6       240        10       242        8.14     267       47.4
   06/28/2016 08:20      74.6      74.1       63     60.9      0.00      8.37      85.7     0.47      1014.0     6       236         9       232        8.15     267       28.5
   06/28/2016 08:10      74.3      73.7       61     59.8      0.00      8.37      85.8     0.47      1014.0     5       232         6       238        8.15     267       29.2
   06/28/2016 08:00      73.7      73.0       62     59.4      0.00      8.37      86.0     0.47      1014.0     3       231         5       224        8.15     267       24.2
   06/28/2016 07:50      73.0      72.6       63     59.5      0.00      8.37      85.6     0.47      1015.0     2       205         2       162        8.15     267        2.8
   06/28/2016 07:40      72.6      72.2       66     60.4      0.00      8.37      85.7     0.47      1015.0     1       133         2       152        8.15     267       15.9
   06/28/2016 07:30      72.4      72.2       68     61.0      0.00      8.37      85.8     0.47      1015.0     1       115         2       127        8.15     267       30.9
   06/28/2016 07:20      72.2      71.4       68     60.7      0.00      8.37      85.7     0.47      1015.0     1        73         1        81        8.15     267       18.6
   06/28/2016 07:10      71.4      70.6       70     60.6      0.00      8.37      85.7     0.47      1015.0     1       130         1       108        8.16     267       10.1
   06/28/2016 07:00      70.6      69.8       71     60.2      0.00      8.37      85.9     0.47      1014.0     1       181         1       126        8.16     267        0.6
   06/28/2016 06:50      69.7      69.1       72     60.1      0.00      8.37      85.5     0.47      1014.0     0       153         1       160        8.16     267       -5.7
   06/28/2016 06:40      69.2      68.7       73     60.1      0.00      8.37      85.9     0.47      1014.0     0       106         1       159        8.16     267      -23.4
   06/28/2016 06:30      68.9      68.5       73     59.9      0.00      8.37      86.0     0.47      1014.0     1       239         1       203        8.16     267      -37.7
   06/28/2016 06:20      68.6      68.2       74     60.0      0.00      8.37      86.1     0.47      1014.0     1       169         1       200        8.16     267      -43.3
   06/28/2016 06:10      68.8      68.1       75     60.3      0.00      8.37      86.0     0.47      1014.0     1       125         2       131        8.16     267      -47.3
   06/28/2016 06:00      68.4      68.0       75     60.2      0.00      8.37      85.9     0.47      1014.0     2       141         3       142        8.16     267      -48.9
   06/28/2016 05:50      68.5      68.0       75     60.1      0.00      8.37      86.2     0.47      1014.0     1       142         2       140        8.16     267      -50.8
   06/28/2016 05:40      68.5      68.0       74     59.8      0.00      8.37      86.0     0.47      1014.0     1       165         2       140        8.16     267      -52.3
   06/28/2016 05:30      68.4      68.2       75     60.1      0.00      8.37      86.2     0.47      1014.0     1       141         1       113        8.16     267      -53.3
   06/28/2016 05:20      68.6      68.3       74     60.0      0.00      8.37      86.1     0.47      1014.0     1       123         1       123        8.16     267      -54.2
   06/28/2016 05:10      68.8      68.5       74     60.1      0.00      8.37      85.9     0.47      1014.0     1       126         1       129        8.16     267      -54.3
   06/28/2016 05:00      69.0      68.6       73     59.8      0.00      8.37      86.6     0.47      1013.0     1       208         2       235        8.17     267      -54.3
   06/28/2016 04:50      69.3      69.0       74     60.4      0.00      8.37      86.1     0.47      1014.0     2       167         2       151        8.17     267      -54.6
   06/28/2016 04:40      69.5      69.2       73     60.2      0.00      8.37      86.5     0.47      1013.0     1       173         2       158        8.17     267      -54.6
   06/28/2016 04:30      69.7      69.3       71     59.8      0.00      8.37      86.5     0.47      1014.0     1       150         2       147        8.17     266      -55.0
   06/28/2016 04:20      69.6      69.3       72     60.1      0.00      8.37      86.5     0.47      1014.0     1       116         1       123        8.17     267      -55.1
   06/28/2016 04:10      69.7      69.5       72     60.0      0.00      8.37      86.2     0.47      1014.0     1       120         2       143        8.17     267      -56.1
   06/28/2016 04:00      70.0      69.6       71     60.0      0.00      8.37      86.5     0.47      1013.0     1       156         1       143        8.17     266      -56.1
   06/28/2016 03:50      70.3      70.1       71     60.3      0.00      8.37      86.6     0.47      1013.0     1       162         1       132        8.17     266      -56.2
   06/28/2016 03:40      70.5      70.2       70     60.2      0.00      8.37      86.3     0.47      1013.0     1       135         2        95        8.17     266      -56.8
   06/28/2016 03:30      70.9      70.6       69     60.1      0.00      8.37      86.9     0.47      1013.0     1       117         2       113        8.17     267      -58.1
   06/28/2016 03:20      71.3      71.0       69     60.5      0.00      8.37      86.6     0.47      1013.0     1       164         2       167        8.17     266      -58.1
   06/28/2016 03:10      71.6      71.2       68     60.5      0.00      8.37      86.6     0.47      1013.0     1        98         1       123        8.17     266      -59.3
   06/28/2016 03:00      71.9      71.7       68     60.7      0.00      8.37      86.7     0.47      1013.0     1        83         2        85        8.17     266      -59.6
   06/28/2016 02:50      72.1      72.0       68     61.0      0.00      8.37      86.6     0.47      1013.0     1        61         2        87        8.18     266      -59.5
   06/28/2016 02:40      72.3      72.0       68     60.8      0.00      8.37      86.8     0.47      1013.0     2        58         2        55        8.18     266      -59.9
   06/28/2016 02:30      72.4      72.2       67     60.8      0.00      8.37      86.7     0.47      1013.0     2        87         3        78        8.18     266      -60.6
   06/28/2016 02:20      72.6      72.4       66     60.7      0.00      8.37      86.8     0.47      1013.0     2        83         3        84        8.18     266      -60.3
   06/28/2016 02:10      72.9      72.6       65     60.4      0.00      8.37      86.7     0.47      1013.0     2        80         2        78        8.18     266      -59.1
   06/28/2016 02:00      73.1      72.7       65     60.5      0.00      8.37      86.7     0.47      1013.0     2        89         3        73        8.18     266      -58.6
   06/28/2016 01:50      73.3      73.1       65     61.0      0.00      8.37      86.6     0.47      1013.0     1        73         2        76        8.18     266      -58.9
   06/28/2016 01:40      73.6      73.2       66     61.3      0.00      8.37      86.9     0.47      1013.0     1        77         2        73        8.18     266      -59.8
   06/28/2016 01:30      74.1      73.7       65     61.4      0.00      8.37      86.7     0.47      1013.0     2        59         2        69        8.18     266      -61.2
   06/28/2016 01:20      74.5      74.1       64     61.3      0.00      8.37      86.8     0.47      1013.0     1        45         2        30        8.18     265      -62.1
   06/28/2016 01:10      74.8      74.5       63     61.4      0.00      8.37      87.1     0.47      1013.0     1        35         2        27        8.18     266      -62.4
   06/28/2016 01:00      75.1      74.7       63     61.5      0.00      8.37      86.8     0.47      1013.0     1        33         2        39        8.18     265      -62.8
   06/28/2016 00:50      75.4      75.0       63     61.7      0.00      8.37      86.7     0.47      1013.0     2        30         3        27        8.19     265      -63.3
   06/28/2016 00:40      75.5      75.2       62     61.5      0.00      8.37      86.7     0.47      1013.0     2        34         2        40        8.19     265      -62.9
   06/28/2016 00:30      75.9      75.5       61     61.3      0.00      8.37      86.9     0.47      1013.0     2        68         3        78        8.19     265      -61.7
   06/28/2016 00:20      76.5      75.9       59     61.1      0.00      8.37      86.9     0.47      1013.0     2        80         3        67        8.19     265      -61.3
   06/28/2016 00:10      76.8      76.4       59     61.1      0.00      8.37      86.8     0.47      1013.0     2        62         3        61        8.19     265      -62.1
   06/28/2016 00:00      77.7      76.9       58     61.2      0.00      8.37      87.0     0.47      1013.0     3        94         5       107        8.19     265      -63.8
   06/27/2016 23:50      78.4      77.9       56     61.0      0.00      8.37      86.7     0.47      1013.0     2        77         6        79        8.19     265      -66.1
   06/27/2016 23:40      79.1      78.5       54     60.8      0.00      8.37      86.8     0.47      1013.0     2        75         2        78        8.19     265      -67.2
   06/27/2016 23:30      79.5      79.3       53     60.8      0.00      8.37      86.7     0.47      1013.0     2        47         4        23        8.19     265      -63.0
   06/27/2016 23:20      79.7      79.4       53     60.8      0.00      8.37      86.9     0.47      1013.0     2        24         4         9        8.19     265      -51.3
   06/27/2016 23:10      80.0      79.9       52     60.8      0.00      8.37      86.8     0.47      1013.0     2        13         3        19        8.19     265      -42.8
   06/27/2016 23:00      80.2      79.9       52     60.9      0.00      8.37      86.9     0.47      1013.0     2        39         3        33        8.20     265      -41.0
   06/27/2016 22:50      80.5      80.2       51     60.8      0.00      8.37      86.5     0.47      1013.0     2        64         3        67        8.20     265      -41.0
   06/27/2016 22:40      81.0      80.7       51     60.8      0.00      8.37      86.7     0.47      1013.0     3        77         6        88        8.20     265      -40.6
   06/27/2016 22:30      81.0      80.7       51     61.1      0.00      8.37      86.6     0.47      1013.0     2       109         4        97        8.20     264      -43.4
   06/27/2016 22:20      81.4      81.0       50     60.8      0.00      8.37      86.8     0.47      1013.0     2        78         4        78        8.20     264      -45.0
   06/27/2016 22:10      81.7      81.4       49     60.6      0.00      8.37      86.6     0.47      1013.0     1        88         1        68        8.20     264      -54.2
   06/27/2016 22:00      82.0      81.7       49     60.8      0.00      8.37      86.8     0.47      1013.0     1        56         2        42        8.20     264      -62.7
   06/27/2016 21:50      82.4      82.0       49     61.4      0.00      8.37      86.9     0.47      1013.0     1        71         2       128        8.20     264      -68.2
   06/27/2016 21:40      82.5      82.3       50     61.8      0.00      8.37      86.8     0.47      1013.0     2        88         3       115        8.21     264      -71.2
   06/27/2016 21:30      82.8      82.5       49     61.6      0.00      8.37      86.7     0.47      1013.0     2       104         3        73        8.21     264      -73.7
   06/27/2016 21:20      83.8      82.9       48     61.4      0.00      8.37      86.6     0.47      1012.0     2        81         3        65        8.21     264      -75.9
   06/27/2016 21:10      84.5      84.0       46     61.4      0.00      8.37      86.4     0.47      1012.0     1        37         1       347        8.21     264      -78.8
   06/27/2016 21:00      85.3      84.5       45     61.4      0.00      8.37      86.6     0.47      1012.0     1        30         2        29        8.21     264      -80.5
   06/27/2016 20:50      85.7      85.3       44     61.1      0.00      8.37      86.6     0.47      1012.0     2        29         3       359        8.21     264      -82.2
   06/27/2016 20:40      86.5      85.8       42     60.7      0.00      8.37      86.6     0.47      1012.0     2        54         3        69        8.22     264      -83.4
   06/27/2016 20:30      87.5      86.7       41     60.7      0.00      8.37      86.5     0.47      1012.0     2        50         3        37        8.22     264      -84.8
   06/27/2016 20:20      88.9      87.6       39     60.2      0.00      8.37      86.5     0.47      1012.0     2        41         5        78        8.22     264      -83.9
   06/27/2016 20:10      91.0      89.1       36     59.4      0.00      8.37      86.4     0.47      1012.0     3        64         6        73        8.23     264      -80.7
   06/27/2016 20:00      91.6      91.0       33     58.2      0.00      8.37      86.4     0.47      1012.0     3        58         4        40        8.24     264      -71.8
   06/27/2016 19:50      92.9      91.8       33     58.9      0.00      8.37      86.4     0.47      1012.0     2       146         4       156        8.25     264      -51.9
   06/27/2016 19:40      94.1      93.3       31     58.6      0.00      8.37      86.2     0.47      1012.0     1       138         3       125        8.26     264      -29.2
   06/27/2016 19:30      94.1      93.7       30     58.2      0.00      8.37      86.2     0.47      1011.0     1       351         2        59        8.27     264      -13.3
   06/27/2016 19:20      94.0      93.4       32     59.0      0.00      8.37      86.3     0.47      1011.0     2        17         3       341        8.27     263        0.0
   06/27/2016 19:10      93.7      92.8       32     59.2      0.00      8.37      86.3     0.47      1011.0     2        31         3        56        8.27     263       12.7
   06/27/2016 19:00      93.1      92.7       32     58.9      0.00      8.37      86.0     0.47      1012.0     2        69         4        74        8.28     263       -0.4
   06/27/2016 18:50      93.6      93.1       31     58.1      0.00      8.37      86.0     0.47      1012.0     3        63         4        71        8.28     263       -0.5
   06/27/2016 18:40      95.4      93.7       29     57.7      0.00      8.37      85.8     0.47      1012.0     4        59         8        83        8.28     263        7.1
   06/27/2016 18:30      95.9      95.0       28     56.8      0.00      8.37      85.9     0.47      1012.0     4        75         6        80        8.29     263       38.6
   06/27/2016 18:20      97.1      95.3       26     56.4      0.00      8.37      85.9     0.46      1011.0     5       125         7       123        8.29     263       83.9
   06/27/2016 18:10      97.2      96.6       26     56.2      0.00      8.37      85.7     0.46      1011.0     5       139         7       145        8.29     263      142.5
   06/27/2016 18:00      97.9      97.1       25     55.6      0.00      8.37      85.8     0.46      1011.0     4       164         6       176        8.30     263      173.0
   06/27/2016 17:50      98.1      97.2       24     55.4      0.00      8.37      85.6     0.46      1011.0     4       159         6       165        8.30     263      253.4
   06/27/2016 17:40      98.5      97.0       23     54.2      0.00      8.37      85.5     0.46      1011.0     4       171         8       163        8.31     263      188.3
   06/27/2016 17:30      98.8      97.1       22     52.7      0.00      8.37      85.4     0.46      1011.0     5       185         6       176        8.31     263      230.4
   06/27/2016 17:20      98.8      97.8       22     52.9      0.00      8.37      85.4     0.46      1011.0     4       174         7       173        8.32     263      261.7
   06/27/2016 17:10      99.0      98.5       22     53.5      0.00      8.37      85.5     0.46      1011.0     5       158         6       155        8.33     263      243.0
   06/27/2016 17:00      99.8      98.5       22     53.7      0.00      8.37      85.3     0.46      1011.0     6       159         8       153        8.33     263      124.0
   06/27/2016 16:50     100.7     100.0       21     53.6      0.00      8.37      85.1     0.46      1011.0     6       177         9       142        8.34     263      334.8
   06/27/2016 16:40     100.3      99.8       22     54.1      0.00      8.37      85.2     0.46      1011.0     6       189         8       188        8.35     263      323.0
   06/27/2016 16:30     100.4      99.7       21     53.8      0.00      8.37      85.1     0.46      1011.0     6       185         8       185        8.37     263      326.8
   06/27/2016 16:20     101.2     100.3       21     53.3      0.00      8.37      84.9     0.46      1011.0     5       178         9       171        8.37     263      359.1
   06/27/2016 16:10     101.6     101.0       20     53.0      0.00      8.37      84.9     0.46      1011.0     7       180        11       178        8.38     263      363.4
   06/27/2016 16:00     103.3     100.7       23     56.8      0.00      8.37      85.0     0.46      1011.0     5        98         9       158        8.38     264      375.2
   06/27/2016 15:50     103.2     102.4       22     57.1      0.00      8.37      84.6     0.46      1011.0     5        41         9        70        8.39     265      396.9
   06/27/2016 15:40     103.3     102.5       22     56.2      0.00      8.37      84.7     0.46      1011.0     5        50         7        80        8.39     265      397.0
   06/27/2016 15:30     103.5     102.9       21     55.8      0.00      8.37      84.6     0.46      1011.0     6        54         8         8        8.39     265      403.8
   06/27/2016 15:20     103.2     102.4       22     56.0      0.00      8.37      84.7     0.46      1011.0     4        61         6        77        8.40     265      417.6
   06/27/2016 15:10     102.6     101.5       23     57.3      0.00      8.37      84.5     0.46      1012.0     4        33         6         7        8.40     265      429.9
   06/27/2016 15:00     101.8     101.0       24     57.8      0.00      8.37      84.4     0.46      1012.0     4        35         6        39        8.40     265      444.1
   06/27/2016 14:50     101.6     100.9       23     57.2      0.00      8.37      84.5     0.46      1012.0     4        41         6        70        8.41     265      456.0
   06/27/2016 14:40     101.8     101.2       23     56.7      0.00      8.37      84.3     0.46      1012.0     3        47         5        84        8.41     265      466.9
   06/27/2016 14:30     101.2     100.3       24     56.8      0.00      8.37      84.2     0.46      1012.0     5        48         6        61        8.42     265      479.0
   06/27/2016 14:20     100.3      98.8       26     58.6      0.00      8.37      84.2     0.46      1012.0     4        46         6        69        8.43     265      490.3
   06/27/2016 14:10      99.7      99.2       27     59.3      0.00      8.37      84.1     0.46      1012.0     5        12         8         3        8.43     265      497.8
   06/27/2016 14:00      99.7      98.4       28     59.9      0.00      8.37      84.0     0.46      1012.0     4        31         7       359        8.44     266      506.1
   06/27/2016 13:50      98.5      96.5       29     60.0      0.00      8.37      84.1     0.46      1013.0     4        30         6       356        8.44     266      514.1
   06/27/2016 13:40      97.1      96.4       30     60.4      0.00      8.37      84.1     0.46      1013.0     4        31         7        38        8.45     266      520.7
   06/27/2016 13:30      97.0      96.0       31     61.0      0.00      8.37      83.8     0.46      1013.0     5        36        10       356        8.45     266      527.7
   06/27/2016 13:20      97.7      95.2       31     60.9      0.00      8.37      84.0     0.46      1013.0     5        39         7        34        8.45     266      532.4
   06/27/2016 13:10      98.0      97.1       27     58.3      0.00      8.37      83.9     0.46      1013.0     4        66         6        49        8.45     266      532.9
   06/27/2016 13:00      97.1      95.9       27     56.5      0.00      8.37      83.9     0.46      1013.0     4       118         6       122        8.45     266      537.1
   06/27/2016 12:50      97.2      95.8       28     58.4      0.00      8.37      83.8     0.46      1013.0     5        84         7        79        8.46     266      537.3
   06/27/2016 12:40      96.6      95.1       32     61.1      0.00      8.37      83.9     0.46      1013.0     5        40         7        35        8.46     266      534.2
   06/27/2016 12:30      97.0      96.1       31     61.0      0.00      8.37      84.0     0.46      1013.0     5        56         8        32        8.46     266      532.7
   06/27/2016 12:20      96.8      95.3       33     62.2      0.00      8.37      83.6     0.46      1013.0     4        47         6        78        8.46     266      527.4
   06/27/2016 12:10      96.4      95.8       34     63.5      0.00      8.37      83.8     0.46      1013.0     3        35         4        26        8.46     267      524.9
   06/27/2016 12:00      96.1      94.6       35     63.2      0.00      8.37      83.7     0.46      1013.0     3        39         5        34        8.46     267      521.2
   06/27/2016 11:50      94.8      93.0       35     62.2      0.00      8.37      83.9     0.46      1013.0     3        18         4        23        8.47     267      514.5
   06/27/2016 11:40      93.9      92.7       35     61.6      0.00      8.37      83.7     0.46      1013.0     3        34         5         6        8.47     266      508.8
   06/27/2016 11:30      92.6      91.2       35     60.7      0.00      8.37      83.7     0.46      1013.0     3        21         7        28        8.47     267      502.9
   06/27/2016 11:20      91.2      90.1       37     60.8      0.00      8.37      83.8     0.46      1013.0     3        17         4        26        8.47     266      496.5
   06/27/2016 11:10      90.4      89.0       39     61.4      0.00      8.37      83.7     0.46      1013.0     3        20         5        28        8.47     267      489.2
   06/27/2016 11:00      89.4      88.6       41     62.0      0.00      8.37      83.7     0.46      1013.0     3        22         4        27        8.47     268      479.1
   06/27/2016 10:50      89.4      88.0       41     62.1      0.00      8.37      83.8     0.46      1013.0     3        30         4        26        8.48     268      471.5
   06/27/2016 10:40      87.9      87.0       43     62.4      0.00      8.37      83.9     0.46      1013.0     3        80         7        73        8.48     268      460.9
   06/27/2016 10:30      87.3      86.0       45     62.4      0.00      8.37      83.6     0.46      1013.0     3        52         5        78        8.48     268      447.1
   06/27/2016 10:20      85.9      84.5       47     62.4      0.00      8.37      83.9     0.46      1013.0     3       123         4       134        8.48     268      433.9
   06/27/2016 10:10      85.0      84.4       47     62.5      0.00      8.37      84.0     0.46      1013.0     3        54         5       106        8.48     268      418.8
   06/27/2016 10:00      85.0      83.4       48     62.3      0.00      8.37      83.9     0.46      1013.0     2        35         5       128        8.48     268      401.3
   06/27/2016 09:50      84.1      82.8       50     62.8      0.00      8.37      84.1     0.46      1013.0     2        35         3        23        8.49     268      386.4
   06/27/2016 09:40      82.9      81.5       52     62.8      0.00      8.37      83.7     0.47      1013.0     2        34         3        65        8.49     268      369.2
   06/27/2016 09:30      82.0      81.2       53     62.9      0.00      8.37      84.3     0.47      1013.0     2         4         3       315        8.50     268      352.4
   06/27/2016 09:20      80.8      79.8       55     62.9      0.00      8.37      84.6     0.47      1013.0     2        19         4        61        8.50     268      337.0
   06/27/2016 09:10      79.8      78.8       57     62.8      0.00      8.37      84.1     0.47      1014.0     2         8         4        15        8.50     268      323.7
   06/27/2016 09:00      78.9      78.3       58     62.8      0.00      8.37      83.9     0.47      1014.0     3        31         4        30        8.50     268      320.5
   06/27/2016 08:50      78.2      76.9       60     62.4      0.00      8.37      84.1     0.47      1014.0     3        64         4        85        8.50     268      303.5
   06/27/2016 08:40      76.9      76.3       62     62.4      0.00      8.37      84.2     0.47      1014.0     3        40         6        60        8.50     268       16.9
   06/27/2016 08:30      76.4      75.8       62     62.3      0.00      8.37      84.0     0.47      1014.0     2        38         4        84        8.50     268        6.2
   06/27/2016 08:20      75.9      75.0       63     62.0      0.00      8.37      84.2     0.47      1014.0     2        49         3        61        8.51     268        0.5
   06/27/2016 08:10      75.2      74.5       64     61.8      0.00      8.37      84.3     0.47      1014.0     2        13         3         5        8.51     268        2.1
   06/27/2016 08:00      74.5      73.7       66     61.7      0.00      8.37      84.2     0.47      1014.0     2        30         3       356        8.51     268        3.6
   06/27/2016 07:50      73.7      73.1       67     61.7      0.00      8.37      84.4     0.47      1014.0     2        40         3       356        8.51     268        6.1
   06/27/2016 07:40      73.3      72.5       68     61.8      0.00      8.37      84.4     0.47      1013.0     2        16         3         5        8.51     268       12.8
   06/27/2016 07:30      72.5      71.6       69     61.4      0.00      8.37      84.2     0.47      1013.0     1        27         2       354        8.51     268        1.4
   06/27/2016 07:20      71.6      70.8       71     61.1      0.00      8.37      84.6     0.47      1013.0     1        40         1       137        8.51     268      -15.7
   06/27/2016 07:10      70.7      69.7       72     61.0      0.00      8.37      84.5     0.47      1013.0     0       285         1       306        8.51     268      -18.2
   06/27/2016 07:00      69.9      69.0       74     60.9      0.00      8.37      85.0     0.47      1013.0     0       125         1       126        8.51     268      -22.8
   06/27/2016 06:50      69.2      67.8       77     61.0      0.00      8.37      84.6     0.47      1013.0     1        91         1       114        8.51     268      -25.6
   06/27/2016 06:40      67.8      66.6       80     60.8      0.00      8.37      84.1     0.47      1013.0     0       109         1        90        8.51     267      -28.7
   06/27/2016 06:30      66.5      65.8       82     60.5      0.00      8.37      84.4     0.47      1013.0     1       130         1       123        8.51     268      -35.5
   06/27/2016 06:20      66.0      65.4       83     60.5      0.00      8.37      84.4     0.47      1013.0     0       160         1       144        8.51     268      -37.1
   06/27/2016 06:10      65.5      65.1       84     60.3      0.00      8.37      84.7     0.47      1013.0     1       194         1       188        8.51     267      -42.1
   06/27/2016 06:00      65.2      64.8       84     59.9      0.00      8.37      84.9     0.47      1013.0     1       184         1       240        8.51     267      -47.2
   06/27/2016 05:50      65.1      64.8       82     59.2      0.00      8.37      84.9     0.47      1013.0     1       166         2       168        8.51     267      -52.5
   06/27/2016 05:40      65.4      65.1       83     59.9      0.00      8.37      84.4     0.47      1013.0     2       144         3       138        8.51     267      -54.0
   06/27/2016 05:30      65.4      65.2       83     59.9      0.00      8.37      84.8     0.47      1013.0     1       167         1       159        8.51     267      -54.1
   06/27/2016 05:20      65.5      65.2       82     59.6      0.00      8.37      84.7     0.47      1013.0     1       200         2       237        8.51     267      -54.3
   06/27/2016 05:10      65.5      65.2       82     59.7      0.00      8.37      85.1     0.47      1013.0     1       177         2       129        8.51     267      -55.1
   06/27/2016 05:00      65.8      65.5       81     59.7      0.00      8.37      84.9     0.47      1013.0     1       168         2       168        8.51     267      -55.8
   06/27/2016 04:50      65.7      65.5       81     59.8      0.00      8.37      85.1     0.47      1013.0     1       148         2       153        8.51     267      -56.1
   06/27/2016 04:40      66.0      65.7       81     59.8      0.00      8.37      85.3     0.47      1012.0     1       110         2       133        8.51     267      -55.8
   06/27/2016 04:30      66.4      65.9       79     59.5      0.00      8.37      85.1     0.47      1012.0     1       121         1       108        8.51     267      -55.7
   06/27/2016 04:20      66.9      66.6       78     59.9      0.00      8.37      85.3     0.47      1012.0     1        35         1        27        8.51     267      -56.5
   06/27/2016 04:10      67.2      67.0       78     60.3      0.00      8.37      85.1     0.47      1012.0     1       222         2       210        8.51     267      -56.5
   06/27/2016 04:00      67.4      67.1       78     60.1      0.00      8.37      85.0     0.47      1012.0     1       200         2       210        8.52     267      -57.4
   06/27/2016 03:50      67.1      66.5       79     60.0      0.00      8.37      85.2     0.47      1012.0     4       164         5       172        8.52     267      -58.6
   06/27/2016 03:40      66.7      66.4       79     59.9      0.00      8.37      85.3     0.47      1012.0     3       159         4       162        8.52     267      -58.2
   06/27/2016 03:30      66.9      66.7       80     60.2      0.00      8.37      85.1     0.47      1012.0     2       191         3       181        8.52     267      -57.6
   06/27/2016 03:20      66.9      66.4       80     60.3      0.00      8.37      85.2     0.47      1012.0     2       206         2       212        8.52     267      -57.7
   06/27/2016 03:10      66.9      66.3       80     60.3      0.00      8.37      85.2     0.47      1012.0     2       198         2       206        8.52     267      -57.6
   06/27/2016 03:00      66.5      66.2       80     60.1      0.00      8.37      85.2     0.47      1012.0     2       200         2       200        8.52     267      -58.7
   06/27/2016 02:50      66.2      65.9       81     60.1      0.00      8.37      85.4     0.47      1012.0     3       158         3       170        8.52     267      -59.8
   06/27/2016 02:40      66.4      66.0       80     59.7      0.00      8.37      85.3     0.47      1012.0     1       157         2       169        8.52     267      -60.3
   06/27/2016 02:30      67.0      66.6       79     60.1      0.00      8.37      85.6     0.47      1012.0     1       163         2       172        8.52     267      -60.8
   06/27/2016 02:20      67.4      67.0       78     60.1      0.00      8.37      85.2     0.47      1012.0     1         1         2       258        8.52     267      -60.9
   06/27/2016 02:10      67.4      67.0       79     60.5      0.00      8.37      85.2     0.47      1012.0     1       221         2       244        8.52     267      -60.7
   06/27/2016 02:00      67.8      67.3       78     60.7      0.00      8.37      85.5     0.47      1012.0     1       187         2       229        8.52     266      -61.4
   06/27/2016 01:50      68.1      67.8       78     60.8      0.00      8.37      85.5     0.47      1013.0     1        91         2        63        8.52     266      -62.9
   06/27/2016 01:40      68.1      68.1       78     61.0      0.00      8.37      85.3     0.47      1013.0     1       105         2       111        8.52     267      -63.5
   06/27/2016 01:30      68.4      68.1       77     60.9      0.00      8.37      85.7     0.47      1013.0     1        94         2       110        8.52     267      -64.3
   06/27/2016 01:20      69.0      68.4       76     61.0      0.00      8.37      85.6     0.47      1013.0     2       102         3        89        8.52     266      -64.8
   06/27/2016 01:10      69.2      69.0       76     61.0      0.00      8.37      85.7     0.47      1013.0     2        49         3        38        8.52     267      -65.5
   06/27/2016 01:00      69.2      69.1       75     61.1      0.00      8.37      85.4     0.47      1013.0     2        44         2        58        8.52     266      -66.1
   06/27/2016 00:50      69.5      69.2       75     61.1      0.00      8.37      85.8     0.47      1013.0     2        42         4        31        8.52     266      -66.4
   06/27/2016 00:40      69.7      69.4       74     61.0      0.00      8.37      85.7     0.47      1013.0     1        36         2        30        8.52     266      -66.7
   06/27/2016 00:30      70.0      69.6       74     61.0      0.00      8.37      85.5     0.47      1013.0     2        32         3        29        8.52     266      -67.4
   06/27/2016 00:20      70.2      70.0       73     61.1      0.00      8.37      85.6     0.47      1013.0     2        41         3        60        8.53     266      -67.7
   06/27/2016 00:10      70.3      70.1       73     61.1      0.00      8.37      85.6     0.47      1013.0     3        70         4        75        8.53     266      -67.6
   06/27/2016 00:00      70.4      70.2       72     61.0      0.00      8.37      85.8     0.47      1013.0     2        60         3        32        8.53     266      -68.1
   06/26/2016 23:50      70.6      70.3       72     61.0      0.00      8.37      85.7     0.47      1012.0     2        77         3        71        8.53     266      -68.9
   06/26/2016 23:40      70.8      70.6       72     61.1      0.00      8.37      85.7     0.47      1012.0     2        95         3        82        8.53     266      -69.3
   06/26/2016 23:30      71.0      70.8       71     61.2      0.00      8.37      85.7     0.47      1012.0     2        98         3       105        8.53     266      -69.6
   06/26/2016 23:20      71.7      71.2       70     61.2      0.00      8.37      85.7     0.47      1013.0     2        96         2        78        8.53     266      -69.9
   06/26/2016 23:10      72.0      71.8       69     61.2      0.00      8.37      85.6     0.47      1013.0     1        50         2        53        8.53     265      -70.5
   06/26/2016 23:00      72.3      72.1       68     61.2      0.00      8.37      86.1     0.47      1013.0     2        49         2        33        8.53     266      -71.1
   06/26/2016 22:50      72.4      72.3       68     61.2      0.00      8.37      85.7     0.47      1013.0     2        47         2        38        8.53     265      -71.8
   06/26/2016 22:40      72.6      72.3       67     60.9      0.00      8.37      85.8     0.47      1013.0     1        45         2        35        8.53     265      -72.5
   06/26/2016 22:30      72.7      72.5       67     60.8      0.00      8.37      85.9     0.47      1013.0     1        58         3        87        8.53     265      -73.0
   06/26/2016 22:20      73.0      72.7       66     60.8      0.00      8.37      85.8     0.47      1012.0     2        86         3        97        8.53     265      -73.7
   06/26/2016 22:10      73.1      72.8       65     60.4      0.00      8.37      85.7     0.47      1012.0     2       111         4       124        8.53     265      -74.5
   06/26/2016 22:00      73.6      73.2       63     60.2      0.00      8.37      85.6     0.47      1012.0     2        92         3        86        8.53     265      -75.0
   06/26/2016 21:50      74.1      73.7       62     60.1      0.00      8.37      85.6     0.47      1012.0     2        86         3        83        8.53     265      -75.6
   06/26/2016 21:40      74.4      74.1       61     60.0      0.00      8.37      85.7     0.47      1012.0     1        58         2        69        8.53     265      -76.6
   06/26/2016 21:30      75.1      74.7       60     60.0      0.00      8.37      85.7     0.47      1012.0     1        50         1        55        8.54     265      -77.7
   06/26/2016 21:20      75.5      75.3       59     60.0      0.00      8.37      85.4     0.47      1012.0     2        40         3        26        8.54     265      -79.2
   06/26/2016 21:10      75.9      75.4       58     59.8      0.00      8.37      85.5     0.47      1012.0     2        13         3       325        8.54     265      -80.1
   06/26/2016 21:00      76.0      75.7       56     58.9      0.00      8.37      85.7     0.47      1012.0     2        29         3        30        8.54     264      -81.0
   06/26/2016 20:50      76.8      76.1       53     58.2      0.00      8.37      85.5     0.47      1012.0     2        38         4         9        8.54     264      -82.5
   06/26/2016 20:40      77.7      77.3       49     56.7      0.00      8.37      85.8     0.47      1012.0     2        29         4        66        8.54     264      -83.8
   06/26/2016 20:30      78.0      77.7       47     55.8      0.00      8.37      85.2     0.47      1012.0     3        16         4         2        8.54     264      -84.8
   06/26/2016 20:20      78.3      77.8       47     56.4      0.00      8.37      85.6     0.47      1012.0     2        55         3        35        8.55     264      -84.7
   06/26/2016 20:10      79.2      78.3       47     56.6      0.00      8.37      85.5     0.47      1012.0     2        50         2        52        8.56     264      -83.5
   06/26/2016 20:00      80.1      79.4       46     57.2      0.00      8.37      85.4     0.47      1011.0     2        31         4        17        8.56     264      -80.9
   06/26/2016 19:50      80.5      80.0       46     57.7      0.00      8.37      85.3     0.47      1011.0     3        38         4         6        8.57     264      -77.2
   06/26/2016 19:40      81.9      80.7       46     58.4      0.00      8.37      85.4     0.47      1011.0     3        48         4        38        8.57     264      -66.7
   06/26/2016 19:30      82.8      81.8       46     59.1      0.00      8.37      85.3     0.47      1011.0     3        44         4        66        8.58     264      -49.8
   06/26/2016 19:20      83.0      82.7       45     59.4      0.00      8.37      85.3     0.47      1011.0     3        57         5        70        8.58     264      -34.8
   06/26/2016 19:10      84.1      83.1       45     59.9      0.00      8.37      85.2     0.47      1011.0     3        50         6        70        8.59     264      -17.6
   06/26/2016 19:00      86.0      84.3       44     60.8      0.00      8.37      85.0     0.47      1011.0     4        52         5        34        8.59     263        1.5
   06/26/2016 18:50      87.2      85.9       42     60.9      0.00      8.37      85.2     0.47      1011.0     4        62         7        61        8.60     263       20.5
   06/26/2016 18:40      88.7      87.6       40     61.1      0.00      8.37      85.1     0.47      1010.0     4        31         5        12        8.60     263       40.4
   06/26/2016 18:30      90.7      89.0       38     61.3      0.00      8.37      85.0     0.47      1010.0     3        32         5        13        8.61     263       60.3
   06/26/2016 18:20      90.7      90.2       37     60.6      0.00      8.37      84.9     0.47      1010.0     3        69         6        76        8.61     264       83.1
   06/26/2016 18:10      92.9      90.6       36     60.9      0.00      8.37      84.9     0.47      1010.0     4        55         7        76        8.62     263      102.5
   06/26/2016 18:00      93.2      92.7       33     59.9      0.00      8.37      84.8     0.47      1010.0     4        49         6        33        8.62     264      122.0
   06/26/2016 17:50      94.8      93.1       31     58.6      0.00      8.37      84.6     0.47      1010.0     4        36         6        62        8.62     264      143.8
   06/26/2016 17:40      96.1      94.9       28     57.5      0.00      8.37      84.6     0.47      1010.0     3        45         5        53        8.63     264      165.1
   06/26/2016 17:30      98.2      95.9       27     57.6      0.00      8.37      84.6     0.47      1010.0     3        40         6        82        8.63     264      188.4
   06/26/2016 17:20      98.5      97.7       26     57.5      0.00      8.37      84.4     0.46      1010.0     3        55         5        65        8.64     263      210.1
   06/26/2016 17:10      99.6      98.4       24     56.0      0.00      8.37      84.3     0.46      1010.0     4        49         5        78        8.64     263      230.5
   06/26/2016 17:00     100.8      99.7       22     54.9      0.00      8.37      84.4     0.46      1010.0     4        54         8        96        8.65     263      248.0
   06/26/2016 16:50     101.0     100.4       23     55.5      0.00      8.37      84.2     0.46      1010.0     4        51         5        52        8.65     264      265.6
   06/26/2016 16:40     102.8     100.8       22     55.8      0.00      8.37      84.3     0.46      1010.0     3        35         6        34        8.66     264      283.9
   06/26/2016 16:30     102.9     102.2       21     55.5      0.00      8.37      84.0     0.46      1010.0     4        25         4         5        8.66     264      305.9
   06/26/2016 16:20     103.0     102.1       21     55.7      0.00      8.37      84.2     0.46      1010.0     4        27         6        33        8.67     264      326.3
   06/26/2016 16:10     103.1     102.5       22     56.3      0.00      8.37      84.0     0.46      1010.0     4        37         7        63        8.67     264      345.5
   06/26/2016 16:00     103.3     102.2       22     56.8      0.00      8.37      83.9     0.46      1010.0     4        36         7        68        8.67     264      362.1
   06/26/2016 15:50     103.6     102.5       22     57.2      0.00      8.37      83.8     0.46      1010.0     4        59         6        96        8.68     264      374.3
   06/26/2016 15:40     104.8     103.2       21     56.7      0.00      8.37      83.7     0.46      1010.0     5        37         8        25        8.68     265      386.7
   06/26/2016 15:30     105.3     104.6       20     55.5      0.00      8.37      83.6     0.46      1010.0     4        35         6        29        8.68     265      399.4
   06/26/2016 15:20     105.5     104.1       19     54.3      0.00      8.37      83.5     0.46      1010.0     5        23         7        34        8.69     265      414.0
   06/26/2016 15:10     104.1     103.5       19     53.5      0.00      8.37      83.5     0.46      1010.0     4        43         7        66        8.69     265      429.2
   06/26/2016 15:00     103.9     103.2       19     53.1      0.00      8.37      83.5     0.46      1010.0     3        49         5        81        8.70     264      439.7
   06/26/2016 14:50     103.9     102.9       19     53.6      0.00      8.37      83.4     0.46      1010.0     3        47         5        36        8.70     264      451.8
   06/26/2016 14:40     102.9     101.8       20     54.2      0.00      8.37      83.3     0.46      1010.0     3        28         6        64        8.71     265      462.4
   06/26/2016 14:30     102.2     101.3       21     54.5      0.00      8.37      83.1     0.46      1011.0     3        49         6        69        8.71     264      474.3
   06/26/2016 14:20     102.6     101.1       21     55.1      0.00      8.37      83.1     0.46      1011.0     4        40         6        82        8.72     264      480.3
   06/26/2016 14:10     102.3     101.5       21     55.1      0.00      8.37      83.1     0.46      1011.0     3        48         5        67        8.72     265      492.4
   06/26/2016 14:00     101.9     101.2       22     55.2      0.00      8.37      83.1     0.46      1011.0     4        52         6        90        8.72     265      501.6
   06/26/2016 13:50     101.8     101.1       21     54.8      0.00      8.37      83.0     0.46      1011.0     3        37         7        61        8.73     265      503.8
   06/26/2016 13:40     102.1     101.3       21     54.0      0.00      8.37      82.9     0.46      1011.0     4        31         6        96        8.73     266      509.5
   06/26/2016 13:30     101.7     100.4       21     54.1      0.00      8.37      82.8     0.46      1011.0     3        41         5       359        8.73     266      516.5
   06/26/2016 13:20     101.1      99.9       22     54.4      0.00      8.37      82.8     0.46      1011.0     3        45         4        78        8.73     266      518.7
   06/26/2016 13:10     100.0      99.1       22     53.8      0.00      8.37      82.7     0.46      1011.0     2        29         4        19        8.74     266      521.8
   06/26/2016 13:00     100.0      98.3       23     54.4      0.00      8.37      82.7     0.46      1011.0     3        11         5       354        8.74     266      525.5
   06/26/2016 12:50      99.4      98.4       23     55.0      0.00      8.37      82.8     0.46      1011.0     4        50         5        87        8.74     266      526.1
   06/26/2016 12:40      99.9      98.1       24     56.1      0.00      8.37      82.7     0.46      1011.0     4         8         5         9        8.74     266      525.0
   06/26/2016 12:30      98.0      96.0       27     57.9      0.00      8.37      82.7     0.46      1011.0     3        33         5        65        8.74     266      529.4
   06/26/2016 12:20      96.4      95.3       29     58.7      0.00      8.37      82.7     0.46      1011.0     4        62         6        39        8.74     265      526.7
   06/26/2016 12:10      96.2      95.3       29     58.5      0.00      8.37      82.8     0.46      1012.0     3        27         5       359        8.74     266      522.2
   06/26/2016 12:00      95.7      94.7       30     59.0      0.00      8.37      82.6     0.46      1012.0     3        30         4        25        8.74     266      521.9
   06/26/2016 11:50      94.9      93.6       30     58.2      0.00      8.37      82.5     0.46      1012.0     3        59         6        21        8.75     266      517.1
   06/26/2016 11:40      93.7      92.7       29     55.9      0.00      8.37      82.7     0.46      1012.0     3        30         4        15        8.75     267      510.2
   06/26/2016 11:30      92.9      92.5       28     54.7      0.00      8.37      82.7     0.46      1012.0     4        57         7       103        8.75     266      502.9
   06/26/2016 11:20      93.7      92.1       27     53.8      0.00      8.37      82.6     0.46      1012.0     3        31         6         6        8.75     266      493.1
   06/26/2016 11:10      92.3      90.8       25     50.5      0.00      8.37      82.7     0.46      1012.0     2        26         4        60        8.75     267      484.8
   06/26/2016 11:00      92.0      90.2       27     52.1      0.00      8.37      83.0     0.46      1012.0     2        21         4        31        8.75     268      475.7
   06/26/2016 10:50      90.7      89.6       30     54.5      0.00      8.37      82.7     0.46      1012.0     3        19         4        58        8.75     268      467.2
   06/26/2016 10:40      89.3      88.5       32     55.4      0.00      8.37      82.8     0.46      1012.0     2         4         3        39        8.75     268      456.0
   06/26/2016 10:30      88.5      86.8       35     56.9      0.00      8.37      82.8     0.46      1012.0     3       356         3        30        8.76     268      441.8
   06/26/2016 10:20      87.1      86.5       38     58.4      0.00      8.37      82.8     0.46      1012.0     2        27         3        30        8.75     268      428.1
   06/26/2016 10:10      86.5      85.3       42     59.7      0.00      8.37      82.9     0.46      1012.0     3       358         4        19        8.76     268      415.5
   06/26/2016 10:00      85.4      84.8       43     60.1      0.00      8.37      82.7     0.46      1012.0     3        31         4        37        8.76     268      402.4
   06/26/2016 09:50      84.6      83.9       44     59.8      0.00      8.37      83.1     0.47      1012.0     2        15         3        14        8.76     268      386.0
   06/26/2016 09:40      84.0      81.5       46     59.9      0.00      8.37      82.7     0.47      1012.0     1       118         2       100        8.76     268      371.7
   06/26/2016 09:30      81.5      79.7       50     60.0      0.00      8.37      82.9     0.47      1012.0     2       210         3       329        8.76     268      355.8
   06/26/2016 09:20      80.0      78.2       51     59.6      0.00      8.37      83.4     0.47      1012.0     2        72         3         9        8.77     268      340.0
   06/26/2016 09:10      78.1      76.6       54     59.6      0.00      8.37      82.5     0.47      1012.0     2        51         3        72        8.77     268      327.6
   06/26/2016 09:00      76.4      74.5       57     59.1      0.00      8.37      83.0     0.47      1012.0     2       259         3       195        8.77     268      322.9
   06/26/2016 08:50      74.5      72.6       61     59.0      0.00      8.37      82.9     0.47      1012.0     3       209         5       243        8.77     268      320.8
   06/26/2016 08:40      72.6      71.5       63     58.9      0.00      8.37      83.0     0.47      1012.0     3       208         4       220        8.77     268        8.2
   06/26/2016 08:30      71.5      70.3       66     59.0      0.00      8.37      83.2     0.47      1012.0     3       227         4       196        8.77     268       -6.7
   06/26/2016 08:20      70.3      69.4       68     59.0      0.00      8.37      83.3     0.47      1012.0     2       257         4       227        8.77     268      -11.1
   06/26/2016 08:10      69.4      68.7       71     59.0      0.00      8.37      83.2     0.47      1012.0     3       272         5       256        8.77     268       -8.4
   06/26/2016 08:00      68.6      68.0       72     58.8      0.00      8.37      83.5     0.47      1012.0     3       277         4       302        8.77     268       -5.9
   06/26/2016 07:50      68.0      67.6       73     58.6      0.00      8.37      83.5     0.47      1012.0     2       280         3       296        8.77     268       -4.5
   06/26/2016 07:40      67.7      67.2       73     58.4      0.00      8.37      83.0     0.47      1012.0     1       352         3       328        8.78     268        6.3
   06/26/2016 07:30      67.4      66.2       75     58.3      0.00      8.37      83.3     0.47      1012.0     1        96         2       154        8.78     268       -6.2
   06/26/2016 07:20      66.2      65.6       76     58.1      0.00      8.37      83.4     0.47      1012.0     2        42         3        94        8.78     268      -23.2
   06/26/2016 07:10      65.7      65.0       78     58.1      0.00      8.37      83.4     0.47      1012.0     2        69         2       120        8.78     268      -26.3
   06/26/2016 07:00      64.9      64.2       79     58.0      0.00      8.37      83.8     0.47      1012.0     2        99         2        78        8.78     268      -31.5
   06/26/2016 06:50      64.3      63.1       81     57.6      0.00      8.37      83.6     0.47      1012.0     2        79         2        70        8.78     268      -32.7
   06/26/2016 06:40      63.2      62.3       82     57.0      0.00      8.37      83.5     0.47      1012.0     1        87         2        71        8.78     268      -33.0
   06/26/2016 06:30      62.4      61.7       83     57.0      0.00      8.37      83.6     0.47      1012.0     0        84         1       103        8.78     268      -34.3
   06/26/2016 06:20      61.9      61.3       85     56.9      0.00      8.37      83.7     0.47      1011.0     1       323         1       323        8.78     268      -34.0
   06/26/2016 06:10      61.5      61.3       84     56.6      0.00      8.37      83.7     0.47      1011.0     1        25         1       359        8.78     268      -39.2
   06/26/2016 06:00      61.6      61.3       84     56.6      0.00      8.37      83.6     0.47      1011.0     2       153         3       151        8.78     268      -45.7
   06/26/2016 05:50      61.6      61.3       85     56.9      0.00      8.37      84.1     0.47      1011.0     2       156         3       147        8.78     268      -48.5
   06/26/2016 05:40      61.7      61.6       85     57.1      0.00      8.37      83.7     0.47      1011.0     2       174         3       160        8.78     268      -51.0
   06/26/2016 05:30      61.7      61.0       86     57.0      0.00      8.37      83.6     0.47      1011.0     2       197         3       223        8.78     267      -52.8
   06/26/2016 05:20      61.4      60.9       86     56.8      0.00      8.37      83.8     0.47      1011.0     2       197         3       199        8.78     268      -53.4
   06/26/2016 05:10      61.4      61.3       86     57.0      0.00      8.37      84.1     0.47      1011.0     1       218         2       193        8.79     267      -54.7
   06/26/2016 05:00      61.5      61.3       85     56.8      0.00      8.37      83.9     0.47      1011.0     0       211         1       168        8.79     267      -57.1
   06/26/2016 04:50      61.5      61.3       85     56.7      0.00      8.37      83.8     0.47      1011.0     1       141         1       132        8.79     267      -58.8
   06/26/2016 04:40      61.6      61.2       85     56.8      0.00      8.37      84.3     0.47      1011.0     1       146         1       126        8.79     267      -60.0
   06/26/2016 04:30      61.7      61.3       83     56.4      0.00      8.37      84.3     0.47      1011.0     1       138         2       138        8.79     267      -61.3
   06/26/2016 04:20      62.0      61.6       81     56.1      0.00      8.37      84.2     0.47      1011.0     1       125         1       132        8.79     267      -62.8
   06/26/2016 04:10      62.4      61.7       82     56.6      0.00      8.37      84.1     0.47      1011.0     1       187         1       203        8.79     267      -62.0
   06/26/2016 04:00      62.3      62.0       82     56.4      0.00      8.37      84.5     0.47      1011.0     1       130         1       126        8.79     267      -63.3
   06/26/2016 03:50      62.5      62.2       82     56.7      0.00      8.37      83.9     0.47      1011.0     1       160         2       144        8.79     267      -62.3
   06/26/2016 03:40      62.6      62.1       82     56.8      0.00      8.37      84.5     0.47      1011.0     1       174         2       141        8.79     267      -63.0
   06/26/2016 03:30      62.6      62.3       82     56.8      0.00      8.37      84.3     0.47      1011.0     1       180         2       160        8.79     267      -63.1
   06/26/2016 03:20      62.9      62.6       81     56.9      0.00      8.37      84.6     0.47      1011.0     1       160         2       161        8.79     267      -63.5
   06/26/2016 03:10      62.8      62.5       81     56.8      0.00      8.37      84.1     0.47      1011.0     2       146         2       140        8.79     267      -64.8
   06/26/2016 03:00      62.9      62.5       80     56.4      0.00      8.37      84.0     0.47      1011.0     2       154         3       144        8.80     267      -65.2
   06/26/2016 02:50      63.7      63.2       80     57.3      0.00      8.37      84.0     0.47      1011.0     2       148         2       140        8.80     267      -65.2
   06/26/2016 02:40      63.9      63.4       82     57.9      0.00      8.37      84.6     0.47      1011.0     1       173         1       180        8.80     267      -65.1
   06/26/2016 02:30      64.0      63.4       80     57.4      0.00      8.37      84.8     0.47      1011.0     1       208         2       217        8.80     267      -65.2
   06/26/2016 02:20      64.2      63.8       83     58.6      0.00      8.37      84.5     0.47      1011.0     1       164         2       216        8.80     267      -65.0
   06/26/2016 02:10      64.0      63.7       81     57.7      0.00      8.37      84.3     0.47      1011.0     1       183         1       203        8.80     267      -66.4
   06/26/2016 02:00      64.4      63.9       80     58.0      0.00      8.37      84.4     0.47      1011.0     1       163         2       133        8.80     267      -67.2
   06/26/2016 01:50      65.1      64.4       80     58.4      0.00      8.37      85.0     0.47      1011.0     1       146         2       135        8.80     267      -67.6
   06/26/2016 01:40      65.7      65.2       79     58.6      0.00      8.37      84.9     0.47      1012.0     1       140         1       157        8.80     267      -68.0
   06/26/2016 01:30      66.3      65.9       78     58.9      0.00      8.37      84.3     0.47      1012.0     1       121         2        98        8.80     267      -69.5
   06/26/2016 01:20      66.6      66.2       77     58.9      0.00      8.37      84.5     0.47      1012.0     1        64         2        63        8.80     267      -69.3
   06/26/2016 01:10      66.8      66.4       76     58.8      0.00      8.37      84.6     0.47      1012.0     1        63         2        69        8.81     267      -70.2
   06/26/2016 01:00      67.1      66.9       75     58.7      0.00      8.37      84.8     0.47      1012.0     2        72         3        66        8.81     267      -70.5
   06/26/2016 00:50      67.3      67.1       74     58.6      0.00      8.37      84.8     0.47      1012.0     2        72         3        77        8.81     267      -70.3
   06/26/2016 00:40      67.8      67.2       72     58.3      0.00      8.37      84.8     0.47      1012.0     1        72         2        53        8.81     267      -70.8
   06/26/2016 00:30      68.0      67.7       71     58.3      0.00      8.37      84.9     0.47      1012.0     1        44         3        31        8.81     266      -70.4
   06/26/2016 00:20      68.5      68.0       70     58.2      0.00      8.37      84.7     0.47      1012.0     1        73         2        41        8.81     266      -70.7
   06/26/2016 00:10      68.8      68.5       69     58.0      0.00      8.37      84.5     0.47      1012.0     1        50         2        45        8.81     266      -71.1
   06/26/2016 00:00      68.7      68.6       68     57.9      0.00      8.37      84.7     0.47      1012.0     2        53         3        81        8.81     266      -71.4
   06/25/2016 23:50      68.8      68.6       68     57.7      0.00      8.37      84.8     0.47      1012.0     2        75         4       100        8.81     266      -71.3
   06/25/2016 23:40      68.9      68.6       68     57.6      0.00      8.37      85.0     0.47      1012.0     1        70         4        78        8.81     266      -71.9
   06/25/2016 23:30      69.2      68.9       67     57.6      0.00      8.37      84.7     0.47      1012.0     1        79         3        67        8.82     266      -72.7
   06/25/2016 23:20      69.7      69.3       66     57.7      0.00      8.37      84.6     0.47      1011.0     1        63         2        85        8.82     266      -73.4
   06/25/2016 23:10      69.8      69.6       65     57.6      0.00      8.37      84.7     0.47      1011.0     2        62         3        64        8.82     266      -73.9
   06/25/2016 23:00      70.0      69.6       65     57.5      0.00      8.37      85.0     0.47      1011.0     2        77         2       119        8.82     266      -74.5
   06/25/2016 22:50      70.4      70.1       64     57.5      0.00      8.37      84.7     0.47      1011.0     2        88         3        70        8.82     266      -74.9
   06/25/2016 22:40      71.2      70.7       63     57.5      0.00      8.37      84.8     0.47      1011.0     2        62         4        70        8.82     266      -76.1
   06/25/2016 22:30      71.3      71.0       62     57.8      0.00      8.37      84.8     0.47      1011.0     2        42         3        38        8.82     266      -76.3
   06/25/2016 22:20      71.3      70.9       63     57.8      0.00      8.37      84.7     0.47      1011.0     1        54         3        19        8.82     265      -76.8
   06/25/2016 22:10      71.8      71.3       62     57.9      0.00      8.37      84.8     0.47      1011.0     1        52         2        70        8.83     265      -76.7
   06/25/2016 22:00      72.2      71.8       61     57.9      0.00      8.37      84.9     0.47      1011.0     2        73         3        61        8.83     266      -77.7
   06/25/2016 21:50      72.4      72.1       61     57.9      0.00      8.37      85.0     0.47      1011.0     2        96         3        89        8.83     265      -78.2
   06/25/2016 21:40      72.8      72.5       59     57.8      0.00      8.37      84.9     0.47      1011.0     2        85         3        84        8.83     265      -79.3
   06/25/2016 21:30      73.5      73.0       58     57.6      0.00      8.37      85.0     0.47      1011.0     2        97         3       138        8.83     265      -80.8
   06/25/2016 21:20      74.0      73.4       57     57.5      0.00      8.37      84.9     0.47      1011.0     2        92         3        80        8.83     265      -80.9
   06/25/2016 21:10      74.4      74.0       55     57.2      0.00      8.37      84.8     0.47      1010.0     2        88         2        71        8.83     265      -81.5
   06/25/2016 21:00      74.9      74.5       54     57.1      0.00      8.37      84.8     0.47      1010.0     2        51         3        79        8.84     265      -82.6
   06/25/2016 20:50      75.6      75.1       54     57.5      0.00      8.37      84.9     0.47      1010.0     2        80         3        80        8.84     265      -83.4
   06/25/2016 20:40      76.3      75.8       53     57.6      0.00      8.37      84.6     0.47      1010.0     2        82         3        77        8.84     265      -84.4
   06/25/2016 20:30      76.9      76.3       52     57.8      0.00      8.37      84.6     0.47      1010.0     2       113         3        82        8.84     265      -85.6
   06/25/2016 20:20      77.7      77.1       51     57.9      0.00      8.37      84.4     0.47      1010.0     2        67         3        73        8.84     264      -86.4
   06/25/2016 20:10      78.3      77.8       50     57.9      0.00      8.37      84.7     0.47      1010.0     2        62         3        59        8.84     265      -85.0
   06/25/2016 20:00      79.3      78.5       49     57.9      0.00      8.37      84.6     0.47      1010.0     3        47         5        81        8.85     265      -82.0
   06/25/2016 19:50      79.9      79.3       47     57.8      0.00      8.37      84.6     0.47      1010.0     3        53         3        60        8.85     264      -78.5
   06/25/2016 19:40      81.0      80.0       46     57.8      0.00      8.37      84.4     0.47      1009.0     3        43         5        33        8.85     264      -69.1
   06/25/2016 19:30      82.0      81.2       44     57.6      0.00      8.37      84.5     0.47      1009.0     3        51         4        75        8.85     264      -54.2
   06/25/2016 19:20      83.4      82.3       42     57.4      0.00      8.37      84.4     0.47      1009.0     3        60         4        56        8.85     264      -39.3
   06/25/2016 19:10      84.0      83.4       41     57.3      0.00      8.37      84.4     0.47      1009.0     3        46         5        74        8.86     264      -21.3
   06/25/2016 19:00      85.3      84.2       39     56.9      0.00      8.37      84.3     0.47      1009.0     4        57         7        77        8.86     264       -2.6
   06/25/2016 18:50      85.7      85.5       38     57.0      0.00      8.37      84.2     0.47      1009.0     4        48         5        38        8.87     264       15.6
   06/25/2016 18:40      86.1      85.7       38     57.0      0.00      8.37      84.2     0.47      1009.0     3        43         5        61        8.87     264       35.6
   06/25/2016 18:30      87.0      86.2       37     57.1      0.00      8.37      84.2     0.47      1009.0     4        33         6        33        8.87     264       54.9
   06/25/2016 18:20      88.0      87.4       36     57.5      0.00      8.37      84.0     0.47      1009.0     3        37         5        71        8.88     264       75.2
   06/25/2016 18:10      88.4      88.0       36     58.2      0.00      8.37      84.2     0.47      1009.0     4        25         5        11        8.88     264       97.1
   06/25/2016 18:00      89.2      88.1       36     58.6      0.00      8.37      84.1     0.47      1009.0     4        27         7       357        8.89     264      119.1
   06/25/2016 17:50      90.4      89.3       35     58.9      0.00      8.37      84.0     0.47      1009.0     4        15         7       357        8.89     264      139.5
   06/25/2016 17:40      90.8      89.4       35     59.3      0.00      8.37      84.0     0.47      1009.0     4        20         6       351        8.90     264      163.7
   06/25/2016 17:30      91.5      90.4       35     59.5      0.00      8.37      83.6     0.47      1009.0     4        37         5        33        8.90     264      185.2
   06/25/2016 17:20      92.3      91.6       34     59.5      0.00      8.37      83.8     0.47      1009.0     3        24         5        31        8.90     264      206.8
   06/25/2016 17:10      92.5      91.6       33     58.8      0.00      8.37      83.7     0.47      1009.0     4        39         5        29        8.91     264      229.9
   06/25/2016 17:00      93.0      92.3       32     58.6      0.00      8.37      83.7     0.47      1009.0     4        51         6        20        8.91     264      253.1
   06/25/2016 16:50      93.8      92.7       31     58.4      0.00      8.37      83.6     0.47      1009.0     4        25         6        17        8.92     264      273.0
   06/25/2016 16:40      93.8      93.1       31     58.6      0.00      8.37      83.6     0.47      1009.0     4        32         7        36        8.92     264      294.6
   06/25/2016 16:30      94.0      93.5       32     59.2      0.00      8.37      83.3     0.47      1009.0     4        46         6        31        8.92     264      313.0
   06/25/2016 16:20      94.5      94.0       31     58.9      0.00      8.37      83.4     0.47      1009.0     4        57         7        97        8.92     264      328.9
   06/25/2016 16:10      94.4      94.0       31     58.7      0.00      8.37      83.3     0.47      1009.0     4        59         7        69        8.93     265      347.6
   06/25/2016 16:00      95.1      93.7       31     59.0      0.00      8.37      83.1     0.47      1009.0     3        76         6        76        8.93     265      365.7
   06/25/2016 15:50      94.7      93.8       31     59.3      0.00      8.37      83.3     0.47      1009.0     3        40         5        60        8.93     265      382.8
   06/25/2016 15:40      95.9      94.3       31     59.6      0.00      8.37      83.0     0.47      1009.0     4        71         7        98        8.94     265      399.5
   06/25/2016 15:30      95.5      94.2       31     59.8      0.00      8.37      83.2     0.47      1009.0     4        40         5         3        8.94     265      414.4
   06/25/2016 15:20      95.1      94.4       31     59.2      0.00      8.37      83.0     0.46      1009.0     4        71         7         1        8.94     265      429.5
   06/25/2016 15:10      94.9      93.8       31     59.0      0.00      8.37      83.0     0.46      1009.0     3        65         5        76        8.94     265      440.3
   06/25/2016 15:00      94.8      94.0       31     59.0      0.00      8.37      82.8     0.46      1009.0     4        14         5        86        8.95     265      450.2
   06/25/2016 14:50      95.3      93.5       30     58.7      0.00      8.37      82.6     0.46      1009.0     3        22         6         9        8.95     265      461.7
   06/25/2016 14:40      94.0      93.2       31     58.4      0.00      8.37      82.7     0.46      1010.0     3        21         4       343        8.95     265      472.3
   06/25/2016 14:30      93.7      92.0       32     59.2      0.00      8.37      82.6     0.46      1010.0     3        53         6       329        8.95     265      484.7
   06/25/2016 14:20      93.1      92.3       33     59.4      0.00      8.37      82.7     0.46      1010.0     2         9         4       340        8.95     265      492.5
   06/25/2016 14:10      92.5      90.9       34     59.4      0.00      8.37      82.5     0.46      1010.0     3        53         4        63        8.96     266      504.2
   06/25/2016 14:00      92.5      91.0       34     59.5      0.00      8.37      82.3     0.46      1010.0     3         6         6       359        8.96     266      509.5
   06/25/2016 13:50      91.2      90.1       35     59.4      0.00      8.37      82.3     0.46      1010.0     4        52         7        53        8.96     266      518.2
   06/25/2016 13:40      91.0      90.1       35     59.1      0.00      8.37      82.3     0.46      1010.0     2       353         4        73        8.96     266      525.7
   06/25/2016 13:30      89.5      88.9       36     59.1      0.00      8.37      82.4     0.46      1010.0     2        25         3        71        8.96     267      528.4
   06/25/2016 13:20      90.4      89.5       36     59.4      0.00      8.37      82.5     0.46      1010.0     3        57         5        58        8.96     267      529.3
   06/25/2016 13:10      89.3      88.1       37     59.1      0.00      8.37      82.2     0.46      1010.0     3       354         6       348        8.96     267      531.1
   06/25/2016 13:00      88.7      87.7       37     59.0      0.00      8.37      82.3     0.46      1010.0     3       346         5         0        8.96     267      535.7
   06/25/2016 12:50      88.2      87.3       38     58.8      0.00      8.37      82.1     0.46      1011.0     2        22         4        12        8.96     266      539.1
   06/25/2016 12:40      87.7      86.7       39     59.3      0.00      8.37      82.3     0.46      1011.0     3        35         6       351        8.96     266      538.8
   06/25/2016 12:30      87.0      86.2       39     58.8      0.00      8.37      82.6     0.46      1011.0     4         9         7       357        8.96     266      534.0
   06/25/2016 12:20      86.5      85.2       39     58.2      0.00      8.37      82.5     0.46      1011.0     3        32         6         1        8.96     266      536.9
   06/25/2016 12:10      85.7      83.8       41     58.5      0.00      8.37      82.1     0.46      1011.0     3        25         4       359        8.96     267      533.7
   06/25/2016 12:00      84.3      83.4       42     58.6      0.00      8.37      82.0     0.46      1011.0     3        17         5        22        8.96     267      526.8
   06/25/2016 11:50      83.8      82.7       43     58.5      0.00      8.37      82.2     0.46      1011.0     3         5         6       356        8.96     267      519.2
   06/25/2016 11:40      83.5      81.6       43     58.1      0.00      8.37      82.0     0.46      1011.0     3         2         4         3        8.96     267      518.3
   06/25/2016 11:30      82.0      80.5       45     57.8      0.00      8.37      82.2     0.46      1011.0     3       356         4        14        8.96     267      507.8
   06/25/2016 11:20      81.2      80.1       45     57.3      0.00      8.37      82.2     0.46      1011.0     3       334         4        28        8.96     267      497.2
   06/25/2016 11:10      81.1      79.3       46     57.4      0.00      8.37      82.2     0.46      1011.0     2        70         4       336        8.96     267      482.1
   06/25/2016 11:00      79.4      78.6       47     57.3      0.00      8.37      82.3     0.47      1011.0     3         9         4         1        8.96     268      477.5
   06/25/2016 10:50      78.6      77.4       49     57.3      0.00      8.37      82.4     0.47      1011.0     3       312         5       308        8.96     269      468.6
   06/25/2016 10:40      77.5      76.8       50     57.3      0.00      8.37      82.3     0.47      1011.0     3        52         4        15        8.96     268      458.6
   06/25/2016 10:30      77.0      75.8       51     56.8      0.00      8.37      82.3     0.47      1011.0     3       348         5        25        8.96     268      444.3
   06/25/2016 10:20      76.4      76.0       51     56.7      0.00      8.37      82.3     0.47      1011.0     2        66         4        79        8.96     268      431.7
   06/25/2016 10:10      76.1      73.7       53     56.5      0.00      8.37      82.4     0.47      1011.0     2       355         4        72        8.96     268      417.3
   06/25/2016 10:00      73.8      73.2       56     56.8      0.00      8.37      82.4     0.47      1012.0     2        45         3         9        8.96     268      398.6
   06/25/2016 09:50      73.4      72.8       57     57.0      0.00      8.37      82.2     0.47      1012.0     2       333         4       312        8.96     268      378.9
   06/25/2016 09:40      72.7      71.4       59     57.2      0.00      8.37      82.1     0.47      1012.0     2        27         3        60        8.96     268      360.8
   06/25/2016 09:30      72.6      71.2       61     57.7      0.00      8.37      82.5     0.47      1012.0     2       317         5         1        8.96     269      344.0
   06/25/2016 09:20      72.3      70.0       63     57.9      0.00      8.37      82.4     0.47      1012.0     1        73         3       356        8.96     269      324.6
   06/25/2016 09:10      70.1      68.8       67     57.8      0.00      8.37      82.2     0.47      1012.0     2         7         4       350        8.96     269      311.4
   06/25/2016 09:00      68.6      67.4       70     57.9      0.00      8.37      82.5     0.47      1012.0     2        21         3        68        8.96     268      301.2
   06/25/2016 08:50      67.3      66.4       73     58.1      0.00      8.37      82.1     0.47      1012.0     2        54         3         4        8.96     268      298.7
   06/25/2016 08:40      66.3      65.6       76     58.1      0.00      8.37      82.5     0.47      1012.0     2       351         3       350        8.96     268       31.4
   06/25/2016 08:30      65.5      64.7       78     58.2      0.00      8.37      82.2     0.47      1012.0     2       316         3       286        8.96     268       16.1
   06/25/2016 08:20      64.9      64.5       79     58.1      0.00      8.37      82.4     0.47      1012.0     3       261         4       251        8.96     268        9.8
   06/25/2016 08:10      64.6      64.0       81     58.2      0.00      8.37      82.7     0.47      1012.0     2       239         3       268        8.96     268        5.0
   06/25/2016 08:00      64.7      63.9       81     58.3      0.00      8.37      82.8     0.47      1012.0     2       171         3       165        8.96     268       69.5
   06/25/2016 07:50      64.3      63.8       81     58.3      0.00      8.37      82.7     0.47      1012.0     1       107         2       133        8.96     268       97.6
   06/25/2016 07:40      64.0      63.5       82     58.1      0.00      8.37      82.9     0.47      1012.0     1       357         2         0        8.96     268       88.0
   06/25/2016 07:30      63.5      62.8       84     58.1      0.00      8.37      82.9     0.47      1012.0     1        83         3        96        8.96     268       70.5
   06/25/2016 07:20      62.9      62.4       85     58.0      0.00      8.37      82.5     0.47      1011.0     1        74         2        73        8.96     268       39.2
   06/25/2016 07:10      62.8      62.6       85     58.2      0.00      8.37      82.7     0.47      1011.0     2        10         3       339        8.96     269       27.3
   06/25/2016 07:00      62.8      62.3       86     58.3      0.00      8.37      82.9     0.47      1012.0     1        52         2        60        8.96     268       16.8
   06/25/2016 06:50      62.5      61.9       87     58.4      0.00      8.37      82.9     0.47      1012.0     1        90         1       353        8.96     268        9.9
   06/25/2016 06:40      62.1      61.7       88     58.4      0.00      8.37      82.6     0.47      1012.0     2        76         3       105        8.96     268        5.5
   06/25/2016 06:30      61.9      61.6       89     58.4      0.00      8.37      83.0     0.47      1011.0     2        80         4       322        8.96     268       -0.4
   06/25/2016 06:20      61.5      61.4       90     58.3      0.00      8.37      82.7     0.47      1011.0     1       190         2       199        8.96     268       -5.5
   06/25/2016 06:10      61.5      61.4       90     58.4      0.00      8.37      83.1     0.47      1011.0     2       155         3       148        8.96     268       -8.6
   06/25/2016 06:00      61.5      61.2       90     58.4      0.00      8.37      82.7     0.47      1011.0     1        92         1        92        8.96     268      -10.1
   06/25/2016 05:50      61.3      61.1       91     58.4      0.00      8.37      83.4     0.47      1011.0     1       133         2       121        8.96     268      -11.8
   06/25/2016 05:40      61.3      61.1       91     58.5      0.00      8.37      83.3     0.47      1011.0     2       183         2       192        8.96     268      -11.4
   06/25/2016 05:30      61.4      60.9       91     58.6      0.00      8.37      83.2     0.48      1011.0     2       134         4       126        8.96     268      -10.1
   06/25/2016 05:20      61.1      60.8       92     58.5      0.00      8.37      83.5     0.48      1011.0     2       131         3       120        8.97     268       -9.8
   06/25/2016 05:10      61.1      60.8       92     58.5      0.00      8.37      82.9     0.48      1011.0     2       124         3       116        8.97     268       -9.9
   06/25/2016 05:00      61.0      60.5       92     58.5      0.00      8.37      83.6     0.48      1011.0     2       124         3       150        8.97     268       -9.6
   06/25/2016 04:50      60.8      60.4       93     58.3      0.00      8.37      83.4     0.48      1011.0     2       125         3       139        8.97     268      -14.0
   06/25/2016 04:40      60.5      60.2       92     58.1      0.00      8.37      83.1     0.48      1011.0     1       128         2        83        8.97     268      -17.1
   06/25/2016 04:30      60.5      60.2       92     58.0      0.00      8.37      83.6     0.48      1011.0     2       133         3       122        8.97     268      -16.5
   06/25/2016 04:20      60.4      60.2       92     58.0      0.00      8.37      83.9     0.48      1011.0     1        75         3       118        8.97     268      -29.8
   06/25/2016 04:10      60.4      60.1       91     57.7      0.00      8.37      83.4     0.48      1011.0     1        71         2        82        8.97     268      -29.2
   06/25/2016 04:00      60.5      60.3       91     57.6      0.00      8.37      83.2     0.48      1011.0     1       100         2        80        8.97     268      -35.6
   06/25/2016 03:50      60.7      60.4       90     57.7      0.00      8.37      83.9     0.48      1011.0     1        87         3        71        8.97     268      -36.9
   06/25/2016 03:40      61.0      60.7       90     57.8      0.00      8.37      84.3     0.48      1011.0     1        95         2        67        8.97     268      -40.6
   06/25/2016 03:30      61.1      60.9       89     57.7      0.00      8.37      83.7     0.48      1011.0     2        68         2        38        8.97     268      -43.3
   06/25/2016 03:20      61.1      60.8       88     57.4      0.00      8.37      83.6     0.48      1011.0     1        60         2        85        8.97     267      -47.4
   06/25/2016 03:10      60.9      60.6       87     57.0      0.00      8.37      83.7     0.48      1011.0     1        68         1        73        8.97     268      -51.0
   06/25/2016 03:00      61.3      60.9       86     57.0      0.00      8.37      83.7     0.48      1011.0     1        71         2       118        8.97     267      -53.7
   06/25/2016 02:50      61.6      61.1       86     57.0      0.00      8.37      83.6     0.48      1011.0     1        99         1        73        8.97     267      -55.5
   06/25/2016 02:40      61.4      61.3       86     57.0      0.00      8.37      83.9     0.48      1011.0     0        80         1       124        8.97     267      -58.4
   06/25/2016 02:30      61.7      61.4       86     57.2      0.00      8.37      83.7     0.48      1011.0     1        95         1       117        8.97     267      -60.6
   06/25/2016 02:20      61.7      61.5       85     57.1      0.00      8.37      84.0     0.48      1011.0     1        71         1       133        8.98     267      -64.7
   06/25/2016 02:10      61.9      61.6       84     56.8      0.00      8.37      83.8     0.48      1012.0     1       103         2        76        8.98     267      -67.9
   06/25/2016 02:00      62.2      61.9       83     56.7      0.00      8.37      84.1     0.48      1011.0     1        93         2        85        8.98     267      -68.3
   06/25/2016 01:50      62.3      62.1       83     56.9      0.00      8.37      83.9     0.48      1012.0     1       113         2        71        8.98     267      -69.0
   06/25/2016 01:40      62.1      61.8       83     56.7      0.00      8.37      84.3     0.48      1012.0     2       113         3        74        8.98     267      -69.3
   06/25/2016 01:30      62.7      62.0       82     56.6      0.00      8.37      84.4     0.48      1012.0     1        97         2       104        8.98     267      -70.0
   06/25/2016 01:20      62.8      62.5       82     57.0      0.00      8.37      84.1     0.48      1012.0     1       128         1       114        8.98     267      -69.9
   06/25/2016 01:10      63.2      62.7       82     57.4      0.00      8.37      83.7     0.48      1012.0     1       118         1       108        8.98     267      -70.5
   06/25/2016 01:00      63.5      63.1       80     57.1      0.00      8.37      84.2     0.48      1012.0     1       138         2       127        8.98     267      -71.1
   06/25/2016 00:50      64.0      63.8       80     57.5      0.00      8.37      84.3     0.48      1012.0     1       157         1       152        8.98     267      -71.0
   06/25/2016 00:40      64.6      64.2       79     57.9      0.00      8.37      84.1     0.48      1012.0     1       118         2        73        8.98     267      -72.2
   06/25/2016 00:30      64.5      64.3       79     57.8      0.00      8.37      84.4     0.48      1012.0     1        88         2        54        8.98     267      -72.7
   06/25/2016 00:20      64.5      64.3       78     57.5      0.00      8.37      84.2     0.48      1012.0     1        78         2        75        8.99     267      -72.8
   06/25/2016 00:10      64.9      64.6       78     57.8      0.00      8.37      84.3     0.48      1012.0     1       135         2       107        8.99     267      -72.5
   06/25/2016 00:00      65.0      64.8       77     57.6      0.00      8.37      84.4     0.48      1012.0     1       105         1       116        8.99     267      -73.3
   06/24/2016 23:50      65.5      65.0       76     57.3      0.00      8.37      84.3     0.48      1012.0     1       113         2       132        8.99     267      -74.2
   06/24/2016 23:40      65.8      65.5       75     57.5      0.00      8.37      84.4     0.48      1012.0     1       126         2       114        8.99     266      -74.9
   06/24/2016 23:30      66.0      65.7       75     57.7      0.00      8.37      84.5     0.48      1012.0     1       108         1        84        8.99     266      -75.0
   06/24/2016 23:20      66.3      65.9       74     57.6      0.00      8.37      84.3     0.48      1012.0     1        75         1        89        8.99     266      -75.8
   06/24/2016 23:10      66.3      66.1       73     57.1      0.00      8.37      84.5     0.48      1012.0     1       136         1       183        8.99     266      -76.1
   06/24/2016 23:00      66.3      66.1       72     56.9      0.00      8.37      84.6     0.48      1012.0     1       120         1       128        8.99     266      -76.8
   06/24/2016 22:50      66.4      66.1       71     56.5      0.00      8.37      84.3     0.48      1012.0     1       157         2       200        8.99     266      -77.3
   06/24/2016 22:40      67.3      66.6       69     56.6      0.00      8.37      84.5     0.48      1012.0     1       143         1       125        9.00     266      -78.3
   06/24/2016 22:30      68.2      67.3       68     56.9      0.00      8.37      84.2     0.48      1012.0     1       163         2       177        9.00     266      -79.0
   06/24/2016 22:20      68.9      68.1       67     57.0      0.00      8.37      84.5     0.48      1012.0     1       127         2       107        9.00     266      -80.0
   06/24/2016 22:10      69.4      69.0       69     58.5      0.00      8.37      84.3     0.48      1012.0     1        86         2       109        9.00     266      -80.2
   06/24/2016 22:00      69.6      69.3       68     58.4      0.00      8.37      84.5     0.48      1012.0     1        54         2        45        9.00     266      -80.3
   06/24/2016 21:50      70.1      69.8       67     58.5      0.00      8.37      84.5     0.48      1012.0     2        54         3        84        9.00     266      -80.8
   06/24/2016 21:40      70.4      70.1       66     58.3      0.00      8.37      84.3     0.48      1012.0     2        63         4        73        9.00     266      -80.7
   06/24/2016 21:30      70.7      70.4       63     57.4      0.00      8.37      84.5     0.48      1012.0     2        74         3        63        9.01     266      -81.1
   06/24/2016 21:20      71.0      70.6       61     57.0      0.00      8.37      84.2     0.48      1011.0     2        86         2       109        9.01     266      -81.6
   06/24/2016 21:10      71.5      71.1       60     56.9      0.00      8.37      84.3     0.48      1011.0     2       109         4       113        9.01     266      -81.9
   06/24/2016 21:00      72.2      71.7       59     57.0      0.00      8.37      84.1     0.48      1011.0     2        79         3        97        9.01     265      -82.7
   06/24/2016 20:50      72.5      72.2       58     56.9      0.00      8.37      84.3     0.48      1011.0     2        69         3        70        9.01     265      -82.7
   06/24/2016 20:40      72.8      72.5       58     57.0      0.00      8.37      84.2     0.48      1011.0     2        68         4        72        9.02     265      -83.5
   06/24/2016 20:30      73.4      72.7       57     57.0      0.00      8.37      84.1     0.48      1011.0     3        62         5        72        9.02     265      -84.3
   06/24/2016 20:20      73.4      73.1       57     57.4      0.00      8.37      84.4     0.48      1011.0     2        49         5        74        9.02     265      -84.4
   06/24/2016 20:10      74.1      73.4       57     57.8      0.00      8.37      84.3     0.48      1011.0     3        43         4        48        9.03     265      -82.9
   06/24/2016 20:00      74.8      74.4       56     58.0      0.00      8.37      84.2     0.48      1011.0     3        46         4        73        9.03     265      -80.0
   06/24/2016 19:50      75.7      75.1       55     58.1      0.00      8.37      84.5     0.48      1011.0     3        67         6        73        9.03     265      -76.3
   06/24/2016 19:40      76.5      75.9       53     58.0      0.00      8.37      84.0     0.47      1011.0     4        63         6        77        9.03     265      -64.9
   06/24/2016 19:30      77.8      76.4       52     58.1      0.00      8.37      84.3     0.47      1011.0     4        39         5        26        9.04     265      -46.5
   06/24/2016 19:20      78.6      77.8       50     58.4      0.00      8.37      84.2     0.47      1011.0     3        31         5         2        9.04     265      -30.0
   06/24/2016 19:10      79.7      78.6       49     58.5      0.00      8.37      84.0     0.47      1011.0     4        55         6        73        9.04     265      -10.8
   06/24/2016 19:00      79.9      79.5       49     58.5      0.00      8.37      83.9     0.47      1011.0     3        42         6        19        9.05     265        9.4
   06/24/2016 18:50      80.5      79.8       47     58.3      0.00      8.37      84.0     0.47      1011.0     4        36         7        23        9.05     265       29.4
   06/24/2016 18:40      80.5      80.3       47     58.3      0.00      8.37      83.8     0.47      1010.0     4        50         7        24        9.06     265       49.9
   06/24/2016 18:30      81.9      80.9       46     58.5      0.00      8.37      83.9     0.47      1010.0     4        49         7        43        9.06     264       71.3
   06/24/2016 18:20      82.1      81.4       45     58.4      0.00      8.37      83.9     0.47      1010.0     3        83         5        84        9.06     264       95.6
   06/24/2016 18:10      82.3      81.8       45     58.4      0.00      8.37      83.9     0.47      1010.0     3       129         5       111        9.07     264      118.9
   06/24/2016 18:00      82.3      81.8       45     58.4      0.00      8.37      83.7     0.47      1010.0     5       137         6       160        9.07     264      143.7
   06/24/2016 17:50      83.6      82.3       44     58.6      0.00      8.37      83.6     0.47      1010.0     4       146         8       170        9.08     264      165.9
   06/24/2016 17:40      84.5      82.7       43     58.5      0.00      8.37      83.6     0.47      1010.0     4       170         7       165        9.08     264      187.5
   06/24/2016 17:30      85.4      84.5       41     58.7      0.00      8.37      83.6     0.47      1010.0     3        45         6        70        9.08     264      208.9
   06/24/2016 17:20      84.5      83.7       42     58.7      0.00      8.37      83.5     0.47      1010.0     3       171         6       224        9.08     264      232.0
   06/24/2016 17:10      84.0      83.5       43     58.8      0.00      8.37      83.6     0.47      1011.0     4       180         7       206        9.09     264      255.5
   06/24/2016 17:00      84.8      83.8       43     59.0      0.00      8.37      83.4     0.47      1011.0     5       161         8       160        9.09     264      276.9
   06/24/2016 16:50      85.2      84.2       42     59.2      0.00      8.37      83.2     0.47      1011.0     3       122         6       163        9.09     264      296.7
   06/24/2016 16:40      85.5      84.4       42     59.2      0.00      8.37      83.4     0.47      1011.0     4       210        11       177        9.10     265      318.4
   06/24/2016 16:30      84.0      83.2       44     59.2      0.00      8.37      83.3     0.47      1011.0     3        86         7       329        9.10     265      338.1
   06/24/2016 16:20      85.6      83.3       42     59.3      0.00      8.37      83.1     0.47      1011.0     4       202         7       262        9.10     264      356.2
   06/24/2016 16:10      86.3      84.9       41     59.6      0.00      8.37      83.1     0.47      1011.0     4        91         7        98        9.11     265      374.4
   06/24/2016 16:00      87.0      85.7       40     59.7      0.00      8.37      83.1     0.47      1011.0     3       108         6       140        9.11     265      389.4
   06/24/2016 15:50      87.5      86.9       40     59.7      0.00      8.37      83.0     0.47      1011.0     4        63         7        63        9.11     266      402.7
   06/24/2016 15:40      87.3      86.3       40     59.7      0.00      8.37      82.8     0.47      1011.0     4        31         5        14        9.11     266      420.0
   06/24/2016 15:30      86.5      86.1       40     59.5      0.00      8.37      82.9     0.47      1011.0     4        36         7        57        9.11     266      435.8
   06/24/2016 15:20      86.7      86.1       40     59.3      0.00      8.37      82.6     0.47      1011.0     3        53         6        56        9.11     265      450.7
   06/24/2016 15:10      86.8      86.2       40     59.4      0.00      8.37      82.6     0.47      1011.0     4        47         6        67        9.11     265      465.2
   06/24/2016 15:00      87.2      86.2       40     59.6      0.00      8.37      82.8     0.47      1011.0     4        56         6        72        9.11     265      479.9
   06/24/2016 14:50      86.6      85.2       41     59.7      0.00      8.37      82.5     0.47      1011.0     5        71         7       101        9.11     265      495.7
   06/24/2016 14:40      86.6      85.4       41     59.4      0.00      8.37      82.3     0.47      1012.0     4        71         8        80        9.11     265      502.7
   06/24/2016 14:30      87.0      85.9       40     59.4      0.00      8.37      82.3     0.47      1012.0     3        27         5        17        9.11     265      510.1
   06/24/2016 14:20      86.6      85.7       41     59.8      0.00      8.37      82.3     0.47      1012.0     4        35         5         9        9.11     265      519.6
   06/24/2016 14:10      86.8      86.1       41     59.8      0.00      8.37      82.2     0.47      1012.0     4        35         8        67        9.11     266      525.4
   06/24/2016 14:00      86.5      85.9       41     59.7      0.00      8.37      82.4     0.47      1012.0     4        36         7        23        9.11     267      535.4
   06/24/2016 13:50      86.5      85.1       41     59.6      0.00      8.37      82.3     0.47      1012.0     4        43         6        34        9.11     266      541.9
   06/24/2016 13:40      85.6      84.5       42     59.5      0.00      8.37      82.3     0.47      1012.0     3        43         4        76        9.11     267      547.8
   06/24/2016 13:30      85.4      83.8       43     59.6      0.00      8.37      82.0     0.47      1012.0     4        43         6        29        9.11     267      555.4
   06/24/2016 13:20      85.3      84.2       43     59.8      0.00      8.37      82.1     0.47      1012.0     5        44         8        43        9.11     267      555.7
   06/24/2016 13:10      85.6      84.5       43     60.2      0.00      8.37      82.0     0.47      1012.0     4        31         6        70        9.11     267      559.2
   06/24/2016 13:00      85.0      84.4       44     60.5      0.00      8.37      82.0     0.47      1013.0     4        49         6        61        9.11     267      562.5
   06/24/2016 12:50      84.6      83.9       45     60.4      0.00      8.37      82.0     0.47      1013.0     3        46         8        85        9.11     267      562.7
   06/24/2016 12:40      83.9      82.6       46     60.4      0.00      8.37      82.1     0.47      1013.0     3        41         5        62        9.11     267      563.4
   06/24/2016 12:30      83.4      80.7       48     60.2      0.00      8.37      82.0     0.47      1013.0     3       126         7       116        9.11     267      561.3
   06/24/2016 12:20      81.0      79.8       50     59.9      0.00      8.37      82.1     0.47      1013.0     4       138         5       131        9.11     267      560.9
   06/24/2016 12:10      81.5      80.4       49     60.2      0.00      8.37      82.0     0.47      1013.0     3        99         6       137        9.12     267      557.2
   06/24/2016 12:00      81.5      81.0       49     60.5      0.00      8.37      82.1     0.47      1013.0     3        35         6         4        9.11     268      554.0
   06/24/2016 11:50      80.9      78.3       52     60.4      0.00      8.37      81.8     0.47      1013.0     3        57         5       130        9.11     268      551.3
   06/24/2016 11:40      78.7      77.8       54     60.3      0.00      8.37      81.9     0.47      1013.0     4        57         6        78        9.11     268      545.4
   06/24/2016 11:30      77.9      77.3       55     60.3      0.00      8.37      81.9     0.47      1013.0     5        58         8        77        9.11     268      539.0
   06/24/2016 11:20      78.0      77.3       55     60.5      0.00      8.37      82.1     0.47      1013.0     4        66         5        51        9.11     268      530.5
   06/24/2016 11:10      78.4      77.5       55     60.5      0.00      8.37      82.2     0.47      1013.0     4        49         8        81        9.11     268      518.8
   06/24/2016 11:00      77.8      76.7       56     60.6      0.00      8.37      81.9     0.47      1013.0     4        55         5        81        9.11     268      507.9
   06/24/2016 10:50      77.5      76.9       57     60.6      0.00      8.37      82.2     0.47      1013.0     4        45         8        84        9.11     269      495.9
   06/24/2016 10:40      76.7      76.0       58     60.5      0.00      8.37      82.0     0.47      1013.0     4        24         6       355        9.11     269      482.0
   06/24/2016 10:30      76.4      75.2       59     60.4      0.00      8.37      82.2     0.47      1013.0     3        53         4        64        9.11     268      470.5
   06/24/2016 10:20      74.8      74.2       61     60.3      0.00      8.37      82.4     0.47      1013.0     3        54         6        58        9.11     269      455.8
   06/24/2016 10:10      74.4      72.9       63     60.3      0.00      8.37      82.3     0.47      1014.0     3        24         4        47        9.11     269      440.6
   06/24/2016 10:00      73.2      71.8       65     60.2      0.00      8.37      82.3     0.47      1014.0     3        25         4       357        9.11     269      424.1
   06/24/2016 09:50      71.9      71.5       67     60.1      0.00      8.37      82.3     0.47      1014.0     3        58         5        75        9.11     269      405.9
   06/24/2016 09:40      72.3      71.6       67     60.2      0.00      8.37      82.3     0.47      1014.0     3        15         5        18        9.11     269      389.1
   06/24/2016 09:30      71.5      70.4       68     60.0      0.00      8.37      82.4     0.47      1014.0     3        44         5       352        9.11     269      371.7
   06/24/2016 09:20      70.5      69.1       71     59.9      0.00      8.37      82.3     0.48      1014.0     3        50         6        70        9.10     269      354.0
   06/24/2016 09:10      69.2      68.7       73     59.8      0.00      8.37      82.7     0.48      1014.0     3        41         5        32        9.10     269      341.0
   06/24/2016 09:00      68.8      68.0       74     59.7      0.00      8.37      82.7     0.48      1014.0     3        33         4         7        9.10     269      335.5
   06/24/2016 08:50      67.9      66.6       76     59.7      0.00      8.37      82.6     0.48      1014.0     3        59         5        69        9.10     269      337.2
   06/24/2016 08:40      66.6      66.1       79     59.6      0.00      8.37      82.4     0.48      1014.0     2        17         3       334        9.10     269       27.8
   06/24/2016 08:30      66.3      65.6       80     59.5      0.00      8.37      82.5     0.48      1014.0     2        26         4        28        9.10     269        1.7
   06/24/2016 08:20      65.5      65.0       81     59.4      0.00      8.37      82.7     0.48      1014.0     2        36         3         9        9.10     269       -5.7
   06/24/2016 08:10      65.1      64.5       83     59.3      0.00      8.37      82.8     0.48      1014.0     2        18         4        25        9.09     269       -4.3
   06/24/2016 08:00      64.6      63.9       84     59.2      0.00      8.37      82.6     0.48      1014.0     2        51         3        44        8.11     269        0.7
   06/24/2016 07:50      64.0      63.7       84     59.0      0.00      8.37      82.5     0.48      1014.0     2        38         3         0        8.11     269        0.5
   06/24/2016 07:40      64.0      63.7       84     59.0      0.00      8.37      82.8     0.48      1014.0     3        34         4        32        8.11     269       16.1
   06/24/2016 07:30      64.0      63.7       84     58.9      0.00      8.37      83.2     0.48      1014.0     2        51         4        75        8.11     269        9.2
   06/24/2016 07:20      63.9      63.3       84     58.7      0.00      8.37      82.8     0.48      1014.0     2        21         3         4        8.11     269        2.4
   06/24/2016 07:10      63.4      63.1       85     58.6      0.00      8.37      82.9     0.48      1014.0     1        40         2        37        8.11     269        0.9
   06/24/2016 07:00      63.1      62.8       86     58.5      0.00      8.37      83.1     0.48      1014.0     2        32         3        20        8.11     269       -1.7
   06/24/2016 06:50      63.0      62.5       86     58.5      0.00      8.37      82.8     0.48      1014.0     2        58         3        34        8.11     269       -4.1
   06/24/2016 06:40      62.6      61.9       88     58.5      0.00      8.37      83.1     0.48      1014.0     1        32         2        35        8.11     269       -7.9
   06/24/2016 06:30      61.8      61.4       89     58.2      0.00      8.37      83.6     0.48      1014.0     1        67         2        88        8.11     269      -15.5
   06/24/2016 06:20      61.4      60.6       89     57.9      0.00      8.37      83.3     0.48      1014.0     1        96         2        95        8.12     268      -20.9
   06/24/2016 06:10      60.8      60.2       89     57.3      0.00      8.37      83.2     0.48      1014.0     1       120         2       154        8.12     268      -27.4
   06/24/2016 06:00      60.5      60.3       89     57.1      0.00      8.37      83.2     0.48      1014.0     1       110         2       114        8.12     270      -36.3
   06/24/2016 05:50      60.5      59.9       89     56.9      0.00      8.37      83.0     0.48      1014.0     1       106         1        84        8.12     269      -42.9
   06/24/2016 05:40      60.3      59.9       88     56.6      0.00      8.37      83.3     0.48      1014.0     1       126         1       128        8.12     269      -47.2
   06/24/2016 05:30      60.4      60.3       88     56.7      0.00      8.37      83.1     0.48      1013.0     1       144         1       166        8.12     269      -51.3
   06/24/2016 05:20      60.6      60.3       86     56.2      0.00      8.37      83.4     0.48      1013.0     1       124         1       140        8.12     268      -54.7
   06/24/2016 05:10      61.0      60.8       86     56.7      0.00      8.37      83.8     0.48      1013.0     1       207         2       231        8.12     268      -53.7
   06/24/2016 05:00      61.0      60.7       86     56.6      0.00      8.37      83.5     0.48      1013.0     1       121         1       235        8.12     268      -55.1
   06/24/2016 04:50      61.4      61.0       86     57.1      0.00      8.37      83.7     0.48      1013.0     1       147         1       143        8.12     268      -54.7
   06/24/2016 04:40      62.1      61.4       86     57.5      0.00      8.37      83.6     0.48      1013.0     1       100         1       132        8.12     268      -56.5
   06/24/2016 04:30      62.2      61.8       86     57.7      0.00      8.37      83.3     0.48      1013.0     1        81         1       135        8.12     268      -58.2
   06/24/2016 04:20      62.2      61.5       86     57.4      0.00      8.37      83.7     0.48      1013.0     2       130         2       137        8.12     268      -60.4
   06/24/2016 04:10      61.7      61.5       85     56.9      0.00      8.37      84.0     0.48      1013.0     2       131         2       145        8.12     268      -61.7
   06/24/2016 04:00      62.0      61.6       84     57.0      0.00      8.37      83.7     0.48      1013.0     1       132         1       127        8.12     268      -61.8
   06/24/2016 03:50      62.3      62.0       84     57.2      0.00      8.37      83.8     0.48      1013.0     1       148         2       139        8.13     268      -62.5
   06/24/2016 03:40      62.5      62.2       83     57.2      0.00      8.37      83.7     0.48      1013.0     1       163         1       198        8.14     268      -62.4
   06/24/2016 03:30      62.5      62.1       82     56.7      0.00      8.37      83.6     0.48      1013.0     1       146         2       154        8.15     268      -63.9
   06/24/2016 03:20      62.6      62.3       81     56.4      0.00      8.37      83.7     0.48      1013.0     1       146         1       138        8.15     268      -64.7
   06/24/2016 03:10      63.1      62.8       80     56.6      0.00      8.37      84.0     0.48      1013.0     1       195         1       165        8.15     268      -64.7
   06/24/2016 03:00      63.4      62.9       80     56.8      0.00      8.37      84.0     0.48      1013.0     0       146         0       193        8.15     268      -65.2
   06/24/2016 02:50      63.7      63.4       79     57.0      0.00      8.37      84.0     0.48      1013.0     1       173         1        82        8.16     268      -65.0
   06/24/2016 02:40      64.0      63.8       78     57.0      0.00      8.37      84.0     0.48      1014.0     1       108         2       107        8.16     268      -65.8
   06/24/2016 02:30      64.5      64.1       78     57.5      0.00      8.37      84.0     0.48      1014.0     1       154         2       161        8.16     268      -66.0
   06/24/2016 02:20      64.6      64.3       80     58.0      0.00      8.37      84.0     0.48      1014.0     1       114         2       117        8.16     268      -67.0
   06/24/2016 02:10      64.3      64.0       79     57.6      0.00      8.37      83.9     0.48      1014.0     2       102         2        99        8.16     268      -67.0
   06/24/2016 02:00      65.0      64.4       78     57.7      0.00      8.37      84.0     0.48      1014.0     1       112         2       132        8.17     267      -66.2
   06/24/2016 01:50      65.0      64.5       79     57.9      0.00      8.37      84.0     0.48      1014.0     0       281         1       181        8.17     267      -66.4
   06/24/2016 01:40      64.9      64.5       78     57.6      0.00      8.37      84.1     0.48      1014.0     1       165         2       133        8.17     267      -67.8
   06/24/2016 01:30      65.2      64.8       77     57.6      0.00      8.37      84.1     0.48      1014.0     1       142         2       127        8.17     267      -68.5
   06/24/2016 01:20      65.8      65.2       75     57.4      0.00      8.37      84.0     0.48      1014.0     0       152         1       147        8.17     267      -68.8
   06/24/2016 01:10      66.0      65.8       75     58.0      0.00      8.37      83.9     0.48      1014.0     1       172         1       180        8.17     267      -69.4
   06/24/2016 01:00      66.2      65.9       75     57.7      0.00      8.37      84.0     0.48      1014.0     1        78         1        18        8.18     267      -70.3
   06/24/2016 00:50      66.3      66.1       74     57.6      0.00      8.37      84.3     0.48      1014.0     1        85         1        55        8.18     267      -71.1
   06/24/2016 00:40      66.3      66.1       72     56.8      0.00      8.37      84.6     0.48      1014.0     1       111         2        79        8.18     267      -71.1
   06/24/2016 00:30      66.7      66.4       70     56.7      0.00      8.37      84.4     0.48      1014.0     1       124         1       124        8.18     267      -71.5
   06/24/2016 00:20      66.9      66.6       70     56.7      0.00      8.37      84.6     0.48      1014.0     1        98         1        47        8.18     267      -71.0
   06/24/2016 00:10      66.9      66.7       68     56.0      0.00      8.37      84.3     0.48      1014.0     1        95         1       113        8.18     267      -71.9
   06/24/2016 00:00      67.8      67.0       66     55.5      0.00      8.37      84.3     0.48      1014.0     1        82         1       119        8.18     267      -72.4
   06/23/2016 23:50      67.7      67.5       67     56.2      0.00      8.37      84.3     0.48      1014.0     1        60         1        38        8.18     267      -72.7
   06/23/2016 23:40      67.8      67.5       66     55.9      0.00      8.37      84.4     0.48      1014.0     0        76         1        40        8.19     267      -73.3
   06/23/2016 23:30      68.6      67.8       64     55.6      0.00      8.37      84.3     0.48      1014.0     1       105         2        82        8.19     267      -74.4
   06/23/2016 23:20      69.1      68.7       64     56.3      0.00      8.37      84.4     0.48      1014.0     1       100         2        83        8.19     267      -75.0
   06/23/2016 23:10      69.3      69.1       64     56.5      0.00      8.37      84.7     0.48      1014.0     1        91         2        84        8.19     267      -76.6
   06/23/2016 23:00      70.1      69.6       63     56.7      0.00      8.37      84.7     0.48      1014.0     1        79         2        31        8.19     267      -77.2
   06/23/2016 22:50      70.7      70.1       62     56.8      0.00      8.37      84.6     0.48      1014.0     2        57         3        71        8.19     267      -77.9
   06/23/2016 22:40      70.9      70.7       60     56.4      0.00      8.37      84.4     0.48      1013.0     2        39         3        73        8.19     267      -79.2
   06/23/2016 22:30      71.4      71.0       60     56.4      0.00      8.37      84.6     0.48      1013.0     2        63         4        82        8.19     267      -79.7
   06/23/2016 22:20      71.8      71.5       59     56.4      0.00      8.37      84.3     0.48      1013.0     2        55         4        83        8.19     267      -80.0
   06/23/2016 22:10      72.1      71.7       59     56.7      0.00      8.37      84.2     0.48      1013.0     2        70         4        70        8.19     267      -80.3
   06/23/2016 22:00      72.4      72.1       59     57.0      0.00      8.37      84.3     0.48      1013.0     2        88         3        71        8.20     267      -81.2
   06/23/2016 21:50      72.8      72.5       58     57.1      0.00      8.37      84.3     0.48      1013.0     2        92         3        77        8.20     267      -81.2
   06/23/2016 21:40      73.5      73.0       57     57.0      0.00      8.37      84.5     0.48      1013.0     2       101         3        78        8.20     266      -81.7
   06/23/2016 21:30      74.2      73.6       56     57.0      0.00      8.37      84.4     0.48      1013.0     2        82         2        67        8.20     266      -82.3
   06/23/2016 21:20      74.7      74.2       55     57.0      0.00      8.37      84.4     0.48      1013.0     2        62         5        74        8.20     266      -83.5
   06/23/2016 21:10      75.3      74.8       53     56.8      0.00      8.37      84.4     0.48      1013.0     1        64         3        40        8.20     266      -84.4
   06/23/2016 21:00      75.7      75.3       52     56.8      0.00      8.37      84.3     0.48      1013.0     2        45         3        78        8.20     266      -85.1
   06/23/2016 20:50      76.5      75.7       51     56.7      0.00      8.37      84.4     0.48      1012.0     3        83         4        90        8.20     266      -86.0
   06/23/2016 20:40      77.4      76.6       50     56.6      0.00      8.37      84.2     0.48      1012.0     2        70         4        75        8.21     266      -87.1
   06/23/2016 20:30      78.2      77.4       48     56.7      0.00      8.37      84.2     0.48      1012.0     2        54         3        60        8.21     266      -88.2
   06/23/2016 20:20      78.9      78.3       47     56.6      0.00      8.37      84.3     0.48      1012.0     2        55         3       104        8.22     266      -87.9
   06/23/2016 20:10      79.3      79.0       46     57.0      0.00      8.37      84.2     0.48      1012.0     2        62         3        47        8.23     266      -85.8
   06/23/2016 20:00      80.4      79.6       46     57.1      0.00      8.37      84.3     0.48      1012.0     3        49         4        67        8.24     266      -83.0
   06/23/2016 19:50      81.4      80.5       45     57.4      0.00      8.37      84.5     0.48      1012.0     2        59         4        54        8.25     266      -79.9
   06/23/2016 19:40      82.1      81.5       44     57.6      0.00      8.37      84.3     0.48      1012.0     3        43         5        58        8.25     266      -70.0
   06/23/2016 19:30      82.8      82.1       43     57.7      0.00      8.37      84.2     0.48      1012.0     3        36         5        28        8.26     266      -51.9
   06/23/2016 19:20      83.5      83.1       42     57.9      0.00      8.37      84.1     0.48      1012.0     3        33         4        19        8.26     266      -36.5
   06/23/2016 19:10      83.9      83.5       42     58.1      0.00      8.37      84.2     0.48      1012.0     3        29         4        12        8.26     266      -17.5
   06/23/2016 19:00      84.5      83.9       42     58.3      0.00      8.37      83.9     0.48      1012.0     3        26         5       351        8.27     265        2.9
   06/23/2016 18:50      85.1      84.4       41     58.4      0.00      8.37      83.9     0.48      1012.0     4        31         5        32        8.27     265       22.2
   06/23/2016 18:40      86.1      85.2       40     58.5      0.00      8.37      83.9     0.48      1012.0     3        38         5        72        8.28     265       42.9
   06/23/2016 18:30      86.3      85.9       40     58.7      0.00      8.37      83.8     0.48      1012.0     4        27         6        28        8.28     266       64.9
   06/23/2016 18:20      86.6      86.3       39     58.6      0.00      8.37      83.9     0.48      1012.0     3        38         4        18        8.28     266       88.0
   06/23/2016 18:10      86.7      86.3       39     58.5      0.00      8.37      83.8     0.48      1012.0     4        44         6        32        8.29     265      111.6
   06/23/2016 18:00      87.2      86.7       38     58.5      0.00      8.37      83.6     0.48      1012.0     4        23         6        30        8.29     265      134.0
   06/23/2016 17:50      87.7      86.8       38     58.5      0.00      8.37      83.7     0.48      1012.0     3        47         5        26        8.29     265      156.7
   06/23/2016 17:40      87.6      87.1       38     58.5      0.00      8.37      83.7     0.48      1012.0     4        55         8        84        8.30     265      181.1
   06/23/2016 17:30      88.0      87.5       37     58.6      0.00      8.37      83.7     0.48      1012.0     4        47         7        62        8.30     265      203.6
   06/23/2016 17:20      88.0      87.8       37     58.7      0.00      8.37      83.7     0.48      1012.0     4        67         6        81        8.31     265      226.3
   06/23/2016 17:10      88.9      88.6       37     59.1      0.00      8.37      83.4     0.48      1012.0     4        30         7        23        8.31     265      246.8
   06/23/2016 17:00      89.1      88.0       37     59.2      0.00      8.37      83.5     0.48      1012.0     5        16         6        45        8.31     265      267.5
   06/23/2016 16:50      89.6      88.7       37     59.5      0.00      8.37      83.3     0.48      1012.0     5        27         7         1        8.32     265      288.7
   06/23/2016 16:40      89.2      88.4       37     59.4      0.00      8.37      83.3     0.48      1012.0     5        45         7        61        8.32     265      310.2
   06/23/2016 16:30      89.2      88.4       37     59.5      0.00      8.37      83.2     0.48      1012.0     5        50         6        93        8.32     265      330.4
   06/23/2016 16:20      90.1      88.6       37     59.6      0.00      8.37      83.2     0.48      1012.0     5        42         9        98        8.32     265      349.7
   06/23/2016 16:10      90.3      89.5       37     60.0      0.00      8.37      83.2     0.47      1012.0     4        46         6        59        8.33     265      366.9
   06/23/2016 16:00      90.1      89.4       37     60.0      0.00      8.37      83.1     0.47      1012.0     4        32         7        82        8.33     265      384.7
   06/23/2016 15:50      90.3      89.2       37     60.1      0.00      8.37      83.1     0.47      1012.0     4        42         5        64        8.33     265      402.1
   06/23/2016 15:40      90.2      89.2       37     60.2      0.00      8.37      82.7     0.47      1012.0     5        56         6        94        8.33     266      416.2
   06/23/2016 15:30      90.2      89.8       37     60.3      0.00      8.37      82.8     0.47      1012.0     4        54         6        56        8.34     266      430.4
   06/23/2016 15:20      90.4      89.2       37     60.4      0.00      8.37      82.7     0.47      1012.0     4        73         7        99        8.34     266      447.5
   06/23/2016 15:10      90.1      89.4       38     60.4      0.00      8.37      82.6     0.47      1012.0     5        53         8        78        8.34     266      458.8
   06/23/2016 15:00      90.3      89.8       37     60.6      0.00      8.37      82.6     0.47      1012.0     4        56        10        68        8.34     266      471.7
   06/23/2016 14:50      90.2      88.1       38     60.5      0.00      8.37      82.6     0.47      1013.0     4        66         6        85        8.35     266      482.6
   06/23/2016 14:40      89.9      88.4       38     60.4      0.00      8.37      82.5     0.47      1013.0     5        62         7        66        8.36     266      491.7
   06/23/2016 14:30      89.8      87.8       39     60.4      0.00      8.37      82.4     0.47      1013.0     4        55         6        76        8.36     266      501.8
   06/23/2016 14:20      89.8      87.9       38     60.3      0.00      8.37      82.3     0.47      1013.0     5        86         8        99        8.37     266      510.3
   06/23/2016 14:10      90.1      88.2       38     60.2      0.00      8.37      82.1     0.47      1013.0     4        65         6        92        8.37     266      518.9
   06/23/2016 14:00      89.8      88.5       38     60.0      0.00      8.37      82.2     0.47      1013.0     3        51         5        89        8.38     267      522.0
   06/23/2016 13:50      89.8      87.4       39     60.0      0.00      8.37      82.2     0.47      1013.0     3         9         5        17        8.38     267      532.2
   06/23/2016 13:40      88.2      87.1       40     60.1      0.00      8.37      82.0     0.47      1013.0     4        53         8        63        8.38     267      540.9
   06/23/2016 13:30      87.7      86.3       40     60.0      0.00      8.37      82.1     0.47      1013.0     5        91         9       127        8.38     267      546.6
   06/23/2016 13:20      88.7      87.6       39     60.1      0.00      8.37      82.2     0.47      1013.0     4        57         6        37        8.38     268      542.5
   06/23/2016 13:10      87.9      87.1       39     59.4      0.00      8.37      81.9     0.47      1014.0     3        66         6        18        8.38     268      543.1
   06/23/2016 13:00      86.9      86.1       40     59.3      0.00      8.37      81.9     0.47      1014.0     3        30         4        11        8.39     268      551.8
   06/23/2016 12:50      87.8      86.8       39     59.7      0.00      8.37      82.0     0.47      1014.0     4        44         5        88        8.39     268      549.8
   06/23/2016 12:40      87.1      86.0       40     59.5      0.00      8.37      81.9     0.47      1014.0     4        62         7        76        8.39     268      554.5
   06/23/2016 12:30      86.5      85.3       41     59.4      0.00      8.37      82.0     0.47      1014.0     3        25         5         8        8.39     268      551.5
   06/23/2016 12:20      86.6      85.8       40     59.0      0.00      8.37      81.8     0.47      1014.0     4        42         5        75        8.39     268      548.6
   06/23/2016 12:10      86.2      85.0       41     58.9      0.00      8.37      82.0     0.47      1014.0     4        36         6       332        8.39     268      545.1
   06/23/2016 12:00      85.4      83.4       42     58.9      0.00      8.37      82.0     0.47      1014.0     3         0         5         2        8.39     268      541.8
   06/23/2016 11:50      84.5      82.9       43     59.0      0.00      8.37      81.7     0.47      1014.0     4         8         7        12        8.39     268      535.7
   06/23/2016 11:40      82.9      82.3       45     58.8      0.00      8.37      81.9     0.47      1014.0     3       357         4       327        8.39     269      531.8
   06/23/2016 11:30      82.1      81.3       46     59.1      0.00      8.37      81.9     0.47      1014.0     3        27         5       346        8.40     268      526.9
   06/23/2016 11:20      81.6      81.0       48     59.7      0.00      8.37      82.2     0.47      1014.0     3        48         5        90        8.40     268      520.7
   06/23/2016 11:10      80.8      79.7       50     59.7      0.00      8.37      82.0     0.47      1014.0     4       344         5       357        8.40     269      510.6
   06/23/2016 11:00      79.6      78.7       52     59.7      0.00      8.37      82.0     0.47      1014.0     3        64         5       141        8.40     269      504.9
   06/23/2016 10:50      78.7      77.8       53     59.6      0.00      8.37      81.8     0.47      1014.0     3       357         4        75        8.40     270      490.4
   06/23/2016 10:40      77.6      76.6       55     59.9      0.00      8.37      81.9     0.47      1014.0     2        49         4       336        8.40     270      476.9
   06/23/2016 10:30      77.8      75.8       56     60.0      0.00      8.37      82.1     0.48      1014.0     3       335         4       354        8.40     270      464.3
   06/23/2016 10:20      75.7      75.2       58     59.8      0.00      8.37      81.9     0.48      1015.0     2       359         4        59        8.41     270      449.5
   06/23/2016 10:10      75.8      73.8       59     59.9      0.00      8.37      81.7     0.48      1014.0     2        74         5        68        8.41     270      433.7
   06/23/2016 10:00      73.5      72.4       63     59.7      0.00      8.37      81.7     0.48      1015.0     3        28         5       339        8.41     270      415.4
   06/23/2016 09:50      72.8      72.2       64     59.8      0.00      8.37      82.0     0.48      1015.0     3        15         4         3        8.41     270      396.6
   06/23/2016 09:40      72.2      71.1       66     59.7      0.00      8.37      82.6     0.48      1015.0     2         4         3       353        8.41     270      376.8
   06/23/2016 09:30      71.4      70.4       67     59.6      0.00      8.37      82.1     0.48      1015.0     2        10         3       107        8.41     270      356.8
   06/23/2016 09:20      70.1      68.9       71     59.5      0.00      8.37      82.6     0.48      1015.0     2        31         4        31        8.41     270      338.4
   06/23/2016 09:10      69.7      68.2       72     59.6      0.00      8.37      82.0     0.48      1015.0     2        29         3         6        8.41     270      316.0
   06/23/2016 09:00      68.3      66.4       77     59.5      0.00      8.37      82.7     0.48      1015.0     2       325         3       349        8.41     270      317.7
   06/23/2016 08:50      66.3      65.8       79     59.4      0.00      8.37      82.2     0.48      1015.0     2        88         3       107        8.41     270      177.3
   06/23/2016 08:40      65.9      65.5       80     59.4      0.00      8.37      82.4     0.48      1015.0     2        23         3         6        8.42     270      140.9
   06/23/2016 08:30      65.8      65.0       81     59.3      0.00      8.37      82.5     0.48      1015.0     2        13         4        13        8.42     270      140.9
   06/23/2016 08:20      65.3      64.4       82     59.3      0.00      8.37      82.4     0.48      1015.0     2        18         4       357        8.42     270      112.4
   06/23/2016 08:10      64.3      63.8       84     59.0      0.00      8.37      82.5     0.48      1015.0     2        11         3       349        8.42     270       86.1
   06/23/2016 08:00      64.0      63.5       84     59.0      0.00      8.37      82.2     0.48      1015.0     2         7         4       358        8.42     270       80.7
   06/23/2016 07:50      64.0      63.2       86     59.1      0.00      8.37      82.5     0.48      1015.0     2        21         3        31        8.42     270       82.4
   06/23/2016 07:40      63.4      63.2       86     59.0      0.00      8.37      82.3     0.48      1015.0     2        32         3        69        8.42     270       66.6
   06/23/2016 07:30      63.3      62.5       87     59.1      0.00      8.37      82.5     0.48      1015.0     2        60         2        79        8.42     270       49.2
   06/23/2016 07:20      62.6      62.1       89     58.9      0.00      8.37      82.6     0.48      1015.0     1       114         3        64        8.42     270       35.0
   06/23/2016 07:10      62.5      62.2       89     58.9      0.00      8.37      82.8     0.48      1015.0     2        89         4        67        8.42     270       29.1
   06/23/2016 07:00      62.6      62.1       89     59.0      0.00      8.37      82.7     0.48      1015.0     2        58         3        57        8.42     270       22.8
   06/23/2016 06:50      62.5      62.2       89     59.0      0.00      8.37      82.7     0.49      1014.0     2        77         5        72        8.42     270       18.9
   06/23/2016 06:40      62.4      61.6       90     59.0      0.00      8.37      82.8     0.48      1014.0     2        42         2       156        8.42     270       13.4
   06/23/2016 06:30      61.7      61.4       90     58.7      0.00      8.37      82.9     0.49      1014.0     2        98         3        71        8.43     270        7.8
   06/23/2016 06:20      61.5      61.0       91     58.5      0.00      8.37      82.8     0.49      1014.0     2       107         3        66        8.43     270        2.5
   06/23/2016 06:10      61.0      60.5       91     58.3      0.00      8.37      82.7     0.49      1014.0     2        88         3        72        8.43     270       -3.3
   06/23/2016 06:00      60.5      60.1       91     57.7      0.00      8.37      82.8     0.49      1014.0     2        80         3        88        8.43     270      -16.3
   06/23/2016 05:50      60.3      60.0       91     57.5      0.00      8.37      83.3     0.49      1014.0     1       110         2       122        8.43     269      -32.3
   06/23/2016 05:40      60.4      60.2       90     57.6      0.00      8.37      83.1     0.49      1014.0     1        86         2        78        8.43     269      -38.4
   06/23/2016 05:30      60.8      60.4       90     57.8      0.00      8.37      83.3     0.49      1014.0     1        79         1        72        8.43     269      -41.8
   06/23/2016 05:20      60.9      60.7       91     58.0      0.00      8.37      83.0     0.49      1014.0     1        88         2        69        8.43     269      -45.0
   06/23/2016 05:10      60.9      60.8       90     58.0      0.00      8.37      83.2     0.49      1014.0     1        82         2       116        8.43     269      -48.6
   06/23/2016 05:00      61.0      60.9       89     57.7      0.00      8.37      82.9     0.49      1014.0     1        98         2        79        8.43     270      -51.7
   06/23/2016 04:50      61.3      60.9       89     57.8      0.00      8.37      83.3     0.49      1014.0     1        80         2        34        8.43     269      -54.0
   06/23/2016 04:40      61.5      61.4       89     58.1      0.00      8.37      83.0     0.49      1014.0     1        59         2       107        8.43     269      -56.6
   06/23/2016 04:30      61.8      61.6       88     58.1      0.00      8.37      83.4     0.49      1014.0     1        68         2        80        8.43     269      -59.1
   06/23/2016 04:20      62.0      61.9       88     58.2      0.00      8.37      83.4     0.49      1014.0     1        53         3        83        8.43     269      -60.9
   06/23/2016 04:10      62.2      62.1       87     58.3      0.00      8.37      83.6     0.49      1014.0     2        39         2        36        8.43     269      -62.2
   06/23/2016 04:00      62.3      62.1       87     58.2      0.00      8.37      83.3     0.49      1014.0     2        36         2        28        8.43     269      -63.7
   06/23/2016 03:50      62.5      62.3       86     58.2      0.00      8.37      83.5     0.49      1014.0     2        39         3        15        8.43     269      -64.3
   06/23/2016 03:40      62.6      62.3       86     58.2      0.00      8.37      83.2     0.49      1014.0     2        49         3        85        8.43     269      -64.8
   06/23/2016 03:30      62.9      62.8       85     58.3      0.00      8.37      83.5     0.49      1014.0     2        42         4        69        8.43     269      -66.0
   06/23/2016 03:20      63.4      63.0       84     58.4      0.00      8.37      83.6     0.49      1014.0     2        37         2        53        8.44     269      -66.7
   06/23/2016 03:10      63.5      63.2       84     58.3      0.00      8.37      83.6     0.49      1014.0     2        46         4        74        8.44     269      -66.8
   06/23/2016 03:00      63.9      63.5       83     58.5      0.00      8.37      83.6     0.49      1014.0     2        55         3        79        8.44     269      -67.3
   06/23/2016 02:50      64.1      63.8       83     58.6      0.00      8.37      83.9     0.49      1014.0     2        48         3        53        8.44     269      -67.5
   06/23/2016 02:40      64.4      64.1       82     58.7      0.00      8.37      83.7     0.49      1014.0     2        35         3        32        8.44     269      -68.0
   06/23/2016 02:30      64.6      64.2       82     58.6      0.00      8.37      83.8     0.49      1014.0     2        48         2        32        8.44     269      -68.6
   06/23/2016 02:20      64.6      64.4       81     58.7      0.00      8.37      83.5     0.49      1014.0     1        40         2        34        8.44     269      -69.3
   06/23/2016 02:10      64.9      64.5       81     58.8      0.00      8.37      83.8     0.49      1014.0     2        43         2        65        8.44     269      -69.5
   06/23/2016 02:00      65.0      64.8       81     58.8      0.00      8.37      83.6     0.49      1014.0     1        57         2        77        8.45     269      -69.9
   06/23/2016 01:50      65.1      64.8       80     58.8      0.00      8.37      83.7     0.49      1014.0     2        58         4        71        8.45     269      -70.3
   06/23/2016 01:40      65.3      65.1       79     58.7      0.00      8.37      83.9     0.49      1014.0     1        60         2        93        8.45     269      -70.6
   06/23/2016 01:30      65.5      65.3       79     58.7      0.00      8.37      83.9     0.49      1014.0     2        64         3        69        8.45     269      -70.7
   06/23/2016 01:20      65.8      65.5       78     58.7      0.00      8.37      83.8     0.49      1014.0     2        72         4        68        8.45     269      -71.1
   06/23/2016 01:10      66.1      65.8       77     58.6      0.00      8.37      84.0     0.49      1014.0     2        45         4        59        8.45     268      -72.5
   06/23/2016 01:00      66.2      66.0       77     58.6      0.00      8.37      83.9     0.49      1014.0     2        72         3        63        8.45     268      -72.2
   06/23/2016 00:50      66.4      66.2       76     58.6      0.00      8.37      83.8     0.49      1014.0     2        81         3        86        8.45     268      -72.2
   06/23/2016 00:40      66.9      66.5       75     58.6      0.00      8.37      83.9     0.49      1014.0     2        81         4        80        8.45     268      -72.3
   06/23/2016 00:30      67.2      66.8       74     58.5      0.00      8.37      84.2     0.49      1014.0     2        63         4        77        8.45     268      -73.1
   06/23/2016 00:20      67.7      67.2       73     58.4      0.00      8.37      84.0     0.49      1014.0     2        59         4        81        8.45     268      -73.8
   06/23/2016 00:10      68.0      67.7       72     58.3      0.00      8.37      84.0     0.49      1014.0     2        48         3        60        8.46     268      -74.1
   06/23/2016 00:00      68.1      67.9       71     58.2      0.00      8.37      84.0     0.49      1014.0     2        43         3        40        8.46     268      -74.4
   06/22/2016 23:50      68.6      68.1       69     58.0      0.00      8.37      84.1     0.49      1014.0     2        51         3        70        8.46     268      -74.2
   06/22/2016 23:40      68.7      68.5       68     57.8      0.00      8.37      84.2     0.49      1014.0     2        58         3        71        8.46     268      -74.1
   06/22/2016 23:30      69.0      68.6       67     57.5      0.00      8.37      84.0     0.49      1014.0     2        47         2        34        8.46     268      -74.3
   06/22/2016 23:20      69.5      69.1       66     57.4      0.00      8.37      84.2     0.49      1014.0     2        46         4        76        8.46     268      -74.8
   06/22/2016 23:10      69.7      69.4       64     56.8      0.00      8.37      84.4     0.49      1014.0     1        52         2        66        8.46     267      -75.1
   06/22/2016 23:00      70.3      69.8       62     56.4      0.00      8.37      84.1     0.49      1014.0     1        57         2        35        8.46     267      -75.6
   06/22/2016 22:50      70.7      70.2       60     56.0      0.00      8.37      84.5     0.49      1014.0     1        61         2        87        8.46     267      -76.2
   06/22/2016 22:40      71.0      70.7       59     55.7      0.00      8.37      84.2     0.49      1014.0     1        53         4        67        8.47     267      -77.0
   06/22/2016 22:30      71.5      71.1       58     55.7      0.00      8.37      84.3     0.49      1014.0     1        53         3        71        8.47     267      -77.4
   06/22/2016 22:20      71.8      71.5       57     55.6      0.00      8.37      84.1     0.49      1013.0     1        39         2        54        8.47     267      -78.0
   06/22/2016 22:10      72.4      71.9       56     55.6      0.00      8.37      84.1     0.49      1013.0     2        84         3        86        8.47     267      -78.7
   06/22/2016 22:00      72.6      72.3       55     55.4      0.00      8.37      84.1     0.49      1013.0     1        50         2        40        8.47     267      -79.2
   06/22/2016 21:50      73.0      72.7       54     55.2      0.00      8.37      84.2     0.49      1013.0     2        70         3        79        8.47     266      -79.9
   06/22/2016 21:40      73.6      73.1       52     54.8      0.00      8.37      84.3     0.49      1013.0     1        73         2        72        8.47     266      -79.9
   06/22/2016 21:30      74.2      73.7       51     54.5      0.00      8.37      84.2     0.49      1013.0     2        74         3        84        8.47     266      -80.6
   06/22/2016 21:20      74.8      74.3       49     54.2      0.00      8.37      84.0     0.49      1013.0     1        63         3        87        8.47     266      -81.0
   06/22/2016 21:10      75.5      74.8       48     54.0      0.00      8.37      84.4     0.49      1013.0     1        44         2        32        8.47     266      -82.2
   06/22/2016 21:00      75.6      75.4       47     53.9      0.00      8.37      84.3     0.49      1013.0     1        27         3        54        8.47     266      -83.2
   06/22/2016 20:50      76.8      75.8       46     54.0      0.00      8.37      84.2     0.49      1013.0     2        28         4        34        8.47     266      -84.0
   06/22/2016 20:40      77.3      77.1       44     53.8      0.00      8.37      84.0     0.49      1013.0     2        19         4       350        8.48     266      -84.7
   06/22/2016 20:30      77.9      77.3       44     53.9      0.00      8.37      84.0     0.49      1012.0     2        27         4        13        8.48     266      -84.9
   06/22/2016 20:20      79.3      78.1       42     54.0      0.00      8.37      84.3     0.49      1013.0     3        30         4        28        8.48     266      -85.2
   06/22/2016 20:10      80.3      79.5       40     53.7      0.00      8.37      84.0     0.49      1012.0     2        23         3        25        8.48     266      -83.3
   06/22/2016 20:00      80.5      80.2       37     52.1      0.00      8.37      84.0     0.49      1012.0     2        88         3        30        8.48     265      -79.3
   06/22/2016 19:50      81.2      80.6       36     51.6      0.00      8.37      84.1     0.49      1012.0     3       165         5       159        8.48     265      -75.1
   06/22/2016 19:40      82.1      81.3       35     51.6      0.00      8.37      84.0     0.49      1012.0     4       172         6       191        8.48     265      -64.7
   06/22/2016 19:30      82.4      81.8       34     51.2      0.00      8.37      83.8     0.49      1012.0     4       185         6       198        8.49     265      -46.6
   06/22/2016 19:20      83.3      82.4       33     51.1      0.00      8.37      84.1     0.49      1012.0     4       167         6       148        8.49     265      -30.2
   06/22/2016 19:10      84.0      83.3       33     51.1      0.00      8.37      84.0     0.48      1012.0     5       169         7       159        8.49     265      -12.4
   06/22/2016 19:00      84.5      83.9       32     50.9      0.00      8.37      83.9     0.48      1012.0     5       163         6       155        8.50     265        7.4
   06/22/2016 18:50      85.2      84.4       31     50.4      0.00      8.37      83.7     0.48      1012.0     5       160         7       173        8.50     264       28.4
   06/22/2016 18:40      86.0      85.3       29     49.4      0.00      8.37      83.8     0.48      1012.0     5       180         8       162        8.50     265       48.8
   06/22/2016 18:30      86.8      86.2       26     47.8      0.00      8.37      83.7     0.48      1012.0     6       154         7       172        8.51     265       69.8
   06/22/2016 18:20      87.0      86.6       25     46.3      0.00      8.37      83.6     0.48      1012.0     6       139         9       132        8.51     265       92.1
   06/22/2016 18:10      87.8      87.1       24     45.7      0.00      8.37      83.6     0.48      1012.0     7       150        11       153        8.52     265      113.8
   06/22/2016 18:00      88.7      87.7       22     44.5      0.00      8.37      83.6     0.48      1012.0     6       147         9       129        8.52     265      136.6
   06/22/2016 17:50      88.5      88.2       20     42.7      0.00      8.37      83.6     0.48      1012.0     7       154         9       156        8.53     265      159.5
   06/22/2016 17:40      88.8      88.0       20     42.1      0.00      8.37      83.5     0.48      1012.0     8       144         9       125        8.54     264      182.6
   06/22/2016 17:30      88.8      88.2       21     43.8      0.00      8.37      83.2     0.48      1012.0     7       155        10       155        8.54     264      206.1
   06/22/2016 17:20      88.7      88.2       22     44.9      0.00      8.37      83.2     0.48      1012.0     7       147        10       162        8.54     264      228.7
   06/22/2016 17:10      89.2      88.8       23     45.9      0.00      8.37      83.3     0.48      1012.0     7       155        10       150        8.55     264      250.0
   06/22/2016 17:00      90.1      88.9       23     46.4      0.00      8.37      83.2     0.48      1012.0     7       157         8       147        8.56     264      271.4
   06/22/2016 16:50      89.8      89.4       23     46.5      0.00      8.37      83.0     0.48      1012.0     8       161        10       174        8.56     264      292.2
   06/22/2016 16:40      89.8      89.1       23     46.6      0.00      8.37      83.0     0.48      1012.0     8       157        11       156        8.57     264      313.8
   06/22/2016 16:30      89.9      89.3       23     47.3      0.00      8.37      83.0     0.48      1012.0     8       179        11       175        8.58     264      333.7
   06/22/2016 16:20      91.2      90.1       23     47.4      0.00      8.37      83.0     0.48      1012.0     8       158        10       145        8.58     264      349.4
   06/22/2016 16:10      91.1      90.1       23     47.2      0.00      8.37      82.7     0.48      1012.0     9       158        12       152        8.59     265      369.2
   06/22/2016 16:00      91.9      91.2       22     47.1      0.00      8.37      82.8     0.48      1012.0     7       166         9       141        8.60     265      384.5
   06/22/2016 15:50      92.0      91.0       22     47.2      0.00      8.37      82.6     0.48      1012.0     8       152        10       122        8.60     265      399.7
   06/22/2016 15:40      92.5      91.8       22     47.4      0.00      8.37      82.6     0.48      1012.0     7       159        10       155        8.61     265      413.6
   06/22/2016 15:30      92.8      92.0       22     47.7      0.00      8.37      82.4     0.48      1012.0     6       162         9       161        8.62     266      427.7
   06/22/2016 15:20      92.4      91.8       22     47.7      0.00      8.37      82.4     0.48      1012.0     6       177         9       180        8.62     265      441.6
   06/22/2016 15:10      92.7      92.0       22     47.9      0.00      8.37      82.3     0.48      1012.0     6       174         9       184        8.63     265      452.9
   06/22/2016 15:00      93.1      91.5       22     47.7      0.00      8.37      82.5     0.48      1012.0     6       176         8       161        8.64     265      464.6
   06/22/2016 14:50      93.4      92.0       22     48.0      0.00      8.37      82.3     0.48      1012.0     5       171         7       174        8.64     266      474.2
   06/22/2016 14:40      93.2      92.1       22     47.9      0.00      8.37      82.1     0.48      1012.0     4       186         6       180        8.65     266      484.6
   06/22/2016 14:30      92.8      91.4       22     47.8      0.00      8.37      82.2     0.48      1012.0     5       169         8       176        8.65     266      495.0
   06/22/2016 14:20      92.2      91.7       22     48.2      0.00      8.37      82.2     0.48      1012.0     4       183         7       210        8.66     266      502.4
   06/22/2016 14:10      92.7      91.6       22     48.3      0.00      8.37      82.0     0.48      1013.0     5       152         7       166        8.66     267      513.6
   06/22/2016 14:00      92.2      90.8       23     48.0      0.00      8.37      82.0     0.48      1013.0     4       141         7       140        8.66     268      521.3
   06/22/2016 13:50      92.2      91.1       23     48.1      0.00      8.37      81.9     0.48      1013.0     5       145         8       158        8.67     267      529.0
   06/22/2016 13:40      91.5      90.3       23     48.0      0.00      8.37      81.9     0.48      1013.0     6       166         9       186        8.68     268      536.6
   06/22/2016 13:30      91.4      90.6       23     47.7      0.00      8.37      81.9     0.48      1013.0     6       163         9       178        8.68     268      542.2
   06/22/2016 13:20      92.8      91.2       22     47.5      0.00      8.37      81.7     0.48      1013.0     6       175        11       159        8.69     268      544.1
   06/22/2016 13:10      92.0      91.4       22     47.8      0.00      8.37      81.5     0.48      1013.0     4       161         6       147        8.69     269      544.3
   06/22/2016 13:00      93.0      91.7       25     50.8      0.00      8.37      81.6     0.48      1013.0     4       127         7       151        8.69     270      544.4
   06/22/2016 12:50      92.6      92.0       27     53.6      0.00      8.37      81.8     0.48      1013.0     4        81         8       100        8.69     269      544.5
   06/22/2016 12:40      92.8      91.7       27     53.2      0.00      8.37      81.6     0.48      1013.0     3         6         5        97        8.69     270      541.8
   06/22/2016 12:30      91.8      90.8       27     52.9      0.00      8.37      81.8     0.48      1013.0     4       356         6         4        8.70     270      539.8
   06/22/2016 12:20      92.2      90.7       28     53.2      0.00      8.37      81.6     0.48      1013.0     4        19         6         0        8.70     270      540.8
   06/22/2016 12:10      90.8      89.5       28     53.0      0.00      8.37      81.6     0.48      1013.0     3        24         5        79        8.70     270      540.9
   06/22/2016 12:00      90.6      88.6       29     53.3      0.00      8.37      81.6     0.48      1013.0     4        13         8       353        8.70     270      536.6
   06/22/2016 11:50      89.5      87.5       30     53.1      0.00      8.37      81.5     0.48      1013.0     3       349         6       352        8.70     271      532.9
   06/22/2016 11:40      88.3      87.5       30     53.0      0.00      8.37      81.8     0.48      1013.0     4        35         7        72        8.70     272      526.4
   06/22/2016 11:30      88.2      86.3       31     53.1      0.00      8.37      81.8     0.48      1013.0     3         6         5        65        8.70     271      519.7
   06/22/2016 11:20      86.9      86.3       32     53.0      0.00      8.37      81.7     0.48      1014.0     3        62         6       141        8.70     271      514.5
   06/22/2016 11:10      86.4      85.6       33     53.3      0.00      8.37      81.9     0.48      1014.0     3        44         5        78        8.70     272      505.6
   06/22/2016 11:00      85.6      84.3       34     53.2      0.00      8.37      81.7     0.48      1014.0     3        27         5        17        8.71     274      493.0
   06/22/2016 10:50      84.6      83.7       35     53.3      0.00      8.37      81.2     0.48      1014.0     3        66         5        30        8.71     278      483.3
   06/22/2016 10:40      84.2      83.3       36     53.7      0.00      8.37      81.7     0.48      1014.0     4         7         6        14        8.71     293      470.6
   06/22/2016 10:30      83.9      82.4       37     54.0      0.00      8.37      81.7     0.49      1014.0     3        62         5        79        8.71     303      459.3
   06/22/2016 10:20      82.7      82.1       38     54.1      0.00      8.37      82.3     0.49      1014.0     2        33         3        71        8.71     318      444.1
   06/22/2016 10:10      82.4      80.9       40     54.6      0.00      8.37      81.7     0.49      1014.0     3        21         4       343        8.71     327      430.5
   06/22/2016 10:00      81.4      80.9       40     54.9      0.00      8.37      81.8     0.49      1014.0     3        57         5        50        8.71     337      415.4
   06/22/2016 09:50      81.4      80.1       42     55.3      0.00      8.37      81.7     0.49      1014.0     2        28         5        62        8.71     344      397.5
   06/22/2016 09:40      80.0      79.3       43     55.4      0.00      8.37      81.9     0.49      1014.0     3        23         4        52        8.71     352      380.8
   06/22/2016 09:30      79.0      77.9       45     55.5      0.00      8.37      82.0     0.49      1014.0     3        38         5        75        8.71     358      363.9
   06/22/2016 09:20      78.3      77.8       46     55.7      0.00      8.37      82.1     0.49      1014.0     3        14         5        11        8.72     362      347.9
   06/22/2016 09:10      78.0      76.9       48     56.1      0.00      8.37      82.2     0.49      1014.0     3        53         6        77        8.72     366      334.6
   06/22/2016 09:00      76.9      76.0       50     56.3      0.00      8.37      82.1     0.49      1014.0     3        31         5        74        8.72     369      331.6
   06/22/2016 08:50      76.4      74.5       52     56.5      0.00      8.37      82.2     0.50      1014.0     3        44         5       356        8.72     373      342.2
   06/22/2016 08:40      74.5      73.8       54     56.7      0.00      8.37      81.8     0.50      1014.0     3        55         4        69        8.72     377       37.2
   06/22/2016 08:30      74.0      73.2       56     57.1      0.00      8.37      82.4     0.50      1014.0     4        32         6        65        8.72     378       -8.2
   06/22/2016 08:20      73.4      73.1       58     57.5      0.00      8.37      81.9     0.50      1014.0     3        36         4        25        8.73     380      -16.1
   06/22/2016 08:10      72.9      72.3       60     57.8      0.00      8.37      82.5     0.50      1014.0     3        22         4        12        8.73     383      -13.6
   06/22/2016 08:00      72.3      71.7       62     58.3      0.00      8.37      82.2     0.50      1014.0     2        50         3        14        8.73     384      -11.4
   06/22/2016 07:50      71.8      71.1       65     59.1      0.00      8.37      82.2     0.50      1014.0     2        53         4        65        8.73     386      -12.8
   06/22/2016 07:40      71.2      70.3       67     59.1      0.00      8.37      82.7     0.50      1014.0     2        62         3        75        8.73     389        6.7
   06/22/2016 07:30      70.5      69.6       66     58.4      0.00      8.37      82.6     0.50      1014.0     2        44         3        64        8.73     390       -8.6
   06/22/2016 07:20      69.8      69.0       65     57.2      0.00      8.37      82.8     0.50      1014.0     2        29         3        35        8.73     393      -25.7
   06/22/2016 07:10      69.2      68.4       64     55.9      0.00      8.37      82.8     0.50      1014.0     1        51         2        34        8.73     401      -26.7
   06/22/2016 07:00      68.4      67.6       62     54.6      0.00      8.37      82.6     0.50      1014.0     1       114         2        99        8.73     401      -30.0
   06/22/2016 06:50      67.7      66.5       63     54.3      0.00      8.37      82.7     0.50      1014.0     0       160         1       151        8.74     401      -31.6
   06/22/2016 06:40      66.5      65.4       66     54.5      0.00      8.37      83.0     0.50      1014.0     1       166         2       149        8.74     401      -35.5
   06/22/2016 06:30      65.4      64.4       69     54.3      0.00      8.37      82.6     0.50      1014.0     1       140         2       130        8.74     400      -42.5
   06/22/2016 06:20      64.4      63.5       71     54.3      0.00      8.37      82.2     0.50      1014.0     1       161         2       139        8.74     397      -43.6
   06/22/2016 06:10      63.5      63.4       72     54.1      0.00      8.37      83.1     0.50      1014.0     2       139         2       138        8.74     397      -47.4
   06/22/2016 06:00      63.6      63.3       72     54.1      0.00      8.37      82.9     0.50      1013.0     1       136         2       141        8.74     396      -52.5
   06/22/2016 05:50      63.8      63.5       70     53.6      0.00      8.37      83.0     0.50      1013.0     1       159         1       192        8.74     395      -55.8
   06/22/2016 05:40      63.9      63.6       71     54.1      0.00      8.37      83.0     0.50      1013.0     1       147         1       142        8.74     394      -57.7
   06/22/2016 05:30      64.3      63.8       69     53.8      0.00      8.37      83.1     0.50      1013.0     1       139         1       143        8.74     393      -58.5
   06/22/2016 05:20      64.4      64.2       67     53.3      0.00      8.37      83.1     0.50      1013.0     1       194         1       195        8.74     392      -59.1
   06/22/2016 05:10      64.4      64.2       69     53.8      0.00      8.37      83.1     0.50      1013.0     1       159         1       144        8.74     393      -58.8
   06/22/2016 05:00      64.8      64.3       69     54.1      0.00      8.37      83.4     0.50      1013.0     1       137         1       131        8.74     390      -58.6
   06/22/2016 04:50      65.0      64.8       68     54.2      0.00      8.37      83.3     0.50      1013.0     1       136         1       126        8.75     387      -58.8
   06/22/2016 04:40      64.9      64.3       69     54.2      0.00      8.37      83.3     0.50      1013.0     1       174         1       143        8.75     386      -58.8
   06/22/2016 04:30      65.1      64.9       68     54.3      0.00      8.37      83.2     0.50      1013.0     1       142         1       126        8.75     387      -59.7
   06/22/2016 04:20      65.0      64.8       69     54.4      0.00      8.37      83.5     0.50      1013.0     1       165         2       142        8.75     385      -60.0
   06/22/2016 04:10      65.3      64.9       70     55.0      0.00      8.37      83.5     0.50      1013.0     1       147         2       138        8.75     382      -60.5
   06/22/2016 04:00      65.5      65.2       69     54.7      0.00      8.37      83.1     0.50      1013.0     2       136         2       138        8.75     379      -61.1
   06/22/2016 03:50      65.7      65.4       69     55.1      0.00      8.37      83.7     0.50      1013.0     1       151         1       134        8.75     377      -60.6
   06/22/2016 03:40      65.7      65.4       68     54.9      0.00      8.37      83.5     0.50      1013.0     1       116         1       125        8.75     374      -61.3
   06/22/2016 03:30      66.1      65.7       68     55.0      0.00      8.37      83.6     0.50      1013.0     1       135         2       136        8.75     372      -62.0
   06/22/2016 03:20      66.3      66.0       68     55.3      0.00      8.37      83.6     0.50      1013.0     2       131         2       130        8.75     369      -62.1
   06/22/2016 03:10      66.5      66.2       68     55.4      0.00      8.37      83.6     0.50      1013.0     1       133         1       132        8.75     366      -62.3
   06/22/2016 03:00      66.6      66.4       68     55.6      0.00      8.37      84.0     0.50      1013.0     1       158         2       147        8.75     363      -62.4
   06/22/2016 02:50      66.8      66.6       67     55.5      0.00      8.37      83.8     0.50      1013.0     1       146         2       127        8.75     361      -62.5
   06/22/2016 02:40      67.2      66.8       65     55.0      0.00      8.37      83.9     0.50      1013.0     2       136         2       136        8.75     357      -63.7
   06/22/2016 02:30      67.4      67.2       64     54.8      0.00      8.37      83.7     0.50      1013.0     1       146         2       131        8.76     355      -63.7
   06/22/2016 02:20      68.0      67.4       62     54.4      0.00      8.37      84.1     0.50      1013.0     1       140         2       137        8.76     351      -63.4
   06/22/2016 02:10      68.3      68.0       62     54.5      0.00      8.37      84.1     0.50      1013.0     1       168         1       137        8.76     346      -62.9
   06/22/2016 02:00      68.3      68.2       63     55.0      0.00      8.37      83.8     0.50      1013.0     1       187         1       140        8.76     343      -62.9
   06/22/2016 01:50      68.4      68.2       63     55.2      0.00      8.37      84.2     0.50      1013.0     1       153         1       151        8.76     340      -62.9
   06/22/2016 01:40      68.7      68.4       62     55.0      0.00      8.37      84.4     0.50      1013.0     1       142         2       138        8.76     335      -63.7
   06/22/2016 01:30      69.0      68.7       62     55.5      0.00      8.37      84.2     0.50      1013.0     1       155         2       137        8.76     332      -64.0
   06/22/2016 01:20      69.2      68.6       62     55.5      0.00      8.37      84.1     0.50      1013.0     2       151         3       161        8.76     329      -63.9
   06/22/2016 01:10      69.6      69.3       63     56.2      0.00      8.37      84.1     0.50      1013.0     2       141         3       143        8.76     331      -64.0
   06/22/2016 01:00      70.1      69.3       63     56.6      0.00      8.37      84.4     0.50      1013.0     2       157         2       138        8.76     330      -62.5
   06/22/2016 00:50      70.3      70.1       63     56.9      0.00      8.37      84.3     0.50      1013.0     2       150         2       137        8.76     327      -63.0
   06/22/2016 00:40      70.3      69.5       63     56.7      0.00      8.37      84.5     0.50      1014.0     1       170         2       143        8.77     325      -63.7
   06/22/2016 00:30      70.3      69.5       62     56.3      0.00      8.37      84.2     0.50      1014.0     2       156         2       161        8.77     323      -64.3
   06/22/2016 00:20      70.5      70.3       63     57.2      0.00      8.37      84.4     0.50      1014.0     1       154         2       138        8.77     321      -63.7
   06/22/2016 00:10      70.9      70.4       63     57.4      0.00      8.37      84.3     0.50      1014.0     1       151         2       141        8.77     320      -63.3
   06/22/2016 00:00      71.3      70.9       60     56.7      0.00      8.37      84.2     0.50      1014.0     1       175         1       200        8.77     318      -62.7
   06/21/2016 23:50      71.8      71.4       60     56.9      0.00      8.37      84.1     0.50      1014.0     1       171         1       184        8.77     316      -61.8
   06/21/2016 23:40      71.7      71.5       60     56.9      0.00      8.37      84.6     0.50      1014.0     1       193         1       205        8.77     313      -62.3
   06/21/2016 23:30      72.0      71.6       59     56.8      0.00      8.37      84.6     0.50      1014.0     1       148         1       159        8.77     311      -63.5
   06/21/2016 23:20      72.3      72.0       59     57.2      0.00      8.37      84.4     0.50      1014.0     1       133         1       168        8.77     309      -65.2
   06/21/2016 23:10      72.6      72.2       59     57.3      0.00      8.37      84.6     0.50      1014.0     1        74         1       122        8.78     307      -67.0
   06/21/2016 23:00      72.9      72.7       58     57.3      0.00      8.37      84.4     0.50      1014.0     1        58         1        36        8.78     304      -67.3
   06/21/2016 22:50      73.2      72.9       59     57.8      0.00      8.37      84.5     0.50      1014.0     0        47         1        58        8.78     302      -68.0
   06/21/2016 22:40      73.7      73.3       58     58.0      0.00      8.37      84.5     0.50      1015.0     1        93         1        80        8.78     299      -69.9
   06/21/2016 22:30      73.9      73.7       58     58.0      0.00      8.37      84.6     0.50      1015.0     1        76         1        69        8.78     298      -71.0
   06/21/2016 22:20      74.6      74.1       57     58.0      0.00      8.37      84.5     0.50      1015.0     1        80         1        64        8.78     296      -71.3
   06/21/2016 22:10      74.8      74.5       56     58.2      0.00      8.37      85.0     0.50      1015.0     1        59         3        78        8.78     295      -72.2
   06/21/2016 22:00      75.2      74.8       56     58.3      0.00      8.37      84.7     0.50      1015.0     2        54         2        34        8.78     293      -72.4
   06/21/2016 21:50      75.3      75.1       56     58.3      0.00      8.37      84.9     0.50      1015.0     2        43         2        39        8.78     292      -72.5
   06/21/2016 21:40      75.3      75.1       55     57.9      0.00      8.37      84.6     0.50      1014.0     2        60         4        89        8.79     291      -72.1
   06/21/2016 21:30      75.6      75.3       56     58.5      0.00      8.37      84.9     0.50      1014.0     3        82         6        82        8.79     289      -72.8
   06/21/2016 21:20      76.0      75.6       56     59.0      0.00      8.37      84.8     0.50      1014.0     3        69         4        55        8.79     288      -73.9
   06/21/2016 21:10      76.3      76.1       54     58.6      0.00      8.37      84.3     0.50      1014.0     2        69         5        67        8.79     287      -74.8
   06/21/2016 21:00      77.1      76.5       53     58.1      0.00      8.37      84.8     0.50      1014.0     3        60         6        88        8.79     286      -75.7
   06/21/2016 20:50      77.9      77.3       49     57.1      0.00      8.37      84.6     0.50      1014.0     3        73         4        63        8.79     284      -77.1
   06/21/2016 20:40      78.6      77.9       47     56.5      0.00      8.37      84.8     0.50      1014.0     3        70         5        82        8.80     282      -78.7
   06/21/2016 20:30      79.4      78.7       46     56.3      0.00      8.37      84.8     0.50      1014.0     2        65         4        59        8.80     281      -79.6
   06/21/2016 20:20      80.1      79.5       44     55.8      0.00      8.37      84.7     0.50      1014.0     2        61         3        80        8.80     279      -79.0
   06/21/2016 20:10      80.8      80.3       41     54.7      0.00      8.37      84.8     0.50      1013.0     2        56         4        77        8.80     277      -77.0
   06/21/2016 20:00      81.4      80.9       41     55.0      0.00      8.37      85.3     0.50      1013.0     2        72         5        75        8.80     276      -73.7
   06/21/2016 19:50      82.6      81.5       38     54.1      0.00      8.37      84.8     0.50      1013.0     3        60         4        73        8.81     275      -68.6
   06/21/2016 19:40      83.2      82.6       33     51.3      0.00      8.37      84.9     0.50      1013.0     3        93         4       136        8.81     275      -58.4
   06/21/2016 19:30      84.1      83.6       33     51.7      0.00      8.37      84.8     0.50      1013.0     3       107         4       116        8.81     274      -40.3
   06/21/2016 19:20      85.4      84.5       31     50.9      0.00      8.37      84.6     0.50      1013.0     3       108         4        95        8.81     274      -23.3
   06/21/2016 19:10      85.7      85.2       30     50.6      0.00      8.37      84.9     0.50      1013.0     3        88         5        96        8.82     273       -6.0
   06/21/2016 19:00      85.8      85.2       30     50.3      0.00      8.37      84.3     0.50      1013.0     3        83         6        78        8.82     273       14.3
   06/21/2016 18:50      85.7      85.2       30     50.4      0.00      8.37      84.8     0.50      1013.0     4        85         8        67        8.83     273       31.5
   06/21/2016 18:40      86.3      85.7       30     50.9      0.00      8.37      84.8     0.50      1013.0     5       106         7        85        8.83     274       53.7
   06/21/2016 18:30      86.6      86.3       30     51.4      0.00      8.37      84.8     0.50      1013.0     4       110         7       134        8.83     276       74.5
   06/21/2016 18:20      87.3      86.7       29     51.2      0.00      8.37      84.6     0.50      1013.0     4        83         6        69        8.84     277       93.1
   06/21/2016 18:10      87.6      86.6       29     51.2      0.00      8.37      84.5     0.50      1013.0     4        53         8        81        8.84     279      113.9
   06/21/2016 18:00      87.9      86.8       29     51.8      0.00      8.37      84.3     0.50      1013.0     4        65         9        68        8.85     282      137.0
   06/21/2016 17:50      87.7      87.1       30     52.4      0.00      8.37      84.1     0.50      1013.0     4        69         6        61        8.85     286      161.3
   06/21/2016 17:40      87.7      87.4       30     52.7      0.00      8.37      84.3     0.50      1013.0     4        58         8        78        8.85     295      185.8
   06/21/2016 17:30      87.5      86.4       32     53.5      0.00      8.37      84.1     0.50      1013.0     4        73        10        82        8.86     301      213.0
   06/21/2016 17:20      88.4      87.1       32     54.3      0.00      8.37      84.1     0.50      1013.0     5        77         9        66        8.86     301      235.3
   06/21/2016 17:10      88.2      86.8       34     55.3      0.00      8.37      83.2     0.50      1013.0     5        97        10       117        8.87     309      260.1
   06/21/2016 17:00      88.3      86.9       34     55.8      0.00      8.37      84.0     0.50      1013.0     5        98        10       138        8.88     307      288.3
   06/21/2016 16:50      87.7      87.1       34     55.4      0.00      8.37      84.4     0.50      1013.0     6        60        10        63        8.89     319      322.8
   06/21/2016 16:40      88.2      87.4       34     55.5      0.00      8.37      84.1     0.50      1013.0     6       117         9       102        8.90     348      352.7
   06/21/2016 16:30      87.8      86.6       33     54.6      0.00      8.37      83.8     0.50      1013.0     7       134        10       135        8.90     371      344.5
   06/21/2016 16:20      88.6      87.8       32     54.7      0.00      8.37      83.8     0.48      1013.0     6       121         8       159        8.90     263      341.4
   06/21/2016 16:10      90.1      88.4       32     55.6      0.00      8.37      83.8     0.48      1013.0     6       133        10       141        8.91     263      358.9
   06/21/2016 16:00      90.5      89.2       32     56.4      0.00      8.37      83.6     0.48      1013.0     4       112         8       135        8.92     263      375.7
   06/21/2016 15:50      89.1      88.6       33     55.8      0.00      8.37      83.6     0.48      1013.0     6       134         7       124        8.93     263      391.8
   06/21/2016 15:40      90.0      88.4       33     56.5      0.00      8.37      83.4     0.48      1013.0     5       149         8       152        8.93     263      408.0
   06/21/2016 15:30      89.6      88.7       33     56.6      0.00      8.37      83.3     0.48      1013.0     7       138         8       133        8.94     263      424.3
   06/21/2016 15:20      89.0      88.4       35     57.2      0.00      8.37      83.4     0.48      1013.0     8       126        12       145        8.95     263      441.9
   06/21/2016 15:10      89.8      89.2       33     56.8      0.00      8.37      83.2     0.48      1013.0     8       137        12       141        8.95     263      453.3
   06/21/2016 15:00      91.5      90.2       31     56.1      0.00      8.37      83.4     0.48      1013.0     9       146        11       151        8.96     263      465.5
   06/21/2016 14:50      92.7      90.8       31     56.5      0.00      8.37      83.0     0.48      1013.0     7       141        12       154        8.96     263      478.0
   06/21/2016 14:40      91.8      91.2       29     55.2      0.00      8.37      83.3     0.48      1013.0     8       134        11       135        8.97     263      487.9
   06/21/2016 14:30      94.0      91.8       27     54.3      0.00      8.37      83.1     0.48      1013.0     7       132        12       130        8.97     263      491.5
   06/21/2016 14:20      95.4      94.1       28     56.9      0.00      8.37      83.2     0.48      1013.0     5        79         7        81        8.98     263      495.8
   06/21/2016 14:10      96.6      95.5       27     56.9      0.00      8.37      83.1     0.48      1013.0     4        40         6         5        8.98     264      497.0
   06/21/2016 14:00      95.7      94.9       28     56.9      0.00      8.37      83.0     0.48      1013.0     4        33         7        11        8.98     264      505.5
   06/21/2016 13:50      95.7      94.9       28     57.1      0.00      8.37      82.9     0.48      1013.0     4        40         5        38        8.99     264      511.5
   06/21/2016 13:40      95.8      95.1       27     56.6      0.00      8.37      82.9     0.47      1013.0     4        59         6        76        8.99     264      516.6
   06/21/2016 13:30      95.1      94.6       28     56.6      0.00      8.37      82.9     0.47      1013.0     4        46         5        17        8.99     264      522.2
   06/21/2016 13:20      95.1      94.0       27     55.9      0.00      8.37      82.8     0.47      1013.0     5        36         7         9        8.99     265      524.7
   06/21/2016 13:10      95.1      94.2       26     54.1      0.00      8.37      82.7     0.47      1014.0     4        14         7        10        8.99     265      525.7
   06/21/2016 13:00      94.5      93.2       26     54.2      0.00      8.37      82.7     0.47      1014.0     4        30         6        59        9.00     265      531.5
   06/21/2016 12:50      94.2      93.0       27     54.1      0.00      8.37      82.7     0.47      1014.0     4        60         6        80        9.00     264      531.1
   06/21/2016 12:40      94.0      92.3       27     54.7      0.00      8.37      82.7     0.47      1014.0     4        36        10        78        9.00     264      532.2
   06/21/2016 12:30      93.6      92.0       28     54.7      0.00      8.37      82.8     0.47      1014.0     4        38         6        55        9.00     264      531.8
   06/21/2016 12:20      92.2      90.9       29     55.0      0.00      8.37      82.7     0.48      1014.0     4        54         7        71        9.00     264      546.2
   06/21/2016 12:10      91.9      90.8       29     54.5      0.00      8.37      82.6     0.48      1014.0     3        59         6       124        9.00     264      532.7
   06/21/2016 12:00      91.6      90.6       30     55.6      0.00      8.37      82.7     0.48      1014.0     4        39         5        12        9.00     265      531.9
   06/21/2016 11:50      90.3      89.1       32     55.8      0.00      8.37      82.6     0.48      1014.0     2        40         4        56        9.00     265      530.4
   06/21/2016 11:40      89.5      88.8       32     55.7      0.00      8.37      82.6     0.48      1014.0     3        54         4        94        9.01     265      533.8
   06/21/2016 11:30      88.8      87.0       34     56.0      0.00      8.37      82.6     0.48      1014.0     4        60         6        84        9.01     265      503.9
   06/21/2016 11:20      87.4      86.8       35     56.1      0.00      8.37      82.6     0.48      1014.0     3        61         6        73        9.01     265      434.6
   06/21/2016 11:10      87.5      87.0       36     56.8      0.00      8.37      82.6     0.48      1014.0     4        62         6        77        9.01     265      273.2
   06/21/2016 11:00      86.8      86.2       36     56.3      0.00      8.37      82.7     0.48      1014.0     4        42         6        75        9.01     265      455.7
   06/21/2016 10:50      87.2      86.2       36     56.7      0.00      8.37      82.7     0.48      1014.0     3        50         4        76        9.01     266      472.6
   06/21/2016 10:40      86.1      85.3       35     55.2      0.00      8.37      82.7     0.48      1015.0     3        41         5        26        9.01     266      460.5
   06/21/2016 10:30      86.0      84.7       36     55.4      0.00      8.37      83.1     0.48      1015.0     4        70         7       110        9.01     265      444.3
   06/21/2016 10:20      85.3      84.0       38     56.3      0.00      8.37      82.9     0.48      1015.0     4        38         7         7        9.01     265      432.1
   06/21/2016 10:10      84.1      82.7       39     56.0      0.00      8.37      83.0     0.48      1015.0     4        57         6        64        9.01     265      419.6
   06/21/2016 10:00      82.7      82.2       41     56.6      0.00      8.37      82.8     0.48      1015.0     5        55         9        74        9.01     265      404.6
   06/21/2016 09:50      82.0      81.5       43     57.4      0.00      8.37      82.9     0.48      1015.0     4        49         7        84        9.01     265      387.2
   06/21/2016 09:40      82.4      81.2       44     57.7      0.00      8.37      82.9     0.48      1015.0     5        82         9        92        9.01     265      369.9
   06/21/2016 09:30      82.2      81.4       44     57.7      0.00      8.37      83.2     0.49      1015.0     4        72         6        71        9.02     265      349.9
   06/21/2016 09:20      81.8      81.0       44     57.6      0.00      8.37      83.1     0.49      1015.0     3        65         6        33        9.02     265      334.2
   06/21/2016 09:10      81.0      80.3       45     57.1      0.00      8.37      83.0     0.49      1015.0     3        53         5        76        9.02     265      318.6
   06/21/2016 09:00      80.3      79.3       45     56.8      0.00      8.37      83.0     0.49      1015.0     3        36         4        24        9.02     265      313.4
   06/21/2016 08:50      79.5      78.2       47     56.6      0.00      8.37      83.0     0.49      1015.0     2        39         3        31        9.02     265      324.4
   06/21/2016 08:40      78.3      77.6       48     56.5      0.00      8.37      83.1     0.49      1015.0     3        36         4        43        9.02     265       55.5
   06/21/2016 08:30      77.8      77.3       48     56.5      0.00      8.37      83.1     0.49      1015.0     3        46         4        20        9.02     265       -2.1
   06/21/2016 08:20      77.5      76.4       49     56.4      0.00      8.37      83.1     0.49      1014.0     3        44         5        78        9.02     265      -10.7
   06/21/2016 08:10      76.6      75.9       50     56.4      0.00      8.37      83.4     0.49      1014.0     2        48         4        64        9.03     265       -9.4
   06/21/2016 08:00      76.0      75.5       51     56.5      0.00      8.37      83.1     0.49      1014.0     3        27         4         2        9.03     265       -7.8
   06/21/2016 07:50      75.5      74.7       54     57.3      0.00      8.37      83.3     0.49      1014.0     2        46         3        76        9.03     265      -10.3
   06/21/2016 07:40      74.7      73.7       57     58.0      0.00      8.37      83.4     0.49      1014.0     2        24         2       338        9.03     265        6.8
   06/21/2016 07:30      73.9      73.0       58     58.0      0.00      8.37      83.4     0.49      1014.0     2        11         5       353        9.03     265       -7.9
   06/21/2016 07:20      73.1      72.8       60     58.0      0.00      8.37      83.3     0.49      1014.0     2         5         5       341        9.03     265      -24.6
   06/21/2016 07:10      72.9      72.3       60     57.8      0.00      8.37      83.3     0.49      1014.0     2        18         3       358        9.03     265      -28.4
   06/21/2016 07:00      72.3      71.4       61     57.8      0.00      8.37      83.5     0.49      1014.0     2        24         2       353        9.03     265      -32.0
   06/21/2016 06:50      71.4      70.3       63     57.9      0.00      8.37      83.3     0.49      1014.0     1       301         1       314        9.03     265      -35.0
   06/21/2016 06:40      70.3      69.1       66     57.9      0.00      8.37      83.5     0.49      1013.0     1       164         2       142        9.03     265      -37.8
   06/21/2016 06:30      69.0      68.3       67     57.1      0.00      8.37      83.7     0.49      1013.0     2       156         2       142        9.03     265      -44.5
   06/21/2016 06:20      68.3      67.7       68     57.1      0.00      8.37      83.6     0.49      1013.0     2       162         3       156        9.03     265      -47.8
   06/21/2016 06:10      68.0      67.2       68     56.8      0.00      8.37      83.7     0.49      1013.0     2       145         3       139        9.04     265      -52.3
   06/21/2016 06:00      68.5      68.0       67     56.8      0.00      8.37      83.8     0.49      1013.0     1       202         1       232        9.04     265      -57.2
   06/21/2016 05:50      68.6      68.2       66     56.8      0.00      8.37      83.7     0.49      1013.0     1       173         2       212        9.04     265      -61.2
   06/21/2016 05:40      69.2      68.6       65     56.8      0.00      8.37      83.9     0.49      1013.0     1       280         2       263        9.04     265      -63.1
   06/21/2016 05:30      69.4      69.1       66     57.3      0.00      8.37      83.8     0.49      1013.0     1       308         2       261        9.04     265      -64.0
   06/21/2016 05:20      69.8      69.1       64     56.9      0.00      8.37      83.9     0.49      1013.0     1       189         1       162        9.04     265      -64.5
   06/21/2016 05:10      70.3      69.8       64     57.2      0.00      8.37      83.9     0.49      1013.0     1        27         1         7        9.04     265      -65.2
   06/21/2016 05:00      70.6      70.1       63     57.0      0.00      8.37      83.8     0.49      1012.0     1        74         1        94        9.04     264      -65.5
   06/21/2016 04:50      71.4      70.5       61     57.0      0.00      8.37      84.1     0.49      1012.0     1        47         2        43        9.04     265      -65.3
   06/21/2016 04:40      71.7      71.2       60     57.1      0.00      8.37      83.7     0.49      1012.0     1        23         2       345        9.05     264      -66.5
   06/21/2016 04:30      71.8      71.6       59     56.9      0.00      8.37      84.0     0.49      1012.0     2        20         2        21        9.05     265      -66.3
   06/21/2016 04:20      72.0      71.5       59     56.8      0.00      8.37      84.0     0.49      1012.0     1        44         2       101        9.05     264      -65.9
   06/21/2016 04:10      72.3      72.0       59     57.2      0.00      8.37      84.0     0.49      1012.0     2        76         2        85        9.05     265      -66.0
   06/21/2016 04:00      72.2      71.6       60     57.5      0.00      8.37      84.3     0.49      1012.0     3        85         5       101        9.05     264      -66.1
   06/21/2016 03:50      71.6      70.2       62     57.1      0.00      8.37      84.1     0.49      1012.0     3        88         5        96        9.05     264      -64.6
   06/21/2016 03:40      70.8      70.4       60     56.3      0.00      8.37      84.0     0.49      1011.0     1       110         2       118        9.05     264      -63.8
   06/21/2016 03:30      71.3      70.8       61     56.8      0.00      8.37      84.2     0.49      1011.0     1       120         2       134        9.05     264      -64.1
   06/21/2016 03:20      71.4      71.3       60     56.9      0.00      8.37      84.1     0.49      1011.0     2       143         2       133        9.05     264      -64.0
   06/21/2016 03:10      71.6      71.3       60     57.1      0.00      8.37      84.3     0.49      1011.0     1       190         1       194        9.06     264      -63.5
   06/21/2016 03:00      71.8      71.6       60     57.1      0.00      8.37      84.2     0.49      1012.0     1       161         1       164        9.06     264      -64.2
   06/21/2016 02:50      72.0      71.8       59     57.0      0.00      8.37      84.2     0.49      1012.0     1       169         1       144        9.06     264      -64.8
   06/21/2016 02:40      72.4      72.1       58     56.9      0.00      8.37      84.2     0.49      1012.0     1       233         2       214        9.06     264      -65.4
   06/21/2016 02:30      72.5      72.3       59     57.1      0.00      8.37      84.2     0.49      1012.0     1       174         1       188        9.06     264      -66.1
   06/21/2016 02:20      72.8      72.4       58     56.9      0.00      8.37      84.4     0.49      1012.0     1       159         2       139        9.06     264      -66.4
   06/21/2016 02:10      73.3      72.7       56     56.4      0.00      8.37      84.4     0.49      1012.0     1       140         2       127        9.06     264      -67.1
   06/21/2016 02:00      73.9      73.6       56     56.9      0.00      8.37      84.3     0.49      1012.0     1        88         1       164        9.06     264      -67.4
   06/21/2016 01:50      74.4      73.9       56     57.3      0.00      8.37      84.5     0.49      1012.0     0       107         1       169        9.07     263      -67.5
   06/21/2016 01:40      75.2      74.5       55     57.5      0.00      8.37      84.3     0.49      1012.0     1       104         1       109        9.07     263      -69.3
   06/21/2016 01:30      75.8      75.3       54     57.8      0.00      8.37      84.3     0.49      1012.0     1       106         3        71        9.07     263      -71.1
   06/21/2016 01:20      76.4      75.7       53     57.6      0.00      8.37      84.3     0.49      1012.0     1        89         2        81        9.07     263      -71.9
   06/21/2016 01:10      77.1      76.4       51     57.2      0.00      8.37      84.4     0.49      1012.0     1        72         3        61        9.07     263      -72.2
   06/21/2016 01:00      77.6      77.2       50     57.1      0.00      8.37      84.5     0.49      1012.0     1        40         2        50        9.07     263      -72.7
   06/21/2016 00:50      78.3      77.8       49     57.1      0.00      8.37      84.5     0.49      1012.0     1        37         2        56        9.07     263      -73.9
   06/21/2016 00:40      78.8      78.3       48     57.0      0.00      8.37      84.5     0.49      1012.0     2        41         3        68        9.07     263      -74.6
   06/21/2016 00:30      79.5      78.9       47     57.1      0.00      8.37      84.6     0.49      1013.0     2        49         3        29        9.07     263      -75.5
   06/21/2016 00:20      80.5      79.6       45     56.7      0.00      8.37      84.6     0.49      1013.0     2        32         3        28        9.07     263      -75.8
   06/21/2016 00:10      81.6      80.7       41     55.3      0.00      8.37      84.6     0.49      1013.0     2        34         3        36        9.08     263      -75.6
   06/21/2016 00:00      82.7      81.9       35     51.8      0.00      8.37      84.5     0.49      1013.0     2        51         3        75        9.08     263      -74.9
   06/20/2016 23:50      82.8      82.5       32     50.2      0.00      8.37      84.6     0.49      1013.0     2       103         3        82        9.08     262      -74.9
   06/20/2016 23:40      82.7      82.4       29     47.3      0.00      8.37      84.6     0.49      1012.0     2        89         3        82        9.08     262      -72.8
   06/20/2016 23:30      82.9      82.4       28     46.2      0.00      8.37      84.6     0.49      1012.0     2        88         2       115        9.08     262      -72.6
   06/20/2016 23:20      84.0      83.1       26     44.7      0.00      8.37      84.5     0.49      1012.0     2       158         3       133        9.08     262      -71.2
   06/20/2016 23:10      85.2      84.5       25     45.1      0.00      8.37      84.5     0.49      1012.0     1       136         2       148        9.08     262      -72.0
   06/20/2016 23:00      84.8      83.3       26     45.8      0.00      8.37      84.6     0.49      1012.0     2        67         3        28        9.09     262      -73.6
   06/20/2016 22:50      83.4      82.4       27     45.6      0.00      8.37      84.4     0.49      1012.0     3       164         4       160        9.09     262      -70.7
   06/20/2016 22:40      83.3      82.2       26     44.7      0.00      8.37      84.6     0.49      1012.0     3       152         3       144        9.09     262      -71.9
   06/20/2016 22:30      84.4      83.6       25     44.8      0.00      8.37      84.6     0.49      1012.0     2       136         3       134        9.09     262      -74.0
   06/20/2016 22:20      85.0      84.5       25     44.7      0.00      8.37      84.4     0.49      1012.0     2       133         2       141        9.09     262      -75.2
   06/20/2016 22:10      85.7      84.8       22     42.7      0.00      8.37      84.5     0.49      1012.0     1       186         2       202        9.09     262      -76.1
   06/20/2016 22:00      86.5      85.7       21     42.1      0.00      8.37      84.4     0.49      1012.0     2       143         2       141        9.09     262      -77.2
   06/20/2016 21:50      87.6      86.6       19     40.1      0.00      8.37      84.6     0.49      1012.0     1       164         2       142        9.10     262      -77.9
   06/20/2016 21:40      89.1      87.9       17     37.8      0.00      8.37      84.5     0.49      1012.0     0         6         1       145        9.10     262      -80.0
   06/20/2016 21:30      91.4      89.3       16     37.1      0.00      8.37      84.6     0.49      1012.0     1       180         1       142        9.10     262      -82.0
   06/20/2016 21:20      93.1      91.9       14     36.2      0.00      8.37      84.5     0.49      1012.0     1       309         1       269        9.10     262      -85.0
   06/20/2016 21:10      93.2      92.9       13     34.4      0.00      8.37      84.4     0.49      1011.0     2       253         3       222        9.11     262      -85.7
   06/20/2016 21:00      93.2      92.9       11     31.4      0.00      8.37      84.1     0.49      1011.0     3       246         3       255        9.11     261      -84.7
   06/20/2016 20:50      93.2      93.0       11     31.5      0.00      8.37      84.3     0.49      1011.0     2       248         2       243        9.11     261      -87.1
   06/20/2016 20:40      94.7      93.6       11     30.9      0.00      8.37      84.4     0.49      1011.0     2       235         2       237        9.11     261      -90.2
   06/20/2016 20:30      95.4      94.8       10     28.8      0.00      8.37      84.2     0.49      1011.0     1       254         2       260        9.12     261      -92.8
   06/20/2016 20:20      98.1      95.7        8     25.9      0.00      8.37      84.2     0.49      1011.0     1       352         2       339        9.12     261      -96.4
   06/20/2016 20:10     100.6      98.5        7     23.0      0.00      8.37      84.2     0.49      1011.0     1        93         2       237        9.12     261      -97.8
   06/20/2016 20:00     101.1     100.4        6     22.0      0.00      8.37      84.1     0.49      1011.0     2       223         3       188        9.13     261      -96.0
   06/20/2016 19:50     101.9     101.1        6     21.6      0.00      8.37      84.1     0.49      1011.0     4       231         7       219        9.13     261      -93.2
   06/20/2016 19:40     102.7     102.0        6     22.1      0.00      8.37      84.1     0.49      1011.0     5       230         7       256        9.14     261      -83.5
   06/20/2016 19:30     103.4     102.8        6     23.4      0.00      8.37      84.2     0.49      1011.0     7       229         9       228        9.14     261      -63.2
   06/20/2016 19:20     103.8     103.6        6     25.1      0.00      8.37      83.9     0.49      1010.0     5       249        11       262        9.15     261      -48.0
   06/20/2016 19:10     104.3     104.1        6     25.9      0.00      8.37      84.0     0.48      1010.0     4       253         8       256        9.16     261      -30.9
   06/20/2016 19:00     104.7     104.3        6     25.6      0.00      8.37      83.9     0.48      1010.0     7       234        11       224        9.16     261      -11.8
   06/20/2016 18:50     104.9     104.6        6     26.1      0.00      8.37      83.7     0.48      1010.0     8       242        12       243        9.17     261        6.9
   06/20/2016 18:40     105.7     105.2        7     28.8      0.00      8.37      83.8     0.48      1010.0     8       259        11       235        9.18     261       25.7
   06/20/2016 18:30     106.0     105.5        7     29.2      0.00      8.37      83.5     0.48      1010.0     7       279        11       255        9.19     261       46.9
   06/20/2016 18:20     107.0     106.1        7     30.1      0.00      8.37      83.5     0.48      1010.0     8       267        14       267        9.20     261       67.4
   06/20/2016 18:10     107.8     106.7        7     31.7      0.00      8.37      83.5     0.48      1010.0     7       261        11       242        9.21     262       90.0
   06/20/2016 18:00     108.3     107.3        8     32.5      0.00      8.37      83.3     0.48      1010.0     6       259         9       257        9.21     261      113.7
   06/20/2016 17:50     108.3     107.8        8     33.4      0.00      8.37      83.4     0.48      1010.0     6       251        11       250        9.22     261      137.7
   06/20/2016 17:40     109.1     107.7        8     34.0      0.00      8.37      83.2     0.48      1010.0     7       251        10       260        9.22     262      160.3
   06/20/2016 17:30     109.1     108.1        8     35.0      0.00      8.37      83.1     0.48      1010.0     5       228         9       233        9.22     261      183.9
   06/20/2016 17:20     109.0     108.2        8     35.0      0.00      8.37      83.0     0.48      1010.0     7       230        10       234        9.23     261      207.4
   06/20/2016 17:10     109.7     109.0        8     36.3      0.00      8.37      82.9     0.48      1010.0     7       249        11       255        9.23     261      226.7
   06/20/2016 17:00     110.2     109.1        8     35.8      0.00      8.37      82.8     0.48      1010.0     7       255         9       229        9.23     261      248.3
   06/20/2016 16:50     110.1     109.3        8     36.0      0.00      8.37      82.7     0.48      1010.0     8       233        11       233        9.23     261      268.5
   06/20/2016 16:40     110.4     109.8        8     37.0      0.00      8.37      82.7     0.48      1010.0     8       266        12       245        9.23     262      287.6
   06/20/2016 16:30     111.4     110.6        8     37.3      0.00      8.37      82.7     0.48      1010.0     8       251        10       239        9.23     261      305.0
   06/20/2016 16:20     111.4     110.3        9     38.1      0.00      8.37      82.5     0.48      1010.0     6       243        10       234        9.23     261      324.7
   06/20/2016 16:10     111.1     110.4        9     38.6      0.00      8.37      82.3     0.48      1010.0     7       252        11       274        9.23     262      344.0
   06/20/2016 16:00     111.9     110.9        9     39.1      0.00      8.37      82.2     0.48      1010.0     8       263        15       249        7.59     262      359.8
   06/20/2016 15:50     111.7     110.1        9     39.2      0.00      8.37      82.1     0.48      1010.0     6       267        12       263        7.59     262      375.4
   06/20/2016 15:40     111.3     110.9        9     40.0      0.00      8.37      82.1     0.48      1010.0     7       247         9       245        7.60     262      390.0
   06/20/2016 15:30     111.0     110.1       10     42.1      0.00      8.37      82.0     0.48      1010.0     6       206         9       238        7.61     262      408.5
   06/20/2016 15:20     110.4     110.1       10     41.2      0.00      8.37      81.8     0.48      1010.0     7       213        10       206        7.62     262      423.5
   06/20/2016 15:10     110.9     110.2       10     41.7      0.00      8.37      81.8     0.47      1010.0     6       233        10       272        7.62     262      435.5
   06/20/2016 15:00     110.9     110.0       10     42.0      0.00      8.37      81.7     0.47      1010.0     8       218        11       240        7.63     262      450.5
   06/20/2016 14:50     110.7     109.8       10     42.1      0.00      8.37      81.5     0.47      1010.0     7       223        11       210        7.64     262      460.7
   06/20/2016 14:40     110.9     109.7       10     40.5      0.00      8.37      81.5     0.47      1011.0     7       218        11       240        7.64     262      470.1
   06/20/2016 14:30     111.5     110.4        9     40.0      0.00      8.37      81.3     0.47      1011.0     7       230        11       207        7.65     262      479.1
   06/20/2016 14:20     111.6     110.8        9     40.1      0.00      8.37      81.2     0.47      1011.0     6       219         9       246        7.66     262      485.6
   06/20/2016 14:10     111.2     110.2        9     39.5      0.00      8.37      81.2     0.47      1011.0     5       218         8       213        7.67     263      493.0
   06/20/2016 14:00     111.0     110.3        9     38.6      0.00      8.37      81.2     0.47      1011.0     5       209         8       185        7.67     263      502.2
   06/20/2016 13:50     111.2     110.4        9     38.3      0.00      8.37      81.0     0.47      1011.0     5       233        11       238        7.68     263      507.7
   06/20/2016 13:40     110.9     109.9        9     38.9      0.00      8.37      81.0     0.47      1011.0     7       240        14       232        7.70     263      516.2
   06/20/2016 13:30     110.5     110.0        9     38.6      0.00      8.37      80.9     0.47      1011.0     8       227        11       236        7.71     263      521.2
   06/20/2016 13:20     111.7     110.5        9     38.9      0.00      8.37      81.0     0.47      1011.0     7       227        11       254        7.72     263      522.8
   06/20/2016 13:10     112.1     111.0        9     39.3      0.00      8.37      81.0     0.47      1011.0     6       227        10       210        7.72     264      525.2
   06/20/2016 13:00     111.9     110.7        9     39.4      0.00      8.37      80.8     0.47      1011.0     6       233         7       196        7.73     264      524.4
   06/20/2016 12:50     111.9     110.9        9     39.0      0.00      8.37      80.7     0.47      1011.0     4       225         9       202        7.73     264      522.7
   06/20/2016 12:40     111.1     109.7        9     39.0      0.00      8.37      80.7     0.47      1011.0     4       188         8       207        7.74     264      523.9
   06/20/2016 12:30     110.9     110.0       10     41.0      0.00      8.37      80.7     0.47      1011.0     4       260         7       260        7.74     264      522.9
   06/20/2016 12:20     111.0     109.9       11     43.7      0.00      8.37      80.5     0.47      1011.0     4       234         6       221        7.74     264      520.5
   06/20/2016 12:10     110.5     109.6       11     43.8      0.00      8.37      80.6     0.47      1011.0     4       297         7       247        7.74     264      517.3
   06/20/2016 12:00     110.6     109.2       11     44.1      0.00      8.37      80.6     0.47      1011.0     3       290         5       328        7.74     264      515.1
   06/20/2016 11:50     110.4     108.5       12     44.7      0.00      8.37      80.6     0.47      1011.0     4       249         7       240        7.75     265      511.6
   06/20/2016 11:40     108.3     108.0       12     43.5      0.00      8.37      80.6     0.47      1011.0     3       196         6       193        7.75     264      507.8
   06/20/2016 11:30     108.2     107.6       11     40.9      0.00      8.37      80.5     0.47      1011.0     3       210         6       201        7.75     264      500.4
   06/20/2016 11:20     108.7     107.3        8     33.8      0.00      8.37      80.6     0.47      1011.0     3       204         6       227        7.75     264      492.5
   06/20/2016 11:10     108.5     107.3        6     25.2      0.00      8.37      80.6     0.47      1011.0     4       221         8       202        7.75     264      483.8
   06/20/2016 11:00     107.8     106.8        6     26.6      0.00      8.37      80.6     0.47      1011.0     3       285         5       259        7.76     265      473.8
   06/20/2016 10:50     107.0     106.6        6     25.4      0.00      8.37      80.6     0.48      1011.0     3       248         5       239        7.76     266      465.6
   06/20/2016 10:40     106.6     105.3        7     30.6      0.00      8.37      80.6     0.48      1011.0     3       280         5       264        7.76     266      454.8
   06/20/2016 10:30     105.3     104.1        7     29.0      0.00      8.37      80.6     0.48      1011.0     3       252         5       296        7.76     265      442.8
   06/20/2016 10:20     104.5     103.1        9     34.4      0.00      8.37      80.7     0.48      1011.0     2       286         4       276        7.76     265      434.1
   06/20/2016 10:10     103.2     101.4       11     37.7      0.00      8.37      80.8     0.48      1011.0     2       284         4       235        7.76     265      421.0
   06/20/2016 10:00     101.3     100.1       11     36.3      0.00      8.37      80.6     0.48      1011.0     3       272         4       251        7.77     265      408.1
   06/20/2016 09:50      99.8      99.4       11     36.7      0.00      8.37      80.6     0.48      1011.0     3       213         5       235        7.77     265      393.9
   06/20/2016 09:40      99.3      96.6       14     40.1      0.00      8.37      80.8     0.48      1012.0     2       163         3       159        7.77     266      379.0
   06/20/2016 09:30      96.4      94.7       15     39.7      0.00      8.37      80.9     0.49      1012.0     3       141         4       156        7.77     266      365.9
   06/20/2016 09:20      94.5      92.3       16     40.2      0.00      8.37      80.8     0.49      1012.0     3       158         4       139        7.77     265      353.2
   06/20/2016 09:10      92.3      90.3       18     41.9      0.00      8.37      80.8     0.49      1012.0     2       178         4       165        7.78     266      341.1
   06/20/2016 09:00      90.3      88.3       19     41.7      0.00      8.37      80.8     0.49      1012.0     1       205         3       238        7.78     265      339.9
   06/20/2016 08:50      88.0      86.2       23     44.1      0.00      8.37      80.9     0.49      1012.0     2       294         4       328        7.78     265      357.8
   06/20/2016 08:40      86.1      85.0       26     46.7      0.00      8.37      80.9     0.49      1012.0     3       316         5       290        7.78     265       57.5
   06/20/2016 08:30      84.9      83.8       27     46.6      0.00      8.37      80.9     0.49      1012.0     2       354         3       340        7.78     265      -15.0
   06/20/2016 08:20      83.7      82.8       29     47.8      0.00      8.37      80.9     0.49      1012.0     1       358         2       348        7.79     265      -23.8
   06/20/2016 08:10      82.7      81.6       30     47.5      0.00      8.37      80.9     0.49      1012.0     1        29         2        61        7.79     265      -21.5
   06/20/2016 08:00      81.4      80.2       34     50.1      0.00      8.37      81.1     0.49      1012.0     2         3         3       344        7.79     265      -15.2
   06/20/2016 07:50      80.2      79.3       37     50.8      0.00      8.37      81.2     0.49      1012.0     2        44         2        32        7.79     265      -18.5
   06/20/2016 07:40      79.3      78.3       37     50.3      0.00      8.37      81.0     0.49      1012.0     1         7         2        13        7.79     265       11.8
   06/20/2016 07:30      78.2      76.8       37     49.0      0.00      8.37      81.1     0.49      1012.0     1        48         2         5        7.79     264       -9.4
   06/20/2016 07:20      76.6      75.4       38     48.5      0.00      8.37      81.1     0.49      1012.0     1        60         1       355        7.79     265      -27.1
   06/20/2016 07:10      75.4      74.2       38     47.8      0.00      8.37      81.1     0.49      1012.0     1        64         2        10        7.79     265      -28.2
   06/20/2016 07:00      74.2      73.4       39     47.5      0.00      8.37      81.1     0.49      1012.0     1        81         2        14        7.80     265      -31.0
   06/20/2016 06:50      73.4      72.5       40     47.1      0.00      8.37      81.1     0.49      1012.0     1       121         2       338        7.80     265      -31.1
   06/20/2016 06:40      72.7      70.5       41     46.6      0.00      8.37      81.3     0.50      1012.0     1       336         1       329        7.80     265      -32.0
   06/20/2016 06:30      70.5      69.6       42     46.0      0.00      8.37      81.3     0.50      1012.0     1       154         1       181        7.80     265      -40.2
   06/20/2016 06:20      69.8      69.4       42     45.8      0.00      8.37      81.5     0.50      1012.0     1        88         1       138        7.80     264      -41.3
   06/20/2016 06:10      69.4      68.6       41     44.1      0.00      8.37      81.4     0.50      1012.0     1       283         1       178        7.80     264      -43.4
   06/20/2016 06:00      69.2      68.5       42     44.7      0.00      8.37      81.4     0.50      1012.0     1       129         2       172        7.80     264      -48.5
   06/20/2016 05:50      69.4      69.2       40     43.9      0.00      8.37      81.4     0.50      1012.0     1       315         1       338        7.80     264      -50.6
   06/20/2016 05:40      69.4      69.1       41     44.8      0.00      8.37      81.3     0.50      1012.0     1       223         1       195        7.80     264      -53.0
   06/20/2016 05:30      69.4      69.1       40     44.2      0.00      8.37      81.3     0.50      1012.0     0       182         0       169        7.80     264      -54.3
   06/20/2016 05:20      69.4      69.2       42     45.0      0.00      8.37      81.4     0.50      1011.0     1        66         1       126        7.81     264      -54.6
   06/20/2016 05:10      69.8      69.5       42     45.6      0.00      8.37      81.6     0.50      1011.0     1       127         2       141        7.81     264      -55.5
   06/20/2016 05:00      70.0      69.6       42     45.9      0.00      8.37      81.6     0.50      1011.0     2       131         3       132        7.81     264      -56.0
   06/20/2016 04:50      69.8      69.6       43     46.4      0.00      8.37      81.5     0.50      1011.0     2       135         3       140        7.81     264      -56.5
   06/20/2016 04:40      70.2      69.8       41     45.5      0.00      8.37      81.7     0.50      1011.0     1       152         2       133        7.81     264      -56.2
   06/20/2016 04:30      70.3      69.6       42     45.8      0.00      8.37      81.7     0.50      1011.0     1       168         1       148        7.81     264      -56.6
   06/20/2016 04:20      69.8      69.6       41     44.9      0.00      8.37      81.7     0.50      1011.0     1       158         2       139        7.81     264      -57.4
   06/20/2016 04:10      70.8      70.1       39     44.5      0.00      8.37      81.7     0.50      1011.0     1       169         2       134        7.81     264      -57.8
   06/20/2016 04:00      71.4      71.1       38     44.5      0.00      8.37      81.7     0.50      1011.0     1       238         1       253        7.82     264      -58.0
   06/20/2016 03:50      71.2      70.9       39     45.0      0.00      8.37      81.7     0.50      1011.0     1       315         1       347        7.82     264      -59.1
   06/20/2016 03:40      71.2      70.7       40     45.3      0.00      8.37      81.7     0.50      1011.0     1       122         1       120        7.82     264      -59.1
   06/20/2016 03:30      71.7      71.3       39     45.4      0.00      8.37      81.8     0.50      1011.0     1        79         1        70        7.82     264      -59.3
   06/20/2016 03:20      72.1      71.5       38     45.1      0.00      8.37      81.9     0.50      1011.0     1       123         2       129        7.82     264      -59.6
   06/20/2016 03:10      72.3      72.0       38     45.5      0.00      8.37      81.9     0.50      1011.0     1       149         2       131        7.82     264      -60.9
   06/20/2016 03:00      72.4      71.8       37     44.3      0.00      8.37      81.9     0.50      1011.0     1       192         2       198        7.82     264      -61.0
   06/20/2016 02:50      72.5      72.1       38     45.3      0.00      8.37      82.0     0.50      1011.0     2       147         2       143        7.82     264      -61.7
   06/20/2016 02:40      72.8      72.3       37     45.0      0.00      8.37      81.9     0.50      1012.0     1       176         1       147        7.82     264      -62.0
   06/20/2016 02:30      73.3      72.9       36     44.3      0.00      8.37      82.0     0.50      1012.0     1       197         1       131        7.82     264      -62.9
   06/20/2016 02:20      73.3      72.9       37     45.3      0.00      8.37      81.9     0.50      1012.0     1       146         1       220        7.83     263      -64.0
   06/20/2016 02:10      74.0      73.3       36     45.2      0.00      8.37      82.0     0.50      1012.0     1        96         1       154        7.83     264      -65.2
   06/20/2016 02:00      74.2      73.8       36     45.3      0.00      8.37      82.0     0.50      1012.0     2       123         3       139        7.83     263      -66.0
   06/20/2016 01:50      74.7      74.3       36     45.6      0.00      8.37      82.1     0.50      1012.0     2       152         2       158        7.83     263      -65.4
   06/20/2016 01:40      74.9      74.6       36     45.8      0.00      8.37      82.1     0.50      1012.0     1       147         2       125        7.83     263      -65.9
   06/20/2016 01:30      75.0      74.7       33     43.8      0.00      8.37      82.0     0.50      1012.0     1       184         2       187        7.83     263      -65.6
   06/20/2016 01:20      74.9      74.2       34     44.7      0.00      8.37      82.0     0.50      1012.0     1       162         2       138        7.83     263      -66.7
   06/20/2016 01:10      75.8      75.2       32     43.4      0.00      8.37      82.0     0.50      1012.0     1       150         2       134        7.83     263      -67.3
   06/20/2016 01:00      76.3      75.8       31     43.7      0.00      8.37      82.1     0.50      1012.0     1       139         1       152        7.83     263      -68.3
   06/20/2016 00:50      77.3      76.4       30     42.7      0.00      8.37      82.0     0.50      1012.0     1       141         2       131        7.83     262      -67.8
   06/20/2016 00:40      77.8      77.3       28     42.3      0.00      8.37      82.2     0.50      1012.0     1       227         1       255        7.83     263      -67.8
   06/20/2016 00:30      78.0      77.7       29     42.8      0.00      8.37      82.1     0.50      1012.0     1       171         1       156        7.83     262      -68.5
   06/20/2016 00:20      79.0      77.9       28     42.5      0.00      8.37      82.0     0.50      1012.0     1        94         1       135        7.83     262      -69.0
   06/20/2016 00:10      79.6      79.1       27     42.1      0.00      8.37      82.1     0.50      1012.0     0       171         1       207        7.84     262      -69.2
   06/20/2016 00:00      79.9      79.4       26     41.9      0.00      8.37      82.2     0.50      1012.0     0        19         1        39        7.84     262      -70.5
   06/19/2016 23:50      81.6      80.1       25     41.3      0.00      8.37      82.1     0.50      1012.0     1        64         1        53        7.84     262      -72.0
   06/19/2016 23:40      82.5      81.7       23     41.1      0.00      8.37      82.2     0.50      1012.0     1       154         2        96        7.84     262      -72.2
   06/19/2016 23:30      82.8      82.2       23     40.7      0.00      8.37      82.0     0.49      1012.0     1       217         3       219        7.84     262      -71.6
   06/19/2016 23:20      83.5      82.5       22     40.0      0.00      8.37      82.0     0.49      1012.0     1       216         1       223        7.84     262      -71.8
   06/19/2016 23:10      83.6      83.1       21     39.5      0.00      8.37      82.1     0.49      1012.0     1       262         2       250        7.84     262      -73.5
   06/19/2016 23:00      85.6      83.8       20     39.6      0.00      8.37      82.1     0.49      1012.0     1        70         2        52        7.85     262      -78.0
   06/19/2016 22:50      86.9      85.7       19     39.0      0.00      8.37      82.1     0.49      1012.0     1        98         2        36        7.85     262      -80.4
   06/19/2016 22:40      87.1      86.9       18     38.2      0.00      8.37      82.1     0.49      1012.0     4       200         5       184        7.85     262      -81.6
   06/19/2016 22:30      87.5      87.0       17     37.1      0.00      8.37      82.0     0.49      1012.0     4       200         6       217        7.85     262      -82.0
   06/19/2016 22:20      88.1      87.4       16     36.6      0.00      8.37      82.1     0.49      1012.0     4       196         6       197        7.86     262      -82.7
   06/19/2016 22:10      88.2      87.9       16     36.1      0.00      8.37      81.9     0.49      1012.0     5       203         6       209        7.86     262      -83.6
   06/19/2016 22:00      88.2      87.9       16     35.8      0.00      8.37      82.1     0.49      1012.0     5       200         6       213        7.86     262      -83.8
   06/19/2016 21:50      88.4      88.1       16     35.9      0.00      8.37      82.0     0.49      1012.0     4       197         6       198        7.87     262      -84.4
   06/19/2016 21:40      88.6      88.3       16     36.4      0.00      8.37      81.9     0.49      1012.0     4       199         6       208        7.87     262      -84.8
   06/19/2016 21:30      88.9      88.5       16     37.1      0.00      8.37      82.0     0.49      1011.0     5       202         6       213        7.87     262      -85.2
   06/19/2016 21:20      89.1      88.9       16     37.8      0.00      8.37      81.9     0.49      1011.0     3       213         5       199        7.87     262      -86.1
   06/19/2016 21:10      89.4      89.2       16     38.0      0.00      8.37      81.9     0.49      1011.0     3       210         5       226        7.88     262      -86.7
   06/19/2016 21:00      89.9      89.5       16     38.2      0.00      8.37      81.9     0.49      1011.0     3       217         4       223        7.88     262      -87.5
   06/19/2016 20:50      90.1      89.7       16     38.5      0.00      8.37      81.7     0.49      1011.0     3       211         4       197        7.88     262      -88.2
   06/19/2016 20:40      90.5      90.1       17     38.9      0.00      8.37      81.7     0.49      1011.0     3       208         4       209        7.88     262      -89.6
   06/19/2016 20:30      91.0      90.5       16     38.8      0.00      8.37      81.9     0.49      1011.0     3       222         5       198        7.88     261      -90.7
   06/19/2016 20:20      91.8      91.1       16     38.3      0.00      8.37      81.7     0.49      1011.0     3       209         5       218        7.89     261      -91.4
   06/19/2016 20:10      92.5      91.8       15     37.9      0.00      8.37      81.7     0.49      1011.0     3       214         5       218        7.89     262      -90.6
   06/19/2016 20:00      93.4      92.7       15     38.3      0.00      8.37      81.5     0.49      1011.0     4       220         6       231        7.89     261      -88.2
   06/19/2016 19:50      94.1      93.4       14     38.0      0.00      8.37      81.6     0.49      1011.0     5       225         7       251        7.90     261      -85.2
   06/19/2016 19:40      95.4      94.3       14     37.6      0.00      8.37      81.5     0.49      1011.0     5       243         6       248        7.91     261      -76.2
   06/19/2016 19:30      96.9      95.4       13     37.3      0.00      8.37      81.4     0.49      1011.0     5       236         5       245        7.92     261      -55.8
   06/19/2016 19:20      98.0      97.0       11     35.4      0.00      8.37      81.5     0.49      1011.0     4       254         7       284        7.92     262      -40.8
   06/19/2016 19:10      97.8      97.4       12     36.9      0.00      8.37      81.2     0.49      1011.0     5       260         9       256        7.93     261      -21.2
   06/19/2016 19:00      98.5      97.7       12     36.6      0.00      8.37      81.1     0.49      1011.0     7       254        11       262        7.94     261       -1.0
   06/19/2016 18:50      98.9      98.3       11     36.1      0.00      8.37      81.2     0.49      1011.0     7       261        10       251        7.94     262       17.6
   06/19/2016 18:40      99.9      99.0       11     35.3      0.00      8.37      81.2     0.49      1010.0     7       270        11       266        7.95     262       37.1
   06/19/2016 18:30     100.4      99.8       10     33.8      0.00      8.37      81.1     0.49      1010.0     6       279        10       244        7.95     262       56.5
   06/19/2016 18:20     100.2      99.9        9     32.2      0.00      8.37      81.1     0.49      1010.0     6       282         8       254        7.96     262       78.3
   06/19/2016 18:10     101.3     100.4        9     32.8      0.00      8.37      81.0     0.49      1010.0     7       292        11       310        7.97     262      100.0
   06/19/2016 18:00     101.3     100.7       10     34.7      0.00      8.37      80.9     0.49      1010.0     6       289         7       294        7.97     262      122.9
   06/19/2016 17:50     102.2     101.4       10     34.3      0.00      8.37      80.7     0.49      1010.0     7       299         8       304        7.98     262      144.8
   06/19/2016 17:40     103.2     102.4        9     33.2      0.00      8.37      80.7     0.49      1010.0     6       299        12       306        7.99     262      167.1
   06/19/2016 17:30     104.0     103.1        8     30.5      0.00      8.37      80.6     0.49      1010.0     7       294        11       287        7.99     262      187.6
   06/19/2016 17:20     103.8     103.4        8     29.3      0.00      8.37      80.6     0.48      1010.0     6       294         8       295        8.00     262      209.5
   06/19/2016 17:10     104.9     104.2        7     28.3      0.00      8.37      80.3     0.48      1010.0     6       284         8       320        8.01     262      228.5
   06/19/2016 17:00     104.2     103.6        7     26.2      0.00      8.37      80.4     0.48      1010.0     6       284         8       314        8.01     262      252.0
   06/19/2016 16:50     104.9     103.6        6     25.6      0.00      8.37      80.4     0.48      1010.0     8       283        11       260        8.02     262      272.1
   06/19/2016 16:40     105.6     104.5        6     25.8      0.00      8.37      80.2     0.48      1010.0     7       304         8       276        8.02     262      290.7
   06/19/2016 16:30     105.8     105.0        7     28.4      0.00      8.37      80.3     0.48      1010.0     6       290        10       305        8.03     262      308.4
   06/19/2016 16:20     105.8     105.0        7     28.7      0.00      8.37      79.9     0.48      1010.0     8       295        10       298        8.03     262      327.5
   06/19/2016 16:10     105.8     104.6        7     28.3      0.00      8.37      80.0     0.48      1010.0     9       308        12       304        8.04     262      346.9
   06/19/2016 16:00     106.2     105.1        7     28.2      0.00      8.37      79.9     0.48      1010.0     5       307         8       303        8.05     262      367.6
   06/19/2016 15:50     105.6     105.0        7     28.1      0.00      8.37      79.7     0.48      1010.0     8       306        12       300        8.06     262      358.4
   06/19/2016 15:40     106.1     105.0        7     28.1      0.00      8.37      79.6     0.48      1010.0     8       300        11       302        8.07     263      311.6
   06/19/2016 15:30     107.1     106.2        7     29.6      0.00      8.37      79.6     0.48      1010.0     7       300        10       307        8.08     263      394.2
   06/19/2016 15:20     107.6     106.9        7     29.0      0.00      8.37      79.5     0.48      1010.0     8       305        11       329        8.08     263      428.6
   06/19/2016 15:10     108.2     107.3        7     28.8      0.00      8.37      79.2     0.48      1011.0     7       322        13       320        8.09     263      434.4
   06/19/2016 15:00     108.2     107.5        6     28.3      0.00      8.37      79.3     0.48      1011.0     8       306        13       340        8.09     262      445.0
   06/19/2016 14:50     108.1     107.5        6     27.2      0.00      8.37      79.3     0.48      1011.0     7       318        10       346        8.10     263      454.9
   06/19/2016 14:40     108.3     107.5        5     23.1      0.00      8.37      79.2     0.48      1011.0     8       294        13       309        8.11     263      462.5
   06/19/2016 14:30     108.7     107.6        5     20.5      0.00      8.37      78.9     0.48      1011.0     5       274         7       281        8.12     263      472.1
   06/19/2016 14:20     109.0     107.3        4     20.2      0.00      8.37      79.0     0.48      1011.0     5       283         7       313        8.12     263      480.8
   06/19/2016 14:10     107.9     106.9        5     19.9      0.00      8.37      78.9     0.48      1011.0     5       221        10       239        8.13     263      485.7
   06/19/2016 14:00     108.7     107.0        5     21.2      0.00      8.37      78.8     0.48      1011.0     4       232        11       213        8.15     263      493.7
   06/19/2016 13:50     107.9     106.6        5     23.3      0.00      8.37      78.8     0.48      1011.0     5       221         9       209        8.16     264      500.8
   06/19/2016 13:40     107.3     106.3        6     24.8      0.00      8.37      78.6     0.47      1011.0     3       291         5       253        8.16     264      505.4
   06/19/2016 13:30     107.6     106.5        6     26.4      0.00      8.37      78.7     0.47      1011.0     5       285         7       312        8.17     264      509.6
   06/19/2016 13:20     106.8     106.2        6     26.0      0.00      8.37      78.5     0.47      1011.0     4       291         7       229        8.17     264      514.7
   06/19/2016 13:10     106.5     105.6        6     26.3      0.00      8.37      78.4     0.47      1012.0     5       351         8       338        8.17     264      516.3
   06/19/2016 13:00     106.6     105.0        6     26.5      0.00      8.37      78.3     0.47      1012.0     3       286         8       274        8.18     264      520.2
   06/19/2016 12:50     106.6     104.9        6     25.9      0.00      8.37      78.4     0.47      1012.0     3       327         6       332        8.18     264      519.7
   06/19/2016 12:40     105.2     104.4        6     24.3      0.00      8.37      78.4     0.47      1012.0     3       179         6       164        8.18     264      524.4
   06/19/2016 12:30     104.6     103.5        6     22.9      0.00      8.37      78.3     0.47      1012.0     3       214         4       246        8.19     263      524.2
   06/19/2016 12:20     105.9     104.7        5     19.7      0.00      8.37      78.3     0.47      1012.0     3       263         6       237        8.19     263      519.4
   06/19/2016 12:10     105.0     103.7        5     20.9      0.00      8.37      78.2     0.48      1012.0     3       316         5       325        8.19     264      515.7
   06/19/2016 12:00     104.4     103.4        6     24.4      0.00      8.37      78.2     0.48      1012.0     2        29         3       308        8.19     264      514.3
   06/19/2016 11:50     104.2     102.0        7     26.1      0.00      8.37      78.3     0.48      1012.0     2        80         4       318        8.20     265      511.0
   06/19/2016 11:40     103.1     102.2        6     24.9      0.00      8.37      78.2     0.48      1013.0     2       324         3       262        8.20     264      505.4
   06/19/2016 11:30     103.0     101.3        6     23.9      0.00      8.37      78.3     0.48      1013.0     2       278         5       310        8.20     265      502.6
   06/19/2016 11:20     101.1     100.4        6     22.0      0.00      8.37      78.2     0.48      1013.0     3       305         5       256        8.20     265      497.4
   06/19/2016 11:10     100.8      99.5        6     20.8      0.00      8.37      78.3     0.48      1013.0     3       252         6       259        8.20     265      491.3
   06/19/2016 11:00     100.2      99.3        5     18.3      0.00      8.37      78.2     0.48      1013.0     3       256         5       234        8.20     265      482.6
   06/19/2016 10:50      99.9      99.5        6     19.4      0.00      8.37      78.2     0.48      1013.0     4       234         6       255        8.20     266      470.9
   06/19/2016 10:40      99.6      98.7        7     24.1      0.00      8.37      78.3     0.48      1013.0     2       313         3       260        8.21     266      461.6
   06/19/2016 10:30      98.6      97.4        7     23.0      0.00      8.37      78.2     0.48      1013.0     2       235         4       240        8.21     265      450.0
   06/19/2016 10:20      98.5      97.0        8     27.6      0.00      8.37      78.5     0.48      1013.0     2       304         3       287        8.21     265      439.7
   06/19/2016 10:10      97.1      95.8        9     28.0      0.00      8.37      78.4     0.48      1013.0     2       316         2       245        8.21     265      428.8
   06/19/2016 10:00      96.3      94.7       10     31.1      0.00      8.37      78.4     0.49      1013.0     2       266         2        87        8.21     266      414.3
   06/19/2016 09:50      94.6      93.7       12     32.9      0.00      8.37      78.3     0.49      1013.0     2       205         4       205        8.21     266      397.9
   06/19/2016 09:40      94.3      93.0       14     36.2      0.00      8.37      78.5     0.49      1014.0     1       232         3       262        8.22     266      383.9
   06/19/2016 09:30      92.7      91.8       17     40.8      0.00      8.37      78.6     0.49      1014.0     1       320         2       111        8.24     266      370.4
   06/19/2016 09:20      91.6      89.2       17     39.7      0.00      8.37      78.3     0.49      1014.0     2        96         3       307        8.27     266      359.5
   06/19/2016 09:10      89.5      88.2       18     40.3      0.00      8.37      78.4     0.49      1014.0     2       254         3       254        8.28     266      349.2
   06/19/2016 09:00      87.9      85.5       23     44.4      0.00      8.37      78.6     0.50      1014.0     2       267         4       263        8.28     266      351.1
   06/19/2016 08:50      85.3      84.0       25     45.4      0.00      8.37      78.5     0.50      1014.0     3       276         3       269        8.29     266      370.1
   06/19/2016 08:40      83.9      82.1       27     46.0      0.00      8.37      78.7     0.50      1014.0     3       297         4       299        8.29     266       64.3
   06/19/2016 08:30      82.0      79.2       32     47.6      0.00      8.37      78.5     0.50      1014.0     2       296         4       297        8.29     266      -28.1
   06/19/2016 08:20      78.8      77.4       37     49.5      0.00      8.37      78.7     0.50      1014.0     1       318         3       290        8.29     266      -35.7
   06/19/2016 08:10      77.3      75.8       39     50.0      0.00      8.37      78.8     0.50      1014.0     2         3         3       351        8.29     266      -32.7
   06/19/2016 08:00      75.7      74.6       41     49.9      0.00      8.37      78.7     0.50      1014.0     2       355         3         0        8.29     266      -25.4
   06/19/2016 07:50      74.4      73.3       42     49.0      0.00      8.37      79.0     0.50      1014.0     2       355         2         1        8.29     266      -27.6
   06/19/2016 07:40      73.3      72.1       42     48.4      0.00      8.37      78.8     0.50      1014.0     1       343         2       340        8.29     266        5.4
   06/19/2016 07:30      71.9      70.6       45     49.0      0.00      8.37      78.8     0.50      1014.0     1       336         1       330        8.29     266      -14.9
   06/19/2016 07:20      70.6      69.4       47     49.0      0.00      8.37      78.8     0.50      1014.0     1       359         2         4        8.29     265      -35.5
   06/19/2016 07:10      69.3      67.9       49     48.7      0.00      8.37      78.9     0.50      1014.0     1       325         1       332        8.29     265      -36.2
   06/19/2016 07:00      67.9      66.8       50     48.2      0.00      8.37      78.8     0.50      1014.0     1       338         1       351        8.29     265      -39.4
   06/19/2016 06:50      66.8      66.3       49     47.0      0.00      8.37      79.0     0.50      1014.0     0        34         1        82        8.29     265      -40.3
   06/19/2016 06:40      66.3      64.7       51     47.1      0.00      8.37      79.0     0.50      1014.0     1       114         1        98        8.30     265      -41.6
   06/19/2016 06:30      64.8      63.9       54     47.2      0.00      8.37      79.1     0.50      1014.0     1       135         2       128        8.30     265      -48.6
   06/19/2016 06:20      63.8      62.8       53     45.9      0.00      8.37      79.2     0.50      1014.0     1       214         2       209        8.30     265      -48.4
   06/19/2016 06:10      63.0      62.4       54     45.9      0.00      8.37      79.0     0.50      1014.0     1       188         2       225        8.30     265      -50.4
   06/19/2016 06:00      62.8      62.5       54     46.0      0.00      8.37      79.0     0.50      1014.0     1        94         1        68        8.30     265      -55.8
   06/19/2016 05:50      63.1      62.2       55     46.1      0.00      8.37      79.0     0.50      1014.0     1       253         1       203        8.30     265      -56.6
   06/19/2016 05:40      62.8      62.3       54     45.9      0.00      8.37      79.2     0.50      1014.0     1        67         2       118        8.30     265      -59.9
   06/19/2016 05:30      63.5      63.2       52     45.3      0.00      8.37      79.2     0.50      1014.0     1       227         1       116        8.30     265      -59.6
   06/19/2016 05:20      63.9      63.5       53     46.1      0.00      8.37      79.3     0.50      1014.0     1       203         1       205        8.30     265      -60.1
   06/19/2016 05:10      63.9      62.6       53     45.9      0.00      8.37      79.3     0.50      1014.0     1       186         2       197        8.30     265      -60.4
   06/19/2016 05:00      63.8      63.1       52     45.7      0.00      8.37      79.4     0.50      1013.0     1        89         1        93        8.30     265      -62.1
   06/19/2016 04:50      64.5      63.9       51     45.9      0.00      8.37      79.4     0.50      1013.0     0        66         1        74        8.30     265      -61.5
   06/19/2016 04:40      65.0      64.3       53     47.0      0.00      8.37      79.5     0.50      1013.0     1       122         3       132        8.30     265      -62.9
   06/19/2016 04:30      64.8      64.0       51     45.7      0.00      8.37      79.4     0.50      1014.0     2       194         3       245        8.30     265      -62.0
   06/19/2016 04:20      64.6      64.0       52     46.6      0.00      8.37      79.5     0.50      1014.0     1       152         2       142        8.30     265      -63.5
   06/19/2016 04:10      65.4      64.8       50     46.0      0.00      8.37      79.3     0.50      1014.0     1       152         2       140        8.30     265      -63.7
   06/19/2016 04:00      65.4      64.8       50     46.2      0.00      8.37      79.7     0.50      1014.0     1       200         1       194        8.30     265      -63.1
   06/19/2016 03:50      64.9      64.7       51     46.3      0.00      8.37      79.5     0.50      1014.0     1       160         1       142        8.30     265      -59.4
   06/19/2016 03:40      65.0      64.7       50     46.0      0.00      8.37      79.6     0.50      1014.0     1       126         1       132        8.30     265      -49.1
   06/19/2016 03:30      65.4      65.0       50     46.0      0.00      8.37      79.7     0.50      1014.0     1       260         1       179        8.30     264      -44.5
   06/19/2016 03:20      65.0      64.6       50     46.0      0.00      8.37      79.6     0.50      1014.0     1       340         2       345        8.30     264      -54.1
   06/19/2016 03:10      65.1      64.8       51     46.2      0.00      8.37      79.7     0.50      1014.0     1       128         1        86        8.30     264      -62.8
   06/19/2016 03:00      65.8      65.1       49     45.9      0.00      8.37      79.8     0.50      1014.0     1        91         1       168        8.30     264      -64.8
   06/19/2016 02:50      65.9      65.6       48     45.7      0.00      8.37      79.5     0.50      1014.0     1       108         1       122        8.30     264      -65.8
   06/19/2016 02:40      65.9      65.6       47     44.8      0.00      8.37      79.7     0.50      1014.0     1       174         2       195        8.30     264      -65.5
   06/19/2016 02:30      66.1      65.8       48     45.5      0.00      8.37      79.7     0.50      1014.0     1       152         1       160        8.30     264      -66.7
   06/19/2016 02:20      66.8      66.2       47     45.5      0.00      8.37      79.9     0.50      1014.0     1        78         1       124        8.30     264      -67.4
   06/19/2016 02:10      67.4      67.1       44     44.6      0.00      8.37      79.7     0.50      1014.0     1        16         1       244        8.30     264      -67.2
   06/19/2016 02:00      67.4      67.1       45     45.3      0.00      8.37      79.8     0.50      1014.0     2       153         2       127        8.30     264      -67.5
   06/19/2016 01:50      67.7      67.2       43     44.2      0.00      8.37      79.9     0.50      1014.0     1       154         2       120        8.30     264      -67.6
   06/19/2016 01:40      68.8      68.0       41     43.9      0.00      8.37      79.8     0.50      1014.0     1       161         2       131        8.30     264      -68.2
   06/19/2016 01:30      68.9      68.3       41     43.9      0.00      8.37      79.7     0.50      1014.0     1       181         1       205        8.30     264      -68.7
   06/19/2016 01:20      69.0      68.4       40     43.6      0.00      8.37      80.0     0.50      1015.0     1       200         1       234        8.30     264      -68.7
   06/19/2016 01:10      68.6      68.4       41     43.7      0.00      8.37      79.9     0.50      1015.0     1       137         2       141        8.30     264      -69.3
   06/19/2016 01:00      69.1      68.6       40     43.5      0.00      8.37      80.0     0.50      1015.0     1       131         2       128        8.30     264      -70.1
   06/19/2016 00:50      69.5      68.6       40     43.4      0.00      8.37      79.9     0.50      1014.0     1        96         1        68        8.30     264      -70.8
   06/19/2016 00:40      69.8      69.5       39     43.5      0.00      8.37      79.9     0.50      1015.0     1        17         1         1        8.30     264      -71.4
   06/19/2016 00:30      70.3      69.7       38     43.3      0.00      8.37      80.0     0.50      1015.0     1        89         1        58        8.30     264      -72.2
   06/19/2016 00:20      70.8      70.4       37     43.1      0.00      8.37      79.9     0.50      1015.0     1       140         1        88        8.30     264      -73.0
   06/19/2016 00:10      71.6      71.1       36     43.2      0.00      8.37      80.0     0.50      1015.0     1       137         2       126        8.30     263      -73.7
   06/19/2016 00:00      73.2      71.4       35     43.0      0.00      8.37      80.0     0.50      1015.0     1        75         2        20        8.30     263      -76.1
   06/18/2016 23:50      74.8      73.4       33     42.9      0.00      8.37      80.1     0.50      1015.0     1        86         2       197        8.30     263      -77.3
   06/18/2016 23:40      75.8      75.0       31     42.8      0.00      8.37      80.0     0.50      1015.0     1       206         3       199        8.31     263      -78.1
   06/18/2016 23:30      76.2      75.5       31     42.8      0.00      8.37      80.1     0.50      1015.0     2       183         3       196        8.31     263      -78.8
   06/18/2016 23:20      76.5      76.3       30     42.4      0.00      8.37      80.0     0.50      1015.0     2       184         3       196        8.31     263      -80.3
   06/18/2016 23:10      76.5      76.3       29     41.7      0.00      8.37      80.0     0.50      1015.0     3       199         5       181        8.31     263      -80.5
   06/18/2016 23:00      76.4      75.0       29     41.1      0.00      8.37      80.0     0.50      1015.0     3       188         5       199        8.31     263      -78.8
   06/18/2016 22:50      74.9      74.1       30     41.2      0.00      8.37      80.0     0.50      1015.0     2       159         3       198        8.31     263      -78.7
   06/18/2016 22:40      74.4      74.1       31     41.6      0.00      8.37      79.9     0.50      1015.0     2       152         3       219        8.31     263      -79.3
   06/18/2016 22:30      76.3      74.7       30     41.8      0.00      8.37      80.0     0.50      1015.0     1        92         2        51        8.31     262      -82.4
   06/18/2016 22:20      77.1      76.5       28     41.3      0.00      8.37      80.1     0.50      1015.0     2       180         3       197        8.31     262      -85.2
   06/18/2016 22:10      77.5      77.2       28     41.3      0.00      8.37      80.0     0.50      1015.0     4       203         5       204        8.31     262      -86.7
   06/18/2016 22:00      77.5      77.3       27     41.2      0.00      8.37      80.0     0.50      1015.0     4       209         5       199        8.31     262      -87.0
   06/18/2016 21:50      78.1      77.6       27     41.6      0.00      8.37      79.9     0.50      1015.0     3       193         6       207        8.31     262      -88.8
   06/18/2016 21:40      78.4      78.3       27     41.5      0.00      8.37      79.8     0.50      1015.0     3       191         4       190        8.32     262      -91.1
   06/18/2016 21:30      78.7      78.3       27     41.9      0.00      8.37      79.8     0.50      1015.0     4       218         5       209        8.32     262      -91.5
   06/18/2016 21:20      79.0      78.5       28     42.6      0.00      8.37      79.8     0.50      1015.0     2       205         3       190        8.32     262      -92.8
   06/18/2016 21:10      79.5      79.1       27     42.4      0.00      8.37      79.9     0.50      1015.0     4       219         7       242        8.32     262      -93.5
   06/18/2016 21:00      80.0      79.5       27     43.1      0.00      8.37      79.8     0.50      1016.0     4       234         5       225        8.32     262      -93.9
   06/18/2016 20:50      80.8      80.3       27     43.5      0.00      8.37      79.8     0.50      1016.0     3       237         5       254        8.32     262      -94.9
   06/18/2016 20:40      81.3      80.9       26     43.4      0.00      8.37      79.7     0.50      1016.0     2       250         3       249        8.32     262      -96.6
   06/18/2016 20:30      82.0      81.3       27     44.5      0.00      8.37      79.6     0.50      1016.0     3       243         4       223        8.32     262      -97.9
   06/18/2016 20:20      82.5      82.1       27     44.8      0.00      8.37      79.5     0.50      1015.0     3       279         4       257        8.32     262      -98.5
   06/18/2016 20:10      83.4      82.7       25     44.2      0.00      8.37      79.6     0.50      1015.0     4       288         7       304        8.33     262      -97.9
   06/18/2016 20:00      84.6      83.6       25     44.0      0.00      8.37      79.5     0.50      1015.0     4       297         5       280        8.33     262      -95.6
   06/18/2016 19:50      85.2      84.8       22     42.0      0.00      8.37      79.7     0.50      1015.0     3       279         6       295        8.33     262      -92.8
   06/18/2016 19:40      86.2      85.3       20     40.4      0.00      8.37      79.5     0.50      1015.0     4       224         8       218        8.33     261      -81.7
   06/18/2016 19:30      87.0      86.4       19     39.2      0.00      8.37      79.3     0.50      1015.0     4       209         5       190        8.33     261      -53.4
   06/18/2016 19:20      87.7      87.1       18     38.9      0.00      8.37      79.3     0.50      1015.0     4       219         6       218        8.33     261      -34.8
   06/18/2016 19:10      88.0      87.6       18     39.0      0.00      8.37      79.3     0.50      1015.0     5       234         8       257        8.33     261       -7.7
   06/18/2016 19:00      89.0      88.3       16     37.3      0.00      8.37      79.3     0.50      1015.0     6       231         9       240        8.34     261       30.8
   06/18/2016 18:50      89.1      88.7       14     34.3      0.00      8.37      79.2     0.50      1015.0     5       237         8       238        8.34     261       55.0
   06/18/2016 18:40      90.4      89.1       12     30.1      0.00      8.37      79.1     0.50      1015.0     7       226        10       244        8.35     261       40.0
   06/18/2016 18:30      91.2      90.4       11     29.6      0.00      8.37      79.1     0.50      1015.0     7       236        11       219        8.35     261       72.5
   06/18/2016 18:20      91.6      91.2       11     29.8      0.00      8.37      79.1     0.49      1014.0     7       243        10       262        8.36     261      102.9
   06/18/2016 18:10      91.9      91.4       11     30.4      0.00      8.37      78.9     0.49      1014.0     7       246        11       266        8.36     261      114.9
   06/18/2016 18:00      92.0      91.7       11     30.5      0.00      8.37      78.9     0.49      1014.0     8       238        13       239        8.37     261      139.0
   06/18/2016 17:50      93.0      92.4       10     28.9      0.00      8.37      78.6     0.49      1014.0     5       216         9       213        8.38     261      123.3
   06/18/2016 17:40      93.1      92.5       10     28.5      0.00      8.37      78.7     0.49      1014.0     7       245        10       259        8.39     261      112.5
   06/18/2016 17:30      93.4      92.9       11     29.9      0.00      8.37      78.5     0.49      1014.0     8       231        12       228        8.40     261      202.8
   06/18/2016 17:20      94.9      93.6        9     27.9      0.00      8.37      78.5     0.49      1014.0     7       232        10       224        8.41     261      236.9
   06/18/2016 17:10      95.2      94.6       10     28.6      0.00      8.37      78.4     0.49      1014.0     7       240        10       266        8.42     261      248.2
   06/18/2016 17:00      95.3      94.6       10     29.2      0.00      8.37      78.4     0.49      1014.0     7       253        10       271        8.43     261      264.9
   06/18/2016 16:50      95.4      94.9        9     28.8      0.00      8.37      78.3     0.49      1014.0     6       288         9       306        8.43     262      285.8
   06/18/2016 16:40      96.1      95.1        9     28.1      0.00      8.37      78.3     0.49      1014.0     8       275        12       256        8.44     261      308.9
   06/18/2016 16:30      96.5      95.4       10     30.9      0.00      8.37      78.3     0.49      1014.0     7       271        11       246        8.44     261      326.9
   06/18/2016 16:20      97.5      95.2       10     31.6      0.00      8.37      77.9     0.49      1014.0     9       275        14       245        8.45     261      339.7
   06/18/2016 16:10      98.0      96.5       11     33.0      0.00      8.37      77.8     0.49      1014.0     5       262         8       260        8.45     262      360.5
   06/18/2016 16:00      97.1      95.4       10     30.6      0.00      8.37      77.7     0.49      1014.0     6       247        10       221        8.46     262      380.3
   06/18/2016 15:50      97.5      96.0       10     32.1      0.00      8.37      77.7     0.49      1014.0     6       256        10       272        8.47     262      394.7
   06/18/2016 15:40      98.1      96.4       10     31.6      0.00      8.37      77.6     0.49      1014.0     6       267         9       264        8.48     262      409.6
   06/18/2016 15:30      97.5      96.3        9     29.7      0.00      8.37      77.5     0.49      1014.0     7       263        11       270        8.48     262      420.6
   06/18/2016 15:20      98.7      96.7        8     27.5      0.00      8.37      77.4     0.49      1014.0     8       263        12       270        8.49     263      437.7
   06/18/2016 15:10      98.6      96.9        9     28.5      0.00      8.37      77.3     0.49      1014.0     5       283        11       231        8.50     263      452.6
   06/18/2016 15:00      98.3      97.0        9     28.8      0.00      8.37      77.1     0.49      1015.0     7       261        13       245        8.50     262      469.3
   06/18/2016 14:50      99.0      97.2        9     30.7      0.00      8.37      77.2     0.49      1015.0     8       257        11       258        8.51     262      481.4
   06/18/2016 14:40      98.9      96.9       10     31.5      0.00      8.37      77.0     0.48      1015.0     6       238         9       220        8.52     263      487.7
   06/18/2016 14:30      98.8      96.8       11     34.3      0.00      8.37      77.0     0.48      1015.0     5       297         8       307        8.52     263      494.7
   06/18/2016 14:20      97.7      96.7       10     30.3      0.00      8.37      76.8     0.48      1015.0     6       255         9       244        8.52     263      507.2
   06/18/2016 14:10      98.1      96.8       10     30.8      0.00      8.37      76.9     0.48      1015.0     6       226         9       246        8.53     263      516.7
   06/18/2016 14:00      98.1      96.1       11     33.2      0.00      8.37      76.8     0.48      1015.0     6       228         9       216        8.53     263      524.7
   06/18/2016 13:50      97.8      96.6       10     31.7      0.00      8.37      76.7     0.48      1015.0     6       225        12       262        8.54     263      530.0
   06/18/2016 13:40      98.0      96.1       10     32.3      0.00      8.37      76.6     0.48      1015.0     6       259         9       259        8.55     264      538.3
   06/18/2016 13:30      97.5      96.0       11     33.0      0.00      8.37      76.5     0.48      1015.0     6       245        11       255        8.55     264      538.3
   06/18/2016 13:20      96.5      94.9       11     33.4      0.00      8.37      76.6     0.48      1015.0     5       180         9       152        8.56     265      539.9
   06/18/2016 13:10      98.0      96.3       14     39.3      0.00      8.37      76.5     0.48      1015.0     4       279         7       310        8.56     265      536.8
   06/18/2016 13:00      97.1      96.0       15     40.7      0.00      8.37      76.5     0.48      1015.0     4       333         6       320        8.57     265      539.0
   06/18/2016 12:50      96.4      95.2       15     41.1      0.00      8.37      76.4     0.48      1015.0     4       312         7       310        8.57     265      545.2
   06/18/2016 12:40      95.4      94.2       16     41.4      0.00      8.37      76.2     0.48      1016.0     4       308         6       314        8.57     265      551.3
   06/18/2016 12:30      96.6      94.3       16     42.3      0.00      8.37      76.3     0.48      1016.0     3       288         7       231        8.57     264      543.6
   06/18/2016 12:20      94.6      93.0       17     42.6      0.00      8.37      76.3     0.48      1016.0     2        32         4         4        8.57     265      544.6
   06/18/2016 12:10      93.4      92.3       17     41.9      0.00      8.37      76.2     0.48      1016.0     3       331         6       292        8.58     265      542.7
   06/18/2016 12:00      92.6      91.3       18     41.9      0.00      8.37      76.3     0.48      1016.0     4       315         5       344        8.58     265      544.0
   06/18/2016 11:50      92.5      91.0       18     41.8      0.00      8.37      76.2     0.48      1016.0     4       225         8       238        8.58     265      543.3
   06/18/2016 11:40      92.6      91.4       17     40.8      0.00      8.37      76.2     0.48      1016.0     3       229         5       268        8.58     265      537.1
   06/18/2016 11:30      93.2      91.9       18     42.9      0.00      8.37      76.1     0.49      1016.0     4       308         7       267        8.58     266      524.6
   06/18/2016 11:20      91.7      90.8       19     42.9      0.00      8.37      76.1     0.49      1016.0     2       270         4       328        8.58     266      525.7
   06/18/2016 11:10      90.7      89.9       19     42.9      0.00      8.37      76.3     0.49      1016.0     3       318         5       344        8.58     266      513.3
   06/18/2016 11:00      90.2      89.7       20     43.1      0.00      8.37      76.2     0.49      1016.0     3       324         6       326        8.58     266      511.9
   06/18/2016 10:50      89.8      89.1       20     42.9      0.00      8.37      76.3     0.49      1016.0     3       232         7       255        8.58     267      502.6
   06/18/2016 10:40      90.2      89.3       20     43.6      0.00      8.37      76.2     0.49      1016.0     2        97         4        67        8.58     267      499.2
   06/18/2016 10:30      89.3      88.4       22     44.7      0.00      8.37      76.3     0.49      1016.0     2        15         4        19        8.58     267      507.8
   06/18/2016 10:20      88.9      87.4       23     45.2      0.00      8.37      76.3     0.49      1017.0     2         7         3       351        8.59     267      445.9
   06/18/2016 10:10      88.2      87.4       23     44.8      0.00      8.37      76.3     0.49      1016.0     2       358         4       353        8.59     267      385.7
   06/18/2016 10:00      87.6      86.3       23     44.6      0.00      8.37      76.5     0.49      1016.0     2       360         3         2        8.59     267      428.3
   06/18/2016 09:50      86.5      84.9       24     44.3      0.00      8.37      76.4     0.49      1016.0     1       240         2       143        8.59     267      408.0
   06/18/2016 09:40      86.1      84.6       25     45.6      0.00      8.37      76.5     0.50      1016.0     2       268         4       240        8.59     267      394.3
   06/18/2016 09:30      84.7      83.4       27     46.5      0.00      8.37      76.4     0.50      1016.0     2       230         3       182        8.59     267      382.3
   06/18/2016 09:20      83.4      81.3       29     47.2      0.00      8.37      76.6     0.50      1017.0     2       327         3       283        8.59     267      367.8
   06/18/2016 09:10      81.9      80.5       30     46.6      0.00      8.37      76.8     0.50      1017.0     2       276         4       282        8.60     267      355.1
   06/18/2016 09:00      80.4      78.9       31     46.5      0.00      8.37      76.6     0.50      1017.0     3       222         5       241        8.60     267      352.3
   06/18/2016 08:50      78.6      77.0       33     46.8      0.00      8.37      76.4     0.50      1017.0     3       234         5       248        8.60     267      369.2
   06/18/2016 08:40      76.7      74.7       37     47.3      0.00      8.37      76.7     0.50      1017.0     2       261         3       261        8.60     267       39.0
   06/18/2016 08:30      74.5      73.3       39     47.8      0.00      8.37      76.2     0.50      1017.0     2       301         3       292        8.60     267      -24.9
   06/18/2016 08:20      73.3      72.1       41     47.6      0.00      8.37      76.7     0.50      1017.0     2       306         3       281        8.60     267      -33.0
   06/18/2016 08:10      72.3      71.1       43     48.1      0.00      8.37      76.8     0.50      1017.0     2       295         3       235        8.61     267      -33.2
   06/18/2016 08:00      71.2      69.8       47     49.2      0.00      8.37      76.8     0.50      1017.0     2       259         3       258        8.61     267      -25.9
   06/18/2016 07:50      69.7      68.7       49     49.4      0.00      8.37      76.7     0.50      1017.0     2       259         4       260        8.61     267      -29.3
   06/18/2016 07:40      68.8      67.5       51     49.5      0.00      8.37      76.7     0.50      1017.0     2       264         4       234        8.61     267       14.6
   06/18/2016 07:30      67.5      66.1       54     49.7      0.00      8.37      76.8     0.50      1017.0     2       338         2       345        8.61     267      -11.2
   06/18/2016 07:20      66.1      65.2       56     49.7      0.00      8.37      76.8     0.50      1017.0     1       356         2       328        8.61     267      -32.5
   06/18/2016 07:10      65.3      64.3       58     49.5      0.00      8.37      77.0     0.50      1017.0     1       353         2       348        8.61     267      -30.3
   06/18/2016 07:00      64.5      63.8       60     49.8      0.00      8.37      77.0     0.50      1017.0     2       352         2       345        8.61     267      -33.6
   06/18/2016 06:50      63.8      63.4       61     49.8      0.00      8.37      76.9     0.50      1017.0     2         9         3         3        8.61     267      -36.1
   06/18/2016 06:40      63.6      62.4       62     49.9      0.00      8.37      76.7     0.50      1016.0     2        30         3         6        8.62     267      -35.8
   06/18/2016 06:30      62.5      60.5       63     49.0      0.00      8.37      76.9     0.50      1016.0     2       201         3       183        8.62     267      -41.1
   06/18/2016 06:20      60.5      59.6       68     49.4      0.00      8.37      76.9     0.50      1016.0     2       167         3       155        8.62     267      -44.0
   06/18/2016 06:10      59.6      59.1       69     49.3      0.00      8.37      76.9     0.50      1016.0     2       148         3       160        8.62     267      -45.9
   06/18/2016 06:00      59.3      58.6       70     49.3      0.00      8.37      77.0     0.50      1016.0     3       148         3       156        8.62     267      -51.5
   06/18/2016 05:50      59.2      59.0       68     48.4      0.00      8.37      77.1     0.50      1016.0     2       154         2       129        8.62     267      -54.9
   06/18/2016 05:40      59.2      58.9       68     48.4      0.00      8.37      77.0     0.50      1016.0     1       171         1       153        8.62     267      -55.0
   06/18/2016 05:30      59.4      59.0       67     48.4      0.00      8.37      77.2     0.50      1016.0     1       136         1       154        8.62     266      -57.7
   06/18/2016 05:20      59.5      59.1       68     48.8      0.00      8.37      77.1     0.50      1016.0     1       159         1       157        8.62     266      -58.7
   06/18/2016 05:10      59.5      59.2       68     48.6      0.00      8.37      77.2     0.50      1016.0     0       108         1       130        8.62     266      -60.0
   06/18/2016 05:00      59.8      59.3       66     48.4      0.00      8.37      77.3     0.50      1016.0     1       114         1       113        8.62     266      -60.4
   06/18/2016 04:50      60.3      60.0       65     48.3      0.00      8.37      77.5     0.50      1016.0     2       125         2       126        8.62     266      -61.4
   06/18/2016 04:40      60.8      60.4       61     47.2      0.00      8.37      77.5     0.50      1016.0     2       189         2       219        8.62     267      -60.7
   06/18/2016 04:30      60.8      60.4       64     48.2      0.00      8.37      77.4     0.50      1016.0     1       162         1       201        8.62     266      -60.9
   06/18/2016 04:20      60.8      60.4       64     48.2      0.00      8.37      77.4     0.50      1016.0     1       123         1       127        8.62     266      -61.5
   06/18/2016 04:10      61.3      60.9       62     47.8      0.00      8.37      77.5     0.50      1016.0     0       181         1       262        8.62     266      -60.8
   06/18/2016 04:00      61.3      60.9       62     48.0      0.00      8.37      77.3     0.50      1016.0     1       309         1       270        8.62     266      -60.5
   06/18/2016 03:50      61.5      60.8       62     47.9      0.00      8.37      77.7     0.50      1015.0     1       138         1       151        8.62     266      -59.8
   06/18/2016 03:40      61.2      60.7       63     48.1      0.00      8.37      77.4     0.50      1015.0     1       119         1       129        8.62     266      -61.7
   06/18/2016 03:30      61.9      61.3       61     48.0      0.00      8.37      77.4     0.50      1016.0     1       111         2       122        8.63     266      -63.0
   06/18/2016 03:20      61.9      61.6       61     48.4      0.00      8.37      77.4     0.50      1016.0     0       128         1       148        8.63     266      -62.2
   06/18/2016 03:10      61.9      61.4       61     48.2      0.00      8.37      77.5     0.51      1016.0     1       118         1       146        8.63     266      -63.3
   06/18/2016 03:00      62.1      61.7       61     48.3      0.00      8.37      77.4     0.50      1016.0     1       141         2       142        8.63     266      -63.1
   06/18/2016 02:50      62.5      62.1       60     48.3      0.00      8.37      77.6     0.50      1016.0     1       130         2       122        8.63     266      -64.0
   06/18/2016 02:40      62.8      62.6       58     47.8      0.00      8.37      77.8     0.50      1016.0     1       156         2       132        8.63     266      -64.8
   06/18/2016 02:30      63.4      62.9       55     47.0      0.00      8.37      77.5     0.50      1016.0     2       196         3       197        8.63     265      -63.7
   06/18/2016 02:20      64.4      63.3       53     46.4      0.00      8.37      77.6     0.50      1016.0     2       185         2       191        8.63     265      -65.2
   06/18/2016 02:10      64.5      64.0       54     47.2      0.00      8.37      77.7     0.50      1016.0     0       272         1       299        8.63     265      -64.7
   06/18/2016 02:00      64.5      63.7       54     46.9      0.00      8.37      77.7     0.50      1016.0     1       118         1       112        8.63     265      -66.7
   06/18/2016 01:50      65.3      64.8       52     47.1      0.00      8.37      77.4     0.51      1016.0     1       191         1       121        8.63     265      -65.8
   06/18/2016 01:40      65.2      64.8       52     47.0      0.00      8.37      77.8     0.50      1016.0     0       152         1       119        8.63     265      -65.3
   06/18/2016 01:30      65.9      65.1       51     46.7      0.00      8.37      77.6     0.51      1016.0     1        42         1        33        8.63     265      -65.5
   06/18/2016 01:20      66.7      66.0       48     46.3      0.00      8.37      77.6     0.51      1016.0     1       349         2       269        8.63     265      -63.6
   06/18/2016 01:10      66.9      66.5       48     46.6      0.00      8.37      77.8     0.50      1016.0     1       312         2       289        8.63     265      -60.5
   06/18/2016 01:00      66.8      66.6       48     46.5      0.00      8.37      77.9     0.51      1017.0     0        96         1       187        8.63     265      -61.6
   06/18/2016 00:50      68.6      67.2       46     46.4      0.00      8.37      77.7     0.50      1017.0     1        69         2        64        8.63     265      -64.9
   06/18/2016 00:40      70.8      68.9       43     46.3      0.00      8.37      77.8     0.50      1017.0     1       168         2       210        8.63     265      -68.0
   06/18/2016 00:30      71.4      70.9       41     46.3      0.00      8.37      77.7     0.50      1017.0     2       214         2       255        8.64     265      -68.4
   06/18/2016 00:20      71.3      70.2       41     46.1      0.00      8.37      77.7     0.51      1016.0     3       214         6       209        8.64     265      -69.5
   06/18/2016 00:10      70.7      70.1       41     45.8      0.00      8.37      77.8     0.51      1016.0     2       201         3       199        8.64     265      -71.6
   06/18/2016 00:00      70.6      70.1       41     45.7      0.00      8.37      77.8     0.51      1017.0     2       189         3       262        8.64     265      -72.3
   06/17/2016 23:50      71.2      70.6       40     45.8      0.00      8.37      77.6     0.51      1017.0     2       181         3       201        8.64     265      -73.2
   06/17/2016 23:40      71.2      70.9       40     45.7      0.00      8.37      77.8     0.51      1016.0     2       192         3       194        8.64     265      -74.9
   06/17/2016 23:30      71.2      70.9       40     45.6      0.00      8.37      77.8     0.51      1016.0     2       182         3       205        8.65     265      -76.6
   06/17/2016 23:20      71.3      71.0       40     45.7      0.00      8.37      77.9     0.51      1016.0     3       201         5       189        8.65     264      -77.6
   06/17/2016 23:10      71.4      71.1       40     45.6      0.00      8.37      78.0     0.51      1016.0     5       211         7       216        8.65     264      -78.2
   06/17/2016 23:00      71.3      71.2       40     45.5      0.00      8.37      77.8     0.51      1016.0     5       208         6       197        8.65     264      -78.5
   06/17/2016 22:50      71.4      71.2       40     45.5      0.00      8.37      77.9     0.51      1016.0     5       207         7       185        8.65     264      -78.5
   06/17/2016 22:40      71.5      71.3       40     45.5      0.00      8.37      77.7     0.51      1016.0     5       204         6       217        8.66     264      -78.9
   06/17/2016 22:30      71.8      71.4       39     45.5      0.00      8.37      77.8     0.51      1016.0     4       200         5       207        8.66     264      -79.4
   06/17/2016 22:20      71.9      71.7       39     45.5      0.00      8.37      77.8     0.51      1016.0     4       210         5       224        8.66     264      -79.7
   06/17/2016 22:10      72.0      71.7       39     45.6      0.00      8.37      77.8     0.51      1016.0     3       208         5       219        8.66     264      -80.2
   06/17/2016 22:00      72.4      72.1       39     45.8      0.00      8.37      77.8     0.51      1016.0     3       194         5       190        8.66     265      -81.1
   06/17/2016 21:50      72.8      72.5       38     45.9      0.00      8.37      77.8     0.51      1016.0     3       222         6       242        8.66     264      -81.1
   06/17/2016 21:40      73.2      72.8       38     46.0      0.00      8.37      77.7     0.51      1016.0     3       212         4       230        8.66     264      -81.4
   06/17/2016 21:30      73.6      73.2       37     45.5      0.00      8.37      77.7     0.51      1016.0     2       209         4       229        8.66     264      -82.8
   06/17/2016 21:20      73.8      73.5       36     45.1      0.00      8.37      77.8     0.51      1016.0     3       216         4       197        8.67     264      -83.7
   06/17/2016 21:10      74.3      73.8       35     44.5      0.00      8.37      77.6     0.51      1016.0     3       221         7       251        8.67     264      -84.9
   06/17/2016 21:00      74.7      74.3       33     43.4      0.00      8.37      77.8     0.51      1016.0     3       201         5       203        8.67     264      -86.1
   06/17/2016 20:50      75.4      74.7       32     43.0      0.00      8.37      77.7     0.50      1015.0     3       206         6       219        8.67     264      -87.1
   06/17/2016 20:40      75.5      75.4       31     43.1      0.00      8.37      77.7     0.50      1015.0     4       222         5       230        8.67     264      -88.6
   06/17/2016 20:30      76.3      75.7       31     43.1      0.00      8.37      77.5     0.50      1015.0     5       229         7       241        8.68     264      -88.4
   06/17/2016 20:20      77.3      76.4       30     43.1      0.00      8.37      77.6     0.50      1015.0     5       240         7       237        8.69     264      -87.8
   06/17/2016 20:10      77.9      77.4       29     42.7      0.00      8.37      77.5     0.50      1015.0     5       239         7       233        8.70     264      -87.4
   06/17/2016 20:00      79.1      78.0       27     42.1      0.00      8.37      77.5     0.50      1015.0     4       233         6       230        8.70     264      -84.1
   06/17/2016 19:50      79.9      79.2       28     43.8      0.00      8.37      77.3     0.50      1015.0     5       247         7       260        8.71     264      -80.3
   06/17/2016 19:40      80.9      80.0       27     43.6      0.00      8.37      77.3     0.50      1015.0     5       254         6       242        8.71     264      -69.6
   06/17/2016 19:30      81.0      80.8       27     43.7      0.00      8.37      77.2     0.50      1015.0     5       269         8       268        8.71     264      -45.1
   06/17/2016 19:20      82.1      81.3       26     43.8      0.00      8.37      77.3     0.50      1015.0     5       270         8       252        8.72     264      -61.0
   06/17/2016 19:10      82.2      81.8       25     43.3      0.00      8.37      77.3     0.50      1015.0     4       281         6       262        8.72     264      -21.2
   06/17/2016 19:00      82.2      81.8       25     42.7      0.00      8.37      77.3     0.50      1015.0     4       303         7       316        8.73     264        2.8
   06/17/2016 18:50      82.0      81.6       25     42.6      0.00      8.37      77.1     0.50      1015.0     5       292         9       290        8.73     264       37.1
   06/17/2016 18:40      83.2      81.9       24     42.5      0.00      8.37      77.0     0.50      1015.0     6       305         8       296        8.73     264      -10.8
   06/17/2016 18:30      83.9      83.1       24     43.1      0.00      8.37      76.9     0.50      1014.0     8       311        11       302        8.74     264       33.8
   06/17/2016 18:20      84.2      83.8       24     43.5      0.00      8.37      77.0     0.50      1014.0     7       306        12       306        8.74     264       90.5
   06/17/2016 18:10      84.5      84.0       24     43.6      0.00      8.37      76.8     0.50      1014.0     7       302        11       306        8.75     264      115.6
   06/17/2016 18:00      85.5      84.5       23     43.6      0.00      8.37      76.9     0.50      1014.0     8       307        12       302        8.75     264      139.2
   06/17/2016 17:50      85.9      85.5       23     43.9      0.00      8.37      76.8     0.50      1014.0     7       293         9       297        8.76     264      160.9
   06/17/2016 17:40      86.3      86.0       23     44.5      0.00      8.37      76.8     0.50      1014.0     7       308         9       299        8.76     264      184.2
   06/17/2016 17:30      86.6      86.0       24     45.2      0.00      8.37      76.7     0.50      1014.0     7       307        11       315        8.76     264      205.6
   06/17/2016 17:20      88.6      87.0       23     45.0      0.00      8.37      76.7     0.50      1014.0     7       306        11       334        8.77     264      224.6
   06/17/2016 17:10      88.7      87.9       23     45.4      0.00      8.37      76.6     0.50      1014.0     6       292        13       290        8.77     264      245.1
   06/17/2016 17:00      89.1      88.3       22     45.2      0.00      8.37      76.4     0.50      1014.0     6       304        10       296        8.78     264      264.5
   06/17/2016 16:50      89.0      87.8       22     45.0      0.00      8.37      76.3     0.50      1014.0     5       257         9       308        8.78     264      283.0
   06/17/2016 16:40      89.1      87.6       22     44.8      0.00      8.37      76.4     0.50      1014.0     5       264        11       265        8.79     264      303.1
   06/17/2016 16:30      89.3      87.7       22     44.5      0.00      8.37      76.2     0.50      1014.0     5       246         8       247        8.79     264      299.6
   06/17/2016 16:20      89.8      88.4       21     44.4      0.00      8.37      76.1     0.50      1014.0     4       243         8       203        8.80     264      341.0
   06/17/2016 16:10      88.4      87.6       21     43.5      0.00      8.37      76.0     0.50      1014.0     5       185         9       161        8.80     264      363.9
   06/17/2016 16:00      88.5      87.7       21     43.5      0.00      8.37      75.9     0.50      1014.0     6       170         9       143        8.81     263      382.2
   06/17/2016 15:50      88.6      87.7       21     43.4      0.00      8.37      75.8     0.50      1015.0     8       151        10       146        8.81     264      402.1
   06/17/2016 15:40      88.7      88.0       21     43.6      0.00      8.37      75.8     0.50      1015.0     6       148        10       147        8.82     264      414.5
   06/17/2016 15:30      89.6      88.4       21     43.8      0.00      8.37      75.7     0.50      1015.0     5       172         8       133        8.82     264      424.4
   06/17/2016 15:20      89.5      88.3       21     43.5      0.00      8.37      75.7     0.50      1015.0     6       143         9       122        8.83     264      442.9
   06/17/2016 15:10      89.7      87.7       21     43.4      0.00      8.37      75.6     0.50      1015.0     5       181        10       158        8.83     264      460.0
   06/17/2016 15:00      89.9      87.9       21     43.6      0.00      8.37      75.7     0.50      1015.0     4       137         7       145        8.84     264      469.1
   06/17/2016 14:50      88.7      87.7       21     43.8      0.00      8.37      75.5     0.50      1015.0     5       155         8       133        8.84     264      475.5
   06/17/2016 14:40      88.4      87.3       22     43.9      0.00      8.37      75.4     0.50      1015.0     6       166         8       196        8.84     264      479.7
   06/17/2016 14:30      87.9      86.9       22     43.9      0.00      8.37      75.4     0.50      1015.0     7       153        11       136        8.85     264      482.6
   06/17/2016 14:20      88.5      87.8       22     44.1      0.00      8.37      75.3     0.50      1015.0     5       139         9       143        8.85     264      485.7
   06/17/2016 14:10      88.5      87.1       22     43.8      0.00      8.37      75.4     0.50      1015.0     6       129         9       183        8.85     265      496.2
   06/17/2016 14:00      89.5      88.8       21     44.4      0.00      8.37      75.3     0.50      1016.0     4        44         7        86        8.86     266      485.9
   06/17/2016 13:50      89.3      88.0       22     44.6      0.00      8.37      75.0     0.50      1016.0     4        70         6       126        8.86     266      502.7
   06/17/2016 13:40      88.7      88.2       23     45.5      0.00      8.37      75.2     0.50      1016.0     5        84         7        77        8.86     266      504.6
   06/17/2016 13:30      89.3      87.7       23     46.6      0.00      8.37      74.9     0.50      1016.0     4        69         6       101        8.86     266      500.2
   06/17/2016 13:20      88.9      87.3       24     46.4      0.00      8.37      75.0     0.50      1016.0     3        89         6        73        8.87     266      490.9
   06/17/2016 13:10      88.5      87.1       23     45.8      0.00      8.37      75.0     0.50      1016.0     4        29         6         2        8.87     266      483.6
   06/17/2016 13:00      88.4      87.2       23     45.5      0.00      8.37      74.7     0.50      1016.0     4       313         7       319        8.87     267      504.8
   06/17/2016 12:50      87.7      86.2       24     45.4      0.00      8.37      74.7     0.50      1016.0     3       334         5       321        8.87     267      505.0
   06/17/2016 12:40      87.3      86.2       25     46.3      0.00      8.37      75.0     0.50      1016.0     4         5         7        10        8.87     267      518.5
   06/17/2016 12:30      87.1      86.2       25     46.3      0.00      8.37      74.8     0.50      1016.0     3        47         4       343        8.87     267      523.4
   06/17/2016 12:20      86.1      84.3       26     46.4      0.00      8.37      74.7     0.50      1016.0     3       333         5       289        8.88     267      525.8
   06/17/2016 12:10      84.6      83.7       27     46.4      0.00      8.37      74.7     0.50      1016.0     2        37         4        57        8.87     266      520.7
   06/17/2016 12:00      84.9      83.2       27     46.6      0.00      8.37      74.9     0.50      1017.0     2        25         4         6        8.88     267      499.3
   06/17/2016 11:50      83.9      83.1       28     46.4      0.00      8.37      75.0     0.50      1017.0     3       344         5       351        8.88     267      477.6
   06/17/2016 11:40      83.4      82.1       28     46.3      0.00      8.37      74.8     0.50      1017.0     3       316         4       286        8.88     268      481.8
   06/17/2016 11:30      82.2      81.0       29     46.4      0.00      8.37      74.8     0.50      1017.0     2       311         3       346        8.88     268      481.1
   06/17/2016 11:20      81.1      79.8       30     46.0      0.00      8.37      75.0     0.50      1017.0     2       300         3       281        8.88     268      464.3
   06/17/2016 11:10      80.4      78.7       30     45.8      0.00      8.37      75.0     0.50      1017.0     2       354         3       334        8.88     268      458.4
   06/17/2016 11:00      79.6      78.6       30     45.4      0.00      8.37      74.6     0.50      1017.0     2       299         4       336        8.88     268      455.3
   06/17/2016 10:50      79.3      77.6       31     45.3      0.00      8.37      75.2     0.50      1017.0     2       349         4       356        8.88     268      434.7
   06/17/2016 10:40      77.8      76.8       32     45.2      0.00      8.37      74.8     0.50      1017.0     2       345         3       334        8.88     269      415.5
   06/17/2016 10:30      77.0      76.1       33     45.2      0.00      8.37      75.1     0.50      1017.0     2        12         3        44        8.89     268      411.4
   06/17/2016 10:20      76.2      74.8       34     45.1      0.00      8.37      74.9     0.50      1017.0     3         1         5       336        8.89     268      397.7
   06/17/2016 10:10      74.9      73.6       35     45.0      0.00      8.37      75.0     0.50      1017.0     2       336         5         3        8.89     268      376.7
   06/17/2016 10:00      73.9      73.1       36     45.3      0.00      8.37      74.8     0.50      1017.0     3       342         4       349        8.89     268      358.4
   06/17/2016 09:50      73.2      72.2       38     45.7      0.00      8.37      75.0     0.50      1017.0     2         2         4       350        8.89     269      326.3
   06/17/2016 09:40      71.9      71.3       39     45.2      0.00      8.37      74.9     0.51      1017.0     2       309         4       351        8.89     269      260.5
   06/17/2016 09:30      71.7      71.2       40     45.8      0.00      8.37      75.3     0.51      1017.0     2        12         4       343        8.89     269      261.5
   06/17/2016 09:20      71.0      70.3       41     45.7      0.00      8.37      75.3     0.51      1017.0     2         3         3       344        8.89     269      266.3
   06/17/2016 09:10      70.4      69.4       42     46.1      0.00      8.37      74.9     0.51      1017.0     2        66         3        76        8.89     269      227.0
   06/17/2016 09:00      69.4      68.2       45     46.7      0.00      8.37      75.2     0.51      1017.0     1        38         2        19        8.90     269      225.2
   06/17/2016 08:50      68.2      67.3       47     46.9      0.00      8.37      75.2     0.51      1017.0     1       298         3       307        8.90     269      214.8
   06/17/2016 08:40      67.4      66.8       47     46.6      0.00      8.37      75.1     0.51      1018.0     2        26         2       333        8.90     269       79.5
   06/17/2016 08:30      66.8      65.5       49     46.4      0.00      8.37      75.3     0.51      1018.0     1       303         2       333        8.90     269       41.5
   06/17/2016 08:20      65.5      64.8       50     46.0      0.00      8.37      75.3     0.51      1017.0     1        32         1        18        8.90     269       31.0
   06/17/2016 08:10      64.9      63.8       51     46.1      0.00      8.37      75.5     0.51      1017.0     1       359         2         5        8.90     269       24.6
   06/17/2016 08:00      63.8      63.1       53     46.1      0.00      8.37      75.4     0.51      1017.0     1       300         2       286        8.90     269       21.2
   06/17/2016 07:50      63.2      62.7       55     46.3      0.00      8.37      75.3     0.51      1017.0     2       320         2       293        8.90     269       13.1
   06/17/2016 07:40      62.9      62.4       56     46.6      0.00      8.37      75.2     0.51      1017.0     2       333         2       330        8.90     269       27.5
   06/17/2016 07:30      62.5      61.4       57     46.6      0.00      8.37      75.5     0.51      1017.0     1       276         1       301        8.90     269       10.5
   06/17/2016 07:20      61.5      60.9       58     46.3      0.00      8.37      75.5     0.51      1017.0     2       287         3       252        8.90     269       -5.4
   06/17/2016 07:10      60.9      59.9       60     46.4      0.00      8.37      75.6     0.51      1017.0     1       294         2       330        8.90     269      -10.2
   06/17/2016 07:00      59.9      59.0       63     46.7      0.00      8.37      75.5     0.51      1017.0     1       336         1       333        8.90     269      -16.0
   06/17/2016 06:50      58.8      57.5       66     47.0      0.00      8.37      75.7     0.51      1017.0     1       330         1        10        8.90     269      -22.1
   06/17/2016 06:40      57.5      56.5       69     46.9      0.00      8.37      75.5     0.51      1017.0     1       121         1       129        8.90     269      -27.5
   06/17/2016 06:30      56.7      55.6       70     46.6      0.00      8.37      75.5     0.51      1017.0     1       136         2       139        8.90     269      -35.5
   06/17/2016 06:20      55.4      54.7       73     46.4      0.00      8.37      75.8     0.51      1017.0     2       144         2       141        8.91     269      -40.2
   06/17/2016 06:10      55.0      54.5       73     46.3      0.00      8.37      75.5     0.51      1017.0     1       157         2       140        8.91     269      -44.7
   06/17/2016 06:00      54.7      54.5       73     46.3      0.00      8.37      75.5     0.51      1016.0     1       153         2       138        8.90     269      -50.7
   06/17/2016 05:50      54.7      54.5       72     46.0      0.00      8.37      75.8     0.51      1016.0     1       148         1       126        8.90     268      -54.5
   06/17/2016 05:40      54.8      54.5       71     45.4      0.00      8.37      75.9     0.51      1016.0     1       173         2       131        8.90     268      -56.7
   06/17/2016 05:30      54.8      54.5       70     45.1      0.00      8.37      75.9     0.51      1016.0     1       181         2       139        8.91     268      -57.5
   06/17/2016 05:20      55.1      54.6       70     45.5      0.00      8.37      76.0     0.51      1016.0     1       135         2       136        8.91     268      -58.6
   06/17/2016 05:10      55.4      55.3       70     45.9      0.00      8.37      75.8     0.51      1016.0     1       138         1       136        8.91     268      -58.4
   06/17/2016 05:00      55.5      55.1       69     45.4      0.00      8.37      75.8     0.51      1016.0     1       158         1       126        8.91     268      -58.7
   06/17/2016 04:50      55.5      55.1       69     45.4      0.00      8.37      76.2     0.51      1016.0     1       149         2       142        8.91     268      -59.3
   06/17/2016 04:40      55.7      55.2       69     45.7      0.00      8.37      76.2     0.51      1015.0     1       167         1       164        8.91     268      -58.9
   06/17/2016 04:30      55.7      55.3       68     45.2      0.00      8.37      76.1     0.51      1015.0     1       144         2       140        8.91     268      -59.9
   06/17/2016 04:20      56.1      55.7       68     45.5      0.00      8.37      75.7     0.51      1015.0     1       142         2       134        8.91     268      -60.1
   06/17/2016 04:10      56.4      55.9       67     45.5      0.00      8.37      76.3     0.51      1015.0     1       140         2       138        8.91     268      -60.2
   06/17/2016 04:00      56.6      56.2       67     45.5      0.00      8.37      76.0     0.51      1015.0     1       166         1       124        8.91     268      -60.0
   06/17/2016 03:50      56.5      56.1       67     45.3      0.00      8.37      76.3     0.51      1015.0     1       157         1       136        8.91     268      -60.4
   06/17/2016 03:40      56.9      56.4       65     44.9      0.00      8.37      76.1     0.51      1015.0     1       134         2       132        8.91     268      -61.3
   06/17/2016 03:30      57.1      56.5       64     44.6      0.00      8.37      76.0     0.51      1015.0     1       178         1       136        8.91     268      -60.9
   06/17/2016 03:20      57.4      56.8       65     45.5      0.00      8.37      76.2     0.51      1015.0     1       130         2       134        8.91     268      -62.0
   06/17/2016 03:10      57.7      57.4       63     45.2      0.00      8.37      76.2     0.51      1015.0     1       159         1       185        8.91     268      -61.8
   06/17/2016 03:00      57.6      57.4       64     45.5      0.00      8.37      76.3     0.51      1015.0     1       143         1       136        8.91     268      -61.7
   06/17/2016 02:50      57.8      57.3       63     45.2      0.00      8.37      76.2     0.51      1015.0     1       196         2       140        8.92     268      -61.7
   06/17/2016 02:40      58.0      57.7       63     45.3      0.00      8.37      76.3     0.51      1015.0     1       153         2       128        8.92     268      -61.8
   06/17/2016 02:30      58.6      58.2       62     45.3      0.00      8.37      76.4     0.51      1015.0     1       179         1       234        8.92     268      -62.4
   06/17/2016 02:20      58.6      58.2       63     45.8      0.00      8.37      76.7     0.51      1015.0     2       151         2       137        8.92     268      -63.1
   06/17/2016 02:10      58.7      58.3       62     45.8      0.00      8.37      76.5     0.51      1015.0     2       143         3       139        8.92     267      -63.6
   06/17/2016 02:00      58.6      58.0       62     45.5      0.00      8.37      76.5     0.51      1015.0     2       140         3       141        8.92     267      -63.9
   06/17/2016 01:50      58.7      58.5       62     45.5      0.00      8.37      76.5     0.51      1015.0     1       144         2       130        8.92     267      -63.8
   06/17/2016 01:40      59.0      58.5       60     45.1      0.00      8.37      76.5     0.51      1015.0     1       142         2       130        8.92     267      -64.2
   06/17/2016 01:30      59.5      58.9       58     44.5      0.00      8.37      76.6     0.51      1015.0     1       167         2       161        8.92     267      -64.2
   06/17/2016 01:20      60.1      59.7       56     44.4      0.00      8.37      76.4     0.51      1015.0     1       134         2       142        8.92     267      -64.5
   06/17/2016 01:10      60.4      60.1       55     44.3      0.00      8.37      76.4     0.51      1016.0     0       265         1       169        8.92     267      -64.7
   06/17/2016 01:00      60.8      60.2       56     44.6      0.00      8.37      76.4     0.51      1015.0     1       141         1       142        8.92     267      -64.6
   06/17/2016 00:50      61.1      60.8       54     44.3      0.00      8.37      76.2     0.51      1016.0     1       260         1       203        8.92     267      -64.0
   06/17/2016 00:40      61.1      60.8       54     44.4      0.00      8.37      76.6     0.51      1016.0     1       178         2       139        8.92     267      -65.0
   06/17/2016 00:30      61.9      61.2       53     44.1      0.00      8.37      76.7     0.51      1016.0     1       186         2       184        8.92     267      -65.5
   06/17/2016 00:20      61.9      61.7       53     44.4      0.00      8.37      76.5     0.51      1016.0     1       145         1       216        8.92     267      -66.2
   06/17/2016 00:10      62.3      62.1       52     44.1      0.00      8.37      76.6     0.51      1016.0     1        38         2        35        8.92     267      -67.2
   06/17/2016 00:00      62.6      62.4       52     44.5      0.00      8.37      76.8     0.51      1016.0     1       142         1       141        8.92     267      -67.3
   06/16/2016 23:50      63.5      62.8       50     44.1      0.00      8.37      76.5     0.51      1016.0     1        96         1       127        8.92     267      -69.1
   06/16/2016 23:40      64.4      63.7       48     44.1      0.00      8.37      76.6     0.51      1016.0     1       174         2       185        8.93     267      -70.7
   06/16/2016 23:30      65.3      64.5       47     44.2      0.00      8.37      76.7     0.51      1016.0     1       181         2       202        8.93     267      -72.4
   06/16/2016 23:20      65.4      65.0       46     44.1      0.00      8.37      76.7     0.51      1016.0     2       226         4       243        8.93     267      -73.6
   06/16/2016 23:10      65.4      65.1       46     43.8      0.00      8.37      76.6     0.51      1016.0     3       215         5       198        8.93     266      -73.8
   06/16/2016 23:00      65.6      65.3       45     43.5      0.00      8.37      76.7     0.51      1016.0     3       215         4       244        8.93     266      -74.6
   06/16/2016 22:50      65.7      65.5       44     43.3      0.00      8.37      76.6     0.51      1016.0     2       217         3       229        8.93     266      -75.6
   06/16/2016 22:40      65.9      65.7       44     43.0      0.00      8.37      76.6     0.51      1016.0     3       210         4       213        8.93     266      -76.2
   06/16/2016 22:30      66.1      66.0       43     42.6      0.00      8.37      76.6     0.51      1016.0     3       200         4       229        8.94     266      -76.9
   06/16/2016 22:20      66.4      66.2       42     42.3      0.00      8.37      76.6     0.51      1016.0     3       200         5       219        8.94     266      -77.6
   06/16/2016 22:10      66.8      66.4       41     42.1      0.00      8.37      76.7     0.51      1016.0     3       208         6       218        8.94     266      -78.1
   06/16/2016 22:00      67.0      66.7       40     41.7      0.00      8.37      76.6     0.51      1016.0     3       212         4       224        8.94     266      -78.6
   06/16/2016 21:50      67.3      67.1       40     42.1      0.00      8.37      76.5     0.51      1016.0     3       210         5       230        8.94     266      -79.0
   06/16/2016 21:40      67.8      67.4       39     41.7      0.00      8.37      76.7     0.51      1015.0     3       203         5       202        8.95     266      -79.7
   06/16/2016 21:30      68.3      67.8       38     41.6      0.00      8.37      76.5     0.51      1015.0     2       216         6       250        8.95     266      -80.7
   06/16/2016 21:20      68.5      68.3       38     41.6      0.00      8.37      76.6     0.51      1015.0     3       232         6       245        8.95     266      -81.0
   06/16/2016 21:10      69.0      68.5       37     41.8      0.00      8.37      76.4     0.51      1015.0     3       225         5       244        8.96     266      -81.9
   06/16/2016 21:00      69.5      69.2       37     42.1      0.00      8.37      76.4     0.51      1015.0     3       233         5       249        8.96     266      -82.2
   06/16/2016 20:50      70.3      69.7       38     42.9      0.00      8.37      76.6     0.51      1015.0     3       232         5       227        8.96     266      -82.7
   06/16/2016 20:40      70.9      70.3       38     43.5      0.00      8.37      76.6     0.51      1015.0     4       228         6       211        8.97     266      -83.3
   06/16/2016 20:30      71.5      71.0       37     43.7      0.00      8.37      76.8     0.51      1015.0     5       255         8       268        8.97     266      -84.5
   06/16/2016 20:20      72.1      71.6       36     43.8      0.00      8.37      76.3     0.51      1015.0     5       255         7       235        8.98     266      -85.1
   06/16/2016 20:10      72.5      72.2       36     43.8      0.00      8.37      76.2     0.51      1015.0     3       249         5       265        8.98     266      -84.2
   06/16/2016 20:00      73.3      72.7       35     43.8      0.00      8.37      76.4     0.51      1015.0     3       255         7       240        8.98     266      -82.7
   06/16/2016 19:50      73.8      73.2       34     43.7      0.00      8.37      76.1     0.51      1015.0     4       288         6       293        8.99     266      -79.5
   06/16/2016 19:40      74.9      73.8       33     43.7      0.00      8.37      76.2     0.51      1015.0     4       286         6       282        8.99     266      -71.9
   06/16/2016 19:30      75.3      74.6       33     43.6      0.00      8.37      76.3     0.51      1015.0     5       262         9       245        8.99     266      -50.6
   06/16/2016 19:20      75.6      75.2       32     43.6      0.00      8.37      76.6     0.51      1015.0     4       278         7       313        8.99     266      -35.1
   06/16/2016 19:10      76.3      75.7       32     43.7      0.00      8.37      76.1     0.51      1015.0     4       304         6       319        9.00     266      -16.0
   06/16/2016 19:00      76.4      76.0       32     43.8      0.00      8.37      76.0     0.51      1015.0     5       283         9       308        9.00     266        4.7
   06/16/2016 18:50      76.2      75.8       32     44.2      0.00      8.37      76.0     0.51      1015.0     5       302         7       292        9.00     266       25.1
   06/16/2016 18:40      77.0      76.5       32     44.7      0.00      8.37      76.0     0.51      1014.0     5       294         9       304        9.00     266       45.4
   06/16/2016 18:30      77.3      76.7       32     44.9      0.00      8.37      75.8     0.51      1014.0     7       320        12       316        9.01     266       66.8
   06/16/2016 18:20      78.4      77.4       31     45.1      0.00      8.37      75.8     0.51      1014.0     6       301        11       308        9.01     266       88.1
   06/16/2016 18:10      79.5      78.5       30     44.8      0.00      8.37      75.9     0.51      1014.0     4       286         7       266        9.01     266      113.2
   06/16/2016 18:00      79.7      79.1       29     44.2      0.00      8.37      75.7     0.51      1014.0     4       291         9       247        9.01     266      137.8
   06/16/2016 17:50      79.5      78.9       29     44.1      0.00      8.37      75.8     0.51      1014.0     5       254         8       239        9.02     265      163.3
   06/16/2016 17:40      79.6      79.2       29     44.3      0.00      8.37      75.5     0.51      1014.0     5       240         8       258        9.03     265      185.5
   06/16/2016 17:30      79.8      79.0       29     44.8      0.00      8.37      75.6     0.51      1014.0     4       215         6       236        9.03     265      209.9
   06/16/2016 17:20      80.0      78.8       30     45.6      0.00      8.37      75.7     0.51      1014.0     4       189         7       229        9.03     265      230.8
   06/16/2016 17:10      80.2      79.3       31     46.0      0.00      8.37      75.4     0.51      1015.0     4       226         6       233        9.04     265      252.9
   06/16/2016 17:00      79.8      78.8       31     46.3      0.00      8.37      75.3     0.51      1015.0     5       136         9       125        9.04     265      278.5
   06/16/2016 16:50      80.5      79.5       31     46.6      0.00      8.37      75.5     0.51      1015.0     3       196         5       142        9.05     265      297.6
   06/16/2016 16:40      79.3      78.3       33     47.2      0.00      8.37      75.3     0.51      1015.0     4       221         9       206        9.05     266      320.9
   06/16/2016 16:30      79.9      78.8       32     47.2      0.00      8.37      75.1     0.51      1015.0     5       259         9       277        9.06     265      340.4
   06/16/2016 16:20      79.7      78.4       33     47.6      0.00      8.37      75.2     0.51      1015.0     5       267         8       266        9.06     265      359.3
   06/16/2016 16:10      79.5      78.7       33     47.5      0.00      8.37      75.0     0.51      1015.0     5       219         7       263        9.06     265      380.9
   06/16/2016 16:00      80.0      78.4       33     47.8      0.00      8.37      74.8     0.51      1015.0     5       202         9       183        9.06     265      399.5
   06/16/2016 15:50      80.0      78.3       33     47.7      0.00      8.37      74.9     0.51      1015.0     6       177         9       171        9.07     265      417.5
   06/16/2016 15:40      79.6      78.1       33     47.6      0.00      8.37      74.7     0.51      1015.0     5       186         7       217        9.07     266      430.7
   06/16/2016 15:30      79.3      77.5       34     47.9      0.00      8.37      74.7     0.51      1015.0     6       161         9       141        9.07     266      445.7
   06/16/2016 15:20      79.5      78.2       34     48.0      0.00      8.37      74.9     0.51      1015.0     6       150        10       128        9.07     266      459.6
   06/16/2016 15:10      79.9      78.8       33     47.9      0.00      8.37      74.5     0.51      1015.0     5       194         7       219        9.07     266      468.7
   06/16/2016 15:00      79.4      77.8       34     48.0      0.00      8.37      74.5     0.51      1015.0     3       212         9       209        9.08     266      484.6
   06/16/2016 14:50      79.2      77.6       35     48.0      0.00      8.37      74.7     0.51      1016.0     4       275         8       211        9.08     266      494.1
   06/16/2016 14:40      78.6      78.0       35     48.2      0.00      8.37      74.3     0.51      1016.0     4       184         6       186        9.08     266      508.0
   06/16/2016 14:30      78.6      77.6       36     48.5      0.00      8.37      74.4     0.51      1016.0     5       153        10       140        9.08     266      524.3
   06/16/2016 14:20      78.2      76.9       36     48.7      0.00      8.37      74.2     0.51      1016.0     6       102        11        63        9.09     266      534.0
   06/16/2016 14:10      78.5      77.6       36     48.8      0.00      8.37      74.4     0.50      1016.0     6       138         9       124        9.09     266      537.3
   06/16/2016 14:00      78.4      76.8       36     48.7      0.00      8.37      74.1     0.50      1016.0     7       218        10       227        9.09     266      549.7
   06/16/2016 13:50      77.9      76.8       37     48.8      0.00      8.37      74.1     0.50      1016.0     4       172        10       262        9.09     267      552.7
   06/16/2016 13:40      77.5      76.3       37     48.7      0.00      8.37      74.2     0.50      1016.0     5       153        10       166        9.09     267      558.0
   06/16/2016 13:30      77.9      76.5       36     48.7      0.00      8.37      73.8     0.50      1016.0     5       141        10       104        9.10     268      566.7
   06/16/2016 13:20      78.1      76.6       37     48.8      0.00      8.37      73.7     0.50      1016.0     5       173         7       131        9.09     269      569.6
   06/16/2016 13:10      77.5      76.0       38     48.9      0.00      8.37      74.0     0.50      1016.0     5       168         6       188        9.10     268      568.8
   06/16/2016 13:00      76.7      75.3       38     48.8      0.00      8.37      74.1     0.50      1016.0     4       154         7       139        9.10     270      570.5
   06/16/2016 12:50      76.5      74.6       39     49.1      0.00      8.37      73.7     0.50      1016.0     4       153         7       172        9.10     270      574.5
   06/16/2016 12:40      76.5      74.5       40     49.7      0.00      8.37      74.0     0.50      1016.0     5       137         8       107        9.10     270      575.0
   06/16/2016 12:30      76.0      74.8       41     50.1      0.00      8.37      73.9     0.50      1016.0     5       141         9       138        9.09     270      576.4
   06/16/2016 12:20      76.8      75.6       41     50.6      0.00      8.37      73.8     0.50      1016.0     5        76         8       139        9.09     270      574.4
   06/16/2016 12:10      77.2      74.5       41     50.7      0.00      8.37      73.7     0.50      1016.0     3        41         4        70        9.09     276      572.1
   06/16/2016 12:00      76.3      74.6       41     49.9      0.00      8.37      74.1     0.50      1016.0     4        45         8       122        9.09     277      569.2
   06/16/2016 11:50      76.4      75.6       39     49.2      0.00      8.37      73.7     0.50      1016.0     4        79         6       130        9.09     281      556.6
   06/16/2016 11:40      75.6      74.2       40     49.2      0.00      8.37      73.7     0.50      1016.0     5        33         8       343        9.09     284      553.0
   06/16/2016 11:30      74.5      74.0       41     48.8      0.00      8.37      73.3     0.50      1016.0     4        34         7        90        9.09     286      544.5
   06/16/2016 11:20      74.7      74.1       39     48.2      0.00      8.37      73.4     0.50      1016.0     4         7         6        99        9.09     286      536.6
   06/16/2016 11:10      74.8      73.3       39     47.7      0.00      8.37      73.8     0.50      1016.0     5        15         7         1        9.10     288      528.2
   06/16/2016 11:00      74.3      72.7       39     46.6      0.00      8.37      74.1     0.50      1016.0     3        15         6       355        9.10     290      519.9
   06/16/2016 10:50      72.4      71.7       40     46.4      0.00      8.37      73.9     0.50      1016.0     3        19         5         3        9.10     296      509.9
   06/16/2016 10:40      72.2      71.3       41     46.4      0.00      8.37      74.0     0.50      1016.0     4         5         7       358        9.10     300      498.3
   06/16/2016 10:30      72.3      71.2       40     46.5      0.00      8.37      74.0     0.50      1017.0     3       350         7       329        9.10     299      488.6
   06/16/2016 10:20      71.0      68.7       43     46.0      0.00      8.37      73.8     0.50      1017.0     3        20         5       173        9.09     308      476.3
   06/16/2016 10:10      68.7      68.2       43     45.5      0.00      8.37      74.3     0.50      1017.0     4       145         7       154        9.09     315      464.3
   06/16/2016 10:00      68.7      68.0       44     45.8      0.00      8.37      74.1     0.50      1016.0     3       141         6       132        9.10     349      447.6
   06/16/2016 09:50      68.8      68.1       43     45.4      0.00      8.37      73.7     0.50      1016.0     3       131         5       138        9.10     350      431.7
   06/16/2016 09:40      68.1      66.9       46     45.6      0.00      8.37      74.4     0.50      1016.0     3       142         5       120        9.10     360      418.1
   06/16/2016 09:30      67.2      66.3       48     46.6      0.00      8.37      73.7     0.51      1016.0     2       141         3       126        9.10     373      397.9
   06/16/2016 09:20      66.7      65.9       50     47.0      0.00      8.37      74.1     0.51      1016.0     2       317         3       352        9.10     371      381.1
   06/16/2016 09:10      66.1      65.3       51     47.1      0.00      8.37      74.3     0.48      1017.0     2        83         3        71        9.10     278      348.6
   06/16/2016 09:00      65.4      64.4       53     47.2      0.00      8.37      74.5     0.48      1017.0     2       157         4        81        9.10     269      342.7
   06/16/2016 08:50      64.4      63.0       55     47.2      0.00      8.37      74.7     0.48      1017.0     2       101         3       111        9.10     269      352.4
   06/16/2016 08:40      62.8      62.4       57     47.1      0.00      8.37      74.5     0.48      1016.0     3        16         4         7        9.13     269       52.1
   06/16/2016 08:30      62.4      61.4       58     47.0      0.00      8.37      74.8     0.48      1016.0     2        18         3         8        9.13     269      -16.7
   06/16/2016 08:20      61.5      60.7       60     47.0      0.00      8.37      74.4     0.48      1016.0     2        38         3        72        9.15     268      -23.6
   06/16/2016 08:10      60.9      60.2       61     47.3      0.00      8.37      74.5     0.48      1016.0     2        42         4        16        9.15     269      -20.8
   06/16/2016 08:00      60.2      59.7       63     47.3      0.00      8.37      74.5     0.48      1016.0     2        70         3        82        9.15     269      -18.7
   06/16/2016 07:50      59.8      59.2       65     47.5      0.00      8.37      74.6     0.48      1016.0     2         9         3       356        9.15     269      -19.2
   06/16/2016 07:40      59.2      58.5       66     47.5      0.00      8.37      74.9     0.49      1016.0     2        20         3        51        9.15     269       19.8
   06/16/2016 07:30      58.4      57.3       68     47.3      0.00      8.37      74.7     0.49      1016.0     1         7         2       355        9.15     269       -8.7
   06/16/2016 07:20      57.5      56.7       69     47.0      0.00      8.37      74.8     0.49      1016.0     1        24         1        56        9.15     269      -29.4
   06/16/2016 07:10      56.9      56.1       70     46.7      0.00      8.37      74.8     0.49      1016.0     1       320         2       314        9.15     269      -31.4
   06/16/2016 07:00      56.1      55.7       71     46.6      0.00      8.37      74.8     0.49      1016.0     1       334         2       332        9.15     269      -33.4
   06/16/2016 06:50      55.8      54.6       73     46.7      0.00      8.37      74.6     0.49      1016.0     1       348         2       357        9.15     269      -34.5
   06/16/2016 06:40      54.6      52.6       78     46.9      0.00      8.37      75.3     0.49      1015.0     1       322         2       353        9.15     269      -36.3
   06/16/2016 06:30      52.6      51.8       80     46.2      0.00      8.37      75.1     0.49      1015.0     0        91         1       104        9.15     269      -42.5
   06/16/2016 06:20      51.9      51.5       80     45.8      0.00      8.37      75.1     0.49      1015.0     1       118         1       133        9.15     269      -43.9
   06/16/2016 06:10      51.6      51.0       82     46.0      0.00      8.37      75.2     0.49      1015.0     1       160         2       141        9.16     269      -44.8
   06/16/2016 06:00      51.1      50.8       82     45.8      0.00      8.37      75.1     0.49      1015.0     1       133         2       140        9.15     268      -49.6
   06/16/2016 05:50      51.0      50.6       82     45.7      0.00      8.37      75.1     0.49      1015.0     0       174         1       117        9.15     268      -53.7
   06/16/2016 05:40      51.0      50.7       83     45.8      0.00      8.37      75.3     0.49      1015.0     1       144         1       144        9.15     268      -55.9
   06/16/2016 05:30      51.3      50.8       81     45.4      0.00      8.37      75.1     0.49      1015.0     2       139         2       137        9.16     268      -58.7
   06/16/2016 05:20      51.4      51.2       81     45.5      0.00      8.37      75.2     0.49      1015.0     1       179         2       138        9.16     268      -58.8
   06/16/2016 05:10      51.3      51.1       82     45.7      0.00      8.37      75.2     0.49      1015.0     1       198         2       140        9.16     268      -59.8
   06/16/2016 05:00      51.3      51.0       81     45.5      0.00      8.37      75.0     0.49      1015.0     1       163         2       127        9.16     268      -60.5
   06/16/2016 04:50      51.5      51.3       80     45.5      0.00      8.37      75.2     0.49      1015.0     1       147         2       134        9.16     268      -60.7
   06/16/2016 04:40      51.7      51.3       79     45.3      0.00      8.37      75.4     0.49      1015.0     1       157         1       127        9.16     268      -61.2
   06/16/2016 04:30      51.5      51.3       80     45.4      0.00      8.37      75.7     0.49      1015.0     1       184         1       151        9.16     268      -61.0
   06/16/2016 04:20      51.4      51.2       79     44.9      0.00      8.37      75.4     0.49      1015.0     1       159         2       160        9.16     268      -61.3
   06/16/2016 04:10      51.7      51.4       76     44.3      0.00      8.37      75.5     0.49      1015.0     2       136         2       150        9.16     268      -61.0
   06/16/2016 04:00      52.3      51.7       75     44.4      0.00      8.37      75.7     0.49      1015.0     1       139         2       139        9.16     268      -61.1
   06/16/2016 03:50      52.5      52.3       75     44.7      0.00      8.37      75.6     0.49      1015.0     1       154         1       136        9.16     268      -60.6
   06/16/2016 03:40      52.8      52.4       73     44.4      0.00      8.37      75.6     0.49      1015.0     0       103         1       120        9.16     268      -60.7
   06/16/2016 03:30      53.0      52.8       74     44.8      0.00      8.37      75.5     0.49      1015.0     1       152         1       148        9.16     268      -61.1
   06/16/2016 03:20      53.6      53.1       72     44.8      0.00      8.37      75.4     0.49      1015.0     1        86         2       142        9.16     268      -61.3
   06/16/2016 03:10      53.6      53.3       72     44.7      0.00      8.37      75.5     0.49      1015.0     1       116         2       152        9.16     268      -61.4
   06/16/2016 03:00      53.5      53.1       73     44.9      0.00      8.37      75.4     0.49      1015.0     1       146         2       140        9.16     268      -61.2
   06/16/2016 02:50      53.5      53.1       73     44.9      0.00      8.37      75.4     0.49      1014.0     1       154         2       162        9.16     268      -60.9
   06/16/2016 02:40      53.4      53.0       74     45.0      0.00      8.37      75.8     0.49      1015.0     1       157         2       149        9.16     268      -60.6
   06/16/2016 02:30      53.6      53.3       73     45.1      0.00      8.37      75.5     0.49      1015.0     1       164         1       180        9.16     268      -60.8
   06/16/2016 02:20      53.7      53.4       73     45.0      0.00      8.37      75.8     0.49      1015.0     1       158         2       152        9.16     268      -60.9
   06/16/2016 02:10      54.1      53.6       71     44.6      0.00      8.37      75.9     0.49      1015.0     1       155         2       130        9.16     268      -61.5
   06/16/2016 02:00      54.2      54.0       70     44.4      0.00      8.37      75.9     0.49      1015.0     1       187         2       216        9.16     268      -62.2
   06/16/2016 01:50      54.8      54.1       69     44.6      0.00      8.37      75.7     0.49      1015.0     1       149         1       146        9.16     268      -63.2
   06/16/2016 01:40      55.2      54.6       68     44.5      0.00      8.37      75.6     0.49      1015.0     1       131         1       155        9.17     267      -63.4
   06/16/2016 01:30      55.3      55.1       66     44.2      0.00      8.37      75.8     0.49      1015.0     1       167         1       182        9.17     267      -63.3
   06/16/2016 01:20      55.4      55.1       67     44.3      0.00      8.37      76.1     0.49      1015.0     1       176         1       184        9.17     267      -62.5
   06/16/2016 01:10      55.4      54.9       67     44.4      0.00      8.37      76.1     0.49      1015.0     1       146         1       142        9.17     267      -63.2
   06/16/2016 01:00      55.6      55.1       66     44.1      0.00      8.37      75.9     0.49      1015.0     1       128         1       130        9.17     267      -64.0
   06/16/2016 00:50      56.0      55.7       65     44.4      0.00      8.37      76.2     0.49      1015.0     1       143         1       132        9.17     267      -64.4
   06/16/2016 00:40      56.3      56.0       64     44.3      0.00      8.37      76.4     0.49      1015.0     1       140         1       135        9.17     267      -64.5
   06/16/2016 00:30      56.8      56.4       61     43.4      0.00      8.37      76.3     0.49      1016.0     1       182         1       201        9.17     267      -64.0
   06/16/2016 00:20      56.6      56.3       62     43.8      0.00      8.37      76.2     0.49      1016.0     1       177         1       192        9.17     267      -64.3
   06/16/2016 00:10      56.9      56.1       62     43.8      0.00      8.37      76.2     0.49      1016.0     1       120         1       135        9.17     267      -64.7
   06/16/2016 00:00      57.1      56.9       62     44.3      0.00      8.37      76.2     0.49      1016.0     0        68         1       109        9.17     267      -65.2
   06/15/2016 23:50      57.7      57.3       62     44.6      0.00      8.37      76.3     0.49      1016.0     0         7         1        37        9.17     267      -65.6
   06/15/2016 23:40      57.8      57.5       62     44.8      0.00      8.37      75.9     0.49      1016.0     1       154         1       165        9.17     267      -65.7
   06/15/2016 23:30      58.3      57.6       61     44.8      0.00      8.37      76.3     0.49      1016.0     1        94         1        93        9.17     267      -66.4
   06/15/2016 23:20      58.9      58.6       60     44.9      0.00      8.37      76.5     0.49      1016.0     1       150         2       185        9.17     267      -67.3
   06/15/2016 23:10      59.4      59.0       60     45.2      0.00      8.37      75.9     0.49      1016.0     1       172         2       164        9.17     267      -67.7
   06/15/2016 23:00      59.5      59.3       59     45.3      0.00      8.37      76.1     0.49      1016.0     1       208         1       185        9.17     267      -67.9
   06/15/2016 22:50      59.9      59.7       60     45.8      0.00      8.37      76.0     0.49      1016.0     2       162         2       164        9.17     267      -68.9
   06/15/2016 22:40      60.5      60.1       59     45.8      0.00      8.37      76.1     0.49      1016.0     2       163         2       168        9.18     267      -69.9
   06/15/2016 22:30      60.5      60.1       59     45.9      0.00      8.37      76.0     0.49      1016.0     2       181         4       202        9.18     267      -70.1
   06/15/2016 22:20      61.0      60.5       59     46.2      0.00      8.37      76.2     0.49      1016.0     2       187         3       188        9.18     266      -70.5
   06/15/2016 22:10      61.5      60.9       57     46.0      0.00      8.37      76.2     0.49      1016.0     2       206         3       197        9.18     266      -71.2
   06/15/2016 22:00      62.0      61.7       54     45.3      0.00      8.37      76.4     0.49      1016.0     3       235         4       286        9.18     266      -72.6
   06/15/2016 21:50      62.1      61.8       55     45.9      0.00      8.37      76.1     0.49      1016.0     2       246         3       282        9.18     266      -73.5
   06/15/2016 21:40      62.5      62.3       55     46.2      0.00      8.37      76.3     0.49      1015.0     2       251         3       253        9.18     266      -74.4
   06/15/2016 21:30      62.7      62.4       55     46.2      0.00      8.37      76.3     0.49      1015.0     3       272         4       250        9.18     266      -75.3
   06/15/2016 21:20      62.9      62.5       55     46.2      0.00      8.37      76.3     0.49      1015.0     3       286         4       269        9.18     266      -76.0
   06/15/2016 21:10      63.3      63.0       55     46.6      0.00      8.37      76.1     0.49      1015.0     2       293         4       285        9.19     266      -76.8
   06/15/2016 21:00      63.6      63.3       55     47.1      0.00      8.37      75.8     0.49      1015.0     3       293         5       297        9.19     266      -77.3
   06/15/2016 20:50      64.1      63.5       55     47.3      0.00      8.37      76.0     0.49      1015.0     3       239         3       244        9.19     266      -78.6
   06/15/2016 20:40      64.2      63.8       55     47.5      0.00      8.37      76.2     0.49      1015.0     3       238         4       214        9.20     266      -79.3
   06/15/2016 20:30      64.5      64.2       55     47.7      0.00      8.37      75.8     0.49      1015.0     4       219         6       231        9.20     266      -79.8
   06/15/2016 20:20      65.2      64.6       54     48.0      0.00      8.37      76.2     0.49      1015.0     4       214         6       227        9.20     265      -80.0
   06/15/2016 20:10      65.7      65.2       53     48.0      0.00      8.37      76.3     0.49      1015.0     4       224         6       240        9.21     266      -78.8
   06/15/2016 20:00      66.2      65.7       53     48.1      0.00      8.37      76.1     0.49      1015.0     4       223         6       227        9.21     265      -75.6
   06/15/2016 19:50      66.8      66.3       53     48.6      0.00      8.37      75.9     0.49      1015.0     4       226         6       209        9.21     265      -71.3
   06/15/2016 19:40      67.9      66.9       52     49.0      0.00      8.37      76.0     0.49      1015.0     5       243         8       267        9.22     265      -61.7
   06/15/2016 19:30      68.9      67.9       50     49.4      0.00      8.37      75.8     0.49      1015.0     5       246         6       237        9.22     265      -40.9
   06/15/2016 19:20      69.0      68.3       51     49.7      0.00      8.37      76.0     0.49      1015.0     5       239         6       232        9.22     265      -23.0
   06/15/2016 19:10      70.0      69.2       50     50.1      0.00      8.37      75.7     0.49      1015.0     4       230         6       230        9.23     265       -1.6
   06/15/2016 19:00      70.5      69.9       50     50.5      0.00      8.37      76.1     0.49      1015.0     4       241         8       265        9.23     265       20.3
   06/15/2016 18:50      70.4      69.8       51     51.2      0.00      8.37      75.7     0.49      1014.0     4       207         7       240        9.23     265       42.6
   06/15/2016 18:40      70.7      69.0       53     51.9      0.00      8.37      75.8     0.49      1014.0     5       167         7       144        9.23     265       63.5
   06/15/2016 18:30      70.8      69.9       52     52.1      0.00      8.37      75.8     0.49      1014.0     4       148         8       177        9.24     265       88.6
   06/15/2016 18:20      70.8      70.1       51     51.8      0.00      8.37      75.8     0.49      1014.0     5       163         9       157        9.24     265      110.3
   06/15/2016 18:10      71.5      70.9       51     51.9      0.00      8.37      75.8     0.49      1014.0     5       167         6       157        9.24     265      141.0
   06/15/2016 18:00      71.2      70.6       51     52.0      0.00      8.37      75.5     0.49      1014.0     4       173         7       157        9.25     265      180.3
   06/15/2016 17:50      70.6      70.1       52     52.0      0.00      8.37      75.8     0.49      1014.0     3       153         4       159        9.25     266       86.1
   06/15/2016 17:40      70.5      69.8       53     52.1      0.00      8.37      75.4     0.49      1014.0     5       156         8       146        9.25     266      101.6
   06/15/2016 17:30      70.4      69.8       53     52.2      0.00      8.37      75.3     0.49      1014.0     4       182         5       180        9.26     265       -2.1
   06/15/2016 17:20      71.2      70.4       52     52.4      0.00      8.37      75.3     0.49      1014.0     6       180         9       147        9.26     265      143.0
   06/15/2016 17:10      71.3      70.5       52     52.5      0.00      8.37      75.5     0.49      1014.0     5       172         7       171        9.26     265      130.7
   06/15/2016 17:00      71.8      70.5       52     52.6      0.00      8.37      75.5     0.49      1014.0     6       169         7       149        9.27     265      125.5
   06/15/2016 16:50      71.8      71.3       51     52.5      0.00      8.37      75.2     0.49      1014.0     5       182         7       200        9.27     265       75.0
   06/15/2016 16:40      73.7      72.1       49     52.7      0.00      8.37      75.3     0.49      1014.0     5       174         9       170        9.27     265      222.5
   06/15/2016 16:30      73.3      71.9       50     52.8      0.00      8.37      75.4     0.49      1014.0     5       167         8       147        9.27     265      365.8
   06/15/2016 16:20      73.2      71.9       50     52.8      0.00      8.37      75.0     0.49      1014.0     4       160         6       121        9.28     265      313.1
   06/15/2016 16:10      73.0      72.0       50     52.7      0.00      8.37      75.5     0.49      1014.0     6       170        10       176        9.28     265      463.4
   06/15/2016 16:00      73.2      72.1       50     52.7      0.00      8.37      75.0     0.49      1014.0     6       146        10       141        9.28     265      437.2
   06/15/2016 15:50      73.0      72.3       49     52.7      0.00      8.37      75.0     0.49      1014.0     4       150         9       143        9.28     265      420.5
   06/15/2016 15:40      73.0      71.8       50     52.7      0.00      8.37      75.1     0.49      1014.0     5       179         9       143        9.28     266      515.8
   06/15/2016 15:30      73.0      71.3       50     52.6      0.00      8.37      74.8     0.49      1014.0     6       204        10       199        9.29     266      444.5
   06/15/2016 15:20      74.4      72.9       48     52.7      0.00      8.37      75.0     0.49      1014.0     4       190         5       140        9.29     266      547.5
   06/15/2016 15:10      73.2      72.0       50     52.7      0.00      8.37      75.1     0.49      1015.0     5       162         9        79        9.29     266      638.7
   06/15/2016 15:00      73.2      70.7       52     53.0      0.00      8.37      74.8     0.49      1015.0     5        93         7        93        9.29     266      542.6
   06/15/2016 14:50      72.6      70.7       52     52.8      0.00      8.37      75.3     0.49      1015.0     6       114         9       139        9.29     266      258.5
   06/15/2016 14:40      73.5      72.1       49     52.2      0.00      8.37      74.9     0.49      1015.0     4       155         7       121        9.29     266      418.0
   06/15/2016 14:30      74.3      72.4       49     52.8      0.00      8.37      75.0     0.49      1015.0     6        97        10        86        9.29     266      671.8
   06/15/2016 14:20      73.5      72.2       49     53.0      0.00      8.37      74.9     0.49      1015.0     4       110         8       136        9.29     267      557.2
   06/15/2016 14:10      74.1      71.3       50     52.9      0.00      8.37      74.9     0.49      1015.0     3        65         5        84        9.29     267      616.1
   06/15/2016 14:00      71.9      70.0       54     53.0      0.00      8.37      74.8     0.49      1015.0     4       102         6        81        9.30     268      478.1
   06/15/2016 13:50      70.9      69.5       53     52.6      0.00      8.37      75.0     0.49      1015.0     4       108         6       127        9.30     266      217.0
   06/15/2016 13:40      70.1      69.2       53     51.5      0.00      8.37      75.1     0.49      1015.0     3       210         4       206        9.30     268      471.7
   06/15/2016 13:30      69.8      68.9       54     52.1      0.00      8.37      75.0     0.49      1015.0     4       195         9       156        9.30     267      208.6
   06/15/2016 13:20      70.5      69.7       52     51.8      0.00      8.37      75.0     0.49      1015.0     3       147         8       124        9.30     267      185.1
   06/15/2016 13:10      70.3      69.6       52     51.3      0.00      8.37      74.9     0.49      1015.0     3        90         5        55        9.30     267      189.3
   06/15/2016 13:00      72.0      69.9       50     51.2      0.00      8.37      75.1     0.49      1015.0     4       188         7       170        9.30     267      437.1
   06/15/2016 12:50      70.9      69.8       52     51.6      0.00      8.37      74.7     0.49      1015.0     3       143         6       133        9.30     268      558.3
   06/15/2016 12:40      70.4      68.6       53     51.5      0.00      8.37      74.9     0.49      1015.0     4       140         7       136        9.30     268      667.5
   06/15/2016 12:30      69.2      68.0       55     51.7      0.00      8.37      74.9     0.49      1015.0     4       153         5       157        9.30     268      745.0
   06/15/2016 12:20      67.7      66.2       59     52.0      0.00      8.37      74.8     0.49      1015.0     4       150         6       135        9.30     268      437.2
   06/15/2016 12:10      66.9      66.0       60     52.0      0.00      8.37      74.8     0.49      1015.0     4       171         6       179        9.30     268      331.3
   06/15/2016 12:00      66.8      65.9       60     52.2      0.00      8.37      75.0     0.49      1015.0     4       129         6       135        9.30     268      251.6
   06/15/2016 11:50      67.7      66.2       62     53.3      0.00      8.37      75.2     0.49      1015.0     3       142         5       181        9.31     269      388.4
   06/15/2016 11:40      66.2      64.9       65     53.6      0.00      8.37      74.9     0.49      1015.0     3       129         6       108        9.31     269      299.0
   06/15/2016 11:30      65.1      64.6       67     53.6      0.00      8.37      74.8     0.49      1015.0     5       112         7       110        9.31     269      246.1
   06/15/2016 11:20      64.8      63.3       69     53.9      0.00      8.37      75.2     0.49      1015.0     3       142         6       194        9.31     269      356.0
   06/15/2016 11:10      63.8      62.7       72     53.9      0.00      8.37      74.9     0.49      1015.0     3       126         5       122        9.31     269      279.2
   06/15/2016 11:00      62.9      62.4       72     53.6      0.00      8.37      74.8     0.50      1015.0     5       147         6       128        9.31     269      166.7
   06/15/2016 10:50      63.4      62.4       72     53.6      0.00      8.37      75.4     0.50      1015.0     5       163         6       170        9.31     269      140.0
   06/15/2016 10:40      62.9      62.1       73     53.6      0.00      8.37      75.0     0.50      1015.0     4       136         5       113        9.31     269      188.4
   06/15/2016 10:30      62.3      61.8       74     53.8      0.00      8.37      74.6     0.50      1015.0     3       141         4       140        9.31     269      139.0
   06/15/2016 10:20      62.1      61.3       75     53.8      0.00      8.37      75.0     0.50      1015.0     2       103         5        73        9.31     269       83.8
   06/15/2016 10:10      61.4      61.2       76     53.6      0.00      8.37      74.9     0.50      1015.0     4       102         7        77        9.31     269       78.4
   06/15/2016 10:00      61.5      60.9       76     53.6      0.00      8.37      75.2     0.50      1015.0     3        84         5        77        9.31     269       71.9
   06/15/2016 09:50      61.3      60.9       77     53.9      0.00      8.37      74.9     0.50      1015.0     3        96         6        68        9.31     269       96.5
   06/15/2016 09:40      61.0      60.3       79     54.0      0.00      8.37      75.3     0.50      1015.0     3       114         4       122        9.31     269       60.2
   06/15/2016 09:30      60.5      60.2       79     53.7      0.00      8.37      75.1     0.50      1015.0     4       133         5       136        9.31     269       34.8
   06/15/2016 09:20      60.5      60.4       77     53.4      0.00      8.37      75.1     0.50      1015.0     4       133         6       156        9.31     269       34.8
   06/15/2016 09:10      60.6      60.4       77     53.4      0.00      8.37      75.2     0.50      1015.0     4       143         6       145        9.31     269       30.7
   06/15/2016 09:00      60.7      60.5       77     53.3      0.00      8.37      75.1     0.50      1015.0     3       148         5       136        9.31     269       25.8
   06/15/2016 08:50      60.9      60.3       76     53.1      0.00      8.37      75.5     0.50      1014.0     2       124         3       158        9.31     269       26.6
   06/15/2016 08:40      60.5      60.3       77     53.1      0.00      8.37      75.2     0.50      1014.0     3       133         4       171        9.31     269       32.6
   06/15/2016 08:30      60.4      59.9       78     53.3      0.00      8.37      75.3     0.50      1014.0     2       120         3       132        9.31     269       33.1
   06/15/2016 08:20      60.1      59.9       79     53.3      0.00      8.37      75.5     0.50      1014.0     3       121         5       121        9.31     269       23.9
   06/15/2016 08:10      60.1      60.0       78     53.3      0.00      8.37      75.3     0.50      1014.0     2       130         4       122        9.31     269       16.3
   06/15/2016 08:00      60.1      59.8       78     53.2      0.00      8.37      75.5     0.50      1014.0     2        96         3        73        9.31     269       12.4
   06/15/2016 07:50      59.9      59.5       79     53.2      0.00      8.37      75.2     0.50      1014.0     3       139         5       157        9.31     269       15.1
   06/15/2016 07:40      59.9      59.7       78     53.1      0.00      8.37      75.4     0.50      1014.0     3       132         5       132        9.31     269       13.0
   06/15/2016 07:30      60.0      59.8       78     53.1      0.00      8.37      75.5     0.50      1014.0     3       145         5       150        9.32     269        4.8
   06/15/2016 07:20      60.0      59.6       78     53.0      0.00      8.37      75.5     0.50      1014.0     2       138         3       155        9.31     269        2.2
   06/15/2016 07:10      59.9      59.6       78     52.9      0.00      8.37      75.4     0.50      1014.0     1       185         2       174        9.31     269       -0.9
   06/15/2016 07:00      59.9      59.4       78     52.8      0.00      8.37      75.2     0.50      1013.0     1       135         2       137        9.32     269       -1.8
   06/15/2016 06:50      59.6      59.4       79     52.9      0.00      8.37      75.5     0.50      1013.0     4       107         6       126        9.32     269       -4.0
   06/15/2016 06:40      59.6      59.4       79     53.0      0.00      8.37      75.3     0.50      1013.0     4       133         6       141        9.32     269       -4.8
   06/15/2016 06:30      59.5      59.4       79     53.1      0.00      8.37      75.6     0.50      1013.0     4       133         6       154        9.32     269       -6.7
   06/15/2016 06:20      59.5      59.3       80     53.2      0.00      8.37      75.6     0.50      1013.0     4       139         6       138        9.32     269      -10.1
   06/15/2016 06:10      59.5      59.2       81     53.4      0.00      8.37      75.4     0.50      1013.0     4       137         6       134        9.32     269      -11.6
   06/15/2016 06:00      59.6      59.4       81     53.6      0.00      8.37      75.3     0.50      1013.0     4       113         7        98        9.32     269      -12.9
   06/15/2016 05:50      59.7      59.5       80     53.6      0.00      8.37      75.5     0.50      1013.0     3       152         5       172        9.32     269      -13.8
   06/15/2016 05:40      59.8      59.6       80     53.6      0.00      8.37      75.7     0.50      1012.0     3       115         5       135        9.32     269      -14.3
   06/15/2016 05:30      59.9      59.8       80     53.6      0.00      8.37      75.6     0.50      1012.0     4       137         6       114        9.32     269      -14.3
   06/15/2016 05:20      60.0      59.8       80     53.7      0.00      8.37      75.6     0.50      1012.0     3       144         5       133        9.32     269      -14.6
   06/15/2016 05:10      60.3      59.9       80     53.9      0.00      8.37      75.5     0.50      1012.0     3       117         4       142        9.32     269      -14.8
   06/15/2016 05:00      60.3      60.0       80     53.9      0.00      8.37      75.8     0.50      1012.0     1        39         3        19        9.32     269      -15.3
   06/15/2016 04:50      60.2      59.9       81     54.0      0.00      8.37      75.8     0.50      1012.0     2        44         2        21        9.32     269      -14.9
   06/15/2016 04:40      60.0      59.8       81     54.0      0.00      8.37      75.3     0.50      1012.0     2       128         4        65        9.32     269      -14.8
   06/15/2016 04:30      60.1      59.8       81     54.1      0.00      8.37      75.2     0.50      1012.0     2        76         3        67        9.32     269      -14.9
   06/15/2016 04:20      59.8      59.5       82     54.0      0.00      8.37      75.8     0.50      1012.0     2       100         2       119        9.32     269      -14.7
   06/15/2016 04:10      59.9      59.6       81     54.1      0.00      8.37      75.8     0.50      1012.0     2       103         4        83        9.32     269      -14.9
   06/15/2016 04:00      60.0      59.8       81     54.2      0.00      8.37      75.7     0.50      1012.0     2        54         3        39        9.32     269      -15.0
   06/15/2016 03:50      60.0      59.9       81     54.2      0.00      8.37      75.8     0.50      1012.0     2        42         3        61        9.32     269      -15.1
   06/15/2016 03:40      60.3      60.1       81     54.4      0.00      8.37      75.8     0.50      1012.0     2        34         2        16        9.32     269      -15.2
   06/15/2016 03:30      60.3      60.0       82     54.4      0.00      8.37      75.8     0.50      1012.0     3         6         4       342        9.32     269      -15.1
   06/15/2016 03:20      60.4      60.0       81     54.5      0.00      8.37      75.8     0.50      1012.0     2        27         3         5        9.33     269      -15.1
   06/15/2016 03:10      60.4      59.9       82     54.5      0.00      8.37      76.1     0.50      1012.0     2        21         3         7        9.33     269      -14.9
   06/15/2016 03:00      60.1      59.5       83     54.5      0.00      8.37      76.0     0.50      1012.0     2        48         2        39        9.33     269      -14.7
   06/15/2016 02:50      59.6      59.5       83     54.5      0.00      8.37      75.8     0.50      1012.0     2       104         3       117        9.33     269      -14.4
   06/15/2016 02:40      59.5      59.4       84     54.5      0.00      8.37      76.1     0.50      1012.0     2        78         4       111        9.33     269      -14.3
   06/15/2016 02:30      59.5      59.2       84     54.5      0.00      8.37      75.9     0.50      1012.0     3       135         4       136        9.33     269      -14.3
   06/15/2016 02:20      59.4      59.1       84     54.6      0.00      8.37      75.9     0.50      1012.0     3       117         5       143        9.33     269      -14.3
   06/15/2016 02:10      59.5      59.0       84     54.5      0.00      8.37      75.9     0.50      1012.0     4       115         6        93        9.33     269      -14.3
   06/15/2016 02:00      59.5      59.4       84     54.6      0.00      8.37      75.8     0.50      1012.0     2        63         4        61        9.33     269      -14.7
   06/15/2016 01:50      59.4      59.1       84     54.6      0.00      8.37      75.7     0.50      1012.0     3        70         4       134        9.33     269      -14.5
   06/15/2016 01:40      59.5      59.2       84     54.6      0.00      8.37      75.9     0.50      1013.0     4       125         5       132        9.33     268      -14.6
   06/15/2016 01:30      59.4      59.2       85     54.8      0.00      8.37      76.3     0.50      1013.0     2        86         5        78        9.33     269      -14.4
   06/15/2016 01:20      59.5      59.3       84     54.7      0.00      8.37      76.0     0.50      1013.0     3       106         6       111        9.33     269      -14.4
   06/15/2016 01:10      59.7      59.4       84     54.6      0.00      8.37      76.3     0.50      1013.0     3        73         5       116        9.33     269      -14.3
   06/15/2016 01:00      59.9      59.5       83     54.6      0.00      8.37      75.7     0.50      1013.0     4        92         6        92        9.33     268      -14.4
   06/15/2016 00:50      59.8      59.5       83     54.4      0.00      8.37      76.2     0.50      1013.0     2       118         4       143        9.33     269      -14.7
   06/15/2016 00:40      59.7      59.4       83     54.4      0.00      8.37      76.2     0.50      1013.0     2       101         2       150        9.33     268      -14.5
   06/15/2016 00:30      59.5      59.0       83     54.1      0.00      8.37      76.5     0.50      1013.0     1       158         3       162        9.33     268      -14.4
   06/15/2016 00:20      59.3      58.9       83     53.8      0.00      8.37      76.1     0.50      1013.0     2       145         2       185        9.33     268      -14.2
   06/15/2016 00:10      59.1      58.7       83     53.7      0.00      8.37      76.4     0.50      1013.0     2       128         2       131        9.33     268      -14.9
   06/15/2016 00:00      58.9      58.6       83     53.5      0.00      8.37      76.1     0.50      1013.0     2       138         4       138        9.33     268      -20.0
   06/14/2016 23:50      59.2      58.7       83     53.6      0.00      8.37      76.2     0.50      1013.0     3       132         4       115        9.33     268      -40.4
   06/14/2016 23:40      59.6      59.2       83     54.4      0.00      8.37      76.0     0.50      1013.0     2        54         3        93        9.34     268      -66.0
   06/14/2016 23:30      59.9      59.5       83     54.5      0.00      8.37      76.2     0.50      1013.0     2        51         3        80        9.34     268      -67.0
   06/14/2016 23:20      60.0      59.8       82     54.6      0.00      8.37      76.3     0.50      1013.0     2        30         3        41        9.34     268      -67.0
   06/14/2016 23:10      60.2      59.8       82     54.5      0.00      8.37      76.5     0.50      1013.0     2        60         3        33        9.34     268      -66.9
   06/14/2016 23:00      60.5      60.3       81     54.6      0.00      8.37      75.9     0.50      1013.0     2        18         3        26        9.34     268      -67.2
   06/14/2016 22:50      60.3      60.1       81     54.3      0.00      8.37      76.2     0.50      1013.0     1        52         2        64        9.34     268      -66.2
   06/14/2016 22:40      60.6      60.3       80     54.4      0.00      8.37      76.0     0.50      1013.0     2        47         3        26        9.34     268      -69.0
   06/14/2016 22:30      60.9      60.5       80     54.3      0.00      8.37      76.5     0.50      1013.0     2        45         3        64        9.34     268      -69.8
   06/14/2016 22:20      61.4      60.9       78     54.1      0.00      8.37      76.0     0.50      1013.0     2        64         3        75        9.34     267      -70.3
   06/14/2016 22:10      61.6      61.3       77     54.0      0.00      8.37      76.4     0.50      1013.0     2        49         2        75        9.34     267      -71.2
   06/14/2016 22:00      61.8      61.7       74     53.6      0.00      8.37      76.2     0.50      1013.0     1        61         3        77        9.34     267      -71.3
   06/14/2016 21:50      62.5      61.9       72     53.0      0.00      8.37      76.1     0.50      1013.0     2       147         3       136        9.35     267      -71.9
   06/14/2016 21:40      62.7      62.4       71     53.2      0.00      8.37      76.5     0.50      1013.0     1        83         2        84        9.35     267      -71.9
   06/14/2016 21:30      62.9      62.8       71     53.2      0.00      8.37      76.2     0.50      1012.0     2       137         3       169        9.35     267      -72.8
   06/14/2016 21:20      63.5      63.0       70     53.1      0.00      8.37      76.0     0.50      1012.0     2       167         3       165        9.35     267      -73.6
   06/14/2016 21:10      63.9      63.4       69     53.1      0.00      8.37      76.2     0.50      1012.0     3       169         4       174        9.35     267      -73.9
   06/14/2016 21:00      64.3      63.8       68     53.2      0.00      8.37      76.3     0.50      1012.0     2       189         4       182        9.36     267      -74.9
   06/14/2016 20:50      65.7      64.5       66     53.5      0.00      8.37      76.3     0.50      1012.0     2       165         3       149        9.36     267      -76.5
   06/14/2016 20:40      66.5      65.9       65     54.1      0.00      8.37      76.3     0.50      1012.0     2       273         3       216        9.36     267      -77.0
   06/14/2016 20:30      67.3      66.7       63     54.2      0.00      8.37      76.3     0.50      1012.0     1       102         3        59        9.36     267      -77.9
   06/14/2016 20:20      67.9      67.2       63     54.3      0.00      8.37      76.1     0.50      1012.0     3        19         4        14        9.36     267      -78.6
   06/14/2016 20:10      68.2      67.9       59     53.1      0.00      8.37      76.2     0.50      1012.0     3       324         5       318        9.37     267      -77.2
   06/14/2016 20:00      68.6      68.3       58     53.0      0.00      8.37      76.0     0.50      1012.0     3       310         5       311        9.37     266      -74.2
   06/14/2016 19:50      69.5      68.8       57     53.2      0.00      8.37      76.2     0.50      1012.0     3       307         5       300        9.37     266      -70.3
   06/14/2016 19:40      70.5      69.8       55     53.4      0.00      8.37      76.0     0.50      1012.0     4       306         6       333        9.37     266      -62.1
   06/14/2016 19:30      70.5      70.3       55     53.6      0.00      8.37      75.9     0.50      1012.0     4       291         6       299        9.38     266      -42.2
   06/14/2016 19:20      71.2      70.4       55     53.8      0.00      8.37      75.8     0.50      1012.0     4       263         7       246        9.38     266      -25.6
   06/14/2016 19:10      71.2      70.9       55     54.0      0.00      8.37      75.8     0.50      1012.0     4       248         7       235        9.38     266       -6.0
   06/14/2016 19:00      72.1      71.3       54     54.1      0.00      8.37      75.8     0.50      1012.0     4       248         7       261        9.38     266       13.5
   06/14/2016 18:50      72.1      71.1       55     54.3      0.00      8.37      76.0     0.50      1012.0     4       229         6       220        9.38     266       34.0
   06/14/2016 18:40      71.5      70.7       55     54.4      0.00      8.37      75.6     0.50      1012.0     4       207         6       210        9.39     265       54.9
   06/14/2016 18:30      72.4      71.5       55     54.6      0.00      8.37      75.8     0.50      1011.0     4       162         6       146        9.39     266       76.1
   06/14/2016 18:20      72.6      71.5       54     54.7      0.00      8.37      75.7     0.50      1011.0     4       168         7       169        9.40     266       99.9
   06/14/2016 18:10      72.5      71.5       54     54.8      0.00      8.37      75.5     0.50      1011.0     5       157         6       143        9.40     266      119.5
   06/14/2016 18:00      73.2      72.1       54     54.8      0.00      8.37      75.3     0.50      1011.0     5       169         7       148        9.40     265      140.7
   06/14/2016 17:50      72.6      71.8       54     54.8      0.00      8.37      75.2     0.50      1012.0     6       168         7       161        9.41     265      167.3
   06/14/2016 17:40      73.0      72.3       54     54.8      0.00      8.37      75.5     0.50      1012.0     6       159         9       162        9.41     265      190.9
   06/14/2016 17:30      73.9      72.7       52     54.9      0.00      8.37      75.3     0.50      1012.0     7       157         9       168        9.41     265      213.8
   06/14/2016 17:20      73.9      72.3       53     54.9      0.00      8.37      75.3     0.50      1012.0     5       158         8       172        9.41     265      243.0
   06/14/2016 17:10      73.1      72.7       53     54.8      0.00      8.37      75.3     0.50      1012.0     6       153         8       165        9.42     265      266.7
   06/14/2016 17:00      73.3      72.9       53     54.9      0.00      8.37      75.2     0.50      1012.0     5       176         9       197        9.42     265      286.7
   06/14/2016 16:50      74.4      73.5       51     54.9      0.00      8.37      75.3     0.50      1012.0     5       180         8       208        9.42     265      312.6
   06/14/2016 16:40      74.4      73.6       51     55.0      0.00      8.37      74.9     0.50      1012.0     4       167         7       161        9.43     266      324.1
   06/14/2016 16:30      74.3      73.6       51     55.0      0.00      8.37      75.2     0.50      1012.0     5       185         8       172        9.43     265      351.9
   06/14/2016 16:20      74.6      73.3       52     55.0      0.00      8.37      75.2     0.50      1012.0     5       189         7       137        9.43     265      376.1
   06/14/2016 16:10      75.0      73.3       51     55.0      0.00      8.37      75.0     0.50      1012.0     5       204         9       206        9.44     266      391.3
   06/14/2016 16:00      74.6      73.8       51     55.0      0.00      8.37      74.6     0.50      1012.0     5       204         8       195        9.44     265      411.3
   06/14/2016 15:50      74.4      73.6       51     55.0      0.00      8.37      75.0     0.50      1012.0     6       181         7       145        9.44     266      425.2
   06/14/2016 15:40      74.1      73.5       52     55.0      0.00      8.37      74.8     0.50      1012.0     6       166         9       170        9.44     266      432.4
   06/14/2016 15:30      75.1      74.2       50     55.0      0.00      8.37      74.7     0.50      1013.0     5       190         8       168        9.44     266      446.6
   06/14/2016 15:20      74.8      73.4       51     54.9      0.00      8.37      74.5     0.50      1013.0     6       173         7       181        9.45     266      466.9
   06/14/2016 15:10      73.8      73.3       52     54.9      0.00      8.37      74.3     0.50      1013.0     6       168        10       132        9.45     266      485.2
   06/14/2016 15:00      75.0      74.0       51     55.1      0.00      8.37      74.6     0.50      1013.0     5       151         8       126        9.45     266      492.1
   06/14/2016 14:50      75.8      73.7       51     55.7      0.00      8.37      74.7     0.50      1013.0     5       118        11        64        9.45     267      408.3
   06/14/2016 14:40      75.5      73.7       52     55.7      0.00      8.37      74.0     0.50      1013.0     5        86         8       129        9.45     267      517.3
   06/14/2016 14:30      76.3      73.5       51     55.8      0.00      8.37      74.4     0.50      1013.0     6        65         9        73        9.45     267      527.7
   06/14/2016 14:20      76.1      73.7       51     55.7      0.00      8.37      74.6     0.50      1013.0     5        97         7       105        9.45     267      531.4
   06/14/2016 14:10      75.8      74.2       51     55.7      0.00      8.37      74.2     0.50      1013.0     5        37         7        74        9.45     268      536.5
   06/14/2016 14:00      75.2      73.5       52     55.3      0.00      8.37      74.0     0.50      1013.0     4        54         6        28        9.45     268      542.0
   06/14/2016 13:50      74.9      73.7       52     55.4      0.00      8.37      74.5     0.50      1013.0     4        59         7        78        9.45     268      543.9
   06/14/2016 13:40      74.7      73.7       52     55.3      0.00      8.37      74.6     0.50      1014.0     4        52         6       138        9.45     268      554.9
   06/14/2016 13:30      74.9      72.1       53     55.4      0.00      8.37      74.5     0.50      1014.0     3        33         5         1        9.45     269      555.4
   06/14/2016 13:20      73.5      72.0       54     55.1      0.00      8.37      74.8     0.50      1014.0     4        70         5        48        9.45     269      578.8
   06/14/2016 13:10      73.2      72.0       54     55.1      0.00      8.37      74.3     0.50      1014.0     4        19         7       357        9.45     270      549.3
   06/14/2016 13:00      73.1      72.1       54     55.0      0.00      8.37      74.3     0.50      1014.0     3        73         5        60        9.45     270      565.7
   06/14/2016 12:50      72.3      70.3       56     55.1      0.00      8.37      74.2     0.50      1014.0     3       357         5       138        9.45     270      575.8
   06/14/2016 12:40      70.7      69.7       58     54.8      0.00      8.37      74.5     0.50      1015.0     3       140         5        71        9.45     271      597.9
   06/14/2016 12:30      70.2      68.3       60     54.8      0.00      8.37      74.5     0.50      1015.0     2       347         4       261        9.45     273      606.9
   06/14/2016 12:20      69.1      67.9       61     54.6      0.00      8.37      74.4     0.50      1015.0     3       281         5       313        9.45     273      594.5
   06/14/2016 12:10      68.6      67.1       63     54.6      0.00      8.37      74.4     0.50      1015.0     3       305         4       291        9.45     274      408.2
   06/14/2016 12:00      67.9      67.2       63     54.6      0.00      8.37      74.3     0.50      1015.0     3       318         4       355        9.45     275      449.3
   06/14/2016 11:50      66.7      65.7       66     54.4      0.00      8.37      74.1     0.50      1015.0     3       270         4       324        9.45     275      387.6
   06/14/2016 11:40      66.2      65.3       67     54.4      0.00      8.37      74.4     0.50      1015.0     3       327         4       215        9.45     275      310.2
   06/14/2016 11:30      65.5      64.1       69     54.2      0.00      8.37      74.5     0.50      1015.0     2        28         4        29        9.45     276      289.9
   06/14/2016 11:20      64.5      63.9       70     54.1      0.00      8.37      74.2     0.50      1015.0     2        50         4        22        9.45     276      247.9
   06/14/2016 11:10      63.8      63.0       72     54.0      0.00      8.37      74.4     0.50      1015.0     2       162         4       172        9.45     276      226.5
   06/14/2016 11:00      63.0      61.9       74     53.9      0.00      8.37      74.8     0.50      1015.0     2        53         3        63        9.45     276      192.9
   06/14/2016 10:50      61.8      61.3       75     53.8      0.00      8.37      74.3     0.50      1015.0     2       148         3        71        9.45     275      161.1
   06/14/2016 10:40      61.3      60.8       76     53.7      0.00      8.37      74.2     0.50      1015.0     2       243         5       290        9.45     276      146.4
   06/14/2016 10:30      61.5      60.6       77     53.7      0.00      8.37      75.0     0.50      1015.0     2       149         4       210        9.45     276      146.4
   06/14/2016 10:20      60.6      60.1       79     53.7      0.00      8.37      74.4     0.51      1015.0     2       146         4       209        9.45     276      140.1
   06/14/2016 10:10      60.9      59.9       78     53.5      0.00      8.37      74.9     0.51      1015.0     2       207         4       168        9.45     276      123.2
   06/14/2016 10:00      60.5      59.4       80     53.6      0.00      8.37      74.9     0.51      1015.0     1       320         3       128        9.45     278      113.8
   06/14/2016 09:50      59.5      59.3       81     53.5      0.00      8.37      74.9     0.51      1015.0     3       178         5       166        9.45     278      111.9
   06/14/2016 09:40      59.6      59.4       80     53.4      0.00      8.37      74.0     0.51      1015.0     2       182         4       166        9.45     280       88.0
   06/14/2016 09:30      59.4      59.2       81     53.5      0.00      8.37      75.3     0.51      1015.0     1       123         2       164        9.45     282       79.0
   06/14/2016 09:20      59.4      58.7       81     53.4      0.00      8.37      74.8     0.51      1015.0     1        53         2       124        9.45     285       63.4
   06/14/2016 09:10      59.2      58.9       81     53.4      0.00      8.37      75.2     0.51      1016.0     2        26         2        60        9.45     286       58.8
   06/14/2016 09:00      59.5      58.6       82     53.4      0.00      8.37      75.6     0.41      1015.0     2        18         3        25        9.45     282       56.2
   06/14/2016 08:50      58.9      58.4       82     53.3      0.00      8.37      75.6     0.35      1015.0     2        43         4        19        9.45     270       46.4
   06/14/2016 08:40      58.8      58.2       83     53.4      0.00      8.37      75.4     0.35      1015.0     2        83         3       148        9.45     270       42.1
   06/14/2016 08:30      58.5      57.8       84     53.3      0.00      8.37      75.5     0.35      1015.0     2        53         4        81        9.45     270       41.4
   06/14/2016 08:20      58.1      57.7       84     53.2      0.00      8.37      75.3     0.35      1016.0     3        89         5        98        9.45     270       39.2
   06/14/2016 08:10      58.1      57.8       84     53.1      0.00      8.37      75.6     0.35      1015.0     2        12         3        62        8.29     270       38.7
   06/14/2016 08:00      58.3      57.8       84     53.2      0.00      8.37      75.8     0.35      1015.0     2        47         4        68        8.29     270       29.3
   06/14/2016 07:50      57.9      57.4       85     53.1      0.00      8.37      75.8     0.35      1015.0     2        41         4        58        8.29     270       27.3
   06/14/2016 07:40      57.8      57.5       85     53.0      0.00      8.37      75.3     0.35      1015.0     3        70         5        75        8.29     270       18.4
   06/14/2016 07:30      58.0      57.7       84     53.2      0.00      8.37      75.4     0.35      1015.0     2        65         3        62        8.29     270       17.0
   06/14/2016 07:20      58.1      57.4       85     53.3      0.00      8.37      75.9     0.35      1015.0     2        40         2        32        8.29     270       13.1
   06/14/2016 07:10      57.5      57.0       86     53.2      0.00      8.37      75.5     0.35      1015.0     2       123         3       148        8.30     270        7.3
   06/14/2016 07:00      57.2      57.0       86     53.1      0.00      8.37      75.8     0.35      1015.0     2       132         3       143        8.30     270        3.4
   06/14/2016 06:50      57.3      56.9       87     53.1      0.00      8.37      75.6     0.35      1015.0     2       114         4       130        8.30     270        0.4
   06/14/2016 06:40      57.2      56.9       87     53.1      0.00      8.37      75.9     0.35      1015.0     2       110         3       122        8.30     270       -0.8
   06/14/2016 06:30      57.1      56.9       86     53.0      0.00      8.37      75.6     0.35      1015.0     3       161         3       138        8.30     270       -3.7
   06/14/2016 06:20      57.2      57.0       86     53.0      0.00      8.37      75.6     0.35      1015.0     3       128         4       155        8.30     270       -6.2
   06/14/2016 06:10      57.1      56.9       86     53.0      0.00      8.37      76.0     0.35      1015.0     2       128         3       138        8.30     270       -8.8
   06/14/2016 06:00      57.2      56.9       86     53.0      0.00      8.37      75.8     0.35      1015.0     2       142         3       125        8.30     270      -10.5
   06/14/2016 05:50      57.2      57.0       86     53.1      0.00      8.37      76.5     0.35      1015.0     2       102         3       111        8.30     270      -11.5
   06/14/2016 05:40      57.4      57.0       86     53.0      0.00      8.37      76.0     0.35      1015.0     2       126         2       140        8.30     270      -12.5
   06/14/2016 05:30      57.5      57.0       86     53.3      0.00      8.37      76.1     0.35      1015.0     2       136         3       147        8.30     270      -13.2
   06/14/2016 05:20      57.6      57.3       87     53.6      0.00      8.37      76.0     0.35      1014.0     2        29         3        21        8.30     270      -13.7
   06/14/2016 05:10      57.5      57.1       87     53.6      0.00      8.37      76.1     0.35      1014.0     2        93         4       129        8.30     270      -13.7
   06/14/2016 05:00      57.4      57.3       87     53.6      0.00      8.37      76.4     0.35      1015.0     2        40         3        20        8.30     270      -14.4
   06/14/2016 04:50      57.4      57.3       88     53.6      0.00      8.37      76.2     0.35      1015.0     2        41         3        67        8.30     270      -14.2
   06/14/2016 04:40      57.4      56.9       88     53.6      0.00      8.37      76.6     0.35      1015.0     1        52         2        80        8.30     270      -14.0
   06/14/2016 04:30      57.0      56.4       90     53.6      0.00      8.37      76.5     0.35      1015.0     1        39         3        42        8.30     270      -13.4
   06/14/2016 04:20      56.6      56.3       90     53.4      0.00      8.37      76.7     0.35      1015.0     2       100         4        99        8.30     270      -13.0
   06/14/2016 04:10      56.8      56.4       89     53.4      0.00      8.37      76.5     0.35      1015.0     2        61         3        36        8.30     270      -13.2
   06/14/2016 04:00      56.3      56.0       90     53.3      0.00      8.37      76.2     0.35      1015.0     1        52         2        19        8.30     270      -12.0
   06/14/2016 03:50      56.4      56.1       90     53.3      0.00      8.37      76.2     0.35      1015.0     2        39         3        85        8.30     270      -12.1
   06/14/2016 03:40      56.4      56.0       90     53.2      0.00      8.37      76.5     0.35      1015.0     2        56         2        72        8.30     270      -11.9
   06/14/2016 03:30      56.0      55.4       90     52.8      0.00      8.37      76.3     0.35      1015.0     1        80         3        69        8.30     270      -17.6
   06/14/2016 03:20      55.5      55.0       90     52.3      0.00      8.37      76.3     0.35      1015.0     1       101         2       135        8.31     270      -16.8
   06/14/2016 03:10      55.2      54.9       90     52.1      0.00      8.37      76.4     0.35      1015.0     1        79         1       105        8.31     270      -30.4
   06/14/2016 03:00      55.1      54.9       90     52.2      0.00      8.37      76.6     0.35      1015.0     1        99         2        89        8.31     270      -36.8
   06/14/2016 02:50      54.9      54.7       89     51.7      0.00      8.37      76.5     0.35      1015.0     0        30         1        47        8.31     270      -40.7
   06/14/2016 02:40      55.7      54.9       89     52.0      0.00      8.37      76.5     0.35      1015.0     1       147         1       145        8.31     270      -41.4
   06/14/2016 02:30      55.6      55.4       90     52.6      0.00      8.37      76.6     0.35      1015.0     1       186         1       214        8.31     270      -40.8
   06/14/2016 02:20      56.0      55.5       89     52.7      0.00      8.37      76.5     0.35      1015.0     1       125         1       134        8.31     270      -43.6
   06/14/2016 02:10      56.1      56.0       89     53.0      0.00      8.37      76.5     0.35      1015.0     1        89         2        72        8.31     270      -45.9
   06/14/2016 02:00      56.4      56.1       90     53.2      0.00      8.37      76.2     0.35      1015.0     1       105         2       114        8.31     270      -47.2
   06/14/2016 01:50      56.4      56.1       89     53.1      0.00      8.37      76.9     0.35      1015.0     1        98         2       102        8.31     270      -48.8
   06/14/2016 01:40      56.6      56.5       89     53.4      0.00      8.37      76.6     0.35      1015.0     1        86         2        74        8.31     269      -50.3
   06/14/2016 01:30      56.6      56.3       90     53.4      0.00      8.37      76.4     0.35      1015.0     1        98         2       111        8.31     269      -52.3
   06/14/2016 01:20      56.3      56.0       88     52.8      0.00      8.37      76.9     0.35      1015.0     2        95         2       135        8.31     269      -55.0
   06/14/2016 01:10      56.6      56.2       87     52.8      0.00      8.37      76.5     0.35      1016.0     1       115         1       100        8.31     269      -55.9
   06/14/2016 01:00      57.1      56.9       88     53.5      0.00      8.37      77.0     0.35      1016.0     1       100         2        78        8.31     269      -56.3
   06/14/2016 00:50      57.3      57.0       88     53.5      0.00      8.37      76.8     0.35      1016.0     1        74         1       101        8.31     269      -58.1
   06/14/2016 00:40      57.4      57.3       87     53.6      0.00      8.37      76.8     0.35      1016.0     1        66         1        25        8.31     269      -60.0
   06/14/2016 00:30      57.5      57.3       87     53.6      0.00      8.37      77.0     0.35      1016.0     1        77         1        65        8.31     269      -61.6
   06/14/2016 00:20      57.6      57.4       87     53.7      0.00      8.37      76.9     0.35      1016.0     1        79         2        80        8.31     269      -62.3
   06/14/2016 00:10      57.8      57.5       87     53.7      0.00      8.37      76.9     0.35      1016.0     1        78         2        83        8.31     269      -63.0
   06/14/2016 00:00      58.0      57.7       86     53.7      0.00      8.37      77.1     0.35      1016.0     2        96         3        79        8.31     269      -63.7
   06/13/2016 23:50      58.1      57.8       85     53.6      0.00      8.37      76.9     0.35      1016.0     2        89         2       103        8.31     269      -64.1
   06/13/2016 23:40      58.2      58.1       85     53.6      0.00      8.37      76.7     0.35      1016.0     1        90         2        90        8.31     268      -65.3
   06/13/2016 23:30      58.6      58.2       84     53.6      0.00      8.37      76.9     0.35      1016.0     2        82         3        74        8.31     268      -66.2
   06/13/2016 23:20      58.5      58.3       84     53.7      0.00      8.37      77.2     0.35      1016.0     1        92         2        79        8.31     268      -66.5
   06/13/2016 23:10      58.7      58.4       84     53.7      0.00      8.37      76.8     0.35      1016.0     1        94         2        75        8.32     268      -66.6
   06/13/2016 23:00      58.9      58.8       83     53.7      0.00      8.37      76.7     0.35      1016.0     1        84         2       111        8.32     268      -66.7
   06/13/2016 22:50      59.4      58.9       82     53.7      0.00      8.37      77.0     0.35      1016.0     2        78         3        85        8.32     268      -66.9
   06/13/2016 22:40      59.8      59.4       81     53.6      0.00      8.37      77.0     0.35      1017.0     2        71         2        85        8.32     268      -67.6
   06/13/2016 22:30      60.1      59.7       80     53.7      0.00      8.37      77.0     0.35      1017.0     1        62         3        93        8.32     268      -68.1
   06/13/2016 22:20      60.4      60.1       79     53.8      0.00      8.37      76.9     0.35      1017.0     1        42         2        66        8.32     267      -68.8
   06/13/2016 22:10      61.0      60.3       78     53.7      0.00      8.37      76.9     0.35      1017.0     3        73         4        88        8.32     268      -68.8
   06/13/2016 22:00      61.7      61.2       76     53.6      0.00      8.37      76.6     0.35      1016.0     2        53         5        86        8.32     267      -69.7
   06/13/2016 21:50      61.8      61.6       71     52.2      0.00      8.37      77.0     0.35      1016.0     2       357         3       337        8.32     267      -70.3
   06/13/2016 21:40      62.0      61.8       70     51.9      0.00      8.37      76.9     0.35      1016.0     1       211         1       224        8.32     267      -71.3
   06/13/2016 21:30      62.3      61.9       69     51.9      0.00      8.37      76.8     0.35      1016.0     1       207         2       210        8.32     267      -71.8
   06/13/2016 21:20      62.5      62.3       69     52.0      0.00      8.37      77.2     0.35      1016.0     2       234         4       235        8.32     267      -72.1
   06/13/2016 21:10      62.7      62.4       68     52.0      0.00      8.37      76.8     0.35      1016.0     3       228         4       192        8.32     267      -72.6
   06/13/2016 21:00      63.1      62.7       68     52.1      0.00      8.37      76.7     0.35      1016.0     3       219         5       242        8.32     267      -73.5
   06/13/2016 20:50      63.6      63.3       67     52.2      0.00      8.37      76.5     0.35      1016.0     4       237         5       222        8.32     267      -74.1
   06/13/2016 20:40      64.0      63.5       66     52.2      0.00      8.37      76.8     0.35      1016.0     4       226         5       222        8.32     267      -74.9
   06/13/2016 20:30      64.7      64.2       65     52.3      0.00      8.37      76.7     0.35      1016.0     4       227         6       241        8.32     267      -75.8
   06/13/2016 20:20      65.2      64.7       63     52.3      0.00      8.37      76.8     0.35      1016.0     4       229         5       264        8.32     267      -75.6
   06/13/2016 20:10      65.7      65.2       63     52.4      0.00      8.37      76.8     0.35      1016.0     4       239         7       250        8.33     266      -74.1
   06/13/2016 20:00      66.3      65.9       62     52.5      0.00      8.37      76.6     0.35      1016.0     5       243         7       256        8.32     266      -71.4
   06/13/2016 19:50      67.2      66.5       60     52.5      0.00      8.37      76.8     0.35      1016.0     5       241         6       234        8.33     266      -67.3
   06/13/2016 19:40      68.6      67.4       58     52.7      0.00      8.37      76.6     0.35      1016.0     4       244         6       235        8.33     266      -60.4
   06/13/2016 19:30      69.1      68.6       57     52.9      0.00      8.37      76.5     0.35      1016.0     4       262         6       275        8.33     266      -40.9
   06/13/2016 19:20      69.3      68.6       57     53.0      0.00      8.37      76.8     0.35      1016.0     4       241         7       232        8.33     266      -25.6
   06/13/2016 19:10      70.4      69.5       55     53.1      0.00      8.37      76.5     0.35      1016.0     4       279         7       287        8.33     266       -8.3
   06/13/2016 19:00      70.9      70.3       54     53.3      0.00      8.37      76.4     0.35      1016.0     4       307         7       305        8.33     266       11.0
   06/13/2016 18:50      71.5      71.0       54     53.5      0.00      8.37      76.3     0.35      1016.0     4       292         5       298        8.33     266       31.5
   06/13/2016 18:40      71.3      70.9       54     53.5      0.00      8.37      76.3     0.35      1016.0     5       302         8       306        8.33     266       52.5
   06/13/2016 18:30      71.9      71.3       53     53.6      0.00      8.37      76.3     0.35      1016.0     5       273         8       244        8.33     266       75.7
   06/13/2016 18:20      73.0      71.9       52     53.8      0.00      8.37      76.4     0.35      1016.0     4       269         8       248        8.33     266       96.1
   06/13/2016 18:10      73.0      72.4       51     53.9      0.00      8.37      76.0     0.35      1016.0     5       280         8       247        8.33     266      120.3
   06/13/2016 18:00      73.2      72.9       51     53.9      0.00      8.37      76.2     0.35      1016.0     4       234         8       251        8.33     266      144.4
   06/13/2016 17:50      73.4      72.6       51     53.9      0.00      8.37      76.1     0.35      1016.0     5       229         7       184        8.34     266      166.4
   06/13/2016 17:40      74.1      73.2       50     54.0      0.00      8.37      76.2     0.35      1016.0     4       182         7       161        8.34     266      190.2
   06/13/2016 17:30      73.5      72.8       51     54.0      0.00      8.37      75.9     0.35      1016.0     4       149         5       142        8.34     265      215.6
   06/13/2016 17:20      73.2      72.8       51     54.0      0.00      8.37      75.7     0.35      1016.0     4       154         6       131        8.34     265      240.6
   06/13/2016 17:10      73.5      71.5       52     53.9      0.00      8.37      75.7     0.35      1016.0     5       115         8       115        8.34     266      267.7
   06/13/2016 17:00      73.4      71.8       51     53.7      0.00      8.37      75.8     0.35      1016.0     7       133        11       143        8.34     265      288.2
   06/13/2016 16:50      73.3      72.2       51     53.7      0.00      8.37      75.7     0.35      1016.0     5       142         8       119        8.34     265      309.6
   06/13/2016 16:40      73.3      72.0       51     53.6      0.00      8.37      75.5     0.35      1016.0     7       139        11       122        8.35     265      329.3
   06/13/2016 16:30      73.3      72.1       51     53.8      0.00      8.37      75.5     0.35      1016.0     6       138        10       130        8.35     265      350.9
   06/13/2016 16:20      73.0      72.1       52     54.0      0.00      8.37      75.3     0.35      1016.0     6       135         9       134        8.35     266      373.5
   06/13/2016 16:10      73.3      72.3       52     54.0      0.00      8.37      75.5     0.35      1016.0     7       136         9       172        8.36     266      391.0
   06/13/2016 16:00      74.1      73.3       50     54.1      0.00      8.37      75.4     0.35      1016.0     7       138        10       122        8.36     265      409.5
   06/13/2016 15:50      74.1      73.0       51     54.3      0.00      8.37      75.2     0.35      1016.0     6       140        10       133        8.36     265      427.8
   06/13/2016 15:40      74.6      73.7       50     54.3      0.00      8.37      75.3     0.35      1016.0     6       115         9       124        8.37     266      442.5
   06/13/2016 15:30      74.4      72.9       50     54.2      0.00      8.37      75.1     0.35      1016.0     5       126         7       141        8.38     266      458.4
   06/13/2016 15:20      73.6      73.0       51     53.9      0.00      8.37      75.2     0.35      1017.0     7        96        10        58        8.40     266      474.3
   06/13/2016 15:10      75.0      73.8       49     54.1      0.00      8.37      74.8     0.35      1017.0     6        92         9       115        8.41     266      482.9
   06/13/2016 15:00      74.3      73.5       50     54.0      0.00      8.37      74.8     0.35      1017.0     4       122         7       128        8.42     266      496.1
   06/13/2016 14:50      75.0      73.0       49     53.8      0.00      8.37      74.8     0.35      1017.0     7        99        10        72        8.42     266      508.2
   06/13/2016 14:40      75.6      74.1       48     54.0      0.00      8.37      74.8     0.35      1017.0     4       112         7       153        8.42     266      515.9
   06/13/2016 14:30      74.8      73.9       49     53.9      0.00      8.37      74.8     0.35      1017.0     6       112         9       140        8.43     266      529.6
   06/13/2016 14:20      74.9      73.2       50     54.0      0.00      8.37      74.7     0.35      1017.0     6       149         9       132        8.43     266      538.2
   06/13/2016 14:10      75.1      73.2       50     54.0      0.00      8.37      74.4     0.35      1017.0     8       125        12       140        8.43     266      551.4
   06/13/2016 14:00      76.1      75.3       48     54.6      0.00      8.37      74.5     0.34      1017.0     6       101        11       109        8.43     267      551.4
   06/13/2016 13:50      77.1      75.3       48     54.8      0.00      8.37      74.5     0.34      1017.0     5        83         8        92        8.44     267      567.0
   06/13/2016 13:40      75.8      75.0       49     54.8      0.00      8.37      74.2     0.34      1017.0     4       105         7       133        8.44     267      568.7
   06/13/2016 13:30      77.1      75.5       47     54.7      0.00      8.37      74.4     0.34      1017.0     3       140         6       142        8.44     268      499.5
   06/13/2016 13:20      77.4      74.9       47     54.8      0.00      8.37      74.2     0.34      1018.0     3        24         6        23        8.44     268      573.0
   06/13/2016 13:10      75.9      74.4       49     54.5      0.00      8.37      74.6     0.34      1018.0     4        87         7        69        8.44     268      577.1
   06/13/2016 13:00      74.8      72.6       51     54.4      0.00      8.37      74.4     0.34      1018.0     3       132         5        92        8.44     268      579.0
   06/13/2016 12:50      74.0      72.8       51     54.3      0.00      8.37      74.3     0.34      1018.0     4       113         8        84        8.45     268      580.1
   06/13/2016 12:40      74.2      72.9       51     54.2      0.00      8.37      74.4     0.34      1018.0     4        95         7        94        8.44     268      547.8
   06/13/2016 12:30      74.0      73.2       51     54.5      0.00      8.37      74.6     0.34      1018.0     4        66         7       132        8.45     268      579.1
   06/13/2016 12:20      73.3      71.8       53     54.1      0.00      8.37      74.5     0.34      1018.0     3        72         7       100        8.45     268      582.3
   06/13/2016 12:10      72.5      71.9       52     53.9      0.00      8.37      74.2     0.34      1018.0     4        57         8        59        8.45     268      576.7
   06/13/2016 12:00      73.0      72.2       52     53.9      0.00      8.37      74.1     0.34      1019.0     5        78         7       109        8.45     268      573.3
   06/13/2016 11:50      72.3      70.7       52     53.3      0.00      8.37      74.4     0.34      1019.0     5        85        11       129        8.45     269      570.7
   06/13/2016 11:40      72.8      71.0       52     52.9      0.00      8.37      73.9     0.34      1019.0     4       134         8       146        8.45     268      556.1
   06/13/2016 11:30      71.3      70.3       53     52.9      0.00      8.37      74.2     0.34      1019.0     4       116         6       133        8.45     269      552.7
   06/13/2016 11:20      71.0      70.2       52     52.2      0.00      8.37      74.5     0.34      1019.0     3       105         4       199        8.45     269      539.9
   06/13/2016 11:10      70.3      69.3       53     52.1      0.00      8.37      74.4     0.34      1019.0     5       131         6       154        8.45     269      535.6
   06/13/2016 11:00      70.5      69.8       53     52.1      0.00      8.37      74.4     0.35      1019.0     4       134         6       147        8.45     269      520.7
   06/13/2016 10:50      70.2      69.3       53     52.0      0.00      8.37      74.2     0.35      1019.0     3        80         4        65        8.45     270      525.7
   06/13/2016 10:40      69.8      68.3       54     51.9      0.00      8.37      74.4     0.35      1019.0     3        58         5        73        8.45     270      524.3
   06/13/2016 10:30      68.9      67.2       56     51.9      0.00      8.37      74.2     0.35      1019.0     3        50         5        61        8.46     270      504.2
   06/13/2016 10:20      67.7      67.0       57     51.8      0.00      8.37      74.4     0.35      1019.0     3        97         5       150        8.46     270      462.2
   06/13/2016 10:10      68.1      65.8       58     51.7      0.00      8.37      74.5     0.35      1019.0     2       265         5       195        8.46     270      394.1
   06/13/2016 10:00      68.3      65.5       58     52.0      0.00      8.37      74.4     0.35      1019.0     2       331         4       259        8.46     270      379.6
   06/13/2016 09:50      65.7      65.3       61     51.7      0.00      8.37      74.5     0.35      1019.0     2        24         4       348        8.46     270      350.4
   06/13/2016 09:40      65.7      65.4       61     51.8      0.00      8.37      74.6     0.35      1020.0     3       338         4       344        8.46     271      205.9
   06/13/2016 09:30      66.1      65.1       61     51.7      0.00      8.37      74.1     0.35      1020.0     3        50         5        70        8.46     270      255.3
   06/13/2016 09:20      65.0      64.4       63     51.7      0.00      8.37      74.6     0.35      1020.0     2         6         4        37        8.46     271      230.4
   06/13/2016 09:10      65.3      64.3       62     51.7      0.00      8.37      74.4     0.35      1020.0     2        42         4       350        8.46     271      329.8
   06/13/2016 09:00      64.3      63.3       64     51.5      0.00      8.37      74.2     0.35      1020.0     2        47         4        69        8.46     271      307.1
   06/13/2016 08:50      63.4      62.3       66     51.3      0.00      8.37      74.7     0.35      1020.0     2        16         3         2        8.47     271      274.7
   06/13/2016 08:40      62.4      61.8       67     51.3      0.00      8.37      75.1     0.35      1020.0     2        29         3       325        8.47     271      167.6
   06/13/2016 08:30      61.7      61.4       69     51.2      0.00      8.37      74.5     0.35      1020.0     2        69         2        88        8.47     271      152.7
   06/13/2016 08:20      61.5      60.6       70     51.2      0.00      8.37      74.8     0.35      1020.0     1        93         3        78        8.47     271      105.1
   06/13/2016 08:10      60.6      60.1       71     51.1      0.00      8.37      74.6     0.35      1020.0     1        13         3        18        8.47     271       74.6
   06/13/2016 08:00      60.3      59.9       72     51.0      0.00      8.37      74.6     0.35      1020.0     1       232         2       268        8.47     271       67.1
   06/13/2016 07:50      60.0      59.2       74     51.0      0.00      8.37      74.6     0.35      1020.0     1       281         2       237        8.48     272       73.9
   06/13/2016 07:40      59.3      58.4       75     50.8      0.00      8.37      75.1     0.35      1020.0     1       260         2       256        8.48     272       69.5
   06/13/2016 07:30      58.6      58.0       76     50.6      0.00      8.37      75.0     0.35      1020.0     1       218         2       214        8.48     273       64.8
   06/13/2016 07:20      58.0      57.5       77     50.5      0.00      8.37      74.8     0.35      1019.0     1       266         2       279        8.48     274       59.0
   06/13/2016 07:10      57.5      56.9       78     50.4      0.00      8.37      74.7     0.35      1019.0     1       217         2       223        8.48     275       49.3
   06/13/2016 07:00      57.0      56.4       80     50.5      0.00      8.37      74.8     0.35      1019.0     2       229         2       239        8.48     277       41.2
   06/13/2016 06:50      56.5      55.5       82     50.6      0.00      8.37      74.7     0.35      1019.0     1       196         2       234        8.49     279       25.2
   06/13/2016 06:40      55.5      54.0       86     50.4      0.00      8.37      75.0     0.35      1019.0     1       188         2       207        8.49     280       23.7
   06/13/2016 06:30      54.0      52.6       89     50.0      0.00      8.37      75.5     0.35      1019.0     1       175         2       200        8.49     281       17.2
   06/13/2016 06:20      52.4      51.7       91     49.3      0.00      8.37      74.8     0.35      1019.0     1       172         1       160        8.49     282        7.4
   06/13/2016 06:10      51.7      51.3       91     48.9      0.00      8.37      75.1     0.35      1019.0     1       162         1       130        8.49     281      -10.4
   06/13/2016 06:00      51.7      51.3       91     48.8      0.00      8.37      74.8     0.35      1019.0     1       159         1       138        8.49     280      -24.2
   06/13/2016 05:50      51.8      51.5       90     48.9      0.00      8.37      74.9     0.35      1019.0     0       175         1       214        8.49     279      -30.5
   06/13/2016 05:40      51.9      51.5       90     48.8      0.00      8.37      74.9     0.35      1019.0     1       185         1       186        8.49     278      -35.0
   06/13/2016 05:30      52.2      51.8       89     48.8      0.00      8.37      75.4     0.35      1019.0     1       151         1       148        8.49     278      -38.2
   06/13/2016 05:20      51.9      51.7       89     48.6      0.00      8.37      75.0     0.35      1019.0     1       204         1       221        8.49     277      -40.8
   06/13/2016 05:10      51.9      51.5       89     48.5      0.00      8.37      74.8     0.35      1019.0     1       138         2       128        8.49     276      -42.1
   06/13/2016 05:00      51.9      51.7       88     48.4      0.00      8.37      75.5     0.35      1019.0     1       135         1       129        8.49     276      -43.9
   06/13/2016 04:50      52.3      52.2       89     49.0      0.00      8.37      75.2     0.35      1019.0     1       160         2       155        8.49     276      -44.4
   06/13/2016 04:40      52.3      52.0       89     49.0      0.00      8.37      75.4     0.35      1019.0     1       173         1       196        8.49     276      -45.3
   06/13/2016 04:30      52.4      52.0       88     49.0      0.00      8.37      75.1     0.35      1019.0     1       135         2       131        8.49     275      -47.3
   06/13/2016 04:20      52.5      52.3       88     49.0      0.00      8.37      75.1     0.35      1019.0     1       177         1       135        8.49     274      -49.4
   06/13/2016 04:10      52.6      52.3       88     48.9      0.00      8.37      75.7     0.35      1019.0     1       166         1       196        8.49     274      -51.2
   06/13/2016 04:00      52.7      52.4       87     49.0      0.00      8.37      75.4     0.35      1019.0     1       195         1       193        8.49     274      -52.6
   06/13/2016 03:50      53.1      52.6       85     48.6      0.00      8.37      75.6     0.35      1018.0     1       169         2       154        8.49     273      -55.1
   06/13/2016 03:40      53.4      53.0       85     48.9      0.00      8.37      75.4     0.35      1019.0     2       153         2       153        8.49     273      -55.9
   06/13/2016 03:30      53.4      53.1       85     48.8      0.00      8.37      75.6     0.35      1019.0     2       143         2       132        8.49     273      -57.0
   06/13/2016 03:20      53.8      53.5       83     48.8      0.00      8.37      75.3     0.35      1019.0     1       138         2       133        8.49     272      -58.4
   06/13/2016 03:10      54.1      53.6       83     48.8      0.00      8.37      75.8     0.35      1019.0     1       149         2       142        8.49     272      -58.5
   06/13/2016 03:00      54.0      53.6       82     48.5      0.00      8.37      76.1     0.35      1019.0     1       216         2       127        8.49     272      -57.4
   06/13/2016 02:50      54.1      54.0       82     48.7      0.00      8.37      75.3     0.35      1018.0     1       187         1       198        8.49     272      -57.4
   06/13/2016 02:40      54.2      53.8       82     48.8      0.00      8.37      75.5     0.35      1018.0     1       214         1       166        8.49     272      -58.3
   06/13/2016 02:30      54.6      54.2       82     49.0      0.00      8.37      75.4     0.35      1018.0     0       124         1       152        8.49     271      -58.5
   06/13/2016 02:20      55.2      54.5       80     48.8      0.00      8.37      75.7     0.35      1018.0     1       104         1        66        8.49     271      -60.0
   06/13/2016 02:10      55.7      55.1       79     49.1      0.00      8.37      75.4     0.35      1018.0     1        64         1        67        8.49     271      -60.6
   06/13/2016 02:00      55.8      55.5       79     49.3      0.00      8.37      75.7     0.35      1018.0     1       205         2       205        8.49     271      -60.8
   06/13/2016 01:50      56.4      56.0       78     49.2      0.00      8.37      75.9     0.35      1018.0     1        34         1        33        8.50     270      -61.3
   06/13/2016 01:40      56.9      56.4       77     49.5      0.00      8.37      75.9     0.35      1018.0     2       161         2       165        8.50     270      -61.2
   06/13/2016 01:30      57.3      57.0       76     49.5      0.00      8.37      75.7     0.35      1018.0     2       198         2       202        8.50     270      -61.4
   06/13/2016 01:20      57.5      57.4       75     49.6      0.00      8.37      75.8     0.35      1019.0     2       200         3       195        8.50     270      -62.0
   06/13/2016 01:10      57.6      57.4       75     49.6      0.00      8.37      75.9     0.35      1019.0     2       205         3       213        8.50     270      -62.3
   06/13/2016 01:00      58.0      57.6       75     49.7      0.00      8.37      75.9     0.35      1019.0     2       219         3       218        8.50     270      -62.8
   06/13/2016 00:50      58.0      57.8       74     49.9      0.00      8.37      75.8     0.35      1019.0     1       222         2       200        8.50     270      -63.8
   06/13/2016 00:40      58.1      57.7       74     49.9      0.00      8.37      76.0     0.35      1019.0     2       204         4       185        8.50     270      -63.9
   06/13/2016 00:30      58.5      58.1       74     50.0      0.00      8.37      76.2     0.35      1019.0     2       186         4       195        8.50     269      -64.5
   06/13/2016 00:20      58.6      58.5       73     50.0      0.00      8.37      76.5     0.35      1019.0     2       216         4       223        8.50     269      -64.6
   06/13/2016 00:10      58.7      58.4       73     50.1      0.00      8.37      75.9     0.35      1019.0     2       224         5       203        8.50     269      -64.8
   06/13/2016 00:00      58.8      58.6       73     50.2      0.00      8.37      75.6     0.35      1019.0     2       229         3       220        8.50     269      -65.2
   06/12/2016 23:50      58.9      58.7       73     50.3      0.00      8.37      76.2     0.35      1019.0     3       207         5       195        8.50     269      -65.4
   06/12/2016 23:40      59.1      58.8       73     50.4      0.00      8.37      76.0     0.35      1019.0     3       219         4       218        8.50     269      -66.1
   06/12/2016 23:30      59.2      58.9       74     50.6      0.00      8.37      75.7     0.35      1019.0     3       207         5       191        8.50     269      -66.4
   06/12/2016 23:20      59.4      59.1       73     50.7      0.00      8.37      76.2     0.35      1019.0     3       191         4       203        8.50     269      -66.8
   06/12/2016 23:10      59.5      59.4       73     50.8      0.00      8.37      75.8     0.35      1019.0     3       204         5       199        8.50     269      -67.8
   06/12/2016 23:00      59.8      59.5       73     50.9      0.00      8.37      76.3     0.35      1019.0     4       206         5       180        8.50     269      -68.1
   06/12/2016 22:50      60.0      59.7       72     50.8      0.00      8.37      75.9     0.35      1019.0     4       206         6       205        8.50     269      -68.6
   06/12/2016 22:40      60.0      59.9       72     50.9      0.00      8.37      76.6     0.35      1019.0     3       209         4       215        8.50     269      -69.1
   06/12/2016 22:30      60.4      60.1       72     51.2      0.00      8.37      76.1     0.35      1018.0     4       206         5       232        8.50     269      -69.4
   06/12/2016 22:20      60.8      60.4       72     51.4      0.00      8.37      76.3     0.35      1018.0     4       218         6       192        8.51     269      -70.3
   06/12/2016 22:10      61.2      60.9       71     51.6      0.00      8.37      76.2     0.35      1018.0     4       238         6       235        8.51     269      -71.9
   06/12/2016 22:00      61.4      61.2       71     51.7      0.00      8.37      76.1     0.35      1018.0     5       239         6       245        8.51     269      -72.8
   06/12/2016 21:50      61.8      61.4       70     51.5      0.00      8.37      75.9     0.35      1018.0     3       226         3       248        8.51     269      -73.6
   06/12/2016 21:40      62.0      61.7       68     51.3      0.00      8.37      76.1     0.35      1018.0     3       226         4       224        8.51     269      -74.4
   06/12/2016 21:30      62.3      62.0       67     51.2      0.00      8.37      75.9     0.35      1018.0     3       233         6       238        8.51     269      -74.6
   06/12/2016 21:20      62.5      62.2       67     51.3      0.00      8.37      75.8     0.35      1018.0     3       222         4       226        8.51     269      -74.8
   06/12/2016 21:10      62.9      62.5       67     51.4      0.00      8.37      75.9     0.35      1018.0     4       232         4       218        8.51     269      -75.0
   06/12/2016 21:00      63.3      62.9       67     51.7      0.00      8.37      75.8     0.35      1018.0     4       230         6       237        8.51     269      -75.5
   06/12/2016 20:50      63.9      63.3       66     52.0      0.00      8.37      75.8     0.35      1018.0     3       232         5       242        8.51     269      -76.5
   06/12/2016 20:40      64.8      63.9       65     52.4      0.00      8.37      75.8     0.35      1018.0     4       236         5       214        8.51     269      -77.3
   06/12/2016 20:30      65.3      64.8       64     52.7      0.00      8.37      76.2     0.35      1018.0     5       257         9       260        8.51     269      -77.8
   06/12/2016 20:20      66.3      65.6       62     52.7      0.00      8.37      75.9     0.35      1018.0     4       246         5       223        8.52     269      -78.0
   06/12/2016 20:10      67.0      66.5       61     52.9      0.00      8.37      75.9     0.35      1018.0     4       252         6       254        8.52     269      -75.7
   06/12/2016 20:00      67.6      67.0       60     52.9      0.00      8.37      75.9     0.35      1018.0     3       249         5       267        8.52     269      -70.7
   06/12/2016 19:50      68.0      67.4       59     52.7      0.00      8.37      75.6     0.35      1017.0     3       223         5       198        8.52     269      -64.9
   06/12/2016 19:40      68.6      68.2       56     52.2      0.00      8.37      76.1     0.35      1017.0     3       211         6       223        8.52     269      -51.3
   06/12/2016 19:30      69.2      68.6       55     52.1      0.00      8.37      75.7     0.35      1017.0     3       180         5       186        8.52     268      -21.4
   06/12/2016 19:20      69.3      69.0       54     52.0      0.00      8.37      76.1     0.35      1017.0     5       161         6       141        8.52     268       -0.5
   06/12/2016 19:10      69.5      69.1       54     51.9      0.00      8.37      76.2     0.35      1017.0     5       150         8       159        8.52     268        7.7
   06/12/2016 19:00      70.6      69.5       53     52.0      0.00      8.37      75.5     0.35      1017.0     5       163         8       193        8.52     268       27.9
   06/12/2016 18:50      71.2      70.8       52     52.4      0.00      8.37      75.8     0.35      1017.0     4        90         5       111        8.52     268       63.2
   06/12/2016 18:40      71.2      70.5       52     52.2      0.00      8.37      76.2     0.35      1017.0     4        98         5        58        8.52     268       43.6
   06/12/2016 18:30      71.9      71.4       51     52.3      0.00      8.37      75.5     0.35      1017.0     4       123         6       110        8.52     268      108.2
   06/12/2016 18:20      71.5      70.9       51     52.2      0.00      8.37      75.5     0.35      1017.0     3       119         4       124        8.52     268      178.9
   06/12/2016 18:10      71.1      70.3       52     52.1      0.00      8.37      75.7     0.35      1017.0     3       158         4       185        8.52     268      194.0
   06/12/2016 18:00      70.5      70.0       52     52.0      0.00      8.37      75.5     0.35      1017.0     3       157         6       161        8.52     268      127.7
   06/12/2016 17:50      70.6      69.9       52     52.0      0.00      8.37      75.8     0.35      1017.0     3       177         5       173        8.52     268      124.5
   06/12/2016 17:40      70.3      70.0       53     52.0      0.00      8.37      75.7     0.35      1017.0     4       157         6       174        8.52     268       84.0
   06/12/2016 17:30      70.8      69.7       53     52.1      0.00      8.37      75.7     0.35      1017.0     6       158         8       179        8.52     268      190.1
   06/12/2016 17:20      71.0      70.3       52     52.3      0.00      8.37      75.8     0.35      1017.0     6       171         8       180        8.53     268      228.2
   06/12/2016 17:10      71.8      70.9       51     52.4      0.00      8.37      75.8     0.35      1017.0     4       195         6       208        8.53     268      169.9
   06/12/2016 17:00      72.0      71.5       50     52.3      0.00      8.37      75.7     0.35      1017.0     3        83         4        70        8.53     269      157.6
   06/12/2016 16:50      72.6      71.7       50     52.5      0.00      8.37      75.8     0.35      1017.0     3        58         4        86        8.53     269      168.2
   06/12/2016 16:40      72.6      71.8       50     52.5      0.00      8.37      75.7     0.35      1017.0     2        37         5        79        8.53     269      217.5
   06/12/2016 16:30      72.3      71.4       50     52.4      0.00      8.37      75.2     0.35      1018.0     2        16         3        29        8.53     269      193.7
   06/12/2016 16:20      72.2      71.2       51     52.5      0.00      8.37      75.7     0.35      1018.0     4        57         6       357        8.53     269      349.2
   06/12/2016 16:10      71.2      70.4       52     52.4      0.00      8.37      75.5     0.35      1018.0     1       252         3        82        8.53     269      193.2
   06/12/2016 16:00      70.6      69.8       53     52.4      0.00      8.37      75.7     0.35      1018.0     3       278         4       313        8.53     269      116.9
   06/12/2016 15:50      70.7      69.8       53     52.2      0.00      8.37      75.5     0.35      1018.0     3       308         6       320        8.53     269      138.0
   06/12/2016 15:40      71.2      70.6       52     52.5      0.00      8.37      75.4     0.35      1018.0     3       315         4       290        8.53     269      146.0
   06/12/2016 15:30      71.0      70.4       52     52.3      0.00      8.37      75.5     0.35      1018.0     3         4         4        12        8.53     269      155.3
   06/12/2016 15:20      71.0      70.3       52     52.4      0.00      8.37      75.3     0.35      1018.0     3        35         5        23        8.53     269      179.3
   06/12/2016 15:10      71.0      69.7       52     52.3      0.00      8.37      75.8     0.35      1018.0     3        76         4        72        8.53     269      221.3
   06/12/2016 15:00      70.7      69.7       53     52.4      0.00      8.37      75.7     0.35      1018.0     3        83         5        94        8.53     269      206.7
   06/12/2016 14:50      71.5      70.3       52     52.4      0.00      8.37      75.3     0.35      1018.0     2        25         3        32        8.53     269      214.2
   06/12/2016 14:40      71.8      69.7       53     52.7      0.00      8.37      75.6     0.35      1018.0     2        18         3        14        8.53     269      379.0
   06/12/2016 14:30      69.5      68.6       56     52.6      0.00      8.37      75.5     0.35      1018.0     2        73         4        16        8.54     269      267.0
   06/12/2016 14:20      69.1      68.3       56     52.6      0.00      8.37      75.5     0.35      1018.0     3       326         4       269        8.54     269      273.0
   06/12/2016 14:10      69.5      68.8       55     52.5      0.00      8.37      75.6     0.35      1018.0     3        20         4       356        8.54     270      316.2
   06/12/2016 14:00      68.9      67.7       58     52.5      0.00      8.37      75.8     0.35      1018.0     3       102         5        32        8.54     270      321.9
   06/12/2016 13:50      67.8      66.8       59     52.5      0.00      8.37      76.0     0.35      1018.0     4       118         7       129        8.54     270      276.4
   06/12/2016 13:40      66.7      66.2       60     52.4      0.00      8.37      76.0     0.35      1018.0     3       137         6        86        8.54     269      225.4
   06/12/2016 13:30      66.2      65.5       62     52.2      0.00      8.37      75.4     0.35      1018.0     3       204         5       208        8.54     270      227.6
   06/12/2016 13:20      66.2      65.7       61     52.3      0.00      8.37      75.4     0.35      1019.0     3       194         6       222        8.54     270      184.1
   06/12/2016 13:10      65.7      65.3       62     52.2      0.00      8.37      75.8     0.35      1019.0     2       243         4       231        8.54     270      136.3
   06/12/2016 13:00      65.6      65.0       62     52.1      0.00      8.37      75.5     0.35      1019.0     2       224         4       243        8.54     270      133.8
   06/12/2016 12:50      65.2      64.5       63     52.1      0.00      8.37      75.7     0.35      1019.0     2       187         5       165        8.54     270      119.6
   06/12/2016 12:40      64.7      64.0       64     52.0      0.00      8.37      75.5     0.35      1019.0     5       169         7       184        8.54     269      112.3
   06/12/2016 12:30      64.9      64.3       64     52.0      0.00      8.37      75.8     0.35      1019.0     5       158         8       154        8.55     269      113.2
   06/12/2016 12:20      65.0      64.5       63     52.0      0.00      8.37      75.5     0.35      1019.0     4       183         5       163        8.54     270      150.7
   06/12/2016 12:10      64.6      64.1       65     52.1      0.00      8.37      75.3     0.35      1019.0     5       173         8       166        8.55     269      203.6
   06/12/2016 12:00      65.0      63.5       65     52.0      0.00      8.37      75.4     0.35      1019.0     5       214         7       238        8.55     269      225.9
   06/12/2016 11:50      64.4      63.4       66     52.3      0.00      8.37      75.6     0.35      1019.0     4       133         6       133        8.55     270      220.2
   06/12/2016 11:40      64.0      63.5       66     52.2      0.00      8.37      75.8     0.35      1019.0     3       152         6       155        8.55     270      254.4
   06/12/2016 11:30      63.8      63.2       67     52.4      0.00      8.37      75.4     0.35      1019.0     4       143         7       137        8.55     270      233.6
   06/12/2016 11:20      63.5      62.7       68     52.4      0.00      8.37      75.8     0.35      1019.0     4       167         6       171        8.55     270      207.1
   06/12/2016 11:10      63.1      62.4       69     52.4      0.00      8.37      76.2     0.35      1019.0     5       139         7       136        8.55     270      170.8
   06/12/2016 11:00      62.9      62.4       69     52.4      0.00      8.37      75.7     0.35      1019.0     4       154         6       164        8.55     270      131.2
   06/12/2016 10:50      62.9      62.4       70     52.6      0.00      8.37      75.7     0.35      1018.0     6       161         7       164        8.55     270      161.3
   06/12/2016 10:40      62.7      62.1       70     52.8      0.00      8.37      75.8     0.35      1018.0     4       196         5       202        8.55     270      180.5
   06/12/2016 10:30      62.4      61.9       71     52.8      0.00      8.37      75.8     0.36      1018.0     3       180         4       138        8.55     271      110.2
   06/12/2016 10:20      62.4      61.7       72     52.9      0.00      8.37      76.0     0.36      1018.0     3       182         5       149        8.55     271       78.0
   06/12/2016 10:10      61.9      61.4       74     53.1      0.00      8.37      76.2     0.36      1018.0     2       174         3       173        8.55     271       88.0
   06/12/2016 10:00      61.8      61.3       74     53.2      0.00      8.37      75.6     0.36      1018.0     3       164         4       143        8.55     271       61.5
   06/12/2016 09:50      61.3      61.1       75     53.3      0.00      8.37      75.7     0.36      1018.0     3       153         5       160        8.55     271       61.5
   06/12/2016 09:40      61.3      60.9       76     53.5      0.00      8.37      75.8     0.36      1018.0     3       166         6       140        8.55     271       87.1
   06/12/2016 09:30      61.3      60.9       76     53.4      0.00      8.37      76.0     0.36      1018.0     3       172         5       199        8.56     271       73.2
   06/12/2016 09:20      61.2      60.4       77     53.6      0.00      8.37      75.8     0.36      1018.0     3       167         4       136        8.56     271       68.6
   06/12/2016 09:10      60.6      60.3       78     53.6      0.00      8.37      76.0     0.36      1018.0     3       159         4       164        8.56     271       48.0
   06/12/2016 09:00      60.5      60.4       78     53.5      0.00      8.37      75.8     0.36      1018.0     4       152         6       150        8.56     271       29.8
   06/12/2016 08:50      60.5      60.4       77     53.2      0.00      8.37      75.8     0.36      1018.0     4       163         6       174        8.56     271       25.4
   06/12/2016 08:40      60.6      60.3       77     53.3      0.00      8.37      75.7     0.36      1018.0     4       164         5       162        8.56     271       32.5
   06/12/2016 08:30      60.5      60.0       78     53.4      0.00      8.37      75.7     0.36      1018.0     3       174         4       170        8.56     271       24.9
   06/12/2016 08:20      60.3      59.8       79     53.6      0.00      8.37      75.7     0.36      1018.0     3       189         7       173        8.56     271       25.9
   06/12/2016 08:10      60.6      60.0       79     53.9      0.00      8.37      75.7     0.36      1018.0     3       191         5       216        8.56     271       19.0
   06/12/2016 08:00      61.0      60.7       78     54.0      0.00      8.37      75.6     0.36      1018.0     4       144         6       200        8.56     271       18.2
   06/12/2016 07:50      61.0      60.8       78     53.8      0.00      8.37      76.0     0.36      1017.0     4       138         5       137        8.56     272       25.5
   06/12/2016 07:40      61.0      60.9       76     53.5      0.00      8.37      75.8     0.36      1017.0     3       124         4       130        8.56     272       13.8
   06/12/2016 07:30      61.1      60.9       76     53.4      0.00      8.37      76.0     0.36      1017.0     3       119         5       148        8.56     272        8.8
   06/12/2016 07:20      61.3      61.0       76     53.4      0.00      8.37      75.8     0.36      1017.0     2       104         5       148        8.56     272        7.9
   06/12/2016 07:10      61.1      60.9       76     53.3      0.00      8.37      75.9     0.36      1017.0     1       122         2       144        8.56     272        6.5
   06/12/2016 07:00      61.1      60.8       76     53.3      0.00      8.37      75.9     0.36      1017.0     1        59         2        63        8.56     272        7.3
   06/12/2016 06:50      60.9      60.6       77     53.4      0.00      8.37      76.4     0.36      1017.0     2        77         3        63        8.56     272        2.5
   06/12/2016 06:40      60.6      60.5       77     53.4      0.00      8.37      76.2     0.36      1017.0     2        85         3        77        8.57     272       -2.6
   06/12/2016 06:30      60.6      60.3       78     53.4      0.00      8.37      76.1     0.36      1017.0     2        97         3       117        8.57     272       -8.2
   06/12/2016 06:20      60.5      60.3       77     53.3      0.00      8.37      76.5     0.36      1017.0     2       117         4       136        8.57     272      -11.3
   06/12/2016 06:10      60.5      60.3       77     53.2      0.00      8.37      76.0     0.36      1016.0     2        93         4        74        8.57     272      -12.4
   06/12/2016 06:00      60.5      60.4       77     53.1      0.00      8.37      76.3     0.36      1016.0     3       120         3       127        8.57     272      -14.3
   06/12/2016 05:50      60.6      60.3       77     53.2      0.00      8.37      76.2     0.36      1016.0     2       114         3       160        8.57     272      -15.2
   06/12/2016 05:40      60.6      60.3       77     53.1      0.00      8.37      76.2     0.36      1016.0     2        88         3        86        8.57     272      -16.2
   06/12/2016 05:30      60.5      60.4       77     53.1      0.00      8.37      76.2     0.36      1016.0     2        74         3        73        8.57     272      -16.0
   06/12/2016 05:20      60.6      60.3       77     53.1      0.00      8.37      76.1     0.36      1016.0     2        81         3       119        8.57     272      -16.3
   06/12/2016 05:10      60.4      60.3       77     53.1      0.00      8.37      76.3     0.36      1016.0     2        80         3        80        8.57     272      -16.6
   06/12/2016 05:00      60.4      60.2       77     53.1      0.00      8.37      76.2     0.36      1016.0     2        71         3        61        8.57     272      -16.7
   06/12/2016 04:50      60.6      60.3       77     53.1      0.00      8.37      76.3     0.36      1016.0     2        79         4        90        8.57     272      -16.8
   06/12/2016 04:40      60.5      60.3       77     53.2      0.00      8.37      76.5     0.36      1016.0     1        82         3        68        8.57     272      -16.6
   06/12/2016 04:30      60.5      60.2       77     53.2      0.00      8.37      76.4     0.36      1016.0     2        99         3        62        8.57     272      -16.9
   06/12/2016 04:20      60.5      60.2       77     53.2      0.00      8.37      76.4     0.36      1016.0     2        80         2       119        8.57     272      -17.0
   06/12/2016 04:10      60.5      60.3       77     53.3      0.00      8.37      76.6     0.36      1015.0     2        78         3        85        8.57     272      -16.4
   06/12/2016 04:00      60.5      60.3       77     53.2      0.00      8.37      76.5     0.36      1015.0     2        81         3        81        8.57     272      -17.0
   06/12/2016 03:50      60.4      60.1       77     53.2      0.00      8.37      76.5     0.36      1015.0     2        71         3       113        8.57     272      -16.9
   06/12/2016 03:40      60.5      60.1       77     53.2      0.00      8.37      76.7     0.36      1015.0     3        84         4        62        8.57     272      -16.4
   06/12/2016 03:30      60.4      60.0       78     53.2      0.00      8.37      76.6     0.36      1015.0     2        69         4        77        8.57     272      -24.4
   06/12/2016 03:20      60.3      60.1       77     53.2      0.00      8.37      77.2     0.36      1015.0     2        78         5        71        8.57     272      -46.3
   06/12/2016 03:10      60.5      60.3       77     53.3      0.00      8.37      77.0     0.36      1015.0     2        68         4        68        8.57     272      -44.8
   06/12/2016 03:00      60.6      60.4       78     53.6      0.00      8.37      76.9     0.36      1015.0     3        86         5        85        8.57     272      -26.1
   06/12/2016 02:50      60.6      60.4       79     54.1      0.00      8.37      76.9     0.36      1015.0     2        63         3        68        8.57     272      -18.7
   06/12/2016 02:40      60.5      60.3       80     54.3      0.00      8.37      76.6     0.36      1015.0     1        85         2        74        8.57     272      -17.8
   06/12/2016 02:30      60.5      60.3       80     54.4      0.00      8.37      76.5     0.36      1015.0     1       111         2       124        8.57     272      -18.2
   06/12/2016 02:20      60.5      60.2       81     54.3      0.00      8.37      76.7     0.36      1015.0     2       104         2       162        8.58     272      -20.6
   06/12/2016 02:10      60.4      60.2       81     54.4      0.00      8.37      77.0     0.36      1015.0     2       165         3       179        8.58     272      -20.7
   06/12/2016 02:00      60.6      60.3       80     54.4      0.00      8.37      77.0     0.36      1015.0     2       114         3       137        8.58     272      -16.4
   06/12/2016 01:50      60.6      60.4       80     54.4      0.00      8.37      76.6     0.36      1015.0     3       144         5       133        8.58     272      -17.0
   06/12/2016 01:40      60.8      60.5       80     54.5      0.00      8.37      76.7     0.36      1016.0     2       129         3       171        8.58     272      -14.7
   06/12/2016 01:30      60.9      60.8       80     54.5      0.00      8.37      77.2     0.36      1015.0     2       112         2        99        8.58     272      -14.0
   06/12/2016 01:20      60.9      60.5       80     54.6      0.00      8.37      76.6     0.36      1015.0     1        38         2        22        8.58     272      -14.0
   06/12/2016 01:10      60.6      60.5       81     54.7      0.00      8.37      76.7     0.36      1016.0     2        65         3        63        8.58     272      -14.7
   06/12/2016 01:00      60.6      60.4       82     54.8      0.00      8.37      76.7     0.36      1016.0     1        52         2        29        8.58     272      -14.7
   06/12/2016 00:50      60.5      60.3       82     54.8      0.00      8.37      76.9     0.36      1016.0     1        61         2        38        8.58     272      -14.3
   06/12/2016 00:40      60.6      60.3       82     54.9      0.00      8.37      77.0     0.36      1016.0     1        29         1        61        8.58     272      -14.2
   06/12/2016 00:30      60.6      60.3       82     55.0      0.00      8.37      77.1     0.36      1016.0     1        41         1        16        8.58     272      -14.0
   06/12/2016 00:20      60.4      60.0       83     54.9      0.00      8.37      77.0     0.36      1016.0     2        19         2       353        8.58     272      -13.9
   06/12/2016 00:10      60.1      59.9       83     54.8      0.00      8.37      77.0     0.36      1016.0     1        64         2        69        8.58     272      -13.8
   06/12/2016 00:00      60.1      59.9       83     54.7      0.00      8.37      77.2     0.36      1016.0     1       235         1       268        8.58     272      -14.8
   06/11/2016 23:50      60.0      59.8       83     54.6      0.00      8.37      77.5     0.36      1016.0     1       222         1       222        8.58     271      -14.4
   06/11/2016 23:40      60.1      59.8       82     54.5      0.00      8.37      77.2     0.36      1016.0     1       173         2       169        8.58     272      -15.0
   06/11/2016 23:30      60.2      60.0       82     54.4      0.00      8.37      77.0     0.36      1016.0     1       186         2       171        8.58     272      -15.5
   06/11/2016 23:20      60.3      59.9       82     54.5      0.00      8.37      77.3     0.36      1016.0     1       183         2       155        8.58     271      -15.9
   06/11/2016 23:10      60.9      60.3       80     54.4      0.00      8.37      76.9     0.36      1016.0     2       187         3       205        8.58     271      -17.1
   06/11/2016 23:00      61.3      60.9       78     54.0      0.00      8.37      77.2     0.36      1016.0     2       114         3       181        8.58     271      -17.5
   06/11/2016 22:50      61.5      61.2       75     53.4      0.00      8.37      76.8     0.36      1016.0     2       150         3       180        8.58     271      -16.6
   06/11/2016 22:40      61.5      61.3       74     53.1      0.00      8.37      77.2     0.36      1016.0     3       175         4       157        8.58     271      -16.4
   06/11/2016 22:30      61.7      61.6       73     53.0      0.00      8.37      77.4     0.36      1016.0     2       153         4       161        8.58     271      -16.9
   06/11/2016 22:20      61.8      61.6       73     52.9      0.00      8.37      77.1     0.36      1015.0     3       110         3       125        8.58     271      -17.0
   06/11/2016 22:10      61.9      61.6       73     52.8      0.00      8.37      77.1     0.36      1016.0     3       123         4       144        8.58     271      -18.0
   06/11/2016 22:00      61.8      61.7       72     52.6      0.00      8.37      77.1     0.36      1015.0     2       135         4       153        8.58     271      -21.4
   06/11/2016 21:50      62.0      61.7       71     52.5      0.00      8.37      77.5     0.36      1015.0     2       103         3       140        8.58     271      -23.4
   06/11/2016 21:40      62.0      61.8       71     52.5      0.00      8.37      77.3     0.36      1015.0     3       125         4       147        8.58     271      -18.8
   06/11/2016 21:30      62.1      61.8       71     52.4      0.00      8.37      77.2     0.36      1015.0     3       137         5       138        8.59     271      -19.5
   06/11/2016 21:20      62.3      62.1       70     52.4      0.00      8.37      77.2     0.36      1015.0     1       105         2       197        8.59     271      -20.2
   06/11/2016 21:10      62.3      62.0       70     52.1      0.00      8.37      77.4     0.36      1015.0     1       210         2       293        8.59     271      -20.5
   06/11/2016 21:00      62.3      61.8       69     51.8      0.00      8.37      77.5     0.36      1015.0     1       141         3       167        8.59     271      -22.6
   06/11/2016 20:50      62.3      62.0       68     51.5      0.00      8.37      77.7     0.36      1015.0     2       172         3       173        8.59     270      -23.4
   06/11/2016 20:40      62.5      62.1       68     51.6      0.00      8.37      77.4     0.36      1015.0     3       161         5       140        8.59     270      -20.7
   06/11/2016 20:30      62.8      62.5       68     52.0      0.00      8.37      77.2     0.36      1015.0     3       155         4       153        8.59     271      -20.6
   06/11/2016 20:20      62.9      62.7       69     52.3      0.00      8.37      77.6     0.36      1015.0     2       144         4       163        8.59     271      -21.2
   06/11/2016 20:10      62.9      62.7       69     52.6      0.00      8.37      77.7     0.36      1015.0     3       123         4       116        8.59     271      -20.5
   06/11/2016 20:00      63.0      62.8       69     52.6      0.00      8.37      77.4     0.36      1015.0     3       132         4       136        8.59     271      -19.1
   06/11/2016 19:50      63.1      62.8       69     52.8      0.00      8.37      77.0     0.36      1014.0     2       124         3       152        8.59     271      -18.4
   06/11/2016 19:40      63.3      63.0       70     53.1      0.00      8.37      77.3     0.36      1014.0     3        98         3        63        8.59     271      -13.6
   06/11/2016 19:30      63.3      63.0       70     53.1      0.00      8.37      77.3     0.36      1014.0     1        96         2       110        8.59     270       -6.2
   06/11/2016 19:20      63.3      63.1       70     53.3      0.00      8.37      77.4     0.36      1014.0     3        84         5        72        8.59     270        1.0
   06/11/2016 19:10      63.3      62.9       71     53.4      0.00      8.37      77.7     0.36      1014.0     1        93         3       102        8.59     270        7.2
   06/11/2016 19:00      63.4      62.9       71     53.6      0.00      8.37      77.3     0.36      1014.0     2        98         3       136        8.59     270       14.5
   06/11/2016 18:50      63.2      62.7       71     53.6      0.00      8.37      77.6     0.36      1014.0     3        90         4        75        8.59     270       10.1
   06/11/2016 18:40      63.0      62.8       71     53.3      0.00      8.37      77.3     0.36      1014.0     1       200         2        92        8.59     270        6.3
   06/11/2016 18:30      62.9      62.5       71     53.2      0.00      8.37      77.6     0.36      1014.0     1       167         2       114        8.60     270        4.8
   06/11/2016 18:20      62.7      62.2       71     53.1      0.00      8.37      77.2     0.36      1014.0     3       181         4       201        8.60     270        8.5
   06/11/2016 18:10      62.5      62.4       71     53.0      0.00      8.37      77.4     0.36      1014.0     2       156         5       156        8.60     270       15.1
   06/11/2016 18:00      62.8      62.3       71     52.9      0.00      8.37      77.3     0.36      1014.0     3       142         5       137        8.60     270       18.1
   06/11/2016 17:50      62.7      62.4       71     52.9      0.00      8.37      77.2     0.36      1014.0     4       157         6       156        8.60     269       23.7
   06/11/2016 17:40      62.8      62.2       71     52.9      0.00      8.37      77.5     0.36      1014.0     4       160         6       149        8.60     270       20.3
   06/11/2016 17:30      62.5      62.3       72     53.4      0.00      8.37      77.5     0.36      1014.0     4       177         6       182        8.60     269       17.4
   06/11/2016 17:20      62.9      62.8       72     53.6      0.00      8.37      77.8     0.36      1014.0     4       171         5       160        8.60     270       21.7
   06/11/2016 17:10      63.1      62.5       72     53.6      0.00      8.37      77.8     0.36      1014.0     3       163         5       203        8.60     270       33.8
   06/11/2016 17:00      63.1      62.7       72     53.7      0.00      8.37      78.1     0.36      1014.0     3       153         4       157        8.60     270       39.9
   06/11/2016 16:50      62.9      62.4       73     53.7      0.00      8.37      77.8     0.36      1014.0     2       169         5       158        8.60     270       43.4
   06/11/2016 16:40      62.7      62.2       74     54.0      0.00      8.37      77.7     0.36      1014.0     4       171         4       190        8.60     270       55.1
   06/11/2016 16:30      62.9      62.3       74     54.3      0.00      8.37      77.7     0.36      1014.0     3       158         6       170        8.60     269       52.7
   06/11/2016 16:20      62.4      62.0       75     54.2      0.00      8.37      78.2     0.36      1015.0     4       177         6       160        8.60     270       53.1
   06/11/2016 16:10      62.4      62.1       75     54.2      0.00      8.37      77.7     0.36      1015.0     5       167         7       172        8.60     270       48.7
   06/11/2016 16:00      62.5      62.2       76     54.5      0.00      8.37      77.6     0.36      1015.0     5       156         8       152        8.60     270       46.8
   06/11/2016 15:50      62.7      62.2       76     54.8      0.00      8.37      77.7     0.36      1015.0     4       155         8       158        8.60     270       54.6
   06/11/2016 15:40      62.7      62.2       77     55.0      0.00      8.37      77.8     0.36      1015.0     3       176         5       198        8.61     270       55.4
   06/11/2016 15:30      62.8      62.3       77     55.1      0.00      8.37      77.7     0.36      1015.0     5       165         9       164        8.61     270       57.0
   06/11/2016 15:20      63.0      62.5       76     55.3      0.00      8.37      77.6     0.36      1015.0     5       167         7       148        8.61     270       93.3
   06/11/2016 15:10      63.5      62.9       75     55.2      0.00      8.37      77.7     0.36      1015.0     4       150         7       160        8.61     270       68.8
   06/11/2016 15:00      63.5      63.1       75     55.2      0.00      8.37      77.5     0.36      1015.0     4       165         7       174        8.61     270       84.7
   06/11/2016 14:50      63.4      62.8       76     55.5      0.00      8.37      77.8     0.36      1015.0     3       156         5       127        8.61     270      104.0
   06/11/2016 14:40      63.1      62.5       77     55.6      0.00      8.37      77.7     0.36      1015.0     4       175         6       160        8.61     270       80.1
   06/11/2016 14:30      63.1      62.6       77     55.6      0.00      8.37      77.5     0.36      1015.0     4       154         7       140        8.61     270       90.4
   06/11/2016 14:20      63.0      62.5       77     55.6      0.00      8.37      77.5     0.36      1015.0     5       165         9       152        8.61     270       77.2
   06/11/2016 14:10      62.6      62.3       78     55.4      0.00      8.37      77.6     0.36      1015.0     4       195         6       209        8.61     270       78.5
   06/11/2016 14:00      62.7      62.2       78     55.5      0.00      8.37      78.0     0.36      1015.0     4       170         5       158        8.61     270       61.5
   06/11/2016 13:50      62.6      62.3       78     55.5      0.00      8.37      78.0     0.36      1015.0     6       170         8       185        8.61     270       75.8
   06/11/2016 13:40      62.5      62.0       78     55.4      0.00      8.37      77.8     0.36      1015.0     6       172         9       157        8.61     270       68.9
   06/11/2016 13:30      63.5      62.5       77     55.7      0.00      8.37      78.0     0.36      1015.0     7       172        10       184        8.61     269       61.6
   06/11/2016 13:20      64.2      63.5       75     56.0      0.00      8.37      77.6     0.36      1015.0     6       189         8       205        8.61     269      193.9
   06/11/2016 13:10      65.0      63.5       74     55.9      0.00      8.37      77.3     0.36      1015.0     5       176         7       192        8.61     270      196.7
   06/11/2016 13:00      65.0      63.9       74     56.0      0.00      8.37      77.9     0.36      1015.0     3       109         6       163        8.61     271      156.8
   06/11/2016 12:50      64.0      63.1       77     56.3      0.00      8.37      77.8     0.36      1015.0     2       136         4       200        8.61     271      112.7
   06/11/2016 12:40      63.3      62.9       77     56.0      0.00      8.37      77.8     0.36      1015.0     3       211         5       236        8.61     271       98.1
   06/11/2016 12:30      63.3      62.8       77     55.8      0.00      8.37      77.7     0.36      1015.0     3       160         4       119        8.61     271      105.9
   06/11/2016 12:20      63.5      62.9       77     55.8      0.00      8.37      78.0     0.36      1015.0     3       118         7       124        8.62     271      104.9
   06/11/2016 12:10      63.0      62.5       78     55.8      0.00      8.37      77.8     0.36      1015.0     3       188         4       170        8.62     271      116.0
   06/11/2016 12:00      62.9      62.5       78     55.8      0.00      8.37      77.6     0.36      1015.0     4       169         5       141        8.62     271      144.8
   06/11/2016 11:50      63.0      62.4       77     55.4      0.00      8.37      78.2     0.36      1015.0     5       157         7       172        8.62     270      118.7
   06/11/2016 11:40      63.1      62.5       77     55.4      0.00      8.37      78.0     0.36      1015.0     5       157         6       170        8.62     270      122.6
   06/11/2016 11:30      62.7      62.2       78     55.5      0.00      8.37      78.0     0.36      1015.0     4       161         6       170        8.62     271      155.7
   06/11/2016 11:20      62.2      61.1       80     55.6      0.00      8.37      78.0     0.36      1015.0     4       170         8       184        8.62     271      148.4
   06/11/2016 11:10      61.3      60.8       83     55.9      0.00      8.37      78.1     0.36      1015.0     5       155         8       170        8.62     271      103.9
   06/11/2016 11:00      61.2      60.5       84     56.0      0.00      8.37      77.7     0.36      1015.0     5       154        10       166        8.62     271       67.3
   06/11/2016 10:50      61.5      61.1       83     56.2      0.00      8.37      77.9     0.36      1015.0     6       171         8       163        8.62     271       75.6
   06/11/2016 10:40      61.5      61.3       85     56.9      0.00      8.37      78.4     0.36      1015.0     5       175         6       148        8.62     271      107.3
   06/11/2016 10:30      62.5      61.6       82     56.5      0.00      8.37      77.7     0.36      1015.0     5       183         6       152        8.62     272       71.4
   06/11/2016 10:20      63.2      62.8       79     56.3      0.00      8.37      78.2     0.36      1015.0     3       131         6       171        8.62     273      113.1
   06/11/2016 10:10      63.0      61.9       80     56.2      0.00      8.37      78.0     0.36      1015.0     2        88         5        81        8.62     273      114.1
   06/11/2016 10:00      62.1      61.7       82     56.2      0.00      8.37      78.2     0.36      1015.0     3        85         4        65        8.62     274       76.5
   06/11/2016 09:50      61.9      61.5       83     56.3      0.00      8.37      78.5     0.36      1015.0     3       115         6       142        8.62     274       59.3
   06/11/2016 09:40      62.0      61.6       83     56.7      0.00      8.37      78.0     0.36      1015.0     3       112         5       133        8.62     275       67.1
   06/11/2016 09:30      62.3      61.8       81     56.3      0.00      8.37      78.6     0.36      1015.0     3       123         5       113        8.62     275       60.0
   06/11/2016 09:20      62.1      61.6       81     56.1      0.00      8.37      78.3     0.36      1015.0     3        74         4        83        8.62     275       62.0
   06/11/2016 09:10      62.0      61.3       82     56.1      0.00      8.37      78.2     0.36      1014.0     3        90         4        71        8.62     276       60.8
   06/11/2016 09:00      61.6      61.3       83     56.1      0.00      8.37      78.3     0.36      1014.0     3       106         4       107        8.62     276       58.1
   06/11/2016 08:50      61.5      61.0       84     56.3      0.00      8.37      78.3     0.36      1014.0     2        79         4        66        8.62     276       48.8
   06/11/2016 08:40      61.6      61.2       83     56.1      0.00      8.37      78.3     0.36      1014.0     3        97         4       145        8.62     276       30.0
   06/11/2016 08:30      61.8      61.6       81     55.6      0.00      8.37      78.6     0.36      1014.0     2        77         4        64        8.62     276       27.5
   06/11/2016 08:20      61.8      61.4       80     55.4      0.00      8.37      78.5     0.36      1014.0     2        72         4        71        8.62     276       10.2
   06/11/2016 08:10      61.6      61.3       80     55.1      0.00      8.37      78.5     0.36      1014.0     2        78         5        58        8.62     277       10.7
   06/11/2016 08:00      61.6      61.2       79     54.9      0.00      8.37      78.7     0.36      1014.0     3        68         4        80        8.62     277       15.8
   06/11/2016 07:50      61.5      60.8       80     54.8      0.00      8.37      78.6     0.36      1014.0     3        57         5        86        8.62     277       17.1
   06/11/2016 07:40      61.0      60.8       80     54.7      0.00      8.37      78.8     0.36      1014.0     3        97         5       109        8.62     276        6.5
   06/11/2016 07:30      61.1      60.8       80     54.6      0.00      8.37      78.2     0.36      1014.0     4        90         7        94        8.62     277       15.9
   06/11/2016 07:20      60.9      60.7       80     54.7      0.00      8.37      78.2     0.36      1014.0     4        92         6        71        8.62     277       15.5
   06/11/2016 07:10      61.0      60.7       81     54.9      0.00      8.37      78.4     0.36      1014.0     3       112         4       140        8.62     277        6.6
   06/11/2016 07:00      60.8      60.6       81     54.9      0.00      8.37      78.6     0.36      1014.0     3       120         4       143        8.63     277       -5.1
   06/11/2016 06:50      60.9      60.6       81     54.9      0.00      8.37      78.7     0.36      1014.0     3       115         4       114        8.63     277       -6.9
   06/11/2016 06:40      60.9      60.8       81     54.8      0.00      8.37      78.6     0.36      1014.0     2       108         3       125        8.63     277       -6.6
   06/11/2016 06:30      60.9      60.6       80     54.7      0.00      8.37      79.0     0.36      1014.0     2       118         3       133        8.63     277       -8.6
   06/11/2016 06:20      61.0      60.6       80     54.5      0.00      8.37      79.0     0.36      1014.0     3       131         4       148        8.63     277      -11.2
   06/11/2016 06:10      60.9      60.6       80     54.4      0.00      8.37      78.5     0.36      1014.0     3       127         4       151        8.63     277      -12.3
   06/11/2016 06:00      60.9      60.5       80     54.5      0.00      8.37      79.0     0.36      1013.0     1        64         3       101        8.63     276      -14.0
   06/11/2016 05:50      60.6      60.4       81     54.5      0.00      8.37      79.0     0.36      1013.0     2        99         4       120        8.63     276      -15.1
   06/11/2016 05:40      60.6      60.3       81     54.6      0.00      8.37      78.9     0.36      1013.0     2       131         3       149        8.63     277      -15.5
   06/11/2016 05:30      60.5      60.2       81     54.5      0.00      8.37      78.7     0.36      1013.0     4       122         6       132        8.63     277      -15.4
   06/11/2016 05:20      60.5      60.3       81     54.5      0.00      8.37      78.7     0.36      1013.0     2       135         4       141        8.63     276      -15.4
   06/11/2016 05:10      60.5      60.1       81     54.5      0.00      8.37      78.5     0.36      1013.0     3       118         6       115        8.63     276      -15.4
   06/11/2016 05:00      60.4      60.1       81     54.5      0.00      8.37      78.9     0.36      1013.0     3       113         4        89        8.63     276      -15.4
   06/11/2016 04:50      60.3      60.1       81     54.4      0.00      8.37      78.8     0.36      1013.0     3       109         4       129        8.63     276      -15.5
   06/11/2016 04:40      60.3      59.9       81     54.3      0.00      8.37      79.2     0.36      1013.0     3       119         5       137        8.63     275      -15.6
   06/11/2016 04:30      60.3      60.0       81     54.2      0.00      8.37      79.2     0.36      1013.0     3        89         5       132        8.63     275      -15.7
   06/11/2016 04:20      60.5      60.1       80     54.0      0.00      8.37      79.1     0.36      1013.0     4        92         6       113        8.63     275      -15.6
   06/11/2016 04:10      60.4      60.1       80     54.0      0.00      8.37      78.8     0.36      1013.0     2        78         4        65        8.63     275      -18.4
   06/11/2016 04:00      60.4      60.0       80     53.9      0.00      8.37      79.5     0.36      1013.0     3        93         6       101        8.63     274      -21.6
   06/11/2016 03:50      60.3      60.1       80     54.0      0.00      8.37      79.4     0.36      1013.0     4        95         5       101        8.63     274      -17.0
   06/11/2016 03:40      60.5      60.3       80     54.1      0.00      8.37      79.0     0.36      1013.0     4        91         5        96        8.63     274      -19.1
   06/11/2016 03:30      60.5      60.3       80     54.0      0.00      8.37      79.0     0.36      1013.0     2        73         5       106        8.63     274      -24.5
   06/11/2016 03:20      60.4      60.1       79     53.9      0.00      8.37      79.5     0.36      1013.0     2       101         3        66        8.63     273      -32.9
   06/11/2016 03:10      60.5      60.3       79     53.9      0.00      8.37      79.5     0.36      1013.0     2        53         4        69        8.63     273      -36.0
   06/11/2016 03:00      60.5      60.0       80     54.1      0.00      8.37      79.3     0.36      1013.0     2        65         3       101        8.64     272      -37.4
   06/11/2016 02:50      60.2      60.0       80     54.1      0.00      8.37      79.5     0.36      1013.0     2        99         3       132        8.64     272      -40.9
   06/11/2016 02:40      60.4      60.1       81     54.4      0.00      8.37      79.4     0.36      1013.0     2       107         4       134        8.64     271      -56.3
   06/11/2016 02:30      60.5      60.4       81     54.7      0.00      8.37      79.5     0.36      1013.0     3        84         5        72        8.64     271      -47.7
   06/11/2016 02:20      60.5      60.4       82     54.9      0.00      8.37      79.6     0.36      1013.0     3        78         5        75        8.64     270      -31.7
   06/11/2016 02:10      61.0      60.5       82     55.1      0.00      8.37      79.4     0.36      1013.0     4        95         5       104        8.64     270      -37.9
   06/11/2016 02:00      61.2      61.1       81     55.3      0.00      8.37      79.3     0.37      1013.0     3       130         4       111        8.64     270      -24.0
   06/11/2016 01:50      61.5      61.1       81     55.5      0.00      8.37      79.7     0.36      1013.0     4        93         6       126        8.64     270      -21.5
   06/11/2016 01:40      61.8      61.5       81     55.6      0.00      8.37      79.4     0.37      1013.0     4        91         7        94        8.64     270      -24.2
   06/11/2016 01:30      61.8      61.7       81     55.8      0.00      8.37      79.4     0.36      1013.0     4       118         6        97        8.64     270      -26.5
   06/11/2016 01:20      62.2      61.8       80     55.9      0.00      8.37      79.5     0.37      1013.0     4        97         6       139        8.64     270      -28.1
   06/11/2016 01:10      62.7      62.1       79     56.0      0.00      8.37      79.5     0.37      1013.0     3       111         6       128        8.64     270      -31.7
   06/11/2016 01:00      62.8      62.6       79     56.1      0.00      8.37      79.8     0.37      1013.0     2        72         4        86        8.64     270      -25.1
   06/11/2016 00:50      62.8      62.5       79     56.0      0.00      8.37      80.1     0.37      1013.0     2        64         4        70        8.65     270      -22.5
   06/11/2016 00:40      62.8      62.5       79     56.1      0.00      8.37      79.5     0.37      1013.0     2        54         3        21        8.65     270      -26.4
   06/11/2016 00:30      62.5      62.3       80     56.0      0.00      8.37      79.2     0.37      1013.0     2        54         3        68        8.65     270      -28.4
   06/11/2016 00:20      62.4      62.2       80     56.0      0.00      8.37      79.8     0.37      1013.0     2        73         4        82        8.65     270      -27.2
   06/11/2016 00:10      62.3      62.0       80     55.9      0.00      8.37      79.7     0.37      1013.0     2        92         3       101        8.65     270      -28.4
   06/11/2016 00:00      62.1      61.7       80     55.7      0.00      8.37      79.8     0.37      1013.0     2       113         3       149        8.65     270      -36.8
   06/10/2016 23:50      62.0      61.8       80     55.7      0.00      8.37      79.6     0.37      1013.0     2       112         4       129        8.65     270      -41.0
   06/10/2016 23:40      62.0      61.7       80     55.7      0.00      8.37      79.9     0.37      1013.0     3       128         4       122        8.65     270      -44.1
   06/10/2016 23:30      61.8      61.7       80     55.7      0.00      8.37      79.8     0.37      1013.0     3       148         5       164        8.66     270      -50.8
   06/10/2016 23:20      62.2      61.8       80     55.7      0.00      8.37      79.7     0.37      1013.0     4       135         6       112        8.66     270      -59.4
   06/10/2016 23:10      62.6      62.2       79     55.8      0.00      8.37      79.9     0.37      1013.0     5       115         8       134        8.66     270      -60.4
   06/10/2016 23:00      63.5      63.0       76     55.6      0.00      8.37      79.7     0.37      1013.0     5       130         8       132        8.66     270      -59.3
   06/10/2016 22:50      64.4      63.8       72     55.0      0.00      8.37      79.5     0.37      1013.0     4       136         8       125        8.66     269      -60.7
   06/10/2016 22:40      65.0      64.5       71     55.2      0.00      8.37      80.1     0.37      1013.0     4       130         6       126        8.66     270      -53.7
   06/10/2016 22:30      65.3      65.0       70     55.3      0.00      8.37      79.7     0.37      1013.0     4       127         5       136        8.66     270      -45.3
   06/10/2016 22:20      65.7      65.3       69     55.2      0.00      8.37      79.8     0.37      1013.0     3       125         5       139        8.66     269      -41.1
   06/10/2016 22:10      65.8      65.6       69     55.3      0.00      8.37      79.7     0.37      1013.0     2       117         4       126        8.66     269      -40.4
   06/10/2016 22:00      66.0      65.7       69     55.5      0.00      8.37      79.7     0.37      1013.0     3       119         5       138        8.67     270      -44.2
   06/10/2016 21:50      66.3      66.1       68     55.4      0.00      8.37      79.8     0.37      1013.0     2        94         4       113        8.67     269      -52.7
   06/10/2016 21:40      66.4      66.1       67     55.1      0.00      8.37      79.6     0.37      1013.0     2       140         3       127        8.67     269      -64.1
   06/10/2016 21:30      66.7      66.2       66     55.0      0.00      8.37      79.6     0.37      1012.0     3       146         5       148        8.67     269      -72.9
   06/10/2016 21:20      67.3      66.8       63     54.2      0.00      8.37      80.0     0.37      1012.0     3       136         4       150        8.67     269      -77.1
   06/10/2016 21:10      67.8      67.3       60     53.4      0.00      8.37      79.6     0.37      1012.0     3       125         5       124        8.67     269      -78.6
   06/10/2016 21:00      68.4      67.8       58     52.6      0.00      8.37      79.8     0.37      1012.0     3       109         5       129        8.68     269      -78.9
   06/10/2016 20:50      69.1      68.4       54     51.5      0.00      8.37      80.0     0.37      1012.0     3       115         4       128        8.68     269      -80.3
   06/10/2016 20:40      69.4      69.1       52     51.1      0.00      8.37      79.7     0.37      1012.0     3       132         4       143        8.68     269      -85.3
   06/10/2016 20:30      70.3      69.6       50     50.5      0.00      8.37      79.5     0.37      1012.0     4       139         5       132        8.68     268      -87.4
   06/10/2016 20:20      70.9      70.2       48     49.8      0.00      8.37      79.6     0.37      1012.0     3       140         4       164        8.69     268      -87.9
   06/10/2016 20:10      71.7      71.1       46     49.3      0.00      8.37      79.7     0.37      1012.0     3       131         6       126        8.69     268      -87.5
   06/10/2016 20:00      72.4      71.7       43     48.5      0.00      8.37      79.5     0.37      1012.0     2       106         3       135        8.69     268      -87.2
   06/10/2016 19:50      73.3      72.6       41     47.8      0.00      8.37      79.6     0.37      1012.0     3        97         5        91        8.69     268      -86.3
   06/10/2016 19:40      73.7      73.2       39     47.0      0.00      8.37      79.7     0.37      1012.0     4       124         5       136        8.70     268      -83.4
   06/10/2016 19:30      74.6      73.7       37     46.4      0.00      8.37      79.8     0.37      1012.0     5       133         7       128        8.70     268      -73.3
   06/10/2016 19:20      75.3      74.9       36     46.4      0.00      8.37      79.4     0.37      1012.0     4       128         6       137        8.70     267      -50.6
   06/10/2016 19:10      75.5      75.2       35     46.0      0.00      8.37      79.5     0.37      1012.0     4       112         7       129        8.70     267      -15.4
   06/10/2016 19:00      75.5      75.2       34     45.4      0.00      8.37      79.5     0.37      1011.0     5       125         8       121        8.71     267      -25.2
   06/10/2016 18:50      75.6      74.8       34     45.1      0.00      8.37      79.5     0.37      1011.0     6       130         9       131        8.71     267      -24.8
   06/10/2016 18:40      76.8      75.5       34     45.8      0.00      8.37      79.3     0.37      1011.0     7       126         9       128        8.71     267      -24.0
   06/10/2016 18:30      77.9      77.3       33     46.5      0.00      8.37      79.2     0.37      1011.0     6       137        11       167        8.72     267       66.3
   06/10/2016 18:20      79.3      78.5       31     45.6      0.00      8.37      79.4     0.37      1011.0     6       126        10       143        8.72     267      103.7
   06/10/2016 18:10      79.3      78.7       27     42.2      0.00      8.37      79.4     0.37      1011.0     6       142         8       135        8.72     267      122.1
   06/10/2016 18:00      80.3      79.2       27     42.9      0.00      8.37      79.4     0.37      1011.0     6       125         7       134        8.72     267      128.4
   06/10/2016 17:50      81.4      80.4       25     42.0      0.00      8.37      79.5     0.37      1011.0     4       129         8       125        8.73     267      107.5
   06/10/2016 17:40      81.5      80.8       28     44.8      0.00      8.37      79.3     0.37      1011.0     4        94         6       135        8.73     267      144.4
   06/10/2016 17:30      81.3      80.2       26     43.2      0.00      8.37      79.2     0.37      1011.0     4       146         7       168        8.73     267      160.4
   06/10/2016 17:20      81.0      80.3       26     42.2      0.00      8.37      79.3     0.37      1011.0     4       116         6       141        8.74     267      237.6
   06/10/2016 17:10      80.8      80.3       25     41.5      0.00      8.37      79.0     0.37      1011.0     5       143         7       140        8.74     267      239.7
   06/10/2016 17:00      81.2      80.3       25     41.1      0.00      8.37      79.3     0.37      1011.0     4       163         7       179        8.75     267      234.4
   06/10/2016 16:50      81.3      80.7       23     39.8      0.00      8.37      79.4     0.37      1011.0     6       152        10       142        8.75     267      299.9
   06/10/2016 16:40      81.5      80.7       25     42.5      0.00      8.37      79.0     0.37      1011.0     7       136         8       151        8.76     267      294.4
   06/10/2016 16:30      82.1      80.9       26     43.2      0.00      8.37      79.1     0.37      1011.0     6       130        12       145        8.76     267      353.7
   06/10/2016 16:20      82.8      81.1       26     44.1      0.00      8.37      78.5     0.37      1012.0     7       147        12       127        8.77     267      367.2
   06/10/2016 16:10      83.1      82.1       29     47.1      0.00      8.37      78.9     0.37      1012.0     6       141         9       112        8.77     268      379.1
   06/10/2016 16:00      85.1      83.5       27     46.4      0.00      8.37      78.6     0.37      1012.0     7       120        11       126        8.77     268      416.1
   06/10/2016 15:50      84.8      83.4       29     48.4      0.00      8.37      78.8     0.37      1012.0     3       103         7        82        8.77     268      422.9
   06/10/2016 15:40      83.8      83.4       33     51.2      0.00      8.37      78.5     0.37      1012.0     3        40         5        75        8.78     269      401.4
   06/10/2016 15:30      83.2      81.8       35     52.5      0.00      8.37      78.5     0.37      1012.0     3        40         4        29        8.78     269      428.7
   06/10/2016 15:20      82.9      82.0       34     51.8      0.00      8.37      78.8     0.37      1012.0     4        82         7        84        8.78     269      461.2
   06/10/2016 15:10      82.9      82.0       35     52.5      0.00      8.37      78.6     0.37      1012.0     4        47         5        64        8.79     269      436.2
   06/10/2016 15:00      82.8      82.1       35     52.5      0.00      8.37      78.4     0.37      1012.0     4        81         6        82        8.79     268      452.0
   06/10/2016 14:50      83.0      82.1       36     53.0      0.00      8.37      78.5     0.37      1012.0     4        70         6        87        8.80     269      490.1
   06/10/2016 14:40      83.3      82.1       37     53.7      0.00      8.37      78.4     0.37      1012.0     6        50        10        30        8.80     269      506.5
   06/10/2016 14:30      83.2      82.3       37     53.9      0.00      8.37      78.3     0.37      1012.0     4        46         7        75        8.81     269      558.7
   06/10/2016 14:20      82.8      82.0       37     53.6      0.00      8.37      78.4     0.37      1013.0     4        52         6        61        8.81     269      540.6
   06/10/2016 14:10      81.8      79.9       40     54.2      0.00      8.37      78.6     0.37      1013.0     5        27         7        30        8.81     270      529.6
   06/10/2016 14:00      80.3      79.7       43     55.3      0.00      8.37      78.4     0.37      1013.0     4        68         7        71        8.82     270      325.0
   06/10/2016 13:50      80.2      79.6       44     56.3      0.00      8.37      78.6     0.37      1013.0     4        30         5        19        8.82     270      300.8
   06/10/2016 13:40      79.7      79.1       47     57.5      0.00      8.37      78.1     0.37      1013.0     4        64         7        41        8.82     270      362.2
   06/10/2016 13:30      80.1      79.1       46     57.1      0.00      8.37      78.0     0.37      1013.0     4        51         6        59        8.82     271      379.9
   06/10/2016 13:20      80.5      80.1       46     57.7      0.00      8.37      78.3     0.37      1013.0     4        36         6        23        8.82     271      427.5
   06/10/2016 13:10      81.1      79.1       48     58.7      0.00      8.37      78.0     0.37      1013.0     4        55         7        76        8.82     272      484.5
   06/10/2016 13:00      79.7      77.9       51     59.0      0.00      8.37      78.4     0.37      1013.0     4        40         6       126        8.82     276      517.1
   06/10/2016 12:50      79.8      79.1       50     59.1      0.00      8.37      77.9     0.37      1013.0     4        25         7        72        8.82     280      522.8
   06/10/2016 12:40      78.8      76.8       52     58.8      0.00      8.37      78.6     0.37      1014.0     3        25         6        89        8.82     282      528.2
   06/10/2016 12:30      77.8      76.2       53     58.6      0.00      8.37      78.1     0.37      1014.0     3        28         5        89        8.83     282      463.7
   06/10/2016 12:20      77.6      76.0       54     58.6      0.00      8.37      78.2     0.37      1014.0     2         7         6         8        8.83     285      518.5
   06/10/2016 12:10      76.4      75.4       55     58.5      0.00      8.37      78.3     0.37      1014.0     3         6         5       335        8.83     286      479.4
   06/10/2016 12:00      75.1      72.7       58     58.4      0.00      8.37      78.1     0.37      1014.0     3       305         5       316        8.83     287      562.3
   06/10/2016 11:50      72.6      72.0       61     58.0      0.00      8.37      77.9     0.37      1014.0     3       102         5        82        8.83     287      501.1
   06/10/2016 11:40      73.1      71.2       61     58.0      0.00      8.37      78.4     0.37      1014.0     2        14         3       114        8.83     289      526.1
   06/10/2016 11:30      72.3      71.8       61     58.0      0.00      8.37      78.5     0.37      1014.0     3       344         5        29        8.83     292      552.9
   06/10/2016 11:20      72.3      70.9       63     58.1      0.00      8.37      78.3     0.37      1014.0     3       314         5       348        8.83     293      578.7
   06/10/2016 11:10      70.8      70.2       64     57.8      0.00      8.37      78.6     0.37      1015.0     2        31         3        46        8.83     295      564.1
   06/10/2016 11:00      70.5      68.9       65     57.8      0.00      8.37      78.9     0.37      1015.0     2        41         3        22        8.83     299      503.1
   06/10/2016 10:50      68.9      66.8       70     57.6      0.00      8.37      78.5     0.37      1015.0     3        30         4       351        8.83     303      559.8
   06/10/2016 10:40      67.8      66.7       71     57.4      0.00      8.37      78.4     0.37      1015.0     3        36         4        21        8.84     306      299.6
   06/10/2016 10:30      67.8      66.9       70     57.4      0.00      8.37      78.1     0.37      1015.0     2        32         5        60        8.84     308      301.5
   06/10/2016 10:20      67.4      66.7       71     57.3      0.00      8.37      77.9     0.37      1015.0     2        18         4        18        8.84     313      233.8
   06/10/2016 10:10      66.8      65.2       73     57.3      0.00      8.37      77.9     0.37      1015.0     3         9         5       359        8.84     321      283.3
   06/10/2016 10:00      65.1      64.8       76     57.2      0.00      8.37      79.1     0.37      1015.0     2       112         4        92        8.84     324      271.5
   06/10/2016 09:50      64.9      63.8       78     57.3      0.00      8.37      78.7     0.37      1015.0     2        61         3        43        8.84     331      150.4
   06/10/2016 09:40      64.2      63.8       78     57.1      0.00      8.37      78.1     0.37      1015.0     3       101         5       118        8.84     333      152.5
   06/10/2016 09:30      64.0      63.4       79     57.0      0.00      8.37      78.4     0.36      1015.0     3        99         4        99        8.84     447      164.2
   06/10/2016 09:20      63.5      62.6       80     57.1      0.00      8.37      79.5     0.35      1015.0     3        93         4       135        8.84     269      126.8
   06/10/2016 09:10      62.9      62.4       82     57.1      0.00      8.37      79.1     0.35      1015.0     3       147         5       133        8.84     269       83.0
   06/10/2016 09:00      63.0      62.4       81     57.0      0.00      8.37      79.1     0.35      1015.0     3       141         5       140        8.84     269       67.5
   06/10/2016 08:50      63.0      62.3       82     57.0      0.00      8.37      79.1     0.35      1015.0     4       140         6       137        8.84     269       71.8
   06/10/2016 08:40      63.0      62.6       82     57.1      0.00      8.37      79.2     0.35      1015.0     3        97         5        80        8.84     270       75.8
   06/10/2016 08:30      63.0      62.7       82     57.2      0.00      8.37      79.3     0.35      1015.0     3        86         7        74        8.84     269       63.3
   06/10/2016 08:20      62.9      62.2       83     57.2      0.00      8.37      79.4     0.36      1015.0     3       121         5       117        8.84     270       51.3
   06/10/2016 08:10      62.9      62.3       83     57.1      0.00      8.37      79.2     0.36      1015.0     4       116         6       142        8.84     269       41.3
   06/10/2016 08:00      62.5      62.3       83     57.3      0.00      8.37      79.1     0.36      1015.0     3       109         5       134        8.84     269       53.6
   06/10/2016 07:50      62.7      62.3       84     57.5      0.00      8.37      79.3     0.36      1015.0     4       113         6        69        8.84     269       53.9
   06/10/2016 07:40      62.6      62.3       83     57.3      0.00      8.37      79.2     0.36      1014.0     3        91         5        95        8.84     269       46.0
   06/10/2016 07:30      62.4      61.8       84     57.3      0.00      8.37      79.2     0.36      1014.0     4        87         8       114        8.84     270       35.8
   06/10/2016 07:20      62.3      62.1       84     57.4      0.00      8.37      79.1     0.36      1014.0     5        94         7       111        8.84     270       29.2
   06/10/2016 07:10      62.3      62.0       84     57.3      0.00      8.37      79.5     0.36      1014.0     3        87         4        89        8.84     270       24.8
   06/10/2016 07:00      62.3      61.4       85     57.3      0.00      8.37      79.3     0.36      1014.0     2        95         4       116        8.85     270       19.4
   06/10/2016 06:50      61.4      60.9       87     57.3      0.00      8.37      79.4     0.36      1014.0     3        79         5        63        8.85     270       11.9
   06/10/2016 06:40      61.2      60.9       88     57.5      0.00      8.37      79.0     0.36      1014.0     3        83         6        81        8.85     270        4.6
   06/10/2016 06:30      61.5      61.0       88     57.6      0.00      8.37      79.7     0.36      1014.0     4       100         5        88        8.85     271       -0.6
   06/10/2016 06:20      61.4      60.9       88     57.6      0.00      8.37      79.3     0.36      1014.0     4       108         6        83        8.85     271       -4.0
   06/10/2016 06:10      61.2      60.9       89     57.7      0.00      8.37      79.7     0.36      1013.0     2       108         3       124        8.85     270       -7.5
   06/10/2016 06:00      61.2      60.8       89     57.7      0.00      8.37      79.6     0.36      1013.0     2       114         3       115        8.85     271       -9.8
   06/10/2016 05:50      61.0      60.8       89     57.6      0.00      8.37      79.8     0.36      1013.0     3        88         5        97        8.85     271      -12.2
   06/10/2016 05:40      61.2      60.9       89     57.7      0.00      8.37      79.4     0.36      1013.0     1        94         3        99        8.85     271      -13.0
   06/10/2016 05:30      61.0      60.7       90     57.7      0.00      8.37      80.0     0.36      1013.0     1        23         2        32        8.85     270      -13.5
   06/10/2016 05:20      60.8      60.4       90     57.6      0.00      8.37      79.4     0.36      1013.0     2        67         3        91        8.85     270      -13.3
   06/10/2016 05:10      60.7      60.4       90     57.7      0.00      8.37      79.6     0.36      1013.0     2        79         3        76        8.85     270      -13.2
   06/10/2016 05:00      60.5      60.3       91     57.6      0.00      8.37      79.7     0.36      1013.0     2        78         4        78        8.85     270      -13.4
   06/10/2016 04:50      60.8      60.2       90     57.6      0.00      8.37      79.6     0.36      1013.0     3        95         4        84        8.85     270      -13.5
   06/10/2016 04:40      60.8      60.6       90     57.7      0.00      8.37      79.3     0.36      1013.0     1        56         2        98        8.85     270      -13.8
   06/10/2016 04:30      60.9      60.5       89     57.6      0.00      8.37      79.4     0.36      1013.0     3        38         4        25        8.85     270      -13.9
   06/10/2016 04:20      60.8      60.6       89     57.5      0.00      8.37      79.7     0.36      1013.0     2        58         4        19        8.85     270      -14.1
   06/10/2016 04:10      61.1      60.9       89     57.6      0.00      8.37      80.1     0.36      1013.0     2        42         4         9        8.86     270      -14.2
   06/10/2016 04:00      60.9      60.6       89     57.5      0.00      8.37      79.6     0.36      1013.0     2        75         3        88        8.86     270      -13.8
   06/10/2016 03:50      60.9      60.6       89     57.6      0.00      8.37      80.0     0.36      1013.0     2        67         3        68        8.86     270      -14.0
   06/10/2016 03:40      60.9      60.5       89     57.5      0.00      8.37      80.3     0.36      1013.0     2        56         3        67        8.86     270      -14.1
   06/10/2016 03:30      60.9      60.5       89     57.4      0.00      8.37      80.0     0.36      1013.0     1        48         3        55        8.86     270      -13.9
   06/10/2016 03:20      60.9      60.6       88     57.1      0.00      8.37      80.1     0.36      1013.0     2        74         4        73        8.86     270      -13.8
   06/10/2016 03:10      61.0      60.8       89     57.7      0.00      8.37      80.4     0.36      1013.0     2        74         4        85        8.86     270      -13.6
   06/10/2016 03:00      60.9      60.9       89     57.7      0.00      8.37      80.4     0.36      1013.0     2        64         4        90        8.86     270      -13.5
   06/10/2016 02:50      61.0      60.7       89     57.7      0.00      8.37      80.3     0.36      1013.0     2        95         4        72        8.86     270      -13.1
   06/10/2016 02:40      60.9      60.7       89     57.7      0.00      8.37      80.2     0.36      1013.0     2        61         3        67        8.86     270      -12.9
   06/10/2016 02:30      61.0      60.6       90     57.8      0.00      8.37      80.1     0.36      1013.0     2        61         4        70        8.86     270      -13.5
   06/10/2016 02:20      60.9      60.6       90     57.7      0.00      8.37      79.9     0.36      1013.0     2        67         3        82        8.86     270      -14.1
   06/10/2016 02:10      60.9      60.5       90     57.7      0.00      8.37      80.0     0.36      1013.0     2        60         3       105        8.87     270      -18.8
   06/10/2016 02:00      60.8      60.5       90     57.5      0.00      8.37      80.1     0.36      1013.0     2        77         4        78        8.87     270      -32.3
   06/10/2016 01:50      60.9      60.9       88     57.5      0.00      8.37      80.4     0.36      1013.0     2        44         4        74        8.87     270      -40.3
   06/10/2016 01:40      61.1      60.8       88     57.4      0.00      8.37      80.1     0.36      1013.0     1        49         3        36        8.87     270      -56.7
   06/10/2016 01:30      61.3      61.0       87     57.4      0.00      8.37      80.7     0.36      1012.0     2        56         3        54        8.87     270      -60.3
   06/10/2016 01:20      61.5      61.3       86     57.3      0.00      8.37      80.2     0.36      1013.0     2        58         3        74        8.87     269      -61.9
   06/10/2016 01:10      61.9      61.5       86     57.4      0.00      8.37      80.2     0.36      1013.0     2        46         3        36        8.87     269      -61.5
   06/10/2016 01:00      61.9      61.7       86     57.4      0.00      8.37      80.0     0.36      1013.0     1        41         2        55        8.87     269      -63.4
   06/10/2016 00:50      62.0      61.9       85     57.4      0.00      8.37      80.5     0.36      1012.0     2        71         3        74        8.87     269      -63.6
   06/10/2016 00:40      62.0      61.8       85     57.4      0.00      8.37      80.4     0.36      1012.0     2        76         3        62        8.87     269      -62.9
   06/10/2016 00:30      62.2      61.9       85     57.4      0.00      8.37      80.4     0.36      1013.0     2        80         4        80        8.88     269      -62.7
   06/10/2016 00:20      62.4      62.1       84     57.3      0.00      8.37      80.1     0.36      1013.0     1        83         2        81        8.88     269      -62.1
   06/10/2016 00:10      62.5      62.3       84     57.4      0.00      8.37      80.6     0.36      1013.0     1        90         2        84        8.88     269      -61.5
   06/10/2016 00:00      62.5      62.3       84     57.4      0.00      8.37      80.4     0.36      1012.0     1        86         2        63        8.88     269      -62.3
   06/09/2016 23:50      62.6      62.3       83     57.2      0.00      8.37      80.5     0.36      1013.0     1        81         2        69        8.88     269      -63.1
   06/09/2016 23:40      62.8      62.4       82     57.0      0.00      8.37      80.4     0.36      1013.0     1        89         3        96        8.88     269      -64.4
   06/09/2016 23:30      63.1      62.8       82     57.4      0.00      8.37      81.0     0.36      1013.0     1        87         2        82        8.89     269      -67.6
   06/09/2016 23:20      63.2      63.1       82     57.5      0.00      8.37      80.5     0.36      1013.0     1        92         2        80        8.89     269      -69.4
   06/09/2016 23:10      63.4      63.2       82     57.6      0.00      8.37      80.2     0.36      1013.0     1        86         2        78        8.89     269      -70.3
   06/09/2016 23:00      63.6      63.4       81     57.6      0.00      8.37      80.8     0.36      1013.0     2        83         3        93        8.89     269      -71.0
   06/09/2016 22:50      63.8      63.5       81     57.7      0.00      8.37      80.5     0.36      1013.0     2       104         3       103        8.89     269      -71.1
   06/09/2016 22:40      63.9      63.7       80     57.6      0.00      8.37      80.7     0.36      1013.0     2        89         2       106        8.89     269      -71.8
   06/09/2016 22:30      64.1      63.8       80     57.6      0.00      8.37      80.7     0.36      1013.0     1        75         1        65        8.89     268      -72.4
   06/09/2016 22:20      64.3      64.1       79     57.6      0.00      8.37      80.9     0.36      1013.0     1        73         2       104        8.89     269      -73.0
   06/09/2016 22:10      64.4      64.2       79     57.5      0.00      8.37      80.6     0.36      1013.0     1        42         2        87        8.90     268      -74.0
   06/09/2016 22:00      64.5      64.4       78     57.5      0.00      8.37      80.7     0.36      1012.0     1        69         1        58        8.90     269      -74.3
   06/09/2016 21:50      64.7      64.4       78     57.6      0.00      8.37      80.6     0.36      1012.0     2        75         3        77        8.90     268      -75.3
   06/09/2016 21:40      65.0      64.7       77     57.6      0.00      8.37      80.5     0.36      1012.0     1        72         2        48        8.90     268      -76.4
   06/09/2016 21:30      65.2      64.8       77     57.5      0.00      8.37      80.7     0.36      1012.0     2        57         3        58        8.90     268      -77.0
   06/09/2016 21:20      65.6      65.3       76     57.6      0.00      8.37      80.4     0.36      1012.0     2        51         3       102        8.90     268      -77.4
   06/09/2016 21:10      65.9      65.6       75     57.8      0.00      8.37      80.5     0.36      1012.0     2        48         2        39        8.90     268      -78.3
   06/09/2016 21:00      66.4      65.9       74     57.8      0.00      8.37      80.6     0.36      1012.0     2        55         4        71        8.90     268      -79.3
   06/09/2016 20:50      66.9      66.4       73     57.8      0.00      8.37      80.6     0.36      1012.0     2        43         3        81        8.91     268      -80.2
   06/09/2016 20:40      67.0      66.8       73     57.9      0.00      8.37      80.6     0.36      1012.0     2        31         2        44        8.91     268      -81.7
   06/09/2016 20:30      67.4      67.1       72     57.9      0.00      8.37      80.7     0.36      1012.0     2        87         3        74        8.91     268      -82.3
   06/09/2016 20:20      67.5      67.1       71     57.6      0.00      8.37      80.3     0.36      1012.0     2        94         4        67        8.91     268      -81.1
   06/09/2016 20:10      68.4      67.4       69     57.3      0.00      8.37      80.3     0.36      1012.0     2       125         3       175        8.91     267      -81.3
   06/09/2016 20:00      68.8      68.3       69     57.9      0.00      8.37      80.4     0.36      1012.0     2        70         3        68        8.91     267      -77.6
   06/09/2016 19:50      69.2      68.8       68     58.1      0.00      8.37      80.5     0.36      1012.0     2        50         4        30        8.92     267      -74.8
   06/09/2016 19:40      69.9      69.3       67     58.1      0.00      8.37      80.1     0.36      1011.0     3        59         3        51        8.92     267      -68.5
   06/09/2016 19:30      70.9      69.9       65     58.2      0.00      8.37      80.0     0.36      1011.0     4        36         6        38        8.92     267      -57.9
   06/09/2016 19:20      71.3      70.9       64     58.3      0.00      8.37      80.6     0.36      1011.0     3        30         5        27        8.92     267      -47.3
   06/09/2016 19:10      72.6      71.5       62     58.4      0.00      8.37      80.3     0.36      1011.0     3        37         4        22        8.92     266      -41.9
   06/09/2016 19:00      73.6      72.4       60     58.5      0.00      8.37      80.6     0.36      1011.0     4        50         6        82        8.92     266      -20.1
   06/09/2016 18:50      75.2      73.7       58     58.7      0.00      8.37      80.1     0.36      1011.0     3        48         5        35        8.92     266       32.6
   06/09/2016 18:40      75.5      75.3       56     58.8      0.00      8.37      80.1     0.36      1011.0     3        54         5        72        8.93     266       33.7
   06/09/2016 18:30      76.0      75.2       56     58.8      0.00      8.37      80.2     0.36      1011.0     3        57         4       103        8.93     266       73.0
   06/09/2016 18:20      76.3      75.8       55     58.8      0.00      8.37      80.1     0.36      1011.0     4        51         7        73        8.93     266      101.4
   06/09/2016 18:10      76.7      76.3       54     58.9      0.00      8.37      79.8     0.36      1011.0     3        54         5        66        8.93     266      121.8
   06/09/2016 18:00      77.6      76.8       53     58.9      0.00      8.37      80.2     0.35      1010.0     4        53         6        66        8.94     266      142.7
   06/09/2016 17:50      78.6      78.1       52     59.1      0.00      8.37      79.9     0.35      1011.0     3        78         5        74        8.94     266      164.4
   06/09/2016 17:40      78.7      77.9       52     59.1      0.00      8.37      79.9     0.35      1010.0     3        46         8        32        8.94     266      196.9
   06/09/2016 17:30      78.2      76.9       53     58.9      0.00      8.37      79.9     0.35      1011.0     3        93         7       135        8.94     266      225.8
   06/09/2016 17:20      77.6      76.5       53     58.7      0.00      8.37      79.7     0.35      1011.0     4       152         8       129        8.95     265      232.7
   06/09/2016 17:10      77.6      76.3       53     58.7      0.00      8.37      79.6     0.35      1011.0     5       198         7       191        8.95     265      138.5
   06/09/2016 17:00      77.3      76.5       54     58.6      0.00      8.37      79.7     0.35      1011.0     4       185         6       145        8.95     265      211.3
   06/09/2016 16:50      77.0      76.3       54     58.6      0.00      8.37      79.6     0.35      1011.0     5       181         7       188        8.96     265      304.8
   06/09/2016 16:40      77.1      76.5       54     58.7      0.00      8.37      79.3     0.35      1011.0     5       194         7       196        8.96     265      274.1
   06/09/2016 16:30      77.0      76.2       54     58.6      0.00      8.37      79.3     0.35      1011.0     6       190         8       188        8.97     265      325.5
   06/09/2016 16:20      77.9      76.7       53     58.8      0.00      8.37      79.2     0.35      1011.0     5       173         6       206        8.97     265      369.2
   06/09/2016 16:10      78.4      76.5       53     58.8      0.00      8.37      79.3     0.35      1011.0     6       168         7       174        8.98     265      308.0
   06/09/2016 16:00      78.4      77.3       52     58.8      0.00      8.37      79.0     0.35      1011.0     6       148         9       136        8.98     265      399.1
   06/09/2016 15:50      78.0      77.0       53     58.7      0.00      8.37      79.1     0.35      1011.0     4       162         6       150        8.99     266      387.9
   06/09/2016 15:40      78.2      76.3       53     58.7      0.00      8.37      79.0     0.35      1011.0     5       150         7       151        9.00     265      395.7
   06/09/2016 15:30      77.4      76.3       53     58.6      0.00      8.37      79.0     0.35      1011.0     8       131        11       135        9.00     266      458.0
   06/09/2016 15:20      79.7      77.5       50     58.6      0.00      8.37      79.0     0.35      1011.0     6       153         8       156        9.00     266      400.8
   06/09/2016 15:10      80.4      78.6       49     58.8      0.00      8.37      78.8     0.35      1011.0     6       167         8       130        9.01     266      403.0
   06/09/2016 15:00      80.9      79.8       48     58.9      0.00      8.37      78.9     0.35      1011.0     4       169         8       157        9.01     266      475.2
   06/09/2016 14:50      81.8      80.0       48     59.2      0.00      8.37      78.7     0.35      1011.0     4        50         8       235        9.01     266      435.8
   06/09/2016 14:40      82.3      81.1       47     59.5      0.00      8.37      78.7     0.35      1011.0     5        89        11        59        9.02     266      499.5
   06/09/2016 14:30      82.1      81.0       47     59.5      0.00      8.37      78.6     0.35      1011.0     5        37         7        64        9.02     266      496.5
   06/09/2016 14:20      83.0      80.9       46     59.6      0.00      8.37      78.4     0.35      1011.0     5        51         9        62        9.03     266      507.9
   06/09/2016 14:10      83.4      82.3       46     59.7      0.00      8.37      78.7     0.35      1011.0     5        45         7        82        9.03     267      505.0
   06/09/2016 14:00      83.3      81.6       46     59.5      0.00      8.37      78.4     0.35      1011.0     3        48         6        35        9.03     267      535.4
   06/09/2016 13:50      83.0      81.9       46     59.5      0.00      8.37      78.6     0.35      1011.0     4        57         7        32        9.04     267      540.2
   06/09/2016 13:40      83.7      81.7       45     59.4      0.00      8.37      78.3     0.35      1011.0     4        35         6        28        9.04     267      561.6
   06/09/2016 13:30      82.5      81.3       47     59.3      0.00      8.37      78.3     0.35      1011.0     5        43         7        37        9.04     268      547.9
   06/09/2016 13:20      81.8      81.5       46     59.2      0.00      8.37      78.3     0.35      1011.0     4        52         6       100        9.04     268      508.4
   06/09/2016 13:10      82.6      81.4       46     59.4      0.00      8.37      78.2     0.35      1012.0     4        67         7       102        9.04     268      561.4
   06/09/2016 13:00      82.6      82.0       46     59.3      0.00      8.37      78.1     0.35      1012.0     3        46         6        70        9.05     268      564.1
   06/09/2016 12:50      82.3      81.3       46     59.0      0.00      8.37      78.4     0.35      1012.0     3        72         4        59        9.05     268      567.0
   06/09/2016 12:40      82.0      79.9       47     59.1      0.00      8.37      78.2     0.35      1012.0     3        55         6       100        9.05     268      572.9
   06/09/2016 12:30      81.4      80.3       47     59.1      0.00      8.37      78.1     0.35      1012.0     4        71         6        71        9.05     268      524.0
   06/09/2016 12:20      81.2      79.3       48     59.1      0.00      8.37      78.0     0.35      1012.0     3        38         4       343        9.05     268      569.3
   06/09/2016 12:10      79.3      77.8       51     58.9      0.00      8.37      78.0     0.35      1012.0     3        59         5        65        9.05     268      568.2
   06/09/2016 12:00      78.4      77.6       51     58.6      0.00      8.37      77.9     0.35      1012.0     4        64         7        80        9.05     269      555.5
   06/09/2016 11:50      78.5      76.9       52     58.8      0.00      8.37      78.0     0.35      1012.0     3        23         5        22        9.05     269      550.5
   06/09/2016 11:40      77.5      76.9       53     58.9      0.00      8.37      78.1     0.35      1012.0     4        25         5        60        9.05     269      547.7
   06/09/2016 11:30      77.3      75.8       54     58.8      0.00      8.37      78.2     0.35      1012.0     4        44         6        30        9.05     270      546.8
   06/09/2016 11:20      76.5      74.9       55     58.6      0.00      8.37      78.3     0.35      1012.0     4        28         6        30        9.05     270      538.6
   06/09/2016 11:10      75.2      74.7       56     58.5      0.00      8.37      78.2     0.35      1012.0     4        14         5         6        9.05     269      522.8
   06/09/2016 11:00      74.2      73.8       58     58.4      0.00      8.37      78.2     0.35      1012.0     4        31         6        35        9.05     270      518.3
   06/09/2016 10:50      73.6      73.2       59     58.3      0.00      8.37      78.6     0.35      1013.0     3        45         6        84        9.06     270      508.6
   06/09/2016 10:40      73.5      72.7       60     58.2      0.00      8.37      78.4     0.35      1013.0     4        61         5        64        9.06     271      481.7
   06/09/2016 10:30      72.9      72.0       61     58.2      0.00      8.37      78.1     0.35      1013.0     3        34         5        34        9.06     270      499.9
   06/09/2016 10:20      73.2      72.6       60     58.3      0.00      8.37      78.5     0.35      1013.0     4        63         7        72        9.06     270      437.5
   06/09/2016 10:10      72.7      71.5       62     58.1      0.00      8.37      78.2     0.35      1013.0     4        29         6        67        9.06     271      386.7
   06/09/2016 10:00      72.3      71.6       61     57.9      0.00      8.37      78.9     0.35      1013.0     3        35         6        22        9.06     272      421.5
   06/09/2016 09:50      72.2      71.1       61     57.7      0.00      8.37      78.6     0.35      1013.0     3        21         5       351        9.06     274      420.0
   06/09/2016 09:40      71.1      70.0       62     57.3      0.00      8.37      78.5     0.35      1013.0     3        17         4         6        9.06     276      393.7
   06/09/2016 09:30      70.0      69.4       64     57.1      0.00      8.37      78.3     0.35      1013.0     3        24         5        11        9.06     277      371.0
   06/09/2016 09:20      69.8      69.5       64     57.2      0.00      8.37      78.2     0.35      1013.0     2        31         5        79        9.06     279      327.8
   06/09/2016 09:10      69.4      67.8       67     57.1      0.00      8.37      78.8     0.35      1013.0     3        21         4        17        9.06     280      350.7
   06/09/2016 09:00      68.3      67.5       68     57.0      0.00      8.37      78.1     0.35      1013.0     2       116         4       132        9.06     282      334.4
   06/09/2016 08:50      67.3      65.7       71     56.7      0.00      8.37      78.0     0.35      1013.0     2       336         3       302        9.06     285      338.8
   06/09/2016 08:40      65.8      65.2       73     56.6      0.00      8.37      78.7     0.35      1013.0     2        53         3        51        9.07     286      127.9
   06/09/2016 08:30      65.4      64.0       75     56.5      0.00      8.37      78.5     0.36      1013.0     2       352         3       333        9.07     287       47.7
   06/09/2016 08:20      64.0      63.3       77     56.4      0.00      8.37      79.2     0.35      1013.0     2        93         3       138        9.07     289       41.2
   06/09/2016 08:10      63.4      62.8       78     56.3      0.00      8.37      78.6     0.36      1013.0     1        33         2        42        9.07     291       43.3
   06/09/2016 08:00      62.8      62.1       80     56.1      0.00      8.37      78.6     0.36      1013.0     1        23         2       333        9.07     292       44.5
   06/09/2016 07:50      62.3      62.0       81     56.2      0.00      8.37      78.5     0.36      1013.0     2        19         3        28        9.07     292       49.1
   06/09/2016 07:40      62.0      61.4       82     56.0      0.00      8.37      78.8     0.36      1013.0     2        51         3       354        9.07     294       48.4
   06/09/2016 07:30      61.5      61.2       83     56.0      0.00      8.37      78.9     0.36      1013.0     2        56         2        74        9.07     294       35.7
   06/09/2016 07:20      61.2      60.5       84     55.9      0.00      8.37      78.5     0.36      1013.0     1        28         2        37        9.07     295       30.7
   06/09/2016 07:10      60.8      60.3       85     55.9      0.00      8.37      78.6     0.36      1013.0     2        43         2        21        9.07     295       21.7
   06/09/2016 07:00      60.4      59.9       85     55.7      0.00      8.37      78.5     0.36      1013.0     2        30         3        34        9.08     295       22.0
   06/09/2016 06:50      60.1      59.8       86     55.6      0.00      8.37      79.0     0.36      1012.0     2        35         3        43        9.07     296        8.7
   06/09/2016 06:40      60.0      59.5       86     55.4      0.00      8.37      78.7     0.36      1012.0     2        69         4        73        9.08     295       -3.7
   06/09/2016 06:30      59.7      59.3       86     55.2      0.00      8.37      78.9     0.36      1012.0     2        62         4        60        9.08     295      -13.8
   06/09/2016 06:20      59.4      58.9       86     55.1      0.00      8.37      79.1     0.36      1012.0     2        50         2        70        9.08     295      -22.9
   06/09/2016 06:10      59.1      58.8       86     54.8      0.00      8.37      79.2     0.36      1012.0     1        59         1        82        9.08     294      -35.6
   06/09/2016 06:00      59.0      58.7       86     54.7      0.00      8.37      79.0     0.36      1012.0     1        70         2        92        9.08     293      -43.9
   06/09/2016 05:50      59.1      58.8       86     54.5      0.00      8.37      79.2     0.36      1012.0     1        71         2        91        9.08     292      -50.9
   06/09/2016 05:40      59.1      58.9       85     54.6      0.00      8.37      79.2     0.36      1012.0     1        73         2        48        9.08     291      -52.2
   06/09/2016 05:30      58.9      58.8       85     54.5      0.00      8.37      79.1     0.36      1012.0     1        61         2        73        9.08     290      -52.5
   06/09/2016 05:20      59.1      58.9       84     54.3      0.00      8.37      79.1     0.36      1012.0     1        67         2        60        9.08     289      -52.7
   06/09/2016 05:10      59.3      59.2       84     54.4      0.00      8.37      79.0     0.36      1011.0     1        46         1        90        9.08     288      -52.8
   06/09/2016 05:00      59.5      59.1       84     54.5      0.00      8.37      79.3     0.36      1011.0     1        47         2        63        9.08     287      -53.4
   06/09/2016 04:50      59.4      59.2       84     54.5      0.00      8.37      79.4     0.36      1011.0     1        60         2        87        9.08     287      -52.9
   06/09/2016 04:40      59.5      59.2       84     54.4      0.00      8.37      79.2     0.36      1011.0     1        73         2        87        9.09     286      -52.2
   06/09/2016 04:30      59.4      59.2       83     54.3      0.00      8.37      79.2     0.36      1011.0     1        51         2        59        9.09     285      -52.4
   06/09/2016 04:20      59.5      59.4       83     54.4      0.00      8.37      79.4     0.36      1011.0     1        80         1       346        9.09     285      -53.8
   06/09/2016 04:10      59.6      59.4       83     54.4      0.00      8.37      79.5     0.36      1011.0     1        82         2        76        9.09     284      -54.5
   06/09/2016 04:00      59.5      59.4       83     54.4      0.00      8.37      79.6     0.36      1011.0     1        84         2        78        9.09     284      -54.7
   06/09/2016 03:50      59.8      59.5       83     54.4      0.00      8.37      79.6     0.36      1011.0     2        79         2        71        9.09     283      -54.3
   06/09/2016 03:40      59.9      59.7       82     54.5      0.00      8.37      79.1     0.36      1011.0     1        44         3        48        9.09     282      -54.3
   06/09/2016 03:30      60.1      59.9       82     54.4      0.00      8.37      79.0     0.36      1011.0     1        63         2        34        9.09     281      -54.3
   06/09/2016 03:20      60.3      59.9       81     54.3      0.00      8.37      79.4     0.36      1011.0     1        72         2        58        9.09     281      -53.9
   06/09/2016 03:10      60.4      60.2       81     54.4      0.00      8.37      79.7     0.36      1011.0     1        33         3        35        9.09     280      -55.0
   06/09/2016 03:00      60.5      60.4       80     54.3      0.00      8.37      79.5     0.36      1011.0     1        46         2        38        9.09     280      -57.7
   06/09/2016 02:50      60.6      60.1       81     54.4      0.00      8.37      79.8     0.36      1011.0     2        31         2        20        9.10     279      -59.3
   06/09/2016 02:40      60.4      60.2       81     54.4      0.00      8.37      80.0     0.36      1011.0     1        80         2        82        9.10     278      -62.5
   06/09/2016 02:30      60.6      60.4       80     54.5      0.00      8.37      79.8     0.36      1011.0     1        79         3        82        9.10     277      -64.3
   06/09/2016 02:20      60.9      60.6       80     54.6      0.00      8.37      79.9     0.36      1011.0     2        79         3        81        9.10     277      -65.2
   06/09/2016 02:10      61.0      60.6       80     54.7      0.00      8.37      79.8     0.36      1011.0     1        60         2        44        9.10     276      -66.1
   06/09/2016 02:00      61.1      60.9       80     54.7      0.00      8.37      79.8     0.36      1011.0     1        24         1        26        9.10     275      -66.8
   06/09/2016 01:50      61.5      61.2       80     54.9      0.00      8.37      79.6     0.36      1011.0     1        72         2        79        9.10     274      -67.3
   06/09/2016 01:40      61.5      61.3       79     54.9      0.00      8.37      79.9     0.36      1011.0     2        79         3        87        9.10     274      -67.3
   06/09/2016 01:30      61.6      61.4       79     54.8      0.00      8.37      79.9     0.36      1011.0     1        64         3        34        9.10     273      -67.3
   06/09/2016 01:20      62.0      61.7       78     54.9      0.00      8.37      79.6     0.36      1011.0     2        76         3        84        9.10     272      -67.3
   06/09/2016 01:10      62.3      61.9       77     54.9      0.00      8.37      79.8     0.36      1011.0     1        80         2        67        9.11     271      -67.5
   06/09/2016 01:00      62.4      62.1       77     55.0      0.00      8.37      80.0     0.36      1011.0     1        39         2        53        9.11     271      -68.3
   06/09/2016 00:50      62.5      62.3       77     55.0      0.00      8.37      79.9     0.36      1011.0     2        80         2        49        9.11     271      -68.0
   06/09/2016 00:40      62.6      62.5       76     54.9      0.00      8.37      80.1     0.36      1011.0     1       102         2       113        9.11     270      -68.5
   06/09/2016 00:30      62.9      62.7       76     55.1      0.00      8.37      80.1     0.36      1011.0     2       103         3       108        9.11     270      -68.6
   06/09/2016 00:20      62.9      62.8       75     55.0      0.00      8.37      80.1     0.36      1011.0     1       101         2        92        9.11     270      -69.0
   06/09/2016 00:10      63.2      62.9       75     55.1      0.00      8.37      80.1     0.36      1011.0     1        96         2        77        9.11     269      -69.2
   06/09/2016 00:00      63.4      63.1       75     55.1      0.00      8.37      80.2     0.36      1011.0     1       104         2        92        9.11     269      -69.5
   06/08/2016 23:50      63.5      63.2       75     55.3      0.00      8.37      80.1     0.36      1011.0     1       105         2       122        9.11     269      -70.0
   06/08/2016 23:40      63.7      63.4       75     55.3      0.00      8.37      79.9     0.36      1011.0     1       105         2        83        9.12     269      -70.3
   06/08/2016 23:30      63.8      63.6       75     55.5      0.00      8.37      80.1     0.36      1011.0     1        77         2        65        9.12     268      -71.0
   06/08/2016 23:20      64.0      63.8       74     55.5      0.00      8.37      80.0     0.36      1011.0     1        84         2        69        9.12     268      -71.5
   06/08/2016 23:10      64.3      64.0       74     55.5      0.00      8.37      79.8     0.36      1011.0     1        85         2        96        9.12     268      -71.6
   06/08/2016 23:00      64.3      64.1       73     55.5      0.00      8.37      79.8     0.36      1011.0     2        94         2        87        9.12     268      -71.7
   06/08/2016 22:50      64.7      64.3       73     55.5      0.00      8.37      80.0     0.36      1011.0     3        86         4        73        9.12     268      -72.0
   06/08/2016 22:40      65.0      64.8       73     55.9      0.00      8.37      80.2     0.36      1011.0     2        78         5        89        9.12     268      -72.3
   06/08/2016 22:30      65.3      65.0       72     56.1      0.00      8.37      80.2     0.36      1011.0     2        77         4        73        9.13     268      -72.9
   06/08/2016 22:20      65.5      65.2       72     56.0      0.00      8.37      79.8     0.36      1011.0     2        78         4        71        9.13     268      -73.5
   06/08/2016 22:10      65.8      65.5       71     56.0      0.00      8.37      80.2     0.36      1011.0     2        79         3        68        9.13     269      -74.1
   06/08/2016 22:00      66.1      65.9       70     56.0      0.00      8.37      79.9     0.36      1011.0     2        57         3        83        9.13     269      -74.8
   06/08/2016 21:50      66.4      66.2       70     56.1      0.00      8.37      80.2     0.36      1011.0     3        89         4        82        9.13     269      -75.6
   06/08/2016 21:40      66.8      66.5       68     56.0      0.00      8.37      80.0     0.36      1011.0     2        94         3        80        9.13     269      -76.8
   06/08/2016 21:30      67.6      67.0       67     56.0      0.00      8.37      79.8     0.36      1011.0     2        75         4        81        9.13     269      -77.7
   06/08/2016 21:20      68.3      67.8       65     56.1      0.00      8.37      80.0     0.36      1010.0     2        67         3        72        9.14     269      -78.4
   06/08/2016 21:10      69.0      68.5       64     56.1      0.00      8.37      80.1     0.36      1010.0     2        55         3        81        9.14     269      -79.1
   06/08/2016 21:00      69.4      69.0       63     56.2      0.00      8.37      80.0     0.36      1010.0     2        68         3        86        9.14     269      -79.7
   06/08/2016 20:50      70.0      69.5       62     56.2      0.00      8.37      80.0     0.36      1010.0     2        72         3        81        9.14     269      -80.8
   06/08/2016 20:40      70.8      70.2       61     56.3      0.00      8.37      79.9     0.36      1010.0     1        56         3        76        9.14     269      -82.6
   06/08/2016 20:30      72.0      71.0       59     56.4      0.00      8.37      80.0     0.36      1010.0     2        76         3        93        9.14     268      -83.7
   06/08/2016 20:20      72.8      72.2       57     56.5      0.00      8.37      80.0     0.36      1010.0     2        37         2        20        9.15     268      -84.7
   06/08/2016 20:10      73.3      72.7       56     56.4      0.00      8.37      79.9     0.36      1010.0     2        49         3        83        9.15     268      -84.5
   06/08/2016 20:00      74.6      73.5       54     56.4      0.00      8.37      80.1     0.36      1010.0     2        64         4        78        9.15     268      -81.1
   06/08/2016 19:50      75.5      74.8       52     56.5      0.00      8.37      80.0     0.36      1010.0     2        56         3        51        9.15     268      -75.3
   06/08/2016 19:40      76.7      75.5       51     56.5      0.00      8.37      79.8     0.36      1010.0     2        39         4        33        9.15     268      -70.4
   06/08/2016 19:30      77.5      76.5       49     56.6      0.00      8.37      79.8     0.36      1009.0     3        59         4       100        9.16     268      -50.0
   06/08/2016 19:20      78.5      77.9       48     56.8      0.00      8.37      79.7     0.36      1009.0     3        40         4        93        9.16     268      -37.7
   06/08/2016 19:10      79.0      78.5       47     57.0      0.00      8.37      79.5     0.36      1009.0     3        28         4        18        9.17     268      -20.7
   06/08/2016 19:00      79.5      78.9       47     56.9      0.00      8.37      79.8     0.36      1009.0     3        37         6        38        9.17     268       -1.1
   06/08/2016 18:50      80.5      79.2       45     57.0      0.00      8.37      79.8     0.36      1009.0     4        27         5        28        9.17     267       18.5
   06/08/2016 18:40      81.5      80.4       45     57.2      0.00      8.37      79.6     0.36      1009.0     4        36         5        34        9.17     267       39.3
   06/08/2016 18:30      82.1      81.4       44     57.5      0.00      8.37      79.4     0.36      1009.0     5        14         7         6        9.17     267       60.4
   06/08/2016 18:20      83.2      81.8       43     57.6      0.00      8.37      79.2     0.36      1009.0     4        24         5         2        9.18     267       82.3
   06/08/2016 18:10      83.5      82.8       42     57.8      0.00      8.37      79.4     0.35      1009.0     4        18         4         1        9.18     267      105.5
   06/08/2016 18:00      84.0      83.3       41     57.6      0.00      8.37      79.2     0.35      1009.0     4        27         5        75        9.18     268      131.3
   06/08/2016 17:50      84.3      83.7       41     57.7      0.00      8.37      79.0     0.35      1009.0     4        22         5        11        9.19     268      155.2
   06/08/2016 17:40      84.7      83.6       41     57.9      0.00      8.37      79.1     0.35      1009.0     5        24         7       348        9.19     267      181.0
   06/08/2016 17:30      85.0      84.2       41     58.0      0.00      8.37      79.0     0.35      1009.0     4        33         6        17        9.19     267      205.3
   06/08/2016 17:20      85.0      84.3       40     57.9      0.00      8.37      78.8     0.35      1009.0     4        42         5        76        9.20     267      219.0
   06/08/2016 17:10      85.1      84.2       41     58.0      0.00      8.37      79.0     0.35      1009.0     4        44         6        46        9.20     267      250.6
   06/08/2016 17:00      85.1      84.4       40     57.8      0.00      8.37      78.8     0.35      1009.0     4        61         6        78        9.21     267      276.7
   06/08/2016 16:50      84.6      84.2       40     57.6      0.00      8.37      78.6     0.35      1009.0     4        57         5        56        9.21     267      294.6
   06/08/2016 16:40      85.1      84.5       40     57.6      0.00      8.37      78.6     0.35      1009.0     4        41         6        42        9.21     267      321.1
   06/08/2016 16:30      85.6      85.0       40     58.0      0.00      8.37      78.5     0.35      1009.0     4        40         6        33        9.21     267      348.3
   06/08/2016 16:20      86.0      85.2       39     58.0      0.00      8.37      78.6     0.35      1009.0     5        54         7        64        9.22     267      381.1
   06/08/2016 16:10      86.0      85.4       39     57.8      0.00      8.37      78.3     0.35      1009.0     4        56         6        68        9.22     267      340.9
   06/08/2016 16:00      86.5      85.7       39     58.0      0.00      8.37      78.3     0.35      1009.0     4        55         6        82        9.22     267      330.7
   06/08/2016 15:50      86.6      86.0       38     58.1      0.00      8.37      78.6     0.35      1009.0     4        46         6        69        9.23     267      304.9
   06/08/2016 15:40      86.8      86.3       38     58.1      0.00      8.37      78.3     0.35      1009.0     4        64         7        67        9.23     267      420.4
   06/08/2016 15:30      86.6      85.7       39     58.1      0.00      8.37      78.1     0.35      1009.0     4        55         6        83        9.23     268      348.2
   06/08/2016 15:20      88.3      86.7       37     57.9      0.00      8.37      78.0     0.35      1009.0     4        52         6        65        9.24     267      198.4
   06/08/2016 15:10      89.3      88.3       35     57.5      0.00      8.37      78.2     0.35      1010.0     5        66         8        76        9.24     267      407.9
   06/08/2016 15:00      90.0      88.7       34     57.6      0.00      8.37      78.0     0.35      1010.0     4        33         5        66        9.24     267      524.6
   06/08/2016 14:50      89.8      88.0       34     57.1      0.00      8.37      77.9     0.35      1010.0     4        10         6       359        9.25     267      496.7
   06/08/2016 14:40      88.8      87.7       35     57.0      0.00      8.37      77.8     0.35      1010.0     2        77         4        95        9.25     267      512.0
   06/08/2016 14:30      87.8      86.3       36     56.8      0.00      8.37      77.7     0.35      1010.0     3        43         6        63        9.25     268      541.4
   06/08/2016 14:20      86.5      85.0       37     56.5      0.00      8.37      77.8     0.35      1010.0     2        96         5        76        9.26     267      539.2
   06/08/2016 14:10      86.5      85.4       37     57.1      0.00      8.37      77.9     0.35      1010.0     3        38         5        61        9.26     268      534.2
   06/08/2016 14:00      85.3      83.9       40     57.5      0.00      8.37      77.6     0.35      1010.0     4        83         6        59        9.26     268      540.5
   06/08/2016 13:50      84.6      83.5       40     57.3      0.00      8.37      77.7     0.35      1010.0     3        73         5       292        9.27     268      547.7
   06/08/2016 13:40      84.6      83.7       41     57.6      0.00      8.37      77.4     0.35      1010.0     4        58         6       135        9.27     268      550.4
   06/08/2016 13:30      85.0      83.5       40     57.6      0.00      8.37      77.6     0.35      1011.0     3        52         6       120        9.27     269      560.2
   06/08/2016 13:20      84.1      81.9       42     57.2      0.00      8.37      77.6     0.35      1011.0     4         1         6       357        9.27     269      562.8
   06/08/2016 13:10      82.7      81.0       43     57.5      0.00      8.37      77.7     0.35      1011.0     4        23         6        21        9.27     269      565.3
   06/08/2016 13:00      82.6      80.5       44     57.5      0.00      8.37      77.2     0.35      1011.0     4       104         6        67        9.27     269      569.0
   06/08/2016 12:50      82.1      80.9       43     57.2      0.00      8.37      77.4     0.35      1011.0     3       322         5       157        9.27     270      567.8
   06/08/2016 12:40      81.8      79.9       45     57.6      0.00      8.37      77.2     0.35      1011.0     4        12         7       355        9.27     270      557.7
   06/08/2016 12:30      80.5      79.0       46     57.6      0.00      8.37      77.4     0.35      1011.0     4       358         7         8        9.27     269      576.3
   06/08/2016 12:20      80.2      79.0       47     57.8      0.00      8.37      77.2     0.35      1011.0     4        31         5        58        9.28     270      561.8
   06/08/2016 12:10      79.3      77.9       48     57.5      0.00      8.37      77.4     0.35      1012.0     3        29         5       343        9.28     270      557.0
   06/08/2016 12:00      79.4      78.3       48     57.5      0.00      8.37      77.5     0.35      1012.0     4        78         7        62        9.28     270      550.4
   06/08/2016 11:50      78.8      76.4       49     57.6      0.00      8.37      77.5     0.35      1012.0     3         8         5         9        9.28     271      502.2
   06/08/2016 11:40      77.9      76.5       50     57.4      0.00      8.37      77.5     0.35      1012.0     4        26         5        25        9.28     271      530.3
   06/08/2016 11:30      77.8      76.7       51     57.6      0.00      8.37      77.2     0.35      1012.0     3        18         5        65        9.28     271      541.6
   06/08/2016 11:20      76.7      75.3       53     57.5      0.00      8.37      77.4     0.35      1012.0     2        35         5        13        9.28     271      514.5
   06/08/2016 11:10      76.3      75.0       54     57.7      0.00      8.37      77.5     0.35      1012.0     3         9         7        22        9.28     272      541.4
   06/08/2016 11:00      75.1      72.4       56     57.4      0.00      8.37      77.3     0.35      1012.0     3        30         6        32        9.28     276      535.2
   06/08/2016 10:50      72.9      72.3       58     56.9      0.00      8.37      77.4     0.35      1012.0     3       344         6        71        9.28     288      506.5
   06/08/2016 10:40      73.3      70.8       59     56.8      0.00      8.37      77.3     0.35      1012.0     3        32         6        21        9.28     311      507.8
   06/08/2016 10:30      70.7      69.6       62     56.4      0.00      8.37      77.7     0.35      1012.0     3         1         5         2        9.28     333      494.8
   06/08/2016 10:20      71.3      70.2       60     56.6      0.00      8.37      77.5     0.35      1012.0     3        15         4       345        9.28     345      479.5
   06/08/2016 10:10      69.8      68.8       63     56.1      0.00      8.37      77.8     0.35      1012.0     2        34         4        69        9.28     356      442.7
   06/08/2016 10:00      68.9      67.8       65     56.1      0.00      8.37      77.3     0.35      1012.0     3        36         4        57        9.28     363      424.7
   06/08/2016 09:50      67.8      65.9       68     55.9      0.00      8.37      77.5     0.35      1012.0     2        39         3       354        9.28     369      419.4
   06/08/2016 09:40      66.3      65.9       70     55.9      0.00      8.37      77.4     0.36      1012.0     2       339         3       342        9.28     373      392.2
   06/08/2016 09:30      66.3      65.0       70     55.8      0.00      8.37      77.3     0.36      1012.0     1       259         3        27        9.28     377      295.6
   06/08/2016 09:20      64.8      63.4       75     55.7      0.00      8.37      77.4     0.36      1012.0     2       310         3       272        9.28     379      258.5
   06/08/2016 09:10      63.9      63.4       75     55.6      0.00      8.37      77.7     0.36      1012.0     3       304         4       274        9.28     382      221.9
   06/08/2016 09:00      63.8      62.2       77     55.6      0.00      8.37      77.5     0.36      1012.0     2        60         3        85        9.28     384      245.5
   06/08/2016 08:50      62.2      61.5       80     55.5      0.00      8.37      77.6     0.36      1012.0     3       331         5       356        9.28     388      221.1
   06/08/2016 08:40      61.9      61.4       80     55.6      0.00      8.37      77.6     0.36      1012.0     2        34         4       359        9.28     393      143.2
   06/08/2016 08:30      61.5      61.1       81     55.5      0.00      8.37      78.3     0.36      1012.0     2        62         3        10        9.28     397      117.2
   06/08/2016 08:20      61.1      60.7       82     55.4      0.00      8.37      78.0     0.36      1012.0     2        37         4        79        9.29     399      107.1
   06/08/2016 08:10      61.0      60.4       82     55.3      0.00      8.37      78.0     0.36      1012.0     2        15         4        11        9.28     402      109.1
   06/08/2016 08:00      60.5      60.0       83     55.1      0.00      8.37      77.6     0.36      1012.0     2        46         3        37        9.28     404       86.0
   06/08/2016 07:50      60.1      59.7       84     55.2      0.00      8.37      78.4     0.36      1012.0     2        35         3        11        9.28     406       87.2
   06/08/2016 07:40      59.9      59.4       85     55.1      0.00      8.37      77.9     0.36      1012.0     3        23         5       358        9.29     408      101.1
   06/08/2016 07:30      59.6      59.1       86     55.0      0.00      8.37      77.9     0.36      1012.0     3        34         5        29        9.28     411       70.1
   06/08/2016 07:20      59.4      58.8       87     54.9      0.00      8.37      77.6     0.36      1012.0     3        28         4        22        9.28     412       56.7
   06/08/2016 07:10      59.0      58.8       86     54.8      0.00      8.37      78.1     0.36      1012.0     3        35         3        31        9.28     413       57.5
   06/08/2016 07:00      58.9      58.5       87     54.8      0.00      8.37      78.6     0.36      1012.0     2        47         4        38        9.28     415       43.4
   06/08/2016 06:50      58.7      58.5       87     54.6      0.00      8.37      78.5     0.36      1011.0     3        50         4        53        9.28     416       22.1
   06/08/2016 06:40      58.6      58.3       87     54.5      0.00      8.37      78.4     0.36      1012.0     2        39         3        35        9.29     417        1.5
   06/08/2016 06:30      58.5      58.3       87     54.5      0.00      8.37      77.8     0.36      1012.0     2        38         3        36        9.29     417      -12.8
   06/08/2016 06:20      58.5      58.2       87     54.5      0.00      8.37      77.5     0.36      1011.0     2        45         2        52        9.29     417      -20.0
   06/08/2016 06:10      58.4      58.0       87     54.3      0.00      8.37      77.9     0.36      1011.0     2        46         3        33        9.29     417      -26.1
   06/08/2016 06:00      58.2      58.0       87     54.2      0.00      8.37      78.5     0.36      1011.0     2        56         3        72        9.29     417      -28.4
   06/08/2016 05:50      58.0      57.7       87     54.1      0.00      8.37      78.7     0.36      1011.0     1        67         2        93        9.29     416      -35.7
   06/08/2016 05:40      57.7      57.2       87     53.5      0.00      8.37      78.9     0.36      1011.0     2        57         3        71        9.29     416      -41.6
   06/08/2016 05:30      57.4      57.0       87     53.3      0.00      8.37      78.7     0.36      1011.0     1        33         1        82        9.29     416      -44.3
   06/08/2016 05:20      57.3      57.0       86     53.0      0.00      8.37      78.5     0.36      1011.0     1       101         2        86        9.29     414      -46.7
   06/08/2016 05:10      57.5      57.3       86     53.4      0.00      8.37      78.8     0.36      1011.0     1        68         2        75        9.29     422      -49.7
   06/08/2016 05:00      57.5      57.3       87     53.5      0.00      8.37      78.2     0.36      1011.0     1       153         2       143        9.29     418      -50.5
   06/08/2016 04:50      57.4      57.0       87     53.2      0.00      8.37      78.7     0.36      1011.0     1       127         2       130        9.29     417      -49.0
   06/08/2016 04:40      57.1      56.8       87     53.1      0.00      8.37      78.7     0.36      1011.0     1       126         2       100        9.29     416      -48.1
   06/08/2016 04:30      57.1      56.9       87     53.1      0.00      8.37      78.9     0.36      1011.0     1       101         1        74        9.29     414      -47.4
   06/08/2016 04:20      57.3      57.0       88     53.5      0.00      8.37      78.9     0.36      1011.0     1        87         2        57        9.29     413      -49.6
   06/08/2016 04:10      57.4      57.0       87     53.4      0.00      8.37      78.8     0.36      1011.0     1       146         2       136        9.29     413      -54.3
   06/08/2016 04:00      57.5      57.3       88     54.0      0.00      8.37      79.3     0.36      1011.0     2       162         3       173        9.29     412      -55.5
   06/08/2016 03:50      57.5      57.3       88     53.9      0.00      8.37      79.3     0.36      1011.0     2       153         3       162        9.29     412      -59.0
   06/08/2016 03:40      57.9      57.5       86     53.7      0.00      8.37      79.2     0.36      1011.0     2       159         2       170        9.29     410      -60.6
   06/08/2016 03:30      58.0      57.6       86     53.8      0.00      8.37      79.1     0.36      1011.0     1       147         2       170        9.29     407      -62.2
   06/08/2016 03:20      58.3      58.0       86     53.8      0.00      8.37      79.4     0.36      1011.0     1       151         2       149        9.29     405      -62.4
   06/08/2016 03:10      58.9      58.3       84     53.8      0.00      8.37      78.8     0.36      1011.0     1       149         2       152        9.29     403      -61.9
   06/08/2016 03:00      59.3      58.7       83     54.0      0.00      8.37      79.5     0.36      1011.0     1       126         2       130        9.29     401      -59.2
   06/08/2016 02:50      59.5      59.4       84     54.4      0.00      8.37      79.8     0.36      1011.0     1        88         1        71        9.29     398      -55.4
   06/08/2016 02:40      59.5      59.4       83     54.4      0.00      8.37      80.0     0.36      1011.0     1        92         2        71        9.29     397      -52.1
   06/08/2016 02:30      59.7      59.3       83     54.4      0.00      8.37      79.3     0.36      1011.0     2        57         3        84        9.29     395      -51.3
   06/08/2016 02:20      59.6      59.3       83     54.3      0.00      8.37      79.6     0.36      1011.0     1        87         3        86        9.29     394      -54.6
   06/08/2016 02:10      59.5      59.3       83     54.2      0.00      8.37      79.3     0.36      1011.0     1        86         2        70        9.29     391      -58.5
   06/08/2016 02:00      59.6      59.4       82     54.0      0.00      8.37      79.2     0.36      1012.0     2        90         2        67        9.29     389      -61.1
   06/08/2016 01:50      59.7      59.4       82     54.2      0.00      8.37      79.4     0.36      1012.0     1        69         2        53        9.30     387      -62.6
   06/08/2016 01:40      59.4      59.3       82     53.8      0.00      8.37      79.5     0.36      1012.0     1        84         2        83        9.30     386      -63.0
   06/08/2016 01:30      59.5      59.3       81     53.5      0.00      8.37      79.2     0.36      1012.0     1        96         2        81        9.30     384      -64.3
   06/08/2016 01:20      59.6      59.4       81     53.8      0.00      8.37      80.1     0.36      1012.0     1        97         2       112        9.30     381      -64.6
   06/08/2016 01:10      59.7      59.4       80     53.5      0.00      8.37      79.7     0.36      1012.0     1        79         1       110        9.30     379      -65.6
   06/08/2016 01:00      60.1      59.9       79     53.6      0.00      8.37      79.9     0.36      1012.0     1        97         1        65        9.30     376      -66.3
   06/08/2016 00:50      60.3      59.9       79     53.7      0.00      8.37      79.8     0.36      1012.0     1        73         1       118        9.30     373      -66.7
   06/08/2016 00:40      60.9      60.4       78     53.9      0.00      8.37      79.8     0.36      1012.0     0        73         1        75        9.30     369      -67.7
   06/08/2016 00:30      61.2      60.9       78     54.2      0.00      8.37      79.6     0.36      1012.0     1        96         2        89        9.30     366      -68.1
   06/08/2016 00:20      61.5      61.3       77     54.1      0.00      8.37      80.0     0.36      1012.0     1        76         1       116        9.30     362      -68.1
   06/08/2016 00:10      61.5      61.4       77     54.1      0.00      8.37      80.2     0.36      1012.0     2        50         2        36        9.30     360      -68.6
   06/08/2016 00:00      61.9      61.6       76     54.1      0.00      8.37      80.0     0.36      1012.0     1        45         2        51        9.30     357      -69.6
   06/07/2016 23:50      62.3      61.9       75     54.1      0.00      8.37      79.9     0.36      1012.0     1        49         2        39        9.30     354      -70.3
   06/07/2016 23:40      62.3      62.1       75     54.0      0.00      8.37      80.3     0.36      1012.0     2        32         3        38        9.30     351      -70.6
   06/07/2016 23:30      62.6      62.3       74     54.0      0.00      8.37      80.2     0.36      1012.0     1        66         2        64        9.30     348      -70.7
   06/07/2016 23:20      62.6      62.4       73     53.9      0.00      8.37      80.0     0.36      1012.0     1        65         2        87        9.30     346      -70.0
   06/07/2016 23:10      62.9      62.6       72     53.5      0.00      8.37      80.2     0.36      1012.0     1        97         1        71        9.30     343      -69.5
   06/07/2016 23:00      63.2      63.1       72     53.9      0.00      8.37      79.9     0.36      1012.0     1        83         1        53        9.30     340      -70.3
   06/07/2016 22:50      63.5      63.2       72     54.0      0.00      8.37      80.2     0.36      1012.0     1        85         2        95        9.30     338      -70.2
   06/07/2016 22:40      63.7      63.3       70     53.7      0.00      8.37      79.8     0.36      1012.0     1        88         1       114        9.30     335      -69.5
   06/07/2016 22:30      63.8      63.5       69     53.5      0.00      8.37      79.5     0.36      1012.0     1        66         1        96        9.31     332      -69.7
   06/07/2016 22:20      64.3      63.9       69     53.8      0.00      8.37      80.2     0.36      1012.0     1       119         1       111        9.31     328      -70.1
   06/07/2016 22:10      64.7      64.3       68     53.7      0.00      8.37      79.7     0.36      1012.0     1       116         1        94        9.31     325      -70.4
   06/07/2016 22:00      64.9      64.7       68     54.2      0.00      8.37      80.5     0.36      1012.0     1        79         1        66        9.31     322      -70.4
   06/07/2016 21:50      65.2      64.9       68     54.1      0.00      8.37      80.3     0.36      1012.0     1        99         2       103        9.31     320      -71.5
   06/07/2016 21:40      65.5      65.2       68     54.3      0.00      8.37      79.9     0.36      1012.0     1        85         2        71        9.31     317      -72.4
   06/07/2016 21:30      65.7      65.5       67     54.3      0.00      8.37      79.9     0.36      1012.0     1        99         2       114        9.31     314      -73.7
   06/07/2016 21:20      66.3      65.7       66     54.3      0.00      8.37      80.1     0.36      1012.0     1       105         2       127        9.31     311      -74.8
   06/07/2016 21:10      66.6      66.3       65     54.3      0.00      8.37      80.1     0.36      1012.0     1        61         2        60        9.32     309      -75.2
   06/07/2016 21:00      67.3      66.7       64     54.5      0.00      8.37      80.4     0.36      1011.0     2        76         3        74        9.32     306      -75.1
   06/07/2016 20:50      67.8      67.2       63     54.4      0.00      8.37      80.2     0.36      1011.0     2        60         3        77        9.32     303      -76.3
   06/07/2016 20:40      68.3      67.8       62     54.5      0.00      8.37      79.8     0.36      1011.0     2        57         4        28        9.32     301      -77.0
   06/07/2016 20:30      69.1      68.4       60     54.5      0.00      8.37      80.0     0.36      1011.0     1        52         3        74        9.32     299      -77.6
   06/07/2016 20:20      69.8      69.1       59     54.4      0.00      8.37      79.7     0.36      1011.0     2        59         3        34        9.32     297      -77.9
   06/07/2016 20:10      70.3      69.8       57     54.3      0.00      8.37      79.6     0.36      1011.0     2        46         3        40        9.33     296      -77.4
   06/07/2016 20:00      70.8      70.3       57     54.3      0.00      8.37      79.7     0.36      1011.0     2        56         4        75        9.33     294      -76.2
   06/07/2016 19:50      71.7      71.0       55     54.2      0.00      8.37      80.2     0.36      1011.0     2        57         3        49        9.33     292      -73.8
   06/07/2016 19:40      72.9      71.8       53     54.4      0.00      8.37      80.2     0.36      1011.0     3        42         5        67        9.33     291      -67.6
   06/07/2016 19:30      73.9      73.2       51     54.5      0.00      8.37      79.7     0.36      1011.0     3        29         5        36        9.34     289      -44.0
   06/07/2016 19:20      74.7      73.7       51     54.8      0.00      8.37      80.1     0.36      1011.0     3        48         5        65        9.34     289      -28.8
   06/07/2016 19:10      76.1      74.8       49     54.7      0.00      8.37      79.9     0.36      1011.0     3        32         5        32        9.34     290      -15.5
   06/07/2016 19:00      76.6      76.1       47     54.9      0.00      8.37      79.6     0.36      1010.0     4        38         6        20        9.34     291       -1.7
   06/07/2016 18:50      76.7      76.3       48     55.1      0.00      8.37      80.0     0.36      1010.0     3       139         5       151        9.35     292       31.7
   06/07/2016 18:40      76.4      75.6       48     55.0      0.00      8.37      80.2     0.36      1010.0     3       156         5       150        9.35     293       54.3
   06/07/2016 18:30      75.8      75.3       49     54.8      0.00      8.37      79.8     0.36      1010.0     5       148         8       175        9.35     294       78.8
   06/07/2016 18:20      76.3      75.8       48     54.9      0.00      8.37      79.3     0.36      1010.0     5       154         7       139        9.36     296      103.0
   06/07/2016 18:10      76.3      76.2       48     55.0      0.00      8.37      79.4     0.36      1010.0     6       154         7       136        9.36     299      123.1
   06/07/2016 18:00      76.9      76.2       47     55.1      0.00      8.37      79.7     0.36      1010.0     6       149         8       132        9.36     303      152.2
   06/07/2016 17:50      77.1      76.4       47     54.9      0.00      8.37      79.9     0.36      1010.0     6       153         8       136        9.36     310      181.0
   06/07/2016 17:40      78.0      76.3       46     54.9      0.00      8.37      79.5     0.36      1010.0     5       166         8       138        9.37     313      198.2
   06/07/2016 17:30      78.7      78.0       45     55.0      0.00      8.37      79.3     0.36      1010.0     6       161         9       144        9.37     319      278.7
   06/07/2016 17:20      79.5      78.4       44     55.1      0.00      8.37      79.2     0.35      1010.0     5       159         7       158        9.37     328      152.2
   06/07/2016 17:10      79.9      79.0       43     55.3      0.00      8.37      80.1     0.35      1010.0     4       168         6       162        9.37     336      209.6
   06/07/2016 17:00      80.2      79.7       43     55.1      0.00      8.37      79.3     0.35      1010.0     4       170         9       152        9.37     264      283.3
   06/07/2016 16:50      79.7      78.6       43     55.0      0.00      8.37      79.2     0.35      1010.0     5       220         7       193        9.37     264      311.0
   06/07/2016 16:40      79.4      78.5       43     55.0      0.00      8.37      79.5     0.35      1010.0     5       202         7       149        9.37     264      267.7
   06/07/2016 16:30      79.4      78.8       43     55.0      0.00      8.37      79.0     0.35      1010.0     5       189         8       196        9.37     264      340.9
   06/07/2016 16:20      79.9      79.2       43     55.1      0.00      8.37      79.1     0.35      1010.0     6       173         8       191        9.37     264      349.7
   06/07/2016 16:10      82.0      80.0       42     55.4      0.00      8.37      78.8     0.35      1010.0     6       155         9       151        9.37     264      374.5
   06/07/2016 16:00      82.6      82.0       41     56.0      0.00      8.37      79.2     0.35      1010.0     4        93         7       102        9.37     264      397.4
   06/07/2016 15:50      83.5      82.5       40     56.2      0.00      8.37      78.9     0.35      1010.0     4        76         6        86        9.37     264      382.2
   06/07/2016 15:40      83.6      82.6       40     56.2      0.00      8.37      78.8     0.35      1010.0     4        41         5        19        9.37     264      403.3
   06/07/2016 15:30      83.3      82.0       40     56.2      0.00      8.37      78.5     0.35      1010.0     4        57         6        58        9.37     264      436.6
   06/07/2016 15:20      83.0      82.5       40     56.1      0.00      8.37      78.5     0.35      1010.0     4        27         5        31        9.37     264      453.8
   06/07/2016 15:10      82.5      81.9       41     56.1      0.00      8.37      78.7     0.35      1010.0     5        18         9         4        9.37     264      463.6
   06/07/2016 15:00      82.1      80.7       42     56.1      0.00      8.37      78.6     0.35      1010.0     4        45         7        73        9.37     264      479.6
   06/07/2016 14:50      81.5      79.5       43     55.8      0.00      8.37      78.6     0.35      1010.0     4        70         6        80        9.37     264      491.6
   06/07/2016 14:40      81.2      79.6       43     55.8      0.00      8.37      78.5     0.35      1010.0     3        64         5        20        9.37     264      501.8
   06/07/2016 14:30      81.0      79.5       43     55.7      0.00      8.37      78.5     0.35      1010.0     4        56         8        90        9.37     264      512.8
   06/07/2016 14:20      81.4      80.5       42     55.6      0.00      8.37      78.6     0.35      1011.0     5        36         7         4        9.37     264      521.4
   06/07/2016 14:10      81.0      79.8       42     55.5      0.00      8.37      78.4     0.35      1011.0     5       360         8       358        9.37     265      527.9
   06/07/2016 14:00      80.7      79.5       43     55.8      0.00      8.37      78.3     0.35      1011.0     4        14         8         5        9.37     265      536.3
   06/07/2016 13:50      80.6      79.8       42     55.3      0.00      8.37      78.6     0.34      1011.0     3        29         7        59        9.37     265      545.0
   06/07/2016 13:40      80.1      78.8       43     55.1      0.00      8.37      78.3     0.34      1011.0     3        35         6        75        9.37     265      553.1
   06/07/2016 13:30      78.9      77.4       45     54.8      0.00      8.37      78.2     0.34      1011.0     3        61         7        63        9.37     265      553.5
   06/07/2016 13:20      79.0      77.5       46     55.4      0.00      8.37      78.4     0.34      1011.0     2        49         6       339        9.37     266      559.5
   06/07/2016 13:10      78.0      76.8       45     54.9      0.00      8.37      78.3     0.34      1011.0     3        22         5       348        9.37     266      569.9
   06/07/2016 13:00      77.7      76.1       47     55.1      0.00      8.37      78.2     0.34      1011.0     3        52         5        73        9.37     266      569.3
   06/07/2016 12:50      77.2      75.6       48     55.1      0.00      8.37      77.9     0.34      1012.0     3       334         6       353        9.37     266      571.1
   06/07/2016 12:40      76.6      75.2       49     55.1      0.00      8.37      78.4     0.34      1012.0     4       347         7       290        9.37     266      569.5
   06/07/2016 12:30      75.5      73.8       50     54.7      0.00      8.37      78.4     0.35      1012.0     4        10         5       329        9.37     265      570.4
   06/07/2016 12:20      74.2      72.7       51     54.5      0.00      8.37      78.3     0.35      1012.0     3        80         6        74        9.37     265      575.2
   06/07/2016 12:10      73.3      72.0       53     54.8      0.00      8.37      78.3     0.35      1012.0     3        90         5       121        9.37     265      570.9
   06/07/2016 12:00      71.5      70.7       56     54.9      0.00      8.37      78.3     0.35      1012.0     3       148         6       171        9.37     266      566.7
   06/07/2016 11:50      72.0      70.1       57     54.9      0.00      8.37      78.3     0.35      1012.0     3         1         6        69        9.37     266      561.6
   06/07/2016 11:40      71.1      69.3       58     54.6      0.00      8.37      78.5     0.35      1012.0     3       349         4       354        9.37     266      555.8
   06/07/2016 11:30      70.3      68.5       59     54.7      0.00      8.37      78.7     0.35      1012.0     3        63         6        34        9.37     266      551.7
   06/07/2016 11:20      69.1      68.1       61     54.8      0.00      8.37      78.9     0.35      1012.0     3       348         5        88        9.37     266      545.7
   06/07/2016 11:10      68.3      67.3       62     54.5      0.00      8.37      78.5     0.35      1012.0     2        49         3        50        9.37     267      539.3
   06/07/2016 11:00      67.4      66.4       64     54.4      0.00      8.37      78.3     0.35      1013.0     3        50         5       116        9.37     267      550.2
   06/07/2016 10:50      66.4      64.0       68     54.2      0.00      8.37      78.7     0.35      1013.0     3        84         6        69        9.37     267      520.3
   06/07/2016 10:40      64.6      63.5       70     54.2      0.00      8.37      78.3     0.35      1013.0     3       132         5       128        9.37     267      304.4
   06/07/2016 10:30      63.8      63.0       72     54.1      0.00      8.37      78.8     0.35      1013.0     2        63         5        79        9.37     267      263.6
   06/07/2016 10:20      63.2      61.9       74     54.1      0.00      8.37      78.5     0.35      1013.0     2        73         5        93        9.37     267      239.5
   06/07/2016 10:10      62.4      61.8       75     54.3      0.00      8.37      78.0     0.35      1013.0     2       123         4       141        9.37     267      167.0
   06/07/2016 10:00      61.8      60.8       78     54.3      0.00      8.37      78.8     0.35      1013.0     4       134         7       129        9.37     267      158.2
   06/07/2016 09:50      60.9      60.5       79     54.2      0.00      8.37      78.5     0.35      1013.0     4       144         5       147        9.37     267      121.1
   06/07/2016 09:40      61.2      60.6       79     54.3      0.00      8.37      78.3     0.35      1013.0     4       150         7       133        9.37     267      123.3
   06/07/2016 09:30      61.0      60.2       81     54.5      0.00      8.37      78.9     0.35      1013.0     2       107         4       103        9.37     267      107.7
   06/07/2016 09:20      60.1      59.6       82     54.4      0.00      8.37      79.1     0.35      1013.0     3       102         5       145        9.37     267       87.6
   06/07/2016 09:10      59.8      59.4       83     54.5      0.00      8.37      79.1     0.35      1013.0     2       112         5       133        9.37     267       72.9
   06/07/2016 09:00      59.5      59.0       84     54.5      0.00      8.37      78.7     0.35      1013.0     2        84         3       120        9.37     267       63.8
   06/07/2016 08:50      59.2      58.6       85     54.5      0.00      8.37      79.0     0.35      1013.0     2        75         4        84        9.37     267       51.1
   06/07/2016 08:40      58.4      58.3       87     54.4      0.00      8.37      79.2     0.35      1013.0     3       123         6       113        9.37     267       46.1
   06/07/2016 08:30      58.5      58.1       86     54.3      0.00      8.37      78.8     0.35      1013.0     3        95         4        91        8.90     267       46.8
   06/07/2016 08:20      58.3      58.0       87     54.3      0.00      8.37      78.7     0.35      1013.0     4       110         5       127        7.77     267       37.6
   06/07/2016 08:10      58.1      57.8       88     54.4      0.00      8.37      79.2     0.35      1013.0     3        94         5        75        7.77     267       25.5
   06/07/2016 08:00      58.1      57.8       88     54.3      0.00      8.37      79.2     0.35      1012.0     3       103         4        69        7.77     267       22.8
   06/07/2016 07:50      58.1      57.5       88     54.2      0.00      8.37      79.3     0.35      1012.0     2        81         3       141        7.77     267       23.7
   06/07/2016 07:40      57.5      57.1       89     53.9      0.00      8.37      79.1     0.35      1012.0     3       141         3       137        7.77     267       20.1
   06/07/2016 07:30      57.4      57.0       89     53.9      0.00      8.37      79.4     0.35      1012.0     3       129         4       122        7.77     267       15.4
   06/07/2016 07:20      57.3      56.9       89     53.6      0.00      8.37      79.3     0.35      1012.0     3       157         4       172        7.77     267       10.8
   06/07/2016 07:10      57.2      56.6       89     53.8      0.00      8.37      78.9     0.35      1012.0     3       153         4       162        7.77     267       10.7
   06/07/2016 07:00      56.9      56.5       90     53.7      0.00      8.37      79.5     0.35      1012.0     2       151         4       152        7.78     267        7.5
   06/07/2016 06:50      57.0      56.6       89     53.7      0.00      8.37      79.6     0.35      1012.0     2       145         4       174        7.78     267        3.7
   06/07/2016 06:40      57.0      56.6       89     53.6      0.00      8.37      79.4     0.35      1012.0     3       166         4       164        7.78     267       -1.0
   06/07/2016 06:30      57.0      56.9       89     53.6      0.00      8.37      79.6     0.35      1012.0     2       147         4       159        7.78     267       -5.1
   06/07/2016 06:20      57.0      56.9       88     53.6      0.00      8.37      79.5     0.35      1012.0     2       162         4       150        7.78     267       -7.9
   06/07/2016 06:10      57.2      56.7       88     53.5      0.00      8.37      79.8     0.35      1012.0     3       159         3       175        7.78     267      -10.6
   06/07/2016 06:00      57.1      56.9       88     53.4      0.00      8.37      79.6     0.35      1012.0     2       145         3       125        7.78     267      -12.1
   06/07/2016 05:50      57.0      56.8       88     53.4      0.00      8.37      79.6     0.35      1011.0     2       145         5       161        7.78     267      -12.8
   06/07/2016 05:40      57.4      57.0       87     53.4      0.00      8.37      80.1     0.35      1011.0     3       145         4       140        7.78     267      -13.2
   06/07/2016 05:30      57.4      57.0       88     53.6      0.00      8.37      80.0     0.35      1011.0     3       102         4       111        7.78     267      -13.3
   06/07/2016 05:20      57.3      57.0       88     53.5      0.00      8.37      79.3     0.35      1011.0     3       114         4       137        7.78     267      -13.3
   06/07/2016 05:10      57.4      57.2       88     53.9      0.00      8.37      79.3     0.35      1011.0     2       102         3       138        7.78     267      -13.2
   06/07/2016 05:00      57.5      57.0       87     53.5      0.00      8.37      79.7     0.35      1011.0     2        88         4        76        7.78     267      -13.1
   06/07/2016 04:50      57.1      56.9       87     53.2      0.00      8.37      80.0     0.35      1011.0     2       104         3        94        7.78     267      -13.6
   06/07/2016 04:40      57.1      56.8       87     53.3      0.00      8.37      79.8     0.35      1011.0     1       141         2        83        7.78     267      -14.3
   06/07/2016 04:30      57.0      56.8       88     53.2      0.00      8.37      80.1     0.35      1011.0     1       121         2       158        7.78     267      -14.8
   06/07/2016 04:20      56.8      56.4       88     53.1      0.00      8.37      79.8     0.35      1011.0     1       104         2       129        7.78     267      -15.1
   06/07/2016 04:10      56.6      56.3       89     53.1      0.00      8.37      79.9     0.35      1011.0     2       126         2       120        7.78     267      -17.6
   06/07/2016 04:00      56.5      56.0       91     53.6      0.00      8.37      80.2     0.36      1011.0     2       101         3       120        7.78     266      -19.1
   06/07/2016 03:50      56.3      56.0       90     53.4      0.00      8.37      80.0     0.36      1011.0     1       131         1        67        7.78     267      -41.3
   06/07/2016 03:40      56.6      56.3       90     53.6      0.00      8.37      79.8     0.36      1011.0     1        73         1        84        7.78     267      -53.6
   06/07/2016 03:30      56.9      56.6       90     53.7      0.00      8.37      79.9     0.36      1011.0     1        62         2        31        7.78     267      -57.2
   06/07/2016 03:20      57.1      56.9       89     53.7      0.00      8.37      79.9     0.36      1011.0     2        45         2        35        7.78     266      -61.2
   06/07/2016 03:10      57.3      56.9       88     53.7      0.00      8.37      80.2     0.36      1011.0     2        64         3        75        7.78     266      -63.3
   06/07/2016 03:00      57.8      57.4       86     53.4      0.00      8.37      80.2     0.36      1011.0     2        64         3        77        7.78     266      -65.4
   06/07/2016 02:50      58.0      57.8       85     53.5      0.00      8.37      80.4     0.36      1011.0     1        49         3         0        7.78     266      -66.6
   06/07/2016 02:40      58.3      58.0       85     53.5      0.00      8.37      80.4     0.36      1011.0     2        45         3        30        7.78     266      -66.9
   06/07/2016 02:30      58.3      58.0       84     53.3      0.00      8.37      80.3     0.36      1011.0     1        60         3        67        7.78     266      -67.2
   06/07/2016 02:20      58.5      58.3       83     53.4      0.00      8.37      80.1     0.36      1011.0     1        81         2        94        7.78     266      -67.6
   06/07/2016 02:10      58.8      58.5       83     53.3      0.00      8.37      80.5     0.36      1011.0     1        67         1        52        7.78     266      -68.2
   06/07/2016 02:00      58.8      58.6       83     53.6      0.00      8.37      80.4     0.36      1011.0     1        82         3        96        7.78     266      -68.3
   06/07/2016 01:50      59.0      58.6       82     53.3      0.00      8.37      80.5     0.36      1011.0     2       116         3       126        7.78     266      -68.7
   06/07/2016 01:40      59.4      59.1       81     53.5      0.00      8.37      80.4     0.36      1011.0     2        86         2        85        7.79     266      -69.2
   06/07/2016 01:30      59.5      59.4       81     53.6      0.00      8.37      80.1     0.36      1011.0     2        48         2        31        7.79     266      -69.2
   06/07/2016 01:20      59.5      59.3       80     53.4      0.00      8.37      80.5     0.36      1011.0     1        47         1        39        7.79     266      -69.3
   06/07/2016 01:10      59.8      59.5       80     53.6      0.00      8.37      80.6     0.36      1011.0     1        63         4        72        7.79     266      -70.2
   06/07/2016 01:00      59.9      59.6       79     53.4      0.00      8.37      80.3     0.36      1011.0     1        67         2        69        7.79     266      -70.8
   06/07/2016 00:50      60.1      59.8       79     53.4      0.00      8.37      80.6     0.36      1011.0     1        55         1        64        7.79     266      -71.4
   06/07/2016 00:40      60.5      60.1       78     53.5      0.00      8.37      80.5     0.36      1011.0     1        92         2       109        7.79     266      -71.6
   06/07/2016 00:30      60.5      60.3       78     53.5      0.00      8.37      80.8     0.36      1011.0     1        53         2        67        7.79     265      -72.2
   06/07/2016 00:20      60.8      60.5       77     53.4      0.00      8.37      80.7     0.36      1011.0     1        94         2        94        7.79     265      -72.8
   06/07/2016 00:10      61.0      60.9       76     53.4      0.00      8.37      80.5     0.36      1011.0     1        56         3        78        7.79     265      -72.7
   06/07/2016 00:00      61.2      60.9       76     53.5      0.00      8.37      80.7     0.36      1011.0     2        57         3        72        7.79     265      -72.7
   06/06/2016 23:50      61.4      61.1       76     53.5      0.00      8.37      81.0     0.36      1011.0     2        73         2        71        7.79     265      -73.2
   06/06/2016 23:40      61.6      61.2       75     53.5      0.00      8.37      80.9     0.36      1011.0     2        64         2        80        7.79     265      -73.8
   06/06/2016 23:30      62.1      61.7       74     53.5      0.00      8.37      80.8     0.36      1011.0     2        59         3        61        7.79     265      -74.1
   06/06/2016 23:20      62.3      62.1       73     53.5      0.00      8.37      80.8     0.36      1011.0     2        52         3        76        7.79     265      -74.3
   06/06/2016 23:10      62.6      62.3       72     53.5      0.00      8.37      81.0     0.36      1011.0     2        72         4        83        7.79     265      -74.6
   06/06/2016 23:00      63.0      62.6       72     53.6      0.00      8.37      81.0     0.36      1011.0     2        66         4        75        7.79     265      -75.0
   06/06/2016 22:50      63.4      63.0       71     53.6      0.00      8.37      80.7     0.36      1011.0     2        47         2        50        7.79     265      -75.3
   06/06/2016 22:40      63.8      63.3       70     53.6      0.00      8.37      80.9     0.36      1011.0     1        52         2        53        7.79     265      -75.4
   06/06/2016 22:30      64.4      63.9       68     53.5      0.00      8.37      80.6     0.36      1011.0     1        46         2        82        7.79     265      -75.7
   06/06/2016 22:20      65.1      64.5       67     53.5      0.00      8.37      80.8     0.36      1011.0     2        63         3        68        7.79     265      -75.4
   06/06/2016 22:10      65.5      65.0       65     53.4      0.00      8.37      80.7     0.36      1011.0     2        41         3        23        7.79     265      -76.4
   06/06/2016 22:00      65.8      65.3       64     53.1      0.00      8.37      81.0     0.36      1011.0     1        73         2        75        7.79     265      -76.4
   06/06/2016 21:50      65.9      65.8       63     52.9      0.00      8.37      80.7     0.36      1011.0     2        69         2        74        7.79     265      -77.2
   06/06/2016 21:40      66.5      66.1       62     53.0      0.00      8.37      80.7     0.36      1011.0     2        70         3        84        7.79     265      -78.5
   06/06/2016 21:30      67.3      66.5       60     52.7      0.00      8.37      80.8     0.36      1011.0     2        66         4        74        7.80     265      -79.5
   06/06/2016 21:20      67.8      67.4       58     52.3      0.00      8.37      80.7     0.36      1010.0     2       109         3       108        7.80     265      -79.7
   06/06/2016 21:10      68.4      67.9       56     52.1      0.00      8.37      80.7     0.36      1010.0     2       116         3       126        7.80     264      -80.3
   06/06/2016 21:00      68.8      68.5       56     52.1      0.00      8.37      80.7     0.36      1010.0     1       116         2       201        7.80     264      -81.4
   06/06/2016 20:50      69.2      68.8       54     51.7      0.00      8.37      80.8     0.36      1010.0     2       155         3       160        7.80     264      -81.7
   06/06/2016 20:40      70.4      69.3       52     51.5      0.00      8.37      80.7     0.36      1010.0     3       157         4       142        7.80     264      -82.7
   06/06/2016 20:30      71.1      70.5       47     49.8      0.00      8.37      80.5     0.36      1010.0     3       160         4       146        7.80     264      -83.8
   06/06/2016 20:20      71.8      71.4       47     50.3      0.00      8.37      80.5     0.36      1010.0     3       146         4       126        7.80     264      -83.6
   06/06/2016 20:10      72.2      71.7       48     51.5      0.00      8.37      80.9     0.36      1010.0     3       147         4       137        7.80     264      -83.4
   06/06/2016 20:00      73.3      72.4       48     52.2      0.00      8.37      80.8     0.36      1009.0     3       122         5       129        7.80     264      -82.1
   06/06/2016 19:50      74.0      73.4       47     52.4      0.00      8.37      80.7     0.36      1009.0     3       131         4       128        7.80     264      -78.3
   06/06/2016 19:40      74.7      74.2       46     52.1      0.00      8.37      80.5     0.36      1009.0     3       157         4       169        7.80     264      -75.4
   06/06/2016 19:30      75.6      74.8       44     51.8      0.00      8.37      80.4     0.36      1009.0     3       168         4       157        7.80     264      -54.5
   06/06/2016 19:20      76.7      75.7       43     51.8      0.00      8.37      80.8     0.36      1009.0     2       159         3       154        7.81     264      -40.5
   06/06/2016 19:10      76.9      76.4       42     51.9      0.00      8.37      80.5     0.36      1009.0     2       161         3       122        7.81     264      -22.4
   06/06/2016 19:00      77.2      76.6       42     51.9      0.00      8.37      80.5     0.36      1009.0     4       159         6       161        7.81     264       -1.9
   06/06/2016 18:50      78.5      77.6       40     51.9      0.00      8.37      80.5     0.36      1008.0     4       152         4       141        7.81     264       17.9
   06/06/2016 18:40      79.2      78.7       39     51.9      0.00      8.37      80.6     0.36      1008.0     2       183         4       131        7.82     264       38.3
   06/06/2016 18:30      79.7      79.0       38     51.7      0.00      8.37      80.3     0.36      1008.0     3       114         4       137        7.82     264       59.3
   06/06/2016 18:20      79.8      79.0       38     51.6      0.00      8.37      80.4     0.36      1008.0     3       173         5       188        7.82     264       81.4
   06/06/2016 18:10      79.6      79.2       38     51.9      0.00      8.37      80.4     0.36      1008.0     3       202         5       225        7.82     264      105.6
   06/06/2016 18:00      80.4      79.2       38     51.4      0.00      8.37      80.4     0.36      1008.0     4       191         6       164        7.82     264      128.9
   06/06/2016 17:50      80.5      79.5       35     50.1      0.00      8.37      80.2     0.35      1008.0     2       158         5       118        7.82     264      150.1
   06/06/2016 17:40      80.6      79.4       35     50.0      0.00      8.37      80.2     0.36      1008.0     4       144         6       190        7.83     264      174.0
   06/06/2016 17:30      80.3      79.4       35     49.9      0.00      8.37      80.4     0.36      1008.0     3        92         6        98        7.83     264      199.9
   06/06/2016 17:20      80.1      79.8       35     49.9      0.00      8.37      80.2     0.35      1008.0     3        95         6        74        7.83     264      221.9
   06/06/2016 17:10      80.6      79.9       35     49.8      0.00      8.37      80.1     0.35      1008.0     4       113         5        93        7.83     264      245.2
   06/06/2016 17:00      82.2      80.0       34     50.0      0.00      8.37      80.0     0.35      1008.0     4       151         6       170        7.84     264      267.5
   06/06/2016 16:50      82.3      80.9       34     50.7      0.00      8.37      80.0     0.35      1008.0     3       218         4       263        7.84     264      291.5
   06/06/2016 16:40      82.1      80.3       36     51.7      0.00      8.37      79.9     0.35      1008.0     4        90         8       137        7.84     264      314.4
   06/06/2016 16:30      81.5      80.3       38     53.3      0.00      8.37      79.8     0.35      1008.0     5        47         8        82        7.84     264      333.7
   06/06/2016 16:20      81.4      79.9       39     53.5      0.00      8.37      79.9     0.35      1008.0     4        87         8        67        7.84     264      355.1
   06/06/2016 16:10      82.2      80.7       39     54.0      0.00      8.37      80.1     0.35      1008.0     4        59         7        73        7.85     264      372.9
   06/06/2016 16:00      82.0      80.6       39     53.9      0.00      8.37      79.8     0.35      1008.0     4        67         8        82        7.85     264      391.2
   06/06/2016 15:50      82.3      80.5       39     54.0      0.00      8.37      79.6     0.35      1009.0     5        56         6        25        7.85     264      409.3
   06/06/2016 15:40      82.0      81.2       39     54.1      0.00      8.37      79.7     0.35      1009.0     3        33         6        34        7.86     265      422.8
   06/06/2016 15:30      81.4      80.9       40     54.3      0.00      8.37      79.5     0.35      1009.0     4        47         9        79        7.86     265      440.2
   06/06/2016 15:20      81.0      79.7       40     54.1      0.00      8.37      79.7     0.35      1009.0     4        51         7       104        7.86     264      456.7
   06/06/2016 15:10      80.9      79.2       41     54.5      0.00      8.37      79.5     0.35      1009.0     4        53         7        59        7.86     264      469.8
   06/06/2016 15:00      80.7      78.2       42     54.4      0.00      8.37      79.4     0.35      1009.0     4        65         6       124        7.86     264      484.1
   06/06/2016 14:50      79.3      78.8       43     54.5      0.00      8.37      79.5     0.35      1009.0     5        66         6        37        7.87     264      499.2
   06/06/2016 14:40      79.3      78.4       43     54.6      0.00      8.37      79.6     0.35      1009.0     4        64         7        86        7.87     264      513.5
   06/06/2016 14:30      78.7      77.8       44     54.6      0.00      8.37      79.6     0.35      1009.0     4        72         6        71        7.87     264      519.5
   06/06/2016 14:20      79.3      77.5       44     54.6      0.00      8.37      79.4     0.35      1009.0     5        64         7        70        7.87     265      532.4
   06/06/2016 14:10      78.8      78.1       43     54.3      0.00      8.37      79.6     0.35      1009.0     4        54         7        23        7.87     265      532.4
   06/06/2016 14:00      78.9      77.9       43     54.3      0.00      8.37      79.5     0.35      1010.0     4        72         6       119        7.87     265      551.4
   06/06/2016 13:50      78.4      77.5       44     54.2      0.00      8.37      79.4     0.35      1010.0     4        31         7       348        7.88     266      489.6
   06/06/2016 13:40      78.0      77.0       44     54.2      0.00      8.37      79.5     0.35      1010.0     3        23         5         9        7.88     266      509.3
   06/06/2016 13:30      78.0      76.8       45     54.3      0.00      8.37      79.3     0.35      1010.0     4        18         6         1        7.88     266      547.7
   06/06/2016 13:20      77.3      75.8       46     54.2      0.00      8.37      79.2     0.35      1010.0     4        20         6       354        7.88     266      576.2
   06/06/2016 13:10      76.6      75.2       46     53.6      0.00      8.37      79.5     0.35      1010.0     3        59         6        52        7.88     266      595.8
   06/06/2016 13:00      74.9      73.8       48     53.6      0.00      8.37      79.5     0.35      1010.0     3        22         6        72        7.88     267      557.3
   06/06/2016 12:50      75.2      73.8       49     54.0      0.00      8.37      79.5     0.35      1010.0     4        39         5       163        7.88     267      582.2
   06/06/2016 12:40      74.6      72.4       50     54.0      0.00      8.37      79.3     0.35      1011.0     4        36         6        52        7.88     267      587.1
   06/06/2016 12:30      72.7      71.8       53     54.0      0.00      8.37      79.3     0.35      1011.0     3        15         6        16        7.87     266      578.9
   06/06/2016 12:20      72.4      70.4       54     54.0      0.00      8.37      79.5     0.35      1011.0     3        36         5        27        7.87     269      576.0
   06/06/2016 12:10      71.8      70.3       55     54.2      0.00      8.37      79.7     0.35      1011.0     4        60         6        72        7.87     273      513.9
   06/06/2016 12:00      71.5      70.8       55     54.3      0.00      8.37      79.3     0.35      1011.0     3        29         6        10        7.87     275      594.7
   06/06/2016 11:50      71.7      69.8       56     54.4      0.00      8.37      79.5     0.35      1011.0     3        55         7        88        7.87     277      580.3
   06/06/2016 11:40      69.3      68.0       60     54.2      0.00      8.37      79.3     0.35      1011.0     3       346         6       349        7.88     278      573.8
   06/06/2016 11:30      68.1      66.8       62     54.1      0.00      8.37      79.2     0.35      1011.0     4       178         5       154        7.88     278      570.9
   06/06/2016 11:20      68.1      66.2       63     54.1      0.00      8.37      79.4     0.35      1011.0     3       317         8       157        7.87     278      541.5
   06/06/2016 11:10      66.0      64.8       66     53.8      0.00      8.37      79.0     0.35      1011.0     3       273         5       266        7.87     279      352.0
   06/06/2016 11:00      65.7      63.9       68     53.8      0.00      8.37      79.7     0.36      1011.0     2       277         3       264        7.87     279      394.8
   06/06/2016 10:50      65.9      64.1       67     53.8      0.00      8.37      79.8     0.35      1011.0     3       250         6       228        7.87     278      389.0
   06/06/2016 10:40      64.5      64.1       68     53.7      0.00      8.37      80.2     0.36      1011.0     3       148         4        22        7.88     279      340.5
   06/06/2016 10:30      65.1      63.6       68     53.7      0.00      8.37      79.6     0.36      1011.0     3       329         4       348        7.87     281      410.2
   06/06/2016 10:20      63.6      62.5       71     53.5      0.00      8.37      79.8     0.36      1011.0     2       261         4       291        7.87     283      316.5
   06/06/2016 10:10      63.1      61.8       72     53.5      0.00      8.37      79.8     0.36      1011.0     2       230         3       236        7.87     284      284.7
   06/06/2016 10:00      62.3      61.8       73     53.4      0.00      8.37      80.5     0.36      1011.0     2       168         4       247        7.87     286      268.0
   06/06/2016 09:50      62.4      61.6       73     53.5      0.00      8.37      80.0     0.36      1011.0     3        29         5        81        7.87     288      216.7
   06/06/2016 09:40      61.6      60.6       77     53.6      0.00      8.37      80.1     0.36      1011.0     2       106         4       340        7.87     290      223.3
   06/06/2016 09:30      60.4      59.3       80     53.6      0.00      8.37      80.2     0.35      1011.0     2        85         5        70        7.87     290      166.3
   06/06/2016 09:20      59.2      58.9       82     53.5      0.00      8.37      80.3     0.35      1011.0     3       170         5       134        7.87     299      119.5
   06/06/2016 09:10      59.4      58.8       82     53.5      0.00      8.37      80.0     0.35      1011.0     3       122         6        88        7.97     266      103.5
   06/06/2016 09:00      59.4      58.6       82     53.5      0.00      8.37      79.9     0.35      1011.0     2       107         5       134        7.97     267       94.2
   06/06/2016 08:50      59.3      58.9       82     53.5      0.00      8.37      80.1     0.35      1011.0     2        41         4        45        7.97     267       94.2
   06/06/2016 08:40      59.4      58.5       83     53.7      0.00      8.37      80.1     0.35      1011.0     3        50         5       358        7.97     267       74.6
   06/06/2016 08:30      58.6      57.5       86     53.7      0.00      8.37      80.2     0.35      1011.0     2        47         4        62        7.97     267       60.0
   06/06/2016 08:20      58.0      57.6       86     53.5      0.00      8.37      80.3     0.35      1011.0     2        91         3       133        7.97     267       48.1
   06/06/2016 08:10      57.6      57.3       87     53.5      0.00      8.37      80.3     0.35      1011.0     1        39         2       358        7.97     267       35.1
   06/06/2016 08:00      57.7      57.1       87     53.4      0.00      8.37      80.5     0.35      1011.0     3       114         5        88        7.97     266       37.3
   06/06/2016 07:50      57.7      57.4       86     53.5      0.00      8.37      80.7     0.35      1011.0     3        76         4       140        7.97     266       31.7
   06/06/2016 07:40      57.6      57.0       88     53.7      0.00      8.37      80.9     0.35      1011.0     2        85         3        33        7.98     266       21.6
   06/06/2016 07:30      57.5      57.0       88     53.6      0.00      8.37      80.2     0.35      1010.0     2        89         3        76        7.98     267       18.3
   06/06/2016 07:20      57.6      57.3       87     53.7      0.00      8.37      80.6     0.35      1010.0     2        64         5        69        7.98     267       14.7
   06/06/2016 07:10      57.5      57.0       88     53.7      0.00      8.37      80.3     0.35      1011.0     2        86         3        80        7.98     266        8.2
   06/06/2016 07:00      57.2      57.0       88     53.5      0.00      8.37      80.7     0.35      1010.0     2        31         4       359        7.98     267        4.6
   06/06/2016 06:50      57.2      56.9       88     53.6      0.00      8.37      80.8     0.35      1010.0     2        23         4        15        7.98     266        1.3
   06/06/2016 06:40      57.1      56.8       89     53.6      0.00      8.37      80.9     0.35      1010.0     3        37         4        72        7.98     267       -1.7
   06/06/2016 06:30      57.0      56.8       89     53.6      0.00      8.37      80.7     0.35      1010.0     2        61         3        35        7.98     267       -5.6
   06/06/2016 06:20      56.9      56.3       90     53.6      0.00      8.37      80.4     0.35      1010.0     2        33         3         6        7.98     266       -8.7
   06/06/2016 06:10      56.4      55.9       91     53.4      0.00      8.37      80.7     0.35      1010.0     2        71         4        77        7.98     267      -10.9
   06/06/2016 06:00      56.1      55.8       91     53.4      0.00      8.37      80.8     0.35      1010.0     2        92         4       120        7.99     266      -13.0
   06/06/2016 05:50      56.1      55.8       91     53.3      0.00      8.37      80.6     0.35      1010.0     3        99         5        97        7.99     266      -14.1
   06/06/2016 05:40      56.5      56.0       89     53.2      0.00      8.37      80.9     0.35      1010.0     3        74         5        71        7.99     266      -15.5
   06/06/2016 05:30      56.5      56.3       89     53.3      0.00      8.37      80.7     0.35      1010.0     2        35         3        61        7.99     266      -16.3
   06/06/2016 05:20      56.6      56.5       89     53.3      0.00      8.37      80.8     0.35      1010.0     2        25         3        38        7.99     266      -16.1
   06/06/2016 05:10      56.8      56.4       89     53.3      0.00      8.37      80.9     0.35      1010.0     2        34         4        14        7.99     266      -16.1
   06/06/2016 05:00      56.6      56.3       89     53.2      0.00      8.37      80.8     0.35      1010.0     3        37         4        36        7.99     266      -16.0
   06/06/2016 04:50      56.8      56.3       89     53.2      0.00      8.37      81.1     0.35      1010.0     2        40         3        51        7.99     266      -16.5
   06/06/2016 04:40      56.5      55.9       90     53.2      0.00      8.37      81.0     0.35      1010.0     2        57         3        28        8.00     266      -16.6
   06/06/2016 04:30      56.4      56.1       89     53.2      0.00      8.37      81.0     0.35      1010.0     3        99         5        68        8.00     266      -15.6
   06/06/2016 04:20      56.6      56.4       89     53.3      0.00      8.37      81.1     0.35      1010.0     2        95         4       107        8.00     266      -15.8
   06/06/2016 04:10      56.5      56.3       89     53.3      0.00      8.37      80.9     0.35      1010.0     2       106         5       103        8.00     266      -15.7
   06/06/2016 04:00      57.0      56.8       88     53.4      0.00      8.37      81.2     0.35      1010.0     2        45         3        84        8.00     266      -16.3
   06/06/2016 03:50      57.2      56.9       88     53.4      0.00      8.37      81.1     0.35      1010.0     2        37         4        11        8.00     266      -16.5
   06/06/2016 03:40      57.1      56.8       89     53.6      0.00      8.37      81.3     0.35      1010.0     2        76         3        95        8.00     266      -16.5
   06/06/2016 03:30      56.9      56.7       89     53.5      0.00      8.37      81.4     0.35      1010.0     2       100         3        87        8.00     266      -16.8
   06/06/2016 03:20      57.0      56.8       88     53.4      0.00      8.37      81.5     0.35      1010.0     3        65         5        70        8.00     266      -37.0
   06/06/2016 03:10      57.2      56.9       87     53.3      0.00      8.37      81.6     0.35      1010.0     2        51         5        67        8.00     266      -59.5
   06/06/2016 03:00      57.6      57.3       86     53.1      0.00      8.37      81.5     0.35      1010.0     3        34         5        59        8.00     266      -70.1
   06/06/2016 02:50      58.2      57.7       83     53.0      0.00      8.37      81.6     0.35      1010.0     3        53         4        69        8.01     266      -71.2
   06/06/2016 02:40      58.6      58.3       82     52.9      0.00      8.37      81.2     0.35      1010.0     2        56         4        78        8.01     265      -70.8
   06/06/2016 02:30      58.7      58.5       81     52.9      0.00      8.37      81.4     0.35      1010.0     2        53         2        72        8.01     266      -70.4
   06/06/2016 02:20      58.6      58.4       81     52.7      0.00      8.37      81.8     0.35      1010.0     2        42         2        33        8.01     266      -70.2
   06/06/2016 02:10      58.9      58.6       81     52.8      0.00      8.37      81.4     0.35      1010.0     1        64         1        31        8.01     265      -71.0
   06/06/2016 02:00      58.9      58.8       81     53.0      0.00      8.37      81.7     0.35      1010.0     1        79         3       100        8.01     265      -71.7
   06/06/2016 01:50      59.4      59.1       80     52.9      0.00      8.37      81.6     0.35      1010.0     2        97         2       127        8.01     265      -72.3
   06/06/2016 01:40      59.5      59.3       79     53.0      0.00      8.37      81.5     0.35      1010.0     2        59         3        75        8.01     265      -72.0
   06/06/2016 01:30      59.4      59.3       79     52.9      0.00      8.37      81.7     0.35      1010.0     1        63         1        45        8.01     265      -71.9
   06/06/2016 01:20      59.6      59.4       79     53.0      0.00      8.37      81.6     0.35      1010.0     1        75         2        70        8.01     265      -72.1
   06/06/2016 01:10      59.9      59.5       79     53.1      0.00      8.37      81.9     0.35      1010.0     1        87         2        66        8.01     265      -73.0
   06/06/2016 01:00      60.0      59.8       78     53.2      0.00      8.37      81.8     0.35      1010.0     2        78         2        64        8.01     265      -73.5
   06/06/2016 00:50      60.3      60.0       78     53.2      0.00      8.37      81.7     0.35      1010.0     2        81         2        57        8.01     265      -73.5
   06/06/2016 00:40      60.4      60.2       77     53.2      0.00      8.37      81.8     0.35      1010.0     1        95         2       109        8.01     265      -73.9
   06/06/2016 00:30      60.7      60.4       76     53.1      0.00      8.37      81.8     0.35      1010.0     1        72         2        82        8.01     265      -74.1
   06/06/2016 00:20      60.7      60.5       77     53.2      0.00      8.37      81.8     0.35      1010.0     1        58         2        59        8.01     265      -74.5
   06/06/2016 00:10      61.0      60.6       76     53.4      0.00      8.37      81.7     0.35      1010.0     2        70         3        70        8.01     265      -74.8
   06/06/2016 00:00      61.4      60.9       75     53.2      0.00      8.37      82.0     0.35      1010.0     2        84         3       101        8.01     265      -75.4
   06/05/2016 23:50      61.6      61.4       74     53.1      0.00      8.37      81.7     0.35      1010.0     1        62         2        78        8.01     265      -76.5
   06/05/2016 23:40      61.8      61.7       73     53.2      0.00      8.37      81.8     0.35      1010.0     2        45         2        61        8.02     265      -77.4
   06/05/2016 23:30      62.1      61.8       73     53.2      0.00      8.37      81.8     0.35      1010.0     1        43         2        41        8.02     265      -77.8
   06/05/2016 23:20      62.4      62.1       72     53.2      0.00      8.37      82.0     0.35      1010.0     2        54         3        54        8.02     265      -78.0
   06/05/2016 23:10      62.8      62.4       71     53.1      0.00      8.37      82.0     0.35      1010.0     3        62         3       104        8.02     265      -77.8
   06/05/2016 23:00      63.4      62.9       70     53.0      0.00      8.37      81.8     0.35      1011.0     2        75         2        73        8.02     265      -78.4
   06/05/2016 22:50      63.5      63.3       69     53.0      0.00      8.37      82.1     0.35      1010.0     2        54         3        77        8.02     265      -79.0
   06/05/2016 22:40      64.0      63.6       68     53.0      0.00      8.37      81.9     0.35      1010.0     2        65         3        62        8.02     265      -79.5
   06/05/2016 22:30      64.5      64.1       67     53.1      0.00      8.37      82.1     0.35      1010.0     2        55         3        60        8.02     265      -80.4
   06/05/2016 22:20      64.9      64.5       66     53.0      0.00      8.37      81.9     0.35      1010.0     2        51         4        62        8.02     264      -81.1
   06/05/2016 22:10      65.4      65.0       64     52.8      0.00      8.37      82.0     0.35      1010.0     2        52         4        67        8.02     265      -82.2
   06/05/2016 22:00      65.8      65.4       63     52.8      0.00      8.37      82.0     0.35      1010.0     2        57         2        86        8.02     264      -82.8
   06/05/2016 21:50      66.1      65.8       63     52.9      0.00      8.37      81.8     0.35      1010.0     2        61         3        92        8.02     264      -83.7
   06/05/2016 21:40      66.8      66.2       61     52.8      0.00      8.37      82.2     0.35      1010.0     2        76         4        99        8.02     264      -84.8
   06/05/2016 21:30      67.8      67.0       59     52.7      0.00      8.37      82.0     0.35      1010.0     2        74         5        64        8.02     264      -85.7
   06/05/2016 21:20      68.5      68.1       57     52.8      0.00      8.37      81.7     0.35      1010.0     2        62         4       102        8.03     264      -86.8
   06/05/2016 21:10      69.1      68.5       56     52.7      0.00      8.37      82.0     0.35      1010.0     2        66         3        74        8.03     264      -87.6
   06/05/2016 21:00      69.3      69.1       56     52.7      0.00      8.37      81.9     0.35      1010.0     1        50         2        65        8.03     264      -88.4
   06/05/2016 20:50      70.3      69.4       55     52.8      0.00      8.37      81.9     0.35      1010.0     2        82         3        99        8.03     264      -89.7
   06/05/2016 20:40      70.7      70.3       54     52.9      0.00      8.37      81.9     0.35      1010.0     1        45         2        77        8.03     264      -92.1
   06/05/2016 20:30      71.2      70.8       53     52.8      0.00      8.37      81.8     0.35      1010.0     1        44         2        28        8.03     264      -93.9
   06/05/2016 20:20      71.7      71.3       51     52.6      0.00      8.37      81.7     0.35      1010.0     2        54         3        68        8.03     264      -95.1
   06/05/2016 20:10      72.9      71.9       50     52.8      0.00      8.37      81.8     0.35      1010.0     3        69         5        64        8.03     264      -94.7
   06/05/2016 20:00      74.1      73.0       49     53.4      0.00      8.37      81.7     0.35      1010.0     2        76         3        61        8.03     264      -93.1
   06/05/2016 19:50      75.8      74.3       48     53.8      0.00      8.37      81.9     0.35      1010.0     3        80         5        70        8.04     264      -91.9
   06/05/2016 19:40      77.4      75.8       45     53.9      0.00      8.37      81.7     0.35      1010.0     2        37         4        12        8.04     264      -90.7
   06/05/2016 19:30      78.0      77.6       43     53.5      0.00      8.37      81.7     0.35      1010.0     2        44         4        77        8.04     264      -67.2
   06/05/2016 19:20      78.9      78.2       41     53.1      0.00      8.37      81.7     0.35      1009.0     3        39         4        26        8.04     264      -50.9
   06/05/2016 19:10      79.8      79.0       40     53.3      0.00      8.37      81.5     0.35      1009.0     3        63         4        84        8.04     264      -31.9
   06/05/2016 19:00      80.2      79.7       39     52.9      0.00      8.37      81.5     0.35      1009.0     3        52         3        45        8.04     264      -10.9
   06/05/2016 18:50      81.4      80.3       38     52.9      0.00      8.37      81.4     0.35      1009.0     3        83         5        74        8.04     263       13.2
   06/05/2016 18:40      82.3      81.5       36     52.7      0.00      8.37      81.5     0.35      1009.0     3        69         5        99        8.05     263       34.6
   06/05/2016 18:30      83.4      82.5       35     52.4      0.00      8.37      81.4     0.35      1009.0     3        59         5        66        8.05     264       55.6
   06/05/2016 18:20      82.9      82.0       35     52.3      0.00      8.37      81.5     0.35      1009.0     3        52         5        72        8.05     264       78.0
   06/05/2016 18:10      84.2      82.7       34     52.1      0.00      8.37      81.4     0.35      1009.0     3        66         6        69        8.06     264      101.4
   06/05/2016 18:00      84.9      84.2       32     51.7      0.00      8.37      81.2     0.35      1009.0     3        44         5        74        8.06     264      124.4
   06/05/2016 17:50      84.9      83.5       33     51.6      0.00      8.37      81.2     0.35      1009.0     3        43         5        64        8.06     264      148.4
   06/05/2016 17:40      84.4      83.9       32     51.3      0.00      8.37      81.1     0.35      1009.0     4        64         5        82        8.07     264      172.3
   06/05/2016 17:30      84.8      84.2       32     51.3      0.00      8.37      81.2     0.35      1009.0     3        51         6        28        8.08     263      194.5
   06/05/2016 17:20      85.2      84.4       32     51.5      0.00      8.37      81.1     0.35      1009.0     4        47         5        64        8.08     263      218.2
   06/05/2016 17:10      85.4      84.6       32     51.6      0.00      8.37      81.0     0.35      1009.0     3        37         4        17        8.09     264      241.3
   06/05/2016 17:00      86.7      85.5       31     51.7      0.00      8.37      80.9     0.35      1009.0     3        34         5        10        8.09     263      263.4
   06/05/2016 16:50      86.8      86.0       30     51.4      0.00      8.37      80.9     0.35      1009.0     4        48         6        36        8.09     263      284.5
   06/05/2016 16:40      87.5      86.8       29     50.6      0.00      8.37      80.7     0.35      1009.0     3        40         5        72        8.10     263      301.2
   06/05/2016 16:30      88.0      87.4       27     49.7      0.00      8.37      80.7     0.35      1009.0     3        40         5        31        8.10     264      315.0
   06/05/2016 16:20      87.7      86.8       28     49.8      0.00      8.37      80.6     0.35      1009.0     5        24         6       353        8.13     264      339.9
   06/05/2016 16:10      87.7      87.0       28     49.9      0.00      8.37      80.7     0.35      1009.0     4        26         6        36        8.14     264      359.3
   06/05/2016 16:00      87.7      87.0       27     49.5      0.00      8.37      80.6     0.35      1010.0     6       357        10         1        8.15     264      376.3
   06/05/2016 15:50      89.7      87.6       27     50.5      0.00      8.37      80.5     0.35      1010.0     4        28        10       344        8.16     264      394.1
   06/05/2016 15:40      89.5      88.0       27     50.6      0.00      8.37      80.5     0.35      1010.0     3        46         6        88        8.16     264      412.4
   06/05/2016 15:30      88.4      86.7       28     50.8      0.00      8.37      80.3     0.35      1010.0     4        62         6        76        8.17     264      431.6
   06/05/2016 15:20      86.9      86.3       30     51.3      0.00      8.37      80.4     0.35      1010.0     5        72         8        68        8.17     264      449.1
   06/05/2016 15:10      88.1      86.7       29     51.3      0.00      8.37      80.2     0.35      1010.0     5        49         7        72        8.17     264      461.1
   06/05/2016 15:00      88.5      87.3       29     51.5      0.00      8.37      80.2     0.35      1010.0     4        43         5        56        8.17     264      468.1
   06/05/2016 14:50      88.5      86.8       29     52.0      0.00      8.37      80.2     0.35      1010.0     3        44         7        88        8.18     264      481.3
   06/05/2016 14:40      87.6      86.3       31     52.6      0.00      8.37      80.1     0.34      1010.0     4        42         7        85        8.18     264      494.1
   06/05/2016 14:30      87.0      86.3       31     52.8      0.00      8.37      79.9     0.34      1010.0     4        42         7        34        8.18     264      504.1
   06/05/2016 14:20      87.0      86.6       31     52.3      0.00      8.37      80.0     0.34      1010.0     4        28         7        24        8.18     264      498.5
   06/05/2016 14:10      86.8      85.2       32     52.3      0.00      8.37      79.9     0.34      1010.0     4        41         7         2        8.18     264      525.4
   06/05/2016 14:00      86.0      85.6       31     51.3      0.00      8.37      79.9     0.34      1010.0     3        35         5        27        8.19     264      531.6
   06/05/2016 13:50      86.5      85.4       31     51.7      0.00      8.37      80.2     0.34      1011.0     4        30         7        22        8.19     264      535.7
   06/05/2016 13:40      86.6      85.5       31     51.8      0.00      8.37      79.9     0.34      1011.0     4        21         7        11        8.19     264      542.3
   06/05/2016 13:30      85.9      85.0       32     52.5      0.00      8.37      79.9     0.34      1011.0     4        23         5        38        8.19     265      548.2
   06/05/2016 13:20      85.8      85.3       32     52.2      0.00      8.37      79.8     0.34      1011.0     4        31         5        20        8.19     265      551.3
   06/05/2016 13:10      85.0      84.0       33     52.0      0.00      8.37      79.7     0.34      1011.0     4        24         7         8        8.19     265      557.1
   06/05/2016 13:00      86.0      83.8       33     52.3      0.00      8.37      79.9     0.34      1011.0     4        34         6        13        8.20     265      559.5
   06/05/2016 12:50      85.8      84.1       33     52.5      0.00      8.37      79.8     0.34      1011.0     3        53         5        68        8.19     265      562.0
   06/05/2016 12:40      83.8      82.9       33     51.2      0.00      8.37      79.8     0.34      1011.0     4        49         5        16        8.19     265      565.9
   06/05/2016 12:30      83.5      82.7       34     52.2      0.00      8.37      79.5     0.34      1011.0     3        41         6        26        8.20     264      565.0
   06/05/2016 12:20      82.9      81.5       37     53.0      0.00      8.37      79.7     0.34      1012.0     4        25         5        17        8.20     265      563.7
   06/05/2016 12:10      82.0      79.8       38     53.2      0.00      8.37      79.7     0.34      1012.0     5        58         7        75        8.20     264      562.4
   06/05/2016 12:00      81.0      79.7       40     53.3      0.00      8.37      79.5     0.34      1012.0     5        30         7        32        8.20     265      558.7
   06/05/2016 11:50      81.1      79.9       39     53.5      0.00      8.37      79.8     0.34      1012.0     4        38         7       102        8.20     265      551.0
   06/05/2016 11:40      80.4      79.5       40     53.5      0.00      8.37      79.5     0.34      1012.0     4        41         5        25        8.20     265      545.4
   06/05/2016 11:30      79.4      78.4       40     52.3      0.00      8.37      79.8     0.34      1012.0     5        58         7        70        8.20     265      542.2
   06/05/2016 11:20      79.1      78.4       41     53.1      0.00      8.37      79.6     0.34      1012.0     4        50         7        85        8.20     266      535.5
   06/05/2016 11:10      79.2      78.5       41     53.5      0.00      8.37      79.7     0.34      1012.0     5        33         9        69        8.20     265      525.0
   06/05/2016 11:00      78.7      77.9       42     53.5      0.00      8.37      79.8     0.34      1012.0     4        47         8        77        8.20     266      515.9
   06/05/2016 10:50      78.4      77.3       44     53.9      0.00      8.37      79.7     0.35      1012.0     4        47         7        81        8.20     266      505.6
   06/05/2016 10:40      77.8      76.2       46     54.5      0.00      8.37      79.8     0.35      1012.0     4        28         6         3        8.20     267      497.6
   06/05/2016 10:30      76.3      75.8       47     54.6      0.00      8.37      79.8     0.35      1012.0     4        61         6        72        8.20     266      489.5
   06/05/2016 10:20      75.9      75.3       48     54.7      0.00      8.37      80.0     0.35      1012.0     4        23         5       348        8.20     266      478.4
   06/05/2016 10:10      75.8      74.2       49     54.6      0.00      8.37      79.9     0.35      1012.0     3        48         4        29        8.20     266      454.9
   06/05/2016 10:00      74.3      73.4       51     54.8      0.00      8.37      80.1     0.35      1012.0     3        50         5       356        8.20     266      441.4
   06/05/2016 09:50      73.9      72.4       53     54.8      0.00      8.37      80.3     0.35      1012.0     3        52         5        67        8.20     266      422.3
   06/05/2016 09:40      72.5      71.3       57     55.8      0.00      8.37      80.5     0.35      1012.0     3        19         5       359        8.20     266      401.8
   06/05/2016 09:30      71.5      71.2       58     56.0      0.00      8.37      80.2     0.35      1013.0     3        28         5        52        8.20     267      382.3
   06/05/2016 09:20      71.0      70.0       60     55.8      0.00      8.37      80.1     0.35      1013.0     2        29         4        20        8.20     266      366.1
   06/05/2016 09:10      70.2      69.2       60     55.6      0.00      8.37      80.1     0.35      1013.0     3        41         4        70        8.20     266      347.3
   06/05/2016 09:00      69.2      67.8       63     55.3      0.00      8.37      80.1     0.35      1013.0     2        26         4        51        8.20     266      344.6
   06/05/2016 08:50      67.5      66.2       66     55.1      0.00      8.37      80.2     0.35      1013.0     2        10         3         3        8.21     266      327.4
   06/05/2016 08:40      66.2      65.5       69     55.3      0.00      8.37      80.5     0.35      1013.0     2        24         3        34        8.21     266      120.2
   06/05/2016 08:30      65.7      64.9       71     55.4      0.00      8.37      80.3     0.35      1013.0     2        47         3       359        8.26     266        0.0
   06/05/2016 08:20      65.3      64.7       71     55.3      0.00      8.37      80.3     0.35      1013.0     2        28         3       359        8.27     266       -0.8
   06/05/2016 08:10      64.8      64.0       72     55.4      0.00      8.37      80.6     0.35      1013.0     2        23         3         0        8.28     266        1.6
   06/05/2016 08:00      64.2      63.4       74     55.3      0.00      8.37      80.5     0.35      1013.0     2         9         3         3        8.28     266       -0.6
   06/05/2016 07:50      63.7      63.1       75     55.2      0.00      8.37      80.5     0.35      1013.0     2         3         3       347        8.28     266        6.6
   06/05/2016 07:40      63.3      62.5       76     55.2      0.00      8.37      80.3     0.35      1013.0     2        17         3       340        8.29     266       -0.9
   06/05/2016 07:30      62.7      61.9       78     55.3      0.00      8.37      80.5     0.35      1012.0     2        25         2         5        8.29     266        8.0
   06/05/2016 07:20      62.0      61.4       80     55.3      0.00      8.37      80.3     0.35      1012.0     2        28         3        72        8.29     266      -26.9
   06/05/2016 07:10      61.7      61.1       80     55.3      0.00      8.37      80.7     0.35      1012.0     1        15         2        17        8.29     266      -29.3
   06/05/2016 07:00      61.2      60.6       82     55.4      0.00      8.37      80.6     0.35      1012.0     1        46         1        43        8.29     266      -25.3
   06/05/2016 06:50      60.7      60.3       83     55.3      0.00      8.37      80.7     0.35      1012.0     1       115         2        76        8.29     266      -26.5
   06/05/2016 06:40      60.4      59.4       84     55.0      0.00      8.37      80.8     0.35      1012.0     1       115         2       141        8.29     266      -25.6
   06/05/2016 06:30      59.4      58.2       84     54.1      0.00      8.37      80.9     0.35      1012.0     1       101         2        77        8.29     266      -34.1
   06/05/2016 06:20      58.2      57.6       84     53.1      0.00      8.37      80.9     0.35      1012.0     1       125         2       100        8.29     266      -34.0
   06/05/2016 06:10      58.0      57.7       86     53.6      0.00      8.37      80.9     0.35      1012.0     1       140         1       127        8.29     265      -31.6
   06/05/2016 06:00      57.9      57.5       86     53.6      0.00      8.37      80.9     0.35      1012.0     1       152         1       157        8.29     265      -41.9
   06/05/2016 05:50      57.7      57.5       85     53.2      0.00      8.37      81.1     0.35      1012.0     1       143         1       144        8.29     265      -50.9
   06/05/2016 05:40      58.4      57.9       86     54.0      0.00      8.37      81.0     0.35      1012.0     1       160         2       156        8.29     265      -48.2
   06/05/2016 05:30      58.5      58.2       87     54.5      0.00      8.37      81.0     0.35      1012.0     1       111         1       131        8.29     265      -50.9
   06/05/2016 05:20      58.6      58.4       87     54.6      0.00      8.37      81.1     0.35      1012.0     1       102         1       101        8.29     265      -54.7
   06/05/2016 05:10      59.1      58.6       85     54.4      0.00      8.37      81.4     0.35      1012.0     1       103         2        64        8.29     265      -59.5
   06/05/2016 05:00      59.2      58.8       84     54.3      0.00      8.37      81.3     0.35      1012.0     2        90         3        76        8.29     265      -61.6
   06/05/2016 04:50      59.1      58.5       85     54.1      0.00      8.37      80.9     0.35      1012.0     2        82         2        92        8.29     265      -63.3
   06/05/2016 04:40      59.0      58.3       84     53.8      0.00      8.37      81.1     0.35      1012.0     1       116         2       117        8.29     265      -63.7
   06/05/2016 04:30      59.4      59.0       85     54.8      0.00      8.37      81.4     0.35      1012.0     1       134         1       121        8.30     265      -60.1
   06/05/2016 04:20      59.4      59.3       85     54.8      0.00      8.37      81.3     0.35      1012.0     0        65         1        71        8.30     265      -64.2
   06/05/2016 04:10      59.5      59.3       85     54.9      0.00      8.37      81.3     0.35      1012.0     1       122         1       145        8.30     265      -66.9
   06/05/2016 04:00      59.5      59.3       83     54.3      0.00      8.37      81.3     0.35      1012.0     1       141         1       139        8.30     265      -69.2
   06/05/2016 03:50      60.1      59.7       82     54.5      0.00      8.37      81.5     0.35      1012.0     1       154         1       153        8.30     265      -69.5
   06/05/2016 03:40      60.3      59.8       82     54.5      0.00      8.37      81.4     0.35      1012.0     1       126         1       121        8.30     265      -70.2
   06/05/2016 03:30      60.9      60.2       81     54.6      0.00      8.37      81.3     0.35      1012.0     1       129         1       129        8.30     265      -71.3
   06/05/2016 03:20      61.6      60.9       80     55.0      0.00      8.37      81.5     0.35      1012.0     1       103         1        76        8.30     265      -72.8
   06/05/2016 03:10      61.8      61.6       80     55.3      0.00      8.37      81.5     0.35      1012.0     1        72         1        52        8.30     265      -74.0
   06/05/2016 03:00      62.2      61.8       78     55.2      0.00      8.37      81.8     0.35      1012.0     1        81         1        80        8.30     265      -74.7
   06/05/2016 02:50      62.3      62.1       78     55.3      0.00      8.37      81.8     0.35      1012.0     1        48         2        34        8.30     265      -75.1
   06/05/2016 02:40      62.7      62.5       77     55.4      0.00      8.37      81.5     0.35      1012.0     1        68         2        70        8.30     265      -75.4
   06/05/2016 02:30      63.1      62.6       76     55.3      0.00      8.37      81.5     0.35      1012.0     2        91         2        93        8.30     265      -76.2
   06/05/2016 02:20      63.4      63.2       75     55.2      0.00      8.37      81.8     0.35      1012.0     1        54         2        38        8.30     265      -76.3
   06/05/2016 02:10      63.9      63.5       74     55.1      0.00      8.37      81.7     0.35      1012.0     1        56         2        75        8.30     265      -76.2
   06/05/2016 02:00      64.7      64.0       72     54.9      0.00      8.37      81.8     0.35      1012.0     1        48         3        70        8.30     264      -75.6
   06/05/2016 01:50      64.8      64.6       71     55.1      0.00      8.37      81.8     0.35      1012.0     1        80         3        79        8.30     264      -75.8
   06/05/2016 01:40      65.0      64.8       70     55.0      0.00      8.37      81.9     0.35      1012.0     1        78         2        79        8.30     264      -74.7
   06/05/2016 01:30      65.3      65.1       69     54.8      0.00      8.37      82.0     0.35      1012.0     1        76         2        85        8.30     264      -75.3
   06/05/2016 01:20      65.4      65.1       67     54.0      0.00      8.37      81.9     0.35      1012.0     1        73         1        90        8.30     264      -75.8
   06/05/2016 01:10      65.4      65.2       62     52.0      0.00      8.37      81.9     0.35      1012.0     1        57         1        90        8.30     264      -75.5
   06/05/2016 01:00      65.8      65.5       59     51.1      0.00      8.37      81.9     0.35      1012.0     1        71         1       128        8.30     264      -75.8
   06/05/2016 00:50      66.2      65.7       59     51.5      0.00      8.37      82.1     0.35      1012.0     1       127         1       144        8.30     264      -76.3
   06/05/2016 00:40      66.7      66.2       57     50.6      0.00      8.37      82.0     0.35      1012.0     1       132         1       134        8.30     264      -77.0
   06/05/2016 00:30      67.1      66.7       56     50.6      0.00      8.37      81.9     0.35      1012.0     1       120         2        71        8.31     264      -77.1
   06/05/2016 00:20      67.8      67.4       56     51.1      0.00      8.37      82.0     0.35      1012.0     1       145         1       164        8.31     264      -77.6
   06/05/2016 00:10      67.7      67.3       54     50.6      0.00      8.37      82.1     0.35      1012.0     1       167         1       169        8.31     264      -77.3
   06/05/2016 00:00      68.0      67.4       52     49.2      0.00      8.37      82.1     0.35      1013.0     1        97         2       157        8.31     264      -78.5
   06/04/2016 23:50      68.1      67.7       50     48.9      0.00      8.37      82.0     0.35      1013.0     1       141         2       130        8.31     264      -79.6
   06/04/2016 23:40      68.6      68.1       50     49.2      0.00      8.37      82.2     0.35      1013.0     1       156         2       157        8.31     264      -80.9
   06/04/2016 23:30      69.8      69.0       52     51.1      0.00      8.37      82.1     0.35      1013.0     2       145         2       139        8.31     264      -81.6
   06/04/2016 23:20      71.2      70.1       50     50.9      0.00      8.37      82.2     0.35      1013.0     1       121         2       118        8.31     264      -81.2
   06/04/2016 23:10      71.5      71.0       47     50.0      0.00      8.37      82.0     0.35      1013.0     0        65         1        68        8.31     264      -81.3
   06/04/2016 23:00      71.8      71.4       40     46.2      0.00      8.37      82.0     0.35      1013.0     0       282         1        57        8.32     264      -81.9
   06/04/2016 22:50      72.7      71.9       38     45.2      0.00      8.37      82.0     0.35      1013.0     1        97         1       167        8.32     264      -83.4
   06/04/2016 22:40      72.5      72.1       38     45.3      0.00      8.37      82.1     0.35      1013.0     1       104         2        33        8.32     263      -83.8
   06/04/2016 22:30      73.3      72.7       37     45.3      0.00      8.37      82.2     0.35      1013.0     1        35         2        44        8.32     263      -84.8
   06/04/2016 22:20      73.7      73.2       37     45.3      0.00      8.37      82.1     0.35      1013.0     1       122         3       148        8.32     263      -85.9
   06/04/2016 22:10      74.5      73.8       35     44.9      0.00      8.37      82.0     0.35      1013.0     1       168         2       146        8.32     263      -85.4
   06/04/2016 22:00      74.8      74.4       35     45.0      0.00      8.37      82.1     0.35      1013.0     1       192         2       199        8.32     263      -86.2
   06/04/2016 21:50      75.1      74.2       35     44.9      0.00      8.37      82.0     0.35      1013.0     2       170         3       172        8.32     263      -87.3
   06/04/2016 21:40      76.3      75.7       32     44.3      0.00      8.37      82.0     0.35      1013.0     1       187         2       198        8.33     263      -88.1
   06/04/2016 21:30      76.6      76.2       31     43.9      0.00      8.37      82.0     0.35      1013.0     2       202         3       187        8.33     263      -89.7
   06/04/2016 21:20      76.5      76.1       31     43.8      0.00      8.37      81.9     0.35      1012.0     2       204         3       207        8.33     263      -90.3
   06/04/2016 21:10      76.5      75.9       34     45.6      0.00      8.37      81.9     0.35      1012.0     1       184         2       194        8.33     263      -92.8
   06/04/2016 21:00      77.8      76.8       35     47.6      0.00      8.37      81.9     0.35      1012.0     2       150         2       126        8.33     263      -94.7
   06/04/2016 20:50      79.0      77.8       34     47.9      0.00      8.37      81.8     0.35      1012.0     1       138         1       141        8.33     263      -96.3
   06/04/2016 20:40      81.9      79.4       28     44.6      0.00      8.37      82.0     0.35      1012.0     1        41         2        84        8.33     263      -99.2
   06/04/2016 20:30      82.3      82.0       27     44.4      0.00      8.37      81.7     0.35      1012.0     2       295         3       295        8.33     263     -101.3
   06/04/2016 20:20      82.9      82.4       27     45.2      0.00      8.37      81.7     0.35      1012.0     3       327         3       309        8.33     263     -102.3
   06/04/2016 20:10      83.3      82.9       26     44.8      0.00      8.37      81.6     0.35      1012.0     2       289         3       284        8.34     263     -102.8
   06/04/2016 20:00      84.2      83.4       26     45.3      0.00      8.37      81.7     0.35      1012.0     2       282         4       291        8.34     263     -102.1
   06/04/2016 19:50      85.0      84.3       27     46.8      0.00      8.37      81.6     0.35      1012.0     2       302         3       316        8.34     263      -99.5
   06/04/2016 19:40      86.9      85.2       27     47.7      0.00      8.37      81.5     0.35      1012.0     3       299         6       319        8.34     263      -97.1
   06/04/2016 19:30      87.6      87.1       26     47.9      0.00      8.37      81.6     0.35      1012.0     3       293         4       284        8.34     263      -72.0
   06/04/2016 19:20      88.4      87.9       25     47.6      0.00      8.37      81.5     0.35      1012.0     4       289         5       300        8.34     262      -56.4
   06/04/2016 19:10      89.1      88.6       24     47.9      0.00      8.37      81.4     0.35      1012.0     4       324         6       307        8.35     263      -37.3
   06/04/2016 19:00      89.7      88.9       25     48.5      0.00      8.37      81.6     0.35      1012.0     5       324         8       330        8.35     262      -15.7
   06/04/2016 18:50      91.1      89.8       25     49.5      0.00      8.37      81.5     0.35      1012.0     6       334         9       332        8.35     262        4.4
   06/04/2016 18:40      92.3      91.4       23     49.5      0.00      8.37      81.3     0.35      1011.0     4       321         5       318        8.35     262       24.4
   06/04/2016 18:30      93.7      92.5       22     49.2      0.00      8.37      81.2     0.35      1011.0     5       324         7       316        8.36     263       46.3
   06/04/2016 18:20      95.2      94.2       20     47.8      0.00      8.37      81.1     0.35      1011.0     4       326         7       280        8.36     263       68.0
   06/04/2016 18:10      95.5      94.7       18     45.1      0.00      8.37      81.2     0.35      1011.0     4       337         8         7        8.37     263       88.5
   06/04/2016 18:00      96.0      95.0       17     44.3      0.00      8.37      81.1     0.35      1011.0     3       348         6       357        8.37     263      110.1
   06/04/2016 17:50      96.9      95.3       17     44.4      0.00      8.37      81.0     0.35      1011.0     3       358         6       352        8.38     263      133.9
   06/04/2016 17:40      97.5      96.7       17     44.8      0.00      8.37      80.9     0.35      1011.0     3         5         6       355        8.38     263      156.4
   06/04/2016 17:30      97.2      96.2       17     44.8      0.00      8.37      80.9     0.35      1011.0     3        20         5       358        8.38     263      179.0
   06/04/2016 17:20      97.6      96.2       17     44.9      0.00      8.37      80.7     0.35      1011.0     3        28         5        26        8.39     262      201.7
   06/04/2016 17:10      97.9      97.0       17     45.4      0.00      8.37      80.7     0.35      1011.0     3        31         5        31        8.40     262      225.8
   06/04/2016 17:00      99.2      97.9       17     46.0      0.00      8.37      80.6     0.35      1011.0     4        35         6        19        8.40     262      247.0
   06/04/2016 16:50      99.5      98.3       16     45.7      0.00      8.37      80.5     0.35      1011.0     4        15         5       344        8.41     262      268.0
   06/04/2016 16:40      98.5      98.1       16     45.3      0.00      8.37      80.5     0.35      1011.0     2        62         4        91        8.41     262      288.5
   06/04/2016 16:30      98.9      98.2       17     46.0      0.00      8.37      80.3     0.35      1011.0     3        17         5        26        8.42     262      308.0
   06/04/2016 16:20     100.1      97.9       17     45.9      0.00      8.37      80.4     0.35      1011.0     6        17        13         6        8.42     262      329.5
   06/04/2016 16:10     100.9     100.0       14     43.4      0.00      8.37      80.2     0.34      1011.0     3        16        12       350        8.43     263      347.8
   06/04/2016 16:00     101.3     100.5       14     43.5      0.00      8.37      80.1     0.34      1011.0     4       330         9       352        8.43     262      366.2
   06/04/2016 15:50     101.1     100.4       14     42.9      0.00      8.37      80.1     0.34      1011.0     6       272         8       304        8.43     262      387.9
   06/04/2016 15:40     101.2      99.6       14     41.7      0.00      8.37      80.0     0.34      1011.0     7       222         9       239        8.44     262      407.2
   06/04/2016 15:30     100.2      98.5       14     41.0      0.00      8.37      79.9     0.34      1011.0     8       189        11       148        8.45     262      424.1
   06/04/2016 15:20     100.3      99.1       14     41.2      0.00      8.37      79.9     0.34      1011.0     7       156        10       162        8.45     262      436.8
   06/04/2016 15:10     100.2      99.3       13     40.9      0.00      8.37      79.8     0.34      1011.0     8       150        11       164        8.46     262      449.8
   06/04/2016 15:00     100.7      99.4       13     40.9      0.00      8.37      79.8     0.34      1012.0     7       137        12       144        8.46     262      461.0
   06/04/2016 14:50     100.3      99.4       13     40.4      0.00      8.37      79.7     0.34      1012.0     6       122        10       137        8.47     263      470.8
   06/04/2016 14:40     100.4     100.0       13     39.7      0.00      8.37      79.4     0.34      1012.0     6       109         9        83        8.48     263      480.9
   06/04/2016 14:30     100.3      99.0       12     38.5      0.00      8.37      79.6     0.34      1012.0     6       128        11       143        8.48     263      492.2
   06/04/2016 14:20     100.4      99.1       12     37.8      0.00      8.37      79.5     0.34      1012.0     5       121        11       115        8.49     263      500.3
   06/04/2016 14:10     100.0      98.8       13     39.3      0.00      8.37      79.3     0.34      1012.0     7       120        10       132        8.49     263      509.5
   06/04/2016 14:00     101.2      99.2       15     45.1      0.00      8.37      79.3     0.34      1012.0     4        83         6       138        8.50     264      511.1
   06/04/2016 13:50     100.6      99.8       16     45.9      0.00      8.37      79.3     0.34      1012.0     5        35         6        61        8.50     264      516.3
   06/04/2016 13:40     100.6      99.6       16     45.1      0.00      8.37      79.3     0.34      1012.0     4        40         5        39        8.50     264      522.6
   06/04/2016 13:30     100.4      99.6       16     45.3      0.00      8.37      79.2     0.34      1012.0     4        45         6       134        8.51     264      528.0
   06/04/2016 13:20     100.3      99.1       16     45.2      0.00      8.37      79.3     0.34      1013.0     4        44         8        63        8.51     265      530.3
   06/04/2016 13:10      98.9      98.5       17     45.6      0.00      8.37      79.0     0.34      1013.0     3        48         5        73        8.51     265      537.2
   06/04/2016 13:00      98.8      97.1       18     47.8      0.00      8.37      79.1     0.34      1013.0     4        70         7        67        8.51     265      539.4
   06/04/2016 12:50      99.4      98.6       18     48.9      0.00      8.37      79.0     0.34      1013.0     4        22         6       103        8.51     265      539.7
   06/04/2016 12:40      99.2      96.6       20     49.7      0.00      8.37      79.0     0.34      1013.0     3        32         5       359        8.52     265      545.4
   06/04/2016 12:30      97.7      97.0       20     50.0      0.00      8.37      79.0     0.34      1013.0     3        32         5        13        8.52     264      544.3
   06/04/2016 12:20      97.4      95.8       22     50.9      0.00      8.37      79.0     0.34      1013.0     3        46         6       357        8.52     264      543.1
   06/04/2016 12:10      96.3      95.1       22     51.1      0.00      8.37      78.9     0.34      1013.0     4        24         6        36        8.52     264      536.4
   06/04/2016 12:00      95.7      94.4       23     51.4      0.00      8.37      79.0     0.34      1013.0     3       100         6        80        8.52     265      537.8
   06/04/2016 11:50      94.8      94.0       23     51.3      0.00      8.37      79.0     0.34      1013.0     3        27         5       359        8.52     265      532.6
   06/04/2016 11:40      94.4      93.6       23     50.3      0.00      8.37      78.9     0.34      1013.0     2         1         4       116        8.52     265      526.4
   06/04/2016 11:30      93.9      92.2       22     49.0      0.00      8.37      79.0     0.34      1014.0     3         9         4        37        8.52     265      520.7
   06/04/2016 11:20      92.0      90.6       22     47.7      0.00      8.37      78.9     0.34      1014.0     2        36         4        25        8.52     265      516.7
   06/04/2016 11:10      90.9      90.3       22     46.7      0.00      8.37      79.1     0.34      1014.0     3         9         6       343        8.53     265      509.9
   06/04/2016 11:00      90.6      89.0       24     48.0      0.00      8.37      78.8     0.34      1014.0     4         2         6         8        8.53     266      502.3
   06/04/2016 10:50      89.6      88.6       24     48.0      0.00      8.37      79.3     0.34      1014.0     3        27         6       349        8.53     266      491.9
   06/04/2016 10:40      88.7      87.7       25     48.4      0.00      8.37      79.0     0.34      1014.0     3        24         5         7        8.53     267      482.6
   06/04/2016 10:30      87.9      86.5       27     49.1      0.00      8.37      79.2     0.34      1014.0     3        33         3        36        8.53     266      472.1
   06/04/2016 10:20      87.5      86.2       29     51.1      0.00      8.37      79.2     0.34      1014.0     3        50         5        77        8.53     266      460.0
   06/04/2016 10:10      87.1      85.5       30     51.4      0.00      8.37      79.3     0.34      1014.0     3        35         4         9        8.53     266      446.8
   06/04/2016 10:00      85.7      84.3       32     52.0      0.00      8.37      79.2     0.34      1014.0     3        62         5        85        8.53     266      437.1
   06/04/2016 09:50      84.0      82.5       37     54.4      0.00      8.37      79.1     0.35      1014.0     3        64         4       112        8.53     266      436.1
   06/04/2016 09:40      82.2      81.8       39     54.5      0.00      8.37      79.1     0.35      1014.0     2        42         4        81        8.53     266      343.3
   06/04/2016 09:30      81.8      80.6       39     54.1      0.00      8.37      79.3     0.35      1014.0     3        34         5         3        8.53     266      348.6
   06/04/2016 09:20      80.5      79.3       44     55.9      0.00      8.37      79.4     0.35      1014.0     2        51         3        66        8.53     266      290.5
   06/04/2016 09:10      79.5      79.1       44     55.8      0.00      8.37      79.4     0.35      1014.0     2        60         5        81        8.54     266      257.8
   06/04/2016 09:00      79.5      77.9       44     54.9      0.00      8.37      79.5     0.35      1014.0     2        60         3        81        8.54     267      395.2
   06/04/2016 08:50      78.2      75.4       46     54.5      0.00      8.37      79.5     0.35      1014.0     1        64         4        16        8.54     266      425.4
   06/04/2016 08:40      75.1      74.2       49     54.4      0.00      8.37      79.8     0.35      1014.0     2        14         3        19        8.54     267      157.8
   06/04/2016 08:30      74.2      73.3       50     54.3      0.00      8.37      79.6     0.35      1014.0     2       356         3         6        8.55     267        3.1
   06/04/2016 08:20      73.4      72.4       53     54.6      0.00      8.37      79.4     0.35      1014.0     2       339         3       315        8.55     266       -4.7
   06/04/2016 08:10      72.4      71.7       54     54.6      0.00      8.37      79.5     0.35      1014.0     2       294         2       343        8.56     266       -8.9
   06/04/2016 08:00      71.4      70.1       56     54.5      0.00      8.37      79.7     0.35      1014.0     2       253         3       246        8.56     266      -11.7
   06/04/2016 07:50      70.2      69.0       58     54.2      0.00      8.37      80.1     0.35      1014.0     2       264         3       239        8.57     266        0.7
   06/04/2016 07:40      69.0      68.3       60     54.1      0.00      8.37      79.7     0.35      1014.0     2       267         3       265        8.58     266      -20.6
   06/04/2016 07:30      68.3      67.2       61     53.7      0.00      8.37      79.8     0.35      1014.0     1       248         2       260        8.58     266       -0.4
   06/04/2016 07:20      67.2      66.5       63     53.8      0.00      8.37      79.7     0.35      1014.0     1       313         2       327        8.58     266      -28.8
   06/04/2016 07:10      66.5      65.9       65     54.3      0.00      8.37      79.7     0.35      1014.0     1       352         2        14        8.58     266      -25.4
   06/04/2016 07:00      65.9      65.3       65     53.6      0.00      8.37      80.1     0.35      1014.0     1       337         1       314        8.58     266      -26.5
   06/04/2016 06:50      65.3      64.2       66     53.3      0.00      8.37      79.9     0.35      1014.0     1       354         2         8        8.58     266      -33.4
   06/04/2016 06:40      64.2      62.4       70     53.5      0.00      8.37      79.7     0.35      1014.0     1       347         2       337        8.59     266      -32.3
   06/04/2016 06:30      62.3      60.9       75     53.4      0.00      8.37      79.8     0.35      1014.0     0       269         1       204        8.59     266      -39.4
   06/04/2016 06:20      60.9      59.8       77     53.2      0.00      8.37      80.0     0.35      1014.0     1       163         1       145        8.59     266      -42.6
   06/04/2016 06:10      59.9      59.2       79     53.0      0.00      8.37      80.0     0.35      1014.0     1       175         1       144        8.59     266      -44.5
   06/04/2016 06:00      59.2      58.5       80     52.6      0.00      8.37      80.1     0.35      1013.0     1       144         1       142        8.59     266      -54.3
   06/04/2016 05:50      58.7      58.5       78     51.9      0.00      8.37      80.3     0.35      1013.0     1       128         2       143        8.59     266      -59.5
   06/04/2016 05:40      59.0      58.6       78     52.0      0.00      8.37      80.2     0.35      1013.0     2       137         2       136        8.59     266      -62.8
   06/04/2016 05:30      59.3      58.9       79     52.5      0.00      8.37      80.0     0.35      1013.0     1       145         2       135        8.59     266      -63.4
   06/04/2016 05:20      59.2      58.7       77     51.9      0.00      8.37      80.4     0.35      1013.0     2       133         2       142        8.59     266      -63.9
   06/04/2016 05:10      59.4      59.0       78     52.3      0.00      8.37      80.4     0.35      1013.0     1       142         1       133        8.59     265      -64.4
   06/04/2016 05:00      59.6      58.9       75     51.4      0.00      8.37      80.5     0.35      1013.0     2       129         2       140        8.59     265      -66.0
   06/04/2016 04:50      60.2      59.7       74     51.8      0.00      8.37      80.3     0.35      1013.0     2       129         2       125        8.59     265      -67.5
   06/04/2016 04:40      60.8      60.4       74     52.3      0.00      8.37      80.4     0.35      1013.0     1       118         2       130        8.59     266      -67.6
   06/04/2016 04:30      60.6      60.3       75     52.7      0.00      8.37      80.5     0.35      1013.0     0       124         1       142        8.59     266      -68.2
   06/04/2016 04:20      61.0      60.5       75     52.8      0.00      8.37      80.5     0.35      1013.0     1       119         1       122        8.60     265      -68.9
   06/04/2016 04:10      61.3      61.0       75     53.2      0.00      8.37      80.6     0.35      1013.0     1       171         1       125        8.60     265      -68.7
   06/04/2016 04:00      61.6      61.2       75     53.7      0.00      8.37      80.5     0.35      1013.0     1       145         1       132        8.60     265      -69.1
   06/04/2016 03:50      62.0      61.0       75     53.7      0.00      8.37      80.6     0.35      1013.0     1       209         2       203        8.60     265      -68.6
   06/04/2016 03:40      61.0      60.8       79     54.3      0.00      8.37      80.6     0.35      1013.0     1       163         1       127        8.60     265      -69.2
   06/04/2016 03:30      61.1      60.8       79     54.6      0.00      8.37      80.6     0.35      1013.0     1       136         1       142        8.60     265      -69.8
   06/04/2016 03:20      61.1      60.8       79     54.4      0.00      8.37      80.8     0.35      1013.0     1       149         1       127        8.60     265      -70.5
   06/04/2016 03:10      61.4      61.1       78     54.4      0.00      8.37      80.7     0.35      1013.0     1       147         2       142        8.60     265      -71.1
   06/04/2016 03:00      61.7      61.4       77     54.2      0.00      8.37      80.5     0.35      1013.0     1       157         2       130        8.60     265      -71.6
   06/04/2016 02:50      61.6      61.4       76     53.9      0.00      8.37      80.7     0.35      1013.0     1       192         1       195        8.60     265      -72.2
   06/04/2016 02:40      61.9      61.6       75     53.8      0.00      8.37      80.5     0.35      1013.0     1       177         2       200        8.60     265      -72.0
   06/04/2016 02:30      62.4      61.9       74     53.8      0.00      8.37      80.9     0.35      1013.0     2       144         2       132        8.60     265      -72.9
   06/04/2016 02:20      62.8      62.4       73     53.7      0.00      8.37      80.9     0.35      1013.0     2       138         2       142        8.60     265      -73.7
   06/04/2016 02:10      63.2      62.5       73     54.1      0.00      8.37      80.7     0.35      1013.0     1       143         2       145        8.60     265      -73.7
   06/04/2016 02:00      63.5      62.8       73     54.4      0.00      8.37      81.1     0.35      1013.0     1       142         1       136        8.61     265      -73.8
   06/04/2016 01:50      63.3      62.9       69     52.9      0.00      8.37      80.9     0.35      1013.0     1       110         2       128        8.61     265      -75.0
   06/04/2016 01:40      64.0      63.5       69     53.3      0.00      8.37      80.9     0.35      1013.0     1       136         2       142        8.61     265      -74.9
   06/04/2016 01:30      64.8      64.0       67     53.4      0.00      8.37      81.0     0.35      1013.0     2       135         2       135        8.61     265      -76.0
   06/04/2016 01:20      65.3      64.6       65     52.9      0.00      8.37      81.1     0.35      1014.0     1       167         1       186        8.61     265      -75.4
   06/04/2016 01:10      65.4      65.1       65     53.1      0.00      8.37      81.1     0.35      1014.0     0       137         1       181        8.61     265      -75.5
   06/04/2016 01:00      65.7      65.4       64     53.2      0.00      8.37      80.8     0.35      1014.0     1        96         1       166        8.61     265      -76.3
   06/04/2016 00:50      65.6      65.1       64     52.8      0.00      8.37      81.0     0.35      1014.0     1       120         1       125        8.61     265      -76.6
   06/04/2016 00:40      66.4      65.7       63     53.1      0.00      8.37      81.2     0.35      1014.0     1       118         1       134        8.62     265      -76.8
   06/04/2016 00:30      67.2      66.5       61     53.0      0.00      8.37      81.1     0.35      1014.0     1       128         2       134        8.62     265      -77.2
   06/04/2016 00:20      67.3      66.9       61     53.1      0.00      8.37      81.0     0.35      1014.0     1       158         1       110        8.62     265      -77.3
   06/04/2016 00:10      67.8      67.3       60     53.1      0.00      8.37      80.9     0.35      1014.0     1       131         1       141        8.62     264      -78.7
   06/04/2016 00:00      68.3      68.0       58     53.0      0.00      8.37      81.3     0.35      1014.0     1       141         2       144        8.62     264      -78.6
   06/03/2016 23:50      68.8      68.4       57     52.9      0.00      8.37      81.2     0.35      1014.0     1       131         1       129        8.62     264      -79.6
   06/03/2016 23:40      68.5      68.1       57     52.6      0.00      8.37      81.1     0.35      1014.0     1       127         2       122        8.62     264      -79.8
   06/03/2016 23:30      69.0      68.6       56     52.5      0.00      8.37      81.2     0.35      1014.0     1       145         2       135        8.63     264      -79.6
   06/03/2016 23:20      69.2      69.0       56     52.7      0.00      8.37      80.9     0.35      1014.0     1       136         2       133        8.63     264      -80.7
   06/03/2016 23:10      70.3      69.2       53     51.8      0.00      8.37      81.2     0.35      1014.0     2       161         2       170        8.63     264      -81.9
   06/03/2016 23:00      71.0      70.3       52     52.3      0.00      8.37      81.1     0.35      1014.0     1       150         2       150        8.63     264      -83.2
   06/03/2016 22:50      72.1      71.2       50     51.9      0.00      8.37      81.0     0.35      1014.0     1       176         2       169        8.63     264      -83.2
   06/03/2016 22:40      72.3      71.9       50     52.4      0.00      8.37      81.2     0.35      1014.0     0       188         1       148        8.64     264      -84.1
   06/03/2016 22:30      72.9      72.5       48     52.1      0.00      8.37      81.2     0.35      1014.0     1       118         2       146        8.64     264      -85.3
   06/03/2016 22:20      73.5      72.8       47     51.8      0.00      8.37      80.9     0.35      1014.0     1        96         2       104        8.64     264      -86.7
   06/03/2016 22:10      73.9      73.5       46     51.4      0.00      8.37      81.0     0.35      1014.0     1       115         2       114        8.64     264      -88.1
   06/03/2016 22:00      75.5      74.2       43     50.6      0.00      8.37      81.0     0.35      1014.0     2       118         2       120        8.64     264      -89.2
   06/03/2016 21:50      76.2      75.8       42     51.2      0.00      8.37      81.0     0.35      1013.0     1        83         3        58        8.64     264      -90.7
   06/03/2016 21:40      76.3      76.0       40     50.3      0.00      8.37      80.9     0.35      1013.0     2        77         2        63        8.64     264      -90.4
   06/03/2016 21:30      77.3      76.2       37     48.3      0.00      8.37      81.0     0.35      1013.0     2        82         2        73        8.64     263      -91.3
   06/03/2016 21:20      78.3      77.5       35     48.3      0.00      8.37      80.9     0.35      1013.0     2        82         2        78        8.65     264      -92.7
   06/03/2016 21:10      79.5      78.4       33     47.5      0.00      8.37      81.0     0.35      1013.0     1       108         2       126        8.65     263      -94.6
   06/03/2016 21:00      80.5      79.5       32     47.2      0.00      8.37      80.9     0.35      1013.0     1        67         2        34        8.65     263      -95.5
   06/03/2016 20:50      81.7      80.6       30     47.0      0.00      8.37      80.9     0.35      1013.0     1        62         2        73        8.65     263      -97.1
   06/03/2016 20:40      82.7      82.0       29     46.8      0.00      8.37      80.7     0.35      1013.0     2        99         2        87        8.65     263      -98.8
   06/03/2016 20:30      84.3      83.0       27     46.4      0.00      8.37      80.8     0.35      1013.0     2        96         3        65        8.65     263     -100.5
   06/03/2016 20:20      86.0      84.5       25     45.3      0.00      8.37      80.7     0.35      1012.0     2        87         4       100        8.66     263     -101.9
   06/03/2016 20:10      87.7      86.2       23     44.6      0.00      8.37      80.7     0.35      1012.0     2        43         4        32        8.66     263     -102.5
   06/03/2016 20:00      88.7      87.7       22     44.9      0.00      8.37      80.7     0.35      1012.0     2        36         3        18        8.66     263      -99.8
   06/03/2016 19:50      89.7      88.9       22     45.8      0.00      8.37      80.5     0.35      1012.0     1        70         2       117        8.66     263      -96.3
   06/03/2016 19:40      90.9      90.0       21     45.2      0.00      8.37      80.5     0.35      1012.0     2       169         2       203        8.66     263      -95.1
   06/03/2016 19:30      92.0      91.1       20     45.0      0.00      8.37      80.4     0.35      1012.0     3       185         4       210        8.67     262      -75.2
   06/03/2016 19:20      93.0      92.1       19     44.7      0.00      8.37      80.4     0.35      1012.0     2       165         3       212        8.67     262      -57.4
   06/03/2016 19:10      94.1      92.9       18     44.1      0.00      8.37      80.4     0.35      1012.0     4       196         7       218        8.67     262      -36.9
   06/03/2016 19:00      95.5      94.1       17     43.5      0.00      8.37      80.4     0.35      1012.0     4       168         5       150        8.68     263      -18.4
   06/03/2016 18:50      98.7      95.9       15     42.4      0.00      8.37      80.1     0.35      1012.0     2       181         4       185        8.68     263        6.8
   06/03/2016 18:40      99.8      99.2       13     40.7      0.00      8.37      80.2     0.35      1011.0     3       276         4       224        8.68     263       21.4
   06/03/2016 18:30      99.8      99.5       14     41.3      0.00      8.37      80.2     0.35      1011.0     4       298         7       302        8.69     263       34.2
   06/03/2016 18:20      99.9      99.3       15     44.1      0.00      8.37      80.1     0.35      1011.0     4       348         5       353        8.69     263       40.8
   06/03/2016 18:10     100.4      99.6       15     44.5      0.00      8.37      80.1     0.35      1011.0     5       343         7         0        8.69     263       79.9
   06/03/2016 18:00     100.5      99.9       15     44.9      0.00      8.37      79.9     0.35      1011.0     5       358         6       353        8.70     263      112.1
   06/03/2016 17:50     101.5     100.2       15     44.5      0.00      8.37      80.0     0.35      1011.0     6         5         8       349        8.70     263      107.5
   06/03/2016 17:40     101.9     101.3       14     44.4      0.00      8.37      79.8     0.35      1011.0     3        60         6        71        8.71     263      168.0
   06/03/2016 17:30     101.7     101.0       15     44.6      0.00      8.37      79.8     0.35      1011.0     4        21         6       354        8.71     263      157.1
   06/03/2016 17:20     102.0     101.3       15     44.8      0.00      8.37      79.6     0.35      1011.0     3        54         5         0        8.71     263      169.4
   06/03/2016 17:10     102.4     101.7       14     44.3      0.00      8.37      79.6     0.35      1011.0     3        51         4        75        8.72     263      204.2
   06/03/2016 17:00     102.8     101.8       14     44.7      0.00      8.37      79.4     0.35      1012.0     3        25         5        18        8.72     263      236.9
   06/03/2016 16:50     102.2     101.4       15     45.3      0.00      8.37      79.5     0.34      1012.0     4        24         4        33        8.73     263      266.0
   06/03/2016 16:40     101.9     101.0       14     42.6      0.00      8.37      79.4     0.34      1012.0     5       244         8       222        8.73     263      289.9
   06/03/2016 16:30     102.1     101.0       13     40.7      0.00      8.37      79.3     0.34      1012.0     5       255         7       251        8.74     263      316.3
   06/03/2016 16:20     101.7     100.8       13     41.0      0.00      8.37      79.2     0.34      1012.0     4       237         8       225        8.74     263      312.1
   06/03/2016 16:10     101.1     100.5       13     40.4      0.00      8.37      79.1     0.34      1012.0     7       211         9       192        8.75     263      357.5
   06/03/2016 16:00     101.9     101.0       13     42.3      0.00      8.37      79.1     0.34      1012.0     6       179        12       156        8.75     263      363.6
   06/03/2016 15:50     101.8     101.0       12     40.1      0.00      8.37      78.9     0.34      1012.0     5       170         8       166        8.76     263      374.8
   06/03/2016 15:40     102.1     100.4       15     44.6      0.00      8.37      78.8     0.34      1012.0     5       123         7        68        8.77     263      385.5
   06/03/2016 15:30     102.8     101.5       16     47.2      0.00      8.37      78.8     0.34      1012.0     4        75         7        71        8.77     263      398.8
   06/03/2016 15:20     101.8     101.5       16     46.6      0.00      8.37      78.7     0.34      1012.0     3        25         5        37        8.78     264      415.9
   06/03/2016 15:10     101.6     100.8       16     46.0      0.00      8.37      78.6     0.34      1012.0     5        65         8        57        8.78     263      430.1
   06/03/2016 15:00     101.7     100.7       15     45.8      0.00      8.37      78.6     0.34      1012.0     4        35         6       344        8.78     263      440.2
   06/03/2016 14:50     101.7     100.5       16     46.3      0.00      8.37      78.6     0.34      1012.0     5        67         9        76        8.79     263      457.6
   06/03/2016 14:40     102.3     101.0       16     46.9      0.00      8.37      78.4     0.34      1013.0     5        57         8        77        8.79     264      462.9
   06/03/2016 14:30     102.2     101.2       16     47.5      0.00      8.37      78.4     0.34      1013.0     4        53         7        70        8.80     264      487.4
   06/03/2016 14:20     101.9     101.4       16     46.6      0.00      8.37      78.3     0.34      1013.0     3        62         6        84        8.80     264      494.5
   06/03/2016 14:10     102.3     100.3       16     47.1      0.00      8.37      78.4     0.34      1013.0     4        41         7        74        8.80     264      501.0
   06/03/2016 14:00     101.0     100.0       17     47.5      0.00      8.37      78.1     0.34      1013.0     4         1         7       337        8.81     265      480.1
   06/03/2016 13:50     100.3      99.7       17     47.1      0.00      8.37      78.3     0.34      1013.0     4       337         6       349        8.81     265      514.8
   06/03/2016 13:40     100.6      99.7       17     47.7      0.00      8.37      78.1     0.34      1013.0     4        18         7        20        8.81     265      496.1
   06/03/2016 13:30     100.5      99.3       18     49.0      0.00      8.37      78.1     0.34      1014.0     3        29         8         1        8.82     265      530.9
   06/03/2016 13:20      99.9      98.8       18     49.0      0.00      8.37      78.1     0.34      1014.0     4        21         8         1        8.82     265      510.5
   06/03/2016 13:10      99.6      98.3       18     48.6      0.00      8.37      78.1     0.34      1014.0     4        34         8         2        8.82     265      502.5
   06/03/2016 13:00      98.6      97.1       18     47.0      0.00      8.37      77.9     0.34      1014.0     3        39         5       357        8.82     265      537.9
   06/03/2016 12:50      97.0      96.0       18     46.6      0.00      8.37      77.9     0.34      1014.0     4        83         6       115        8.83     265      539.4
   06/03/2016 12:40      97.5      96.3       18     46.1      0.00      8.37      77.8     0.34      1014.0     4        50         7        77        8.83     265      534.4
   06/03/2016 12:30      97.2      96.1       17     45.2      0.00      8.37      77.9     0.34      1014.0     3        26         5        10        8.83     265      541.5
   06/03/2016 12:20      96.4      95.0       17     44.2      0.00      8.37      77.8     0.34      1014.0     3        25         4       347        8.83     265      546.6
   06/03/2016 12:10      94.8      93.5       22     48.8      0.00      8.37      77.8     0.34      1014.0     3        61         6        36        8.83     265      532.0
   06/03/2016 12:00      93.2      92.2       26     53.0      0.00      8.37      77.5     0.34      1014.0     3        65         5        15        8.84     266      531.3
   06/03/2016 11:50      92.6      92.0       28     54.1      0.00      8.37      78.0     0.34      1014.0     4        19         6        22        8.84     266      536.9
   06/03/2016 11:40      92.6      90.6       29     54.4      0.00      8.37      77.9     0.34      1015.0     4        13         6        32        8.84     266      538.6
   06/03/2016 11:30      91.2      90.0       28     53.4      0.00      8.37      77.9     0.34      1015.0     3        33         4        30        8.84     266      501.3
   06/03/2016 11:20      89.7      89.4       31     54.6      0.00      8.37      77.9     0.34      1015.0     3        27         5       339        8.84     266      499.2
   06/03/2016 11:10      89.5      88.3       31     54.4      0.00      8.37      77.8     0.34      1015.0     3        20         6        67        8.84     266      524.6
   06/03/2016 11:00      88.7      87.0       32     53.7      0.00      8.37      77.7     0.34      1015.0     3        22         5        77        8.84     267      518.6
   06/03/2016 10:50      87.2      86.5       32     53.9      0.00      8.37      77.6     0.34      1015.0     3         8         6        41        8.84     268      503.8
   06/03/2016 10:40      86.4      85.5       33     53.3      0.00      8.37      77.8     0.34      1015.0     3        35         4        58        8.84     268      460.6
   06/03/2016 10:30      85.6      83.5       33     52.5      0.00      8.37      77.9     0.34      1015.0     3        41         5        83        8.84     268      450.1
   06/03/2016 10:20      84.1      83.5       35     53.1      0.00      8.37      77.8     0.34      1015.0     3         7         4       358        8.84     267      456.7
   06/03/2016 10:10      83.3      81.2       37     53.3      0.00      8.37      78.1     0.34      1015.0     2        36         3        52        8.84     267      451.4
   06/03/2016 10:00      81.7      81.1       40     55.0      0.00      8.37      78.0     0.35      1015.0     4         1         5        32        8.84     267      433.5
   06/03/2016 09:50      81.5      80.1       42     55.5      0.00      8.37      78.1     0.35      1015.0     2        70         3        55        8.84     267      417.5
   06/03/2016 09:40      80.0      78.7       45     56.2      0.00      8.37      78.1     0.35      1015.0     3       356         4         1        8.84     267      397.6
   06/03/2016 09:30      79.2      77.8       46     56.0      0.00      8.37      78.1     0.35      1015.0     2        29         3        52        8.84     267      381.7
   06/03/2016 09:20      77.8      76.3       47     55.6      0.00      8.37      78.0     0.35      1015.0     2        30         3        65        8.85     267      367.7
   06/03/2016 09:10      76.2      74.9       52     56.5      0.00      8.37      78.1     0.35      1015.0     3        17         4        73        8.85     267      355.9
   06/03/2016 09:00      75.0      74.1       54     57.0      0.00      8.37      78.3     0.35      1015.0     2         0         3       354        8.85     267      347.3
   06/03/2016 08:50      74.2      72.0       57     57.1      0.00      8.37      78.1     0.35      1015.0     2        35         3        19        8.85     268      358.0
   06/03/2016 08:40      71.9      70.8       61     57.2      0.00      8.37      78.2     0.35      1015.0     2        62         3        91        8.85     267      162.9
   06/03/2016 08:30      70.7      69.7       62     56.8      0.00      8.37      78.0     0.35      1015.0     2         7         2       349        8.85     267      -18.4
   06/03/2016 08:20      69.9      69.0       65     57.0      0.00      8.37      78.4     0.35      1015.0     2        17         3         2        8.85     267      -23.5
   06/03/2016 08:10      69.1      68.1       67     57.1      0.00      8.37      78.3     0.35      1015.0     2       359         3       328        8.85     267      -20.8
   06/03/2016 08:00      68.0      67.4       68     56.9      0.00      8.37      78.5     0.35      1015.0     1         4         2       357        8.86     267      -17.0
   06/03/2016 07:50      67.3      66.7       69     56.6      0.00      8.37      78.3     0.35      1015.0     1         7         2       339        8.86     267        3.2
   06/03/2016 07:40      66.8      66.1       71     56.6      0.00      8.37      78.4     0.35      1015.0     1        24         2       352        8.86     267      -22.2
   06/03/2016 07:30      66.1      65.3       72     56.3      0.00      8.37      78.4     0.35      1015.0     1       358         2       351        8.86     267       -7.0
   06/03/2016 07:20      65.3      64.5       73     56.1      0.00      8.37      78.6     0.35      1015.0     2         4         2        32        8.86     267      -31.0
   06/03/2016 07:10      64.5      63.7       75     55.9      0.00      8.37      78.6     0.35      1015.0     1         7         2        90        8.86     267      -31.7
   06/03/2016 07:00      63.7      62.4       77     55.7      0.00      8.37      78.8     0.35      1015.0     1       354         2       339        8.86     267      -31.4
   06/03/2016 06:50      62.5      61.8       78     55.2      0.00      8.37      78.3     0.35      1015.0     1       359         1       354        8.86     267      -38.9
   06/03/2016 06:40      61.6      60.5       80     54.9      0.00      8.37      78.3     0.35      1015.0     0        83         1        71        8.86     267      -39.1
   06/03/2016 06:30      60.5      59.8       83     54.9      0.00      8.37      78.5     0.35      1015.0     0       180         1       138        8.86     267      -42.1
   06/03/2016 06:20      59.9      59.4       85     55.0      0.00      8.37      78.8     0.35      1015.0     0       231         0        98        8.86     267      -40.6
   06/03/2016 06:10      59.4      58.9       86     54.9      0.00      8.37      78.5     0.35      1015.0     1       139         2       141        8.86     267      -40.3
   06/03/2016 06:00      59.4      58.9       85     54.6      0.00      8.37      79.0     0.35      1015.0     1       149         2       160        8.86     267      -49.2
   06/03/2016 05:50      59.2      58.8       85     54.6      0.00      8.37      78.7     0.35      1014.0     1        93         1       126        8.87     267      -55.4
   06/03/2016 05:40      59.1      58.8       85     54.4      0.00      8.37      78.8     0.35      1014.0     2       160         3       143        8.87     267      -59.8
   06/03/2016 05:30      59.7      58.8       84     54.3      0.00      8.37      78.8     0.35      1014.0     2       143         2       133        8.87     267      -60.8
   06/03/2016 05:20      59.7      59.2       84     54.6      0.00      8.37      78.8     0.35      1014.0     2       143         3       150        8.87     267      -60.3
   06/03/2016 05:10      59.6      59.1       85     54.6      0.00      8.37      78.8     0.35      1014.0     1       162         2       146        8.87     267      -61.4
   06/03/2016 05:00      59.5      59.2       83     54.4      0.00      8.37      79.1     0.35      1014.0     2       139         2       137        8.87     267      -63.4
   06/03/2016 04:50      59.8      59.7       83     54.7      0.00      8.37      78.8     0.35      1014.0     1       137         1       126        8.87     267      -62.5
   06/03/2016 04:40      60.2      59.9       82     54.4      0.00      8.37      78.8     0.35      1014.0     1       146         2       138        8.87     267      -64.4
   06/03/2016 04:30      60.4      60.0       81     54.4      0.00      8.37      79.0     0.35      1014.0     1       142         2       140        8.87     267      -64.7
   06/03/2016 04:20      60.4      60.2       81     54.6      0.00      8.37      79.0     0.35      1014.0     1       154         2       144        8.87     267      -64.9
   06/03/2016 04:10      60.9      60.4       80     54.7      0.00      8.37      79.2     0.35      1014.0     2       140         2       136        8.87     267      -65.3
   06/03/2016 04:00      60.9      60.6       81     54.8      0.00      8.37      79.3     0.35      1014.0     1       155         2       154        8.87     267      -64.7
   06/03/2016 03:50      61.3      60.8       80     54.9      0.00      8.37      79.5     0.35      1014.0     1       171         2       141        8.87     267      -64.7
   06/03/2016 03:40      61.4      61.2       80     55.0      0.00      8.37      79.4     0.35      1014.0     1       131         1       148        8.87     267      -65.3
   06/03/2016 03:30      61.7      61.5       79     54.9      0.00      8.37      79.4     0.35      1014.0     1       113         2       130        8.88     267      -66.3
   06/03/2016 03:20      62.1      61.5       77     54.7      0.00      8.37      79.3     0.35      1014.0     1       152         2       134        8.88     267      -66.7
   06/03/2016 03:10      62.5      61.9       77     54.6      0.00      8.37      79.8     0.35      1014.0     1       154         2       132        8.88     267      -66.8
   06/03/2016 03:00      62.7      62.5       77     55.4      0.00      8.37      79.6     0.35      1014.0     1       141         1       134        8.88     267      -66.9
   06/03/2016 02:50      62.8      62.5       77     55.1      0.00      8.37      79.5     0.35      1014.0     1       171         2       162        8.88     266      -67.4
   06/03/2016 02:40      63.1      62.7       76     55.1      0.00      8.37      79.4     0.35      1014.0     1       148         2       134        8.88     266      -68.7
   06/03/2016 02:30      63.8      63.1       74     55.0      0.00      8.37      79.6     0.35      1014.0     2       159         2       143        8.88     266      -69.9
   06/03/2016 02:20      63.9      62.8       75     55.1      0.00      8.37      79.9     0.35      1014.0     2       136         3       140        8.88     266      -70.3
   06/03/2016 02:10      63.3      62.8       74     54.6      0.00      8.37      79.8     0.35      1014.0     2       141         2       150        8.88     266      -70.3
   06/03/2016 02:00      64.3      63.8       73     55.1      0.00      8.37      79.3     0.35      1014.0     2       148         3       142        8.89     266      -70.3
   06/03/2016 01:50      64.5      64.3       72     55.1      0.00      8.37      79.5     0.35      1014.0     1       188         2       201        8.88     266      -70.2
   06/03/2016 01:40      64.9      64.8       70     54.9      0.00      8.37      79.6     0.35      1014.0     1       168         2       183        8.89     266      -70.4
   06/03/2016 01:30      65.4      64.8       70     55.1      0.00      8.37      79.5     0.35      1014.0     2       142         2       139        8.89     266      -71.7
   06/03/2016 01:20      65.4      64.8       69     54.8      0.00      8.37      79.6     0.35      1015.0     2       146         3       147        8.89     266      -71.5
   06/03/2016 01:10      65.8      65.4       68     54.9      0.00      8.37      79.5     0.35      1014.0     2       139         3       140        8.89     266      -71.6
   06/03/2016 01:00      66.3      65.7       66     54.3      0.00      8.37      79.8     0.35      1014.0     1       163         2       152        8.89     266      -71.9
   06/03/2016 00:50      66.8      66.2       65     54.3      0.00      8.37      79.6     0.35      1014.0     1       163         2       195        8.89     266      -71.5
   06/03/2016 00:40      66.9      66.3       65     54.4      0.00      8.37      79.7     0.35      1014.0     1       141         2       129        8.89     266      -71.5
   06/03/2016 00:30      67.4      66.7       64     54.7      0.00      8.37      79.7     0.35      1014.0     1       116         2       140        8.90     266      -72.7
   06/03/2016 00:20      68.3      67.2       63     54.8      0.00      8.37      79.6     0.35      1014.0     1       100         1       124        8.90     266      -73.3
   06/03/2016 00:10      68.6      68.2       62     55.0      0.00      8.37      79.6     0.35      1014.0     1        83         2       100        8.90     266      -74.1
   06/03/2016 00:00      68.9      68.6       62     55.0      0.00      8.37      79.6     0.35      1014.0     1        65         1        74        8.90     266      -75.2
   06/02/2016 23:50      69.3      68.9       61     55.0      0.00      8.37      80.0     0.35      1014.0     1        70         2        89        8.90     266      -75.7
   06/02/2016 23:40      70.3      69.3       60     55.2      0.00      8.37      80.1     0.35      1014.0     1        45         1        21        8.90     266      -75.9
   06/02/2016 23:30      70.8      70.3       59     55.4      0.00      8.37      79.5     0.35      1014.0     1        86         2        83        8.90     266      -77.6
   06/02/2016 23:20      71.2      70.9       58     55.5      0.00      8.37      79.6     0.35      1014.0     2        77         4        67        8.91     266      -78.4
   06/02/2016 23:10      71.4      71.3       57     55.4      0.00      8.37      79.6     0.35      1014.0     2        60         4        91        8.91     266      -78.6
   06/02/2016 23:00      71.5      71.2       57     55.4      0.00      8.37      79.6     0.35      1014.0     2        48         3        64        8.91     266      -78.3
   06/02/2016 22:50      71.9      71.4       56     55.3      0.00      8.37      79.8     0.35      1014.0     2        73         4        79        8.91     265      -78.3
   06/02/2016 22:40      72.0      71.8       56     55.3      0.00      8.37      79.7     0.35      1014.0     1        57         2        61        8.91     266      -79.6
   06/02/2016 22:30      72.6      72.1       55     55.1      0.00      8.37      80.0     0.35      1014.0     2        77         4       110        8.92     266      -80.1
   06/02/2016 22:20      73.0      72.6       54     55.1      0.00      8.37      79.6     0.35      1014.0     1        35         2        35        8.92     266      -80.8
   06/02/2016 22:10      73.3      73.0       53     55.3      0.00      8.37      79.6     0.35      1014.0     1        56         2        76        8.92     265      -82.1
   06/02/2016 22:00      73.3      73.0       54     55.3      0.00      8.37      79.6     0.35      1014.0     2        31         4        78        8.92     265      -83.8
   06/02/2016 21:50      73.4      73.1       54     55.4      0.00      8.37      79.5     0.35      1013.0     3       105         5       106        8.92     265      -84.0
   06/02/2016 21:40      73.7      72.8       53     54.8      0.00      8.37      79.6     0.35      1013.0     2       101         3       103        8.93     265      -83.2
   06/02/2016 21:30      74.8      73.9       51     54.9      0.00      8.37      79.6     0.35      1013.0     1       105         2        86        8.93     265      -85.1
   06/02/2016 21:20      75.6      74.9       49     55.1      0.00      8.37      79.5     0.35      1013.0     2        91         2        85        8.93     265      -87.6
   06/02/2016 21:10      76.3      75.7       48     55.0      0.00      8.37      79.5     0.35      1013.0     1        73         2        72        8.93     265      -89.2
   06/02/2016 21:00      77.1      76.5       47     55.0      0.00      8.37      79.7     0.35      1013.0     1        65         3        77        8.94     265      -90.7
   06/02/2016 20:50      77.4      77.1       47     55.4      0.00      8.37      79.5     0.35      1013.0     2        61         3        79        8.94     265      -92.1
   06/02/2016 20:40      78.3      77.4       47     55.7      0.00      8.37      79.4     0.35      1013.0     2        86         3       104        8.94     265      -93.5
   06/02/2016 20:30      79.2      78.3       45     55.5      0.00      8.37      79.4     0.35      1013.0     3        75         4        77        8.94     265      -95.1
   06/02/2016 20:20      80.4      79.4       43     55.7      0.00      8.37      79.3     0.35      1012.0     2        80         3        86        8.95     265      -96.7
   06/02/2016 20:10      81.8      80.8       42     55.7      0.00      8.37      79.3     0.35      1012.0     2        66         3       100        8.95     265      -97.3
   06/02/2016 20:00      82.9      82.0       40     55.7      0.00      8.37      79.2     0.35      1012.0     3        51         4        80        8.96     264      -96.5
   06/02/2016 19:50      84.2      83.1       39     55.8      0.00      8.37      79.0     0.35      1012.0     3        47         5        65        8.96     264      -94.3
   06/02/2016 19:40      85.6      84.5       37     55.8      0.00      8.37      79.1     0.35      1012.0     2        57         3        63        8.96     265      -92.3
   06/02/2016 19:30      86.7      85.9       35     55.9      0.00      8.37      79.1     0.35      1012.0     3        37         4        17        8.96     265      -75.2
   06/02/2016 19:20      87.4      86.7       34     55.7      0.00      8.37      79.2     0.35      1012.0     2        53         4        77        8.97     264      -58.5
   06/02/2016 19:10      88.4      87.7       33     55.6      0.00      8.37      79.2     0.35      1012.0     3        34         4        26        8.97     264      -39.7
   06/02/2016 19:00      89.1      88.6       33     55.7      0.00      8.37      79.0     0.35      1012.0     2        40         4        14        8.98     264      -20.1
   06/02/2016 18:50      89.9      89.1       32     55.5      0.00      8.37      79.0     0.35      1011.0     3        31         5        35        8.98     264        1.5
   06/02/2016 18:40      90.3      89.7       31     55.4      0.00      8.37      78.8     0.35      1011.0     3        46         5        63        8.98     264       22.2
   06/02/2016 18:30      92.0      90.3       30     55.1      0.00      8.37      78.9     0.35      1011.0     3        34         4        35        8.99     264       44.4
   06/02/2016 18:20      93.1      92.3       29     55.4      0.00      8.37      78.8     0.35      1011.0     3        28         4        29        8.99     264       66.0
   06/02/2016 18:10      93.4      92.8       28     55.3      0.00      8.37      78.7     0.35      1011.0     3        34         4        39        8.99     264       89.3
   06/02/2016 18:00      94.4      93.4       28     55.3      0.00      8.37      78.5     0.35      1011.0     3        41         5        44        9.00     264      112.1
   06/02/2016 17:50      94.8      94.4       27     55.6      0.00      8.37      78.6     0.34      1011.0     3        38         5        23        9.00     265      136.9
   06/02/2016 17:40      94.7      94.1       27     55.6      0.00      8.37      78.5     0.34      1011.0     3        38         4        14        9.01     264      160.4
   06/02/2016 17:30      94.9      94.3       27     55.8      0.00      8.37      78.3     0.34      1011.0     4        54         7        69        9.01     264      185.2
   06/02/2016 17:20      95.7      94.9       27     56.1      0.00      8.37      78.3     0.34      1011.0     3        44         5        75        9.02     264      206.8
   06/02/2016 17:10      96.7      95.8       27     56.4      0.00      8.37      78.3     0.34      1011.0     3        50         5        36        9.02     264      228.7
   06/02/2016 17:00      96.4      95.5       27     56.4      0.00      8.37      78.3     0.34      1011.0     4        52         6        69        9.02     264      248.8
   06/02/2016 16:50      96.7      96.1       27     56.9      0.00      8.37      78.1     0.34      1011.0     3        34         4        34        9.03     264      268.9
   06/02/2016 16:40      97.2      96.2       27     57.1      0.00      8.37      78.0     0.34      1011.0     3        39         5        79        9.03     264      290.2
   06/02/2016 16:30      98.0      96.2       27     57.5      0.00      8.37      78.0     0.34      1011.0     4        38         4        42        9.04     264      310.3
   06/02/2016 16:20      98.0      96.9       27     58.0      0.00      8.37      77.7     0.34      1012.0     3        36         5        28        9.04     264      331.0
   06/02/2016 16:10      97.3      96.3       27     57.6      0.00      8.37      77.8     0.34      1012.0     3        66         6        37        9.05     264      353.9
   06/02/2016 16:00      97.0      96.5       28     57.9      0.00      8.37      77.6     0.34      1012.0     4        53         6        73        9.05     264      372.7
   06/02/2016 15:50      96.6      95.7       28     58.2      0.00      8.37      77.7     0.34      1012.0     3        34         5        29        9.06     264      389.2
   06/02/2016 15:40      96.1      95.1       29     58.3      0.00      8.37      77.6     0.34      1012.0     4        34         6        29        9.06     264      410.2
   06/02/2016 15:30      95.4      94.9       29     58.2      0.00      8.37      77.5     0.34      1012.0     4        53         6        92        9.06     264      426.7
   06/02/2016 15:20      95.7      95.1       29     58.4      0.00      8.37      77.3     0.34      1012.0     4        70         5        66        9.07     265      441.4
   06/02/2016 15:10      95.8      94.7       30     58.7      0.00      8.37      77.3     0.34      1012.0     5        49         8        72        9.07     265      453.9
   06/02/2016 15:00      95.5      94.8       30     59.1      0.00      8.37      77.3     0.34      1012.0     4        33         6        80        9.07     265      466.6
   06/02/2016 14:50      94.9      93.8       31     59.2      0.00      8.37      77.3     0.34      1012.0     4        74         6        87        9.08     264      481.8
   06/02/2016 14:40      95.1      94.2       31     59.1      0.00      8.37      77.2     0.34      1012.0     4        52         5        49        9.09     265      487.9
   06/02/2016 14:30      95.3      94.1       31     59.2      0.00      8.37      77.1     0.34      1012.0     4        42         5        57        9.09     265      499.6
   06/02/2016 14:20      94.6      93.4       31     59.3      0.00      8.37      76.7     0.34      1013.0     4        49         5        48        9.09     265      511.0
   06/02/2016 14:10      94.1      93.0       32     59.3      0.00      8.37      76.9     0.34      1013.0     4        50         6        69        9.09     265      520.9
   06/02/2016 14:00      94.1      93.1       32     59.3      0.00      8.37      76.9     0.34      1013.0     4        73         5        31        9.10     266      528.2
   06/02/2016 13:50      93.7      92.8       32     59.3      0.00      8.37      76.9     0.34      1013.0     4        28         5        33        9.10     266      533.5
   06/02/2016 13:40      93.1      91.9       33     59.2      0.00      8.37      76.7     0.34      1013.0     4        56         5        83        9.10     266      541.3
   06/02/2016 13:30      92.4      90.9       34     59.2      0.00      8.37      76.7     0.34      1013.0     5        75         7        71        9.10     266      547.3
   06/02/2016 13:20      92.8      92.0       33     59.3      0.00      8.37      76.6     0.34      1013.0     4        71         7        98        9.11     266      548.4
   06/02/2016 13:10      92.7      91.6       34     59.4      0.00      8.37      76.6     0.34      1013.0     2        35         3        58        9.11     266      551.0
   06/02/2016 13:00      91.8      89.9       35     59.4      0.00      8.37      76.7     0.34      1013.0     4        34         6        66        9.11     267      556.5
   06/02/2016 12:50      90.2      89.3       36     59.4      0.00      8.37      76.5     0.34      1013.0     3        56         5        79        9.11     266      559.2
   06/02/2016 12:40      89.8      89.5       36     59.6      0.00      8.37      76.5     0.34      1013.0     3        51         4        78        9.11     266      559.0
   06/02/2016 12:30      89.6      88.6       37     59.7      0.00      8.37      76.5     0.34      1014.0     3        68         4       126        9.11     266      560.2
   06/02/2016 12:20      89.1      88.0       38     59.9      0.00      8.37      76.3     0.34      1014.0     3        33         5        51        9.11     266      558.6
   06/02/2016 12:10      88.0      86.7       40     60.0      0.00      8.37      76.3     0.34      1014.0     3        70         4        94        9.11     266      557.4
   06/02/2016 12:00      87.0      85.9       41     60.1      0.00      8.37      76.3     0.34      1014.0     4        51         8        73        9.11     266      552.8
   06/02/2016 11:50      86.1      85.6       42     60.2      0.00      8.37      76.4     0.34      1014.0     3        38         5        65        9.11     267      548.2
   06/02/2016 11:40      85.6      84.8       43     60.4      0.00      8.37      76.6     0.34      1014.0     3        19         5        33        9.11     267      543.4
   06/02/2016 11:30      84.6      84.0       44     60.2      0.00      8.37      76.4     0.34      1014.0     4        30         6        52        9.12     267      537.3
   06/02/2016 11:20      84.1      82.5       45     59.8      0.00      8.37      76.3     0.34      1014.0     3        60         5        27        9.12     267      529.1
   06/02/2016 11:10      83.0      82.0       46     59.8      0.00      8.37      76.3     0.34      1014.0     4        47         6        23        9.12     267      519.8
   06/02/2016 11:00      81.9      81.3       48     60.0      0.00      8.37      76.0     0.34      1014.0     4        38         5        23        9.12     268      505.9
   06/02/2016 10:50      81.6      80.5       48     59.7      0.00      8.37      76.4     0.34      1014.0     3        35         5         9        9.12     268      494.4
   06/02/2016 10:40      81.2      79.5       49     59.5      0.00      8.37      76.5     0.34      1014.0     3        23         4        33        9.12     269      488.1
   06/02/2016 10:30      79.6      78.7       51     59.4      0.00      8.37      76.7     0.34      1014.0     3        12         4        23        9.12     268      475.6
   06/02/2016 10:20      79.2      76.8       53     59.4      0.00      8.37      76.6     0.34      1014.0     2        58         3        62        9.12     268      456.5
   06/02/2016 10:10      77.2      76.0       55     59.1      0.00      8.37      76.4     0.34      1014.0     3        27         4        35        9.12     268      450.1
   06/02/2016 10:00      76.0      75.3       56     58.6      0.00      8.37      76.1     0.34      1014.0     3       357         4       327        9.12     268      432.1
   06/02/2016 09:50      75.5      74.7       56     58.4      0.00      8.37      76.8     0.34      1014.0     2        29         3         5        9.12     268      417.2
   06/02/2016 09:40      74.9      73.1       58     58.3      0.00      8.37      76.4     0.35      1014.0     1        82         2       144        9.12     268      396.5
   06/02/2016 09:30      72.7      72.3       61     58.1      0.00      8.37      76.7     0.35      1014.0     2       350         3         3        9.12     269      371.2
   06/02/2016 09:20      72.5      69.6       62     58.0      0.00      8.37      76.7     0.35      1014.0     1        46         3        63        9.12     268      359.6
   06/02/2016 09:10      69.6      68.4       67     57.5      0.00      8.37      76.7     0.35      1014.0     2       317         3       329        9.12     268      344.7
   06/02/2016 09:00      68.9      67.3       69     57.5      0.00      8.37      76.2     0.35      1014.0     1       324         3       320        9.12     268      333.5
   06/02/2016 08:50      67.3      65.7       73     57.5      0.00      8.37      76.6     0.35      1014.0     2         3         3         1        9.12     268      336.3
   06/02/2016 08:40      65.7      65.2       75     57.5      0.00      8.37      76.7     0.35      1014.0     1       343         3         9        9.13     268      175.8
   06/02/2016 08:30      65.1      64.2       77     57.4      0.00      8.37      76.8     0.35      1014.0     2       348         4       350        9.13     269       13.3
   06/02/2016 08:20      64.3      63.5       79     57.2      0.00      8.37      76.5     0.35      1014.0     1       329         3         1        9.13     268        6.5
   06/02/2016 08:10      63.8      62.9       80     57.2      0.00      8.37      76.6     0.35      1014.0     2       342         4         8        9.13     268        9.1
   06/02/2016 08:00      62.9      62.3       82     57.0      0.00      8.37      76.6     0.35      1014.0     1       158         4       332        9.13     268       12.6
   06/02/2016 07:50      62.3      61.8       83     56.8      0.00      8.37      76.4     0.35      1014.0     2       331         3       327        9.13     268       26.8
   06/02/2016 07:40      62.1      61.4       84     56.8      0.00      8.37      76.9     0.35      1014.0     1       334         3       317        9.13     268       -0.7
   06/02/2016 07:30      61.4      60.9       86     56.7      0.00      8.37      76.7     0.35      1014.0     2       264         2       281        9.13     268        6.2
   06/02/2016 07:20      60.9      60.2       87     56.7      0.00      8.37      77.2     0.35      1014.0     1       268         2       264        9.13     268       -3.1
   06/02/2016 07:10      60.4      60.1       88     56.8      0.00      8.37      76.7     0.35      1014.0     1       218         2       259        9.13     268        9.8
   06/02/2016 07:00      60.1      59.5       90     56.8      0.00      8.37      76.5     0.35      1014.0     2       155         2       177        9.13     268       19.3
   06/02/2016 06:50      60.0      59.8       89     56.8      0.00      8.37      76.9     0.35      1014.0     2       216         3       183        9.13     268       14.4
   06/02/2016 06:40      60.0      59.9       89     56.8      0.00      8.37      76.8     0.35      1014.0     3       228         3       240        9.13     268        2.9
   06/02/2016 06:30      60.4      60.0       89     56.9      0.00      8.37      76.6     0.35      1014.0     2       204         3       229        9.13     268       -0.9
   06/02/2016 06:20      60.4      60.2       89     57.0      0.00      8.37      77.0     0.35      1014.0     2       238         4       237        9.13     268      -12.3
   06/02/2016 06:10      60.6      60.2       88     56.9      0.00      8.37      77.1     0.35      1014.0     2       224         3       220        9.13     268      -19.5
   06/02/2016 06:00      60.5      60.3       88     56.9      0.00      8.37      77.0     0.35      1014.0     3       256         4       294        9.13     268      -16.3
   06/02/2016 05:50      60.7      60.5       88     57.0      0.00      8.37      77.2     0.35      1014.0     2       234         4       230        9.13     268      -27.4
   06/02/2016 05:40      60.6      60.3       88     57.0      0.00      8.37      76.9     0.35      1014.0     2       189         4       241        9.13     268      -22.6
   06/02/2016 05:30      60.6      60.4       88     57.0      0.00      8.37      77.1     0.35      1013.0     1       208         3       163        9.13     268      -43.7
   06/02/2016 05:20      60.5      60.3       88     56.9      0.00      8.37      77.0     0.35      1014.0     2       181         3       199        9.13     268      -29.9
   06/02/2016 05:10      60.4      60.2       89     56.9      0.00      8.37      77.4     0.35      1014.0     1       172         3       163        9.13     268      -32.8
   06/02/2016 05:00      60.5      60.0       89     57.0      0.00      8.37      77.2     0.35      1014.0     1       161         2       163        9.13     268      -27.8
   06/02/2016 04:50      60.3      60.1       89     57.0      0.00      8.37      77.2     0.35      1014.0     2       190         3       191        9.13     268      -25.6
   06/02/2016 04:40      60.5      60.3       88     57.0      0.00      8.37      77.4     0.35      1014.0     1       189         2       176        9.13     268      -21.2
   06/02/2016 04:30      60.6      60.2       88     57.0      0.00      8.37      77.4     0.35      1014.0     1       188         1       191        9.13     268      -21.6
   06/02/2016 04:20      60.6      60.4       88     57.0      0.00      8.37      77.3     0.35      1014.0     1       141         2       155        9.13     268      -16.3
   06/02/2016 04:10      60.5      60.2       89     57.0      0.00      8.37      77.4     0.35      1014.0     1       134         2        97        9.13     268      -15.2
   06/02/2016 04:00      60.4      60.2       89     57.0      0.00      8.37      77.3     0.35      1014.0     2       133         2       131        9.13     268      -14.5
   06/02/2016 03:50      60.4      60.1       89     57.0      0.00      8.37      77.1     0.35      1014.0     1       106         3       110        9.13     268      -14.5
   06/02/2016 03:40      60.6      60.1       89     57.0      0.00      8.37      77.5     0.35      1014.0     2       185         3       224        9.14     268      -14.4
   06/02/2016 03:30      60.3      60.0       89     57.0      0.00      8.37      77.1     0.35      1014.0     2       107         2       105        9.14     268      -14.3
   06/02/2016 03:20      60.3      60.1       89     57.1      0.00      8.37      77.2     0.35      1014.0     1        71         2       125        9.14     268      -14.2
   06/02/2016 03:10      60.1      59.9       90     57.0      0.00      8.37      77.3     0.35      1014.0     1       126         2       115        9.14     268      -13.9
   06/02/2016 03:00      60.0      59.6       90     57.0      0.00      8.37      77.1     0.35      1014.0     2       143         3       140        9.14     268      -13.8
   06/02/2016 02:50      59.7      59.4       91     56.9      0.00      8.37      77.4     0.35      1014.0     2       127         3       140        9.14     268      -13.7
   06/02/2016 02:40      59.7      59.4       91     56.9      0.00      8.37      77.1     0.35      1014.0     3       111         4       110        9.14     268      -13.5
   06/02/2016 02:30      59.7      59.4       91     56.9      0.00      8.37      77.5     0.35      1014.0     2       108         3       116        9.14     268      -13.7
   06/02/2016 02:20      59.7      59.4       91     56.8      0.00      8.37      77.8     0.35      1014.0     2        85         3       125        9.14     268      -13.6
   06/02/2016 02:10      59.6      59.4       91     56.8      0.00      8.37      77.6     0.35      1014.0     2        90         3        85        9.14     268      -13.6
   06/02/2016 02:00      59.7      59.4       91     56.8      0.00      8.37      77.7     0.35      1014.0     2        78         3        77        9.14     268      -13.6
   06/02/2016 01:50      59.7      59.4       90     56.8      0.00      8.37      77.6     0.35      1014.0     3        73         4        71        9.14     267      -13.5
   06/02/2016 01:40      59.7      59.5       90     56.8      0.00      8.37      77.8     0.35      1014.0     2        75         4        86        9.14     267      -14.2
   06/02/2016 01:30      59.7      59.4       90     56.7      0.00      8.37      77.7     0.35      1014.0     2        84         4        98        9.14     267      -14.2
   06/02/2016 01:20      59.9      59.5       90     56.7      0.00      8.37      77.6     0.35      1014.0     3        71         4        70        9.15     267      -15.8
   06/02/2016 01:10      59.9      59.5       90     56.6      0.00      8.37      77.7     0.35      1014.0     3        73         4        73        9.15     267      -17.4
   06/02/2016 01:00      60.0      59.6       89     56.7      0.00      8.37      77.8     0.35      1014.0     2        37         3        74        9.15     267      -18.8
   06/02/2016 00:50      59.8      59.6       90     56.6      0.00      8.37      77.8     0.35      1014.0     2        46         6        80        9.15     267      -21.0
   06/02/2016 00:40      59.7      59.5       89     56.5      0.00      8.37      77.5     0.35      1014.0     2        41         3        26        9.15     267      -38.9
   06/02/2016 00:30      59.9      59.5       88     56.2      0.00      8.37      77.7     0.35      1014.0     2        54         4        66        9.15     267      -61.8
   06/02/2016 00:20      60.3      59.9       87     56.1      0.00      8.37      77.9     0.35      1014.0     2        52         4        67        9.15     267      -63.5
   06/02/2016 00:10      60.5      60.3       86     56.1      0.00      8.37      77.8     0.35      1014.0     2        61         4        65        9.15     267      -64.0
   06/02/2016 00:00      60.9      60.5       85     56.0      0.00      8.37      77.8     0.35      1014.0     2        62         3        75        9.15     267      -64.5
   06/01/2016 23:50      61.1      60.9       84     56.1      0.00      8.37      77.7     0.35      1014.0     2        55         3        67        9.15     267      -65.3
   06/01/2016 23:40      61.2      61.0       83     56.0      0.00      8.37      77.9     0.35      1014.0     1        55         2        64        9.15     267      -65.7
   06/01/2016 23:30      61.6      61.1       83     56.0      0.00      8.37      77.9     0.35      1014.0     1        83         2        75        9.16     267      -66.2
   06/01/2016 23:20      61.8      61.5       82     56.0      0.00      8.37      77.9     0.35      1014.0     1        62         2        30        9.16     267      -67.1
   06/01/2016 23:10      62.0      61.7       82     56.1      0.00      8.37      78.1     0.35      1014.0     1        59         2        52        9.16     267      -67.4
   06/01/2016 23:00      62.2      62.0       81     56.2      0.00      8.37      78.0     0.35      1014.0     2        60         3        69        9.16     267      -67.6
   06/01/2016 22:50      62.6      62.2       80     56.2      0.00      8.37      77.8     0.35      1014.0     1        60         2        76        9.16     267      -68.2
   06/01/2016 22:40      62.8      62.6       80     56.3      0.00      8.37      78.2     0.35      1014.0     2        41         3        32        9.16     267      -68.6
   06/01/2016 22:30      63.0      62.8       79     56.3      0.00      8.37      77.6     0.35      1014.0     1        45         2        36        9.16     267      -69.0
   06/01/2016 22:20      63.2      62.9       79     56.4      0.00      8.37      77.7     0.35      1014.0     2        62         3        78        9.16     267      -69.3
   06/01/2016 22:10      63.5      63.1       78     56.4      0.00      8.37      77.8     0.35      1014.0     3        78         5        77        9.17     267      -69.6
   06/01/2016 22:00      64.0      63.5       77     56.4      0.00      8.37      78.0     0.35      1014.0     3        81         4        62        9.17     267      -70.0
   06/01/2016 21:50      64.5      64.2       76     56.5      0.00      8.37      77.9     0.35      1014.0     3        79         4        76        9.17     267      -70.5
   06/01/2016 21:40      65.0      64.7       74     56.5      0.00      8.37      77.7     0.35      1013.0     2        65         4        72        9.17     267      -71.9
   06/01/2016 21:30      65.4      65.1       73     56.5      0.00      8.37      77.9     0.35      1013.0     2        54         5        58        9.17     267      -73.2
   06/01/2016 21:20      65.6      65.3       73     56.5      0.00      8.37      77.8     0.35      1013.0     2        46         3        77        9.17     266      -75.1
   06/01/2016 21:10      66.3      65.5       72     56.5      0.00      8.37      78.2     0.35      1013.0     2        62         4        75        9.18     266      -76.5
   06/01/2016 21:00      66.7      66.2       70     56.5      0.00      8.37      77.7     0.35      1013.0     2        32         3        40        9.18     266      -78.1
   06/01/2016 20:50      67.4      66.6       69     56.4      0.00      8.37      77.8     0.35      1013.0     2        43         4        58        9.18     266      -79.1
   06/01/2016 20:40      67.9      67.4       67     56.4      0.00      8.37      77.6     0.35      1013.0     2        45         3        38        9.18     266      -79.4
   06/01/2016 20:30      68.4      67.9       66     56.5      0.00      8.37      77.9     0.35      1013.0     2        56         4        67        9.19     266      -80.6
   06/01/2016 20:20      68.9      68.6       65     56.6      0.00      8.37      78.0     0.35      1013.0     2        55         3        37        9.19     266      -81.2
   06/01/2016 20:10      69.7      68.9       64     56.7      0.00      8.37      77.8     0.35      1012.0     3        68         5        63        9.19     266      -81.0
   06/01/2016 20:00      70.3      69.8       63     56.8      0.00      8.37      78.2     0.35      1012.0     2        52         4        61        9.19     266      -79.8
   06/01/2016 19:50      71.0      70.3       61     56.8      0.00      8.37      77.5     0.35      1012.0     2        55         4        76        9.20     266      -77.3
   06/01/2016 19:40      71.8      71.1       60     57.0      0.00      8.37      77.6     0.35      1012.0     3        29         5        34        9.20     266      -72.8
   06/01/2016 19:30      72.0      71.6       59     57.0      0.00      8.37      77.5     0.35      1012.0     3        47         4        62        9.20     266      -59.2
   06/01/2016 19:20      72.5      72.1       59     57.1      0.00      8.37      77.5     0.35      1012.0     3        48         5        70        9.21     266      -44.9
   06/01/2016 19:10      73.8      72.7       57     57.3      0.00      8.37      77.6     0.35      1012.0     4        40         6        76        9.21     266      -26.3
   06/01/2016 19:00      74.5      73.9       56     57.4      0.00      8.37      77.5     0.35      1011.0     4        39         5        38        9.21     265       -7.4
   06/01/2016 18:50      75.3      74.6       55     57.5      0.00      8.37      77.2     0.35      1011.0     4        34         6        32        9.22     265       13.4
   06/01/2016 18:40      76.0      75.2       54     57.6      0.00      8.37      77.4     0.35      1011.0     4        54         7        77        9.22     265       33.8
   06/01/2016 18:30      76.5      76.2       52     57.7      0.00      8.37      77.3     0.35      1011.0     4        40         5        56        9.22     265       55.7
   06/01/2016 18:20      76.8      76.3       52     57.6      0.00      8.37      77.1     0.35      1011.0     3        49         6        71        9.23     265       77.8
   06/01/2016 18:10      77.3      76.7       51     57.8      0.00      8.37      77.0     0.35      1011.0     4        60         6        68        9.23     265      100.8
   06/01/2016 18:00      77.4      77.3       51     57.7      0.00      8.37      77.1     0.35      1011.0     3        55         5        79        9.23     266      124.4
   06/01/2016 17:50      78.4      77.6       50     57.9      0.00      8.37      77.0     0.35      1011.0     4        45         6        81        9.24     266      149.2
   06/01/2016 17:40      79.3      78.5       49     58.1      0.00      8.37      77.1     0.35      1011.0     4        29         6        30        9.24     265      172.6
   06/01/2016 17:30      78.9      78.5       49     58.0      0.00      8.37      76.9     0.35      1011.0     4        56         7        80        9.24     265      197.4
   06/01/2016 17:20      80.4      79.0       48     58.2      0.00      8.37      76.8     0.35      1011.0     4        63         5        61        9.25     265      219.3
   06/01/2016 17:10      80.5      79.9       47     58.4      0.00      8.37      76.9     0.35      1011.0     4        39         6        25        9.25     265      243.2
   06/01/2016 17:00      80.5      80.0       47     58.4      0.00      8.37      76.9     0.35      1011.0     4        45         6        64        9.25     265      264.8
   06/01/2016 16:50      81.2      80.6       46     58.5      0.00      8.37      76.9     0.35      1011.0     4        37         6        36        9.26     265      284.3
   06/01/2016 16:40      81.6      80.7       46     58.5      0.00      8.37      76.8     0.35      1011.0     3        48         5        58        9.26     265      305.2
   06/01/2016 16:30      81.8      80.9       46     58.5      0.00      8.37      76.5     0.35      1011.0     4        46         7        66        9.26     265      324.4
   06/01/2016 16:20      82.0      81.4       45     58.5      0.00      8.37      76.5     0.34      1011.0     4        44         6        74        9.26     265      347.6
   06/01/2016 16:10      81.9      81.1       46     58.5      0.00      8.37      76.4     0.34      1011.0     4        29         6         1        9.27     265      373.3
   06/01/2016 16:00      81.7      81.2       45     58.5      0.00      8.37      76.5     0.34      1011.0     4        48         6        68        9.27     265      375.5
   06/01/2016 15:50      82.0      81.5       45     58.5      0.00      8.37      76.3     0.34      1011.0     3        47         6        82        9.27     265      401.7
   06/01/2016 15:40      82.1      81.7       45     58.6      0.00      8.37      76.4     0.34      1011.0     5        31         7        47        9.28     265      417.1
   06/01/2016 15:30      82.6      81.8       45     58.6      0.00      8.37      76.4     0.34      1011.0     4        55         6        74        9.28     265      433.6
   06/01/2016 15:20      82.5      81.5       45     58.7      0.00      8.37      76.0     0.34      1011.0     4        24         6        28        9.28     265      445.1
   06/01/2016 15:10      82.8      81.9       45     58.7      0.00      8.37      76.1     0.34      1011.0     4        36         6         3        9.28     266      464.0
   06/01/2016 15:00      82.8      81.8       45     58.7      0.00      8.37      76.0     0.34      1011.0     4        27         6        67        9.29     265      472.2
   06/01/2016 14:50      81.9      81.3       46     58.6      0.00      8.37      75.9     0.34      1012.0     3        50         5        38        9.29     265      497.6
   06/01/2016 14:40      81.4      79.8       47     58.6      0.00      8.37      75.9     0.34      1012.0     3        28         7        35        9.29     265      435.7
   06/01/2016 14:30      80.5      79.7       48     58.5      0.00      8.37      75.9     0.34      1012.0     4        50         6        67        9.30     265      526.1
   06/01/2016 14:20      81.2      80.4       47     58.9      0.00      8.37      75.6     0.34      1012.0     4        47        11        76        9.30     265      527.9
   06/01/2016 14:10      80.9      79.7       48     58.9      0.00      8.37      75.7     0.34      1012.0     5        54         8        80        9.30     266      538.3
   06/01/2016 14:00      81.6      80.2       48     59.1      0.00      8.37      75.6     0.34      1012.0     4        46         7        50        9.30     266      548.7
   06/01/2016 13:50      80.9      79.5       48     59.1      0.00      8.37      75.6     0.34      1012.0     5        62         9        93        9.30     266      562.4
   06/01/2016 13:40      82.7      80.7       46     59.2      0.00      8.37      75.6     0.34      1012.0     4        45         7        74        9.30     266      509.9
   06/01/2016 13:30      81.2      80.0       47     58.7      0.00      8.37      75.7     0.34      1012.0     4        19         7       336        9.30     266      545.7
   06/01/2016 13:20      81.8      80.1       47     58.7      0.00      8.37      75.4     0.34      1012.0     4         7         6        25        9.30     266      550.0
   06/01/2016 13:10      80.8      79.2       48     58.7      0.00      8.37      75.7     0.34      1012.0     4         3         6         0        9.31     266      538.0
   06/01/2016 13:00      79.2      78.3       50     58.4      0.00      8.37      75.9     0.34      1012.0     3        12         5        36        9.31     267      572.4
   06/01/2016 12:50      78.6      76.1       52     58.3      0.00      8.37      75.5     0.34      1012.0     3        62         5        85        9.31     267      572.7
   06/01/2016 12:40      77.0      76.1       52     57.9      0.00      8.37      75.6     0.34      1012.0     2        47         6       219        9.31     267      566.8
   06/01/2016 12:30      76.8      75.6       53     57.9      0.00      8.37      75.4     0.34      1012.0     3         4         5       344        9.31     266      564.6
   06/01/2016 12:20      76.4      75.0       54     57.9      0.00      8.37      75.4     0.34      1012.0     2        15         4         7        9.31     266      565.8
   06/01/2016 12:10      75.6      74.4       56     58.0      0.00      8.37      75.4     0.34      1013.0     3        13         6       356        9.31     266      560.6
   06/01/2016 12:00      75.4      73.3       57     57.9      0.00      8.37      75.5     0.34      1013.0     3        31         4        26        9.31     267      556.7
   06/01/2016 11:50      73.9      73.4       58     57.8      0.00      8.37      75.5     0.34      1013.0     3        45         7        79        9.31     267      553.2
   06/01/2016 11:40      74.3      73.6       57     58.0      0.00      8.37      75.5     0.34      1013.0     3        38         5        22        9.31     267      546.5
   06/01/2016 11:30      73.7      72.3       59     57.7      0.00      8.37      75.5     0.34      1013.0     4        43         5        22        9.31     267      540.8
   06/01/2016 11:20      72.3      71.8       60     57.4      0.00      8.37      75.4     0.34      1013.0     3        38         4        57        9.31     267      530.9
   06/01/2016 11:10      72.1      70.3       62     57.4      0.00      8.37      75.8     0.34      1013.0     4        32         5         4        9.31     267      524.5
   06/01/2016 11:00      70.9      70.4       62     57.2      0.00      8.37      75.7     0.34      1013.0     3       359         3       324        9.31     267      512.9
   06/01/2016 10:50      70.3      69.4       64     57.1      0.00      8.37      75.6     0.34      1013.0     3        35         4        28        9.31     268      497.2
   06/01/2016 10:40      69.8      68.6       65     57.0      0.00      8.37      75.3     0.34      1013.0     3         1         5        96        9.31     268      497.2
   06/01/2016 10:30      68.2      66.6       69     56.9      0.00      8.37      75.4     0.34      1013.0     3        21         4       338        9.31     269      487.5
   06/01/2016 10:20      66.8      66.1       71     56.7      0.00      8.37      75.8     0.35      1013.0     4        78         5        99        9.31     268      280.8
   06/01/2016 10:10      66.7      65.9       71     56.7      0.00      8.37      75.8     0.35      1013.0     2       247         5        99        9.31     268      431.1
   06/01/2016 10:00      65.8      65.0       73     56.6      0.00      8.37      75.7     0.35      1013.0     2        11         4       349        9.31     268      257.9
   06/01/2016 09:50      65.0      64.4       75     56.5      0.00      8.37      75.6     0.35      1013.0     3        32         4       346        9.31     268      216.8
   06/01/2016 09:40      65.0      63.8       75     56.5      0.00      8.37      75.4     0.35      1013.0     2        50         4        71        9.31     268      196.3
   06/01/2016 09:30      63.9      63.4       77     56.4      0.00      8.37      75.6     0.35      1013.0     2       120         3       140        9.31     268      174.6
   06/01/2016 09:20      63.5      63.0       78     56.4      0.00      8.37      75.6     0.35      1013.0     2        28         4        35        9.31     268      152.5
   06/01/2016 09:10      63.4      62.5       79     56.4      0.00      8.37      75.6     0.35      1013.0     2        72         3        33        9.31     268      126.0
   06/01/2016 09:00      63.0      62.2       79     56.3      0.00      8.37      76.0     0.35      1013.0     2        36         3        34        9.32     268      111.5
   06/01/2016 08:50      62.4      62.1       80     56.1      0.00      8.37      75.9     0.35      1013.0     2       157         3        89        9.32     268       98.3
   06/01/2016 08:40      62.4      62.3       80     56.2      0.00      8.37      75.7     0.35      1013.0     2        30         4         7        9.32     268       96.8
   06/01/2016 08:30      62.4      61.6       82     56.3      0.00      8.37      75.6     0.35      1013.0     2        29         2        20        9.32     268       71.5
   06/01/2016 08:20      61.7      61.5       82     56.1      0.00      8.37      75.9     0.35      1013.0     2        70         4       105        9.32     268       56.1
   06/01/2016 08:10      62.1      61.8       81     56.2      0.00      8.37      75.9     0.35      1013.0     3        61         5        79        9.32     268       49.0
   06/01/2016 08:00      62.1      61.8       81     56.1      0.00      8.37      75.7     0.35      1013.0     2        95         3        79        9.32     268       45.2
   06/01/2016 07:50      62.1      61.2       82     56.1      0.00      8.37      76.0     0.35      1013.0     1        37         3        46        9.32     269       38.5
   06/01/2016 07:40      61.3      60.9       84     56.2      0.00      8.37      75.7     0.35      1012.0     3       109         5       136        9.32     268       32.7
   06/01/2016 07:30      61.2      61.0       84     56.2      0.00      8.37      76.0     0.35      1012.0     3       125         5       122        9.32     268       27.1
   06/01/2016 07:20      61.2      60.9       84     56.2      0.00      8.37      76.0     0.35      1012.0     2       130         2       127        9.32     268       22.5
   06/01/2016 07:10      61.1      60.9       84     56.2      0.00      8.37      76.3     0.35      1012.0     2       119         4       128        9.32     268       18.4
   06/01/2016 07:00      61.0      60.9       85     56.3      0.00      8.37      76.2     0.35      1012.0     2        91         4       100        9.32     268       12.8
   06/01/2016 06:50      61.2      60.8       85     56.3      0.00      8.37      76.1     0.35      1012.0     1        68         3        74        9.33     268        5.0
   06/01/2016 06:40      61.0      60.6       85     56.3      0.00      8.37      75.7     0.35      1012.0     2        89         4        88        9.32     268        0.0
   06/01/2016 06:30      60.8      60.5       85     56.3      0.00      8.37      76.0     0.35      1012.0     1       109         2       129        9.32     268       -2.7
   06/01/2016 06:20      60.6      60.5       86     56.2      0.00      8.37      76.2     0.35      1012.0     2        89         3        67        9.33     268       -6.8
   06/01/2016 06:10      60.8      60.4       86     56.3      0.00      8.37      75.8     0.35      1012.0     1        92         2       111        9.32     268       -9.4
   06/01/2016 06:00      60.6      59.9       86     56.2      0.00      8.37      75.9     0.35      1012.0     1       102         2       127        9.32     268      -11.2
   06/01/2016 05:50      60.0      59.8       87     56.1      0.00      8.37      76.1     0.35      1012.0     3       172         3       180        9.33     268      -12.4
   06/01/2016 05:40      60.3      60.0       87     56.2      0.00      8.37      75.9     0.35      1012.0     3       165         4       193        9.33     268      -13.4
   06/01/2016 05:30      60.5      60.1       87     56.3      0.00      8.37      76.3     0.35      1012.0     3       137         4       150        9.33     268      -13.7
   06/01/2016 05:20      60.4      60.2       87     56.3      0.00      8.37      76.1     0.35      1011.0     2       153         3       146        9.33     268      -14.2
   06/01/2016 05:10      60.4      60.1       87     56.3      0.00      8.37      76.3     0.35      1011.0     2       147         3       179        9.33     268      -13.9
   06/01/2016 05:00      60.3      60.0       87     56.3      0.00      8.37      75.7     0.35      1011.0     2       144         3       107        9.33     268      -14.0
   06/01/2016 04:50      60.3      60.0       87     56.3      0.00      8.37      76.0     0.35      1011.0     2       141         4       126        9.33     268      -14.1
   06/01/2016 04:40      60.5      60.0       87     56.2      0.00      8.37      75.9     0.35      1011.0     1       159         3       109        9.33     268      -14.3
   06/01/2016 04:30      60.1      59.9       87     56.2      0.00      8.37      76.6     0.35      1011.0     2       127         3       148        9.33     268      -14.1
   06/01/2016 04:20      60.3      60.1       87     56.2      0.00      8.37      76.3     0.35      1011.0     2       107         3        76        9.33     268      -14.2
   06/01/2016 04:10      60.4      60.1       87     56.3      0.00      8.37      76.4     0.35      1011.0     2       123         3       129        9.33     268      -14.4
   06/01/2016 04:00      60.5      60.1       86     56.2      0.00      8.37      76.3     0.35      1011.0     1       144         3       116        9.33     268      -14.5
   06/01/2016 03:50      60.1      59.8       87     56.1      0.00      8.37      76.0     0.35      1011.0     2       175         3       180        9.33     268      -14.5
   06/01/2016 03:40      60.1      59.9       87     56.2      0.00      8.37      76.2     0.35      1012.0     2       134         3       156        9.33     268      -14.3
   06/01/2016 03:30      60.1      59.9       87     56.1      0.00      8.37      76.3     0.35      1012.0     2       122         3       110        9.33     268      -14.6
   06/01/2016 03:20      60.0      59.5       88     56.0      0.00      8.37      76.4     0.35      1012.0     2       133         3       118        9.33     268      -14.5
   06/01/2016 03:10      59.6      59.4       88     55.9      0.00      8.37      76.4     0.35      1012.0     2       159         3       131        9.33     268      -14.6
   06/01/2016 03:00      59.5      59.3       88     55.8      0.00      8.37      76.5     0.35      1012.0     2       173         2       134        9.33     268      -14.7
   06/01/2016 02:50      59.8      59.4       88     55.9      0.00      8.37      76.7     0.35      1012.0     2       145         3       154        9.33     267      -14.9
   06/01/2016 02:40      59.6      59.4       88     56.0      0.00      8.37      76.6     0.35      1012.0     3       131         4       128        9.33     268      -14.7
   06/01/2016 02:30      59.5      59.4       88     56.0      0.00      8.37      76.6     0.35      1012.0     3       129         4       141        9.33     268      -14.9
   06/01/2016 02:20      59.8      59.4       87     55.8      0.00      8.37      76.6     0.35      1012.0     3       165         4       164        9.34     268      -15.2
   06/01/2016 02:10      60.1      59.8       87     55.9      0.00      8.37      76.8     0.35      1012.0     3       134         4       121        9.34     267      -15.2
   06/01/2016 02:00      60.1      59.8       87     56.1      0.00      8.37      76.5     0.35      1012.0     3       130         4       129        9.34     268      -15.0
   06/01/2016 01:50      60.5      60.1       87     56.3      0.00      8.37      76.3     0.35      1012.0     2       147         4       127        9.34     268      -15.4
   06/01/2016 01:40      60.5      60.3       86     56.3      0.00      8.37      76.6     0.35      1012.0     1        72         3       114        9.34     268      -15.6
   06/01/2016 01:30      60.5      60.1       86     56.3      0.00      8.37      77.2     0.35      1012.0     2        57         3        79        9.34     267      -15.4
   06/01/2016 01:20      60.2      60.0       87     56.2      0.00      8.37      76.8     0.35      1012.0     2        82         4       105        9.34     267      -15.2
   06/01/2016 01:10      60.5      60.0       87     56.2      0.00      8.37      76.9     0.35      1012.0     2        88         3        75        9.34     267      -15.4
   06/01/2016 01:00      60.5      60.3       86     56.2      0.00      8.37      76.7     0.35      1012.0     3        44         4        34        9.34     267      -15.8
   06/01/2016 00:50      60.5      60.1       86     56.2      0.00      8.37      76.1     0.35      1012.0     2        38         4        35        9.34     267      -15.8
   06/01/2016 00:40      60.4      60.0       86     56.1      0.00      8.37      76.5     0.35      1012.0     3        60         4       121        9.34     267      -15.6
   06/01/2016 00:30      60.5      60.1       86     56.2      0.00      8.37      76.5     0.35      1012.0     2        65         3        83        9.34     267      -15.6
   06/01/2016 00:20      60.3      59.7       87     56.1      0.00      8.37      76.5     0.35      1012.0     2        75         4        98        9.34     267      -15.4
   06/01/2016 00:10      59.9      59.7       87     56.1      0.00      8.37      76.7     0.35      1012.0     3        77         4        76        9.34     267      -15.3
   06/01/2016 00:00      60.0      59.5       88     56.1      0.00      8.37      76.9     0.35      1012.0     2        43         3        33        9.34     267      -15.3


<<Back to data home page